<?xml version="1.0" encoding="UTF-8" standalone="no" ?>
<gpx xmlns="http://www.topografix.com/GPX/1/1" xmlns:xsi="http://www.w3.org/2001/XMLSchema-instance" xsi:schemaLocation="http://www.topografix.com/GPX/1/1 http://www.topografix.com/GPX/1/1/gpx.xsd" version="1.1" creator="VisuGPX - https://www.visugpx.com">
  <metadata>
    <name>Soueix-Rogalle reconnaissance parcours ORSALHER 2025 avec Kiki, Roger &amp;amp; J.J.</name>
  </metadata>
  <trk>
    <name><![CDATA[Soueix-Rogalle reconnaissance parcours ORSALHER 2025 avec Kiki, Roger &amp; J.J._1]]></name>
    <trkseg>
      <trkpt lat="42.89387" lon="1.21175">
        <ele>478.4</ele>
        <time>2025-06-22T07:29:29Z</time>
      </trkpt>
      <trkpt lat="42.89388" lon="1.21172">
        <ele>478.4</ele>
        <time>2025-06-22T07:29:31Z</time>
      </trkpt>
      <trkpt lat="42.89388" lon="1.2117">
        <ele>478.4</ele>
        <time>2025-06-22T07:29:32Z</time>
      </trkpt>
      <trkpt lat="42.89388" lon="1.21168">
        <ele>478.6</ele>
        <time>2025-06-22T07:29:33Z</time>
      </trkpt>
      <trkpt lat="42.89388" lon="1.21166">
        <ele>478.6</ele>
        <time>2025-06-22T07:29:34Z</time>
      </trkpt>
      <trkpt lat="42.89386" lon="1.2116">
        <ele>478.6</ele>
        <time>2025-06-22T07:29:37Z</time>
      </trkpt>
      <trkpt lat="42.89383" lon="1.21154">
        <ele>478.6</ele>
        <time>2025-06-22T07:29:40Z</time>
      </trkpt>
      <trkpt lat="42.89371" lon="1.21148">
        <ele>478.6</ele>
        <time>2025-06-22T07:29:45Z</time>
      </trkpt>
      <trkpt lat="42.89369" lon="1.21146">
        <ele>478.6</ele>
        <time>2025-06-22T07:29:46Z</time>
      </trkpt>
      <trkpt lat="42.89353" lon="1.21134">
        <ele>478.6</ele>
        <time>2025-06-22T07:29:53Z</time>
      </trkpt>
      <trkpt lat="42.89343" lon="1.21126">
        <ele>479</ele>
        <time>2025-06-22T07:29:58Z</time>
      </trkpt>
      <trkpt lat="42.89341" lon="1.21125">
        <ele>479.4</ele>
        <time>2025-06-22T07:29:59Z</time>
      </trkpt>
      <trkpt lat="42.89339" lon="1.21123">
        <ele>479.8</ele>
        <time>2025-06-22T07:30:00Z</time>
      </trkpt>
      <trkpt lat="42.89337" lon="1.21122">
        <ele>480.2</ele>
        <time>2025-06-22T07:30:01Z</time>
      </trkpt>
      <trkpt lat="42.89335" lon="1.2112">
        <ele>480.6</ele>
        <time>2025-06-22T07:30:02Z</time>
      </trkpt>
      <trkpt lat="42.89329" lon="1.21111">
        <ele>480.6</ele>
        <time>2025-06-22T07:30:07Z</time>
      </trkpt>
      <trkpt lat="42.89327" lon="1.21095">
        <ele>480.6</ele>
        <time>2025-06-22T07:30:13Z</time>
      </trkpt>
      <trkpt lat="42.89326" lon="1.21089">
        <ele>481.4</ele>
        <time>2025-06-22T07:30:15Z</time>
      </trkpt>
      <trkpt lat="42.89325" lon="1.21086">
        <ele>481.8</ele>
        <time>2025-06-22T07:30:16Z</time>
      </trkpt>
      <trkpt lat="42.89324" lon="1.21082">
        <ele>482.2</ele>
        <time>2025-06-22T07:30:17Z</time>
      </trkpt>
      <trkpt lat="42.89324" lon="1.21079">
        <ele>482.6</ele>
        <time>2025-06-22T07:30:18Z</time>
      </trkpt>
      <trkpt lat="42.89321" lon="1.21066">
        <ele>482.6</ele>
        <time>2025-06-22T07:30:22Z</time>
      </trkpt>
      <trkpt lat="42.89317" lon="1.21055">
        <ele>482.6</ele>
        <time>2025-06-22T07:30:26Z</time>
      </trkpt>
      <trkpt lat="42.89314" lon="1.21053">
        <ele>483</ele>
        <time>2025-06-22T07:30:27Z</time>
      </trkpt>
      <trkpt lat="42.89311" lon="1.21052">
        <ele>483.4</ele>
        <time>2025-06-22T07:30:28Z</time>
      </trkpt>
      <trkpt lat="42.89309" lon="1.2105">
        <ele>483.8</ele>
        <time>2025-06-22T07:30:29Z</time>
      </trkpt>
      <trkpt lat="42.89307" lon="1.2105">
        <ele>484.2</ele>
        <time>2025-06-22T07:30:30Z</time>
      </trkpt>
      <trkpt lat="42.89305" lon="1.2105">
        <ele>484.6</ele>
        <time>2025-06-22T07:30:31Z</time>
      </trkpt>
      <trkpt lat="42.893" lon="1.21049">
        <ele>484.6</ele>
        <time>2025-06-22T07:30:33Z</time>
      </trkpt>
      <trkpt lat="42.89288" lon="1.21051">
        <ele>485</ele>
        <time>2025-06-22T07:30:39Z</time>
      </trkpt>
      <trkpt lat="42.89286" lon="1.21051">
        <ele>486</ele>
        <time>2025-06-22T07:30:40Z</time>
      </trkpt>
      <trkpt lat="42.89284" lon="1.21052">
        <ele>486.4</ele>
        <time>2025-06-22T07:30:41Z</time>
      </trkpt>
      <trkpt lat="42.89282" lon="1.21052">
        <ele>486.8</ele>
        <time>2025-06-22T07:30:42Z</time>
      </trkpt>
      <trkpt lat="42.89273" lon="1.21054">
        <ele>486.8</ele>
        <time>2025-06-22T07:30:46Z</time>
      </trkpt>
      <trkpt lat="42.89259" lon="1.21057">
        <ele>486.8</ele>
        <time>2025-06-22T07:30:53Z</time>
      </trkpt>
      <trkpt lat="42.89247" lon="1.21059">
        <ele>486.8</ele>
        <time>2025-06-22T07:31:00Z</time>
      </trkpt>
      <trkpt lat="42.89245" lon="1.21059">
        <ele>486.8</ele>
        <time>2025-06-22T07:31:01Z</time>
      </trkpt>
      <trkpt lat="42.89233" lon="1.21063">
        <ele>486.8</ele>
        <time>2025-06-22T07:31:07Z</time>
      </trkpt>
      <trkpt lat="42.89218" lon="1.21067">
        <ele>486.8</ele>
        <time>2025-06-22T07:31:13Z</time>
      </trkpt>
      <trkpt lat="42.89201" lon="1.21071">
        <ele>486.8</ele>
        <time>2025-06-22T07:31:20Z</time>
      </trkpt>
      <trkpt lat="42.89184" lon="1.21071">
        <ele>486.8</ele>
        <time>2025-06-22T07:31:28Z</time>
      </trkpt>
      <trkpt lat="42.89183" lon="1.21071">
        <ele>486.8</ele>
        <time>2025-06-22T07:31:32Z</time>
      </trkpt>
      <trkpt lat="42.8918" lon="1.21071">
        <ele>486.8</ele>
        <time>2025-06-22T07:31:39Z</time>
      </trkpt>
      <trkpt lat="42.89178" lon="1.21071">
        <ele>486.8</ele>
        <time>2025-06-22T07:31:40Z</time>
      </trkpt>
      <trkpt lat="42.89163" lon="1.21074">
        <ele>486.8</ele>
        <time>2025-06-22T07:31:47Z</time>
      </trkpt>
      <trkpt lat="42.89161" lon="1.21072">
        <ele>486.8</ele>
        <time>2025-06-22T07:31:49Z</time>
      </trkpt>
      <trkpt lat="42.89161" lon="1.21068">
        <ele>486.8</ele>
        <time>2025-06-22T07:31:52Z</time>
      </trkpt>
      <trkpt lat="42.89162" lon="1.21067">
        <ele>486.8</ele>
        <time>2025-06-22T07:31:53Z</time>
      </trkpt>
      <trkpt lat="42.89166" lon="1.21065">
        <ele>487.2</ele>
        <time>2025-06-22T07:31:55Z</time>
      </trkpt>
      <trkpt lat="42.89168" lon="1.21064">
        <ele>487.6</ele>
        <time>2025-06-22T07:31:56Z</time>
      </trkpt>
      <trkpt lat="42.8917" lon="1.21062">
        <ele>488</ele>
        <time>2025-06-22T07:31:57Z</time>
      </trkpt>
      <trkpt lat="42.89172" lon="1.2106">
        <ele>488.4</ele>
        <time>2025-06-22T07:31:58Z</time>
      </trkpt>
      <trkpt lat="42.89174" lon="1.21059">
        <ele>488.8</ele>
        <time>2025-06-22T07:31:59Z</time>
      </trkpt>
      <trkpt lat="42.8918" lon="1.21055">
        <ele>488.8</ele>
        <time>2025-06-22T07:32:03Z</time>
      </trkpt>
      <trkpt lat="42.8919" lon="1.21047">
        <ele>489.4</ele>
        <time>2025-06-22T07:32:10Z</time>
      </trkpt>
      <trkpt lat="42.89192" lon="1.21046">
        <ele>489.8</ele>
        <time>2025-06-22T07:32:11Z</time>
      </trkpt>
      <trkpt lat="42.89193" lon="1.21045">
        <ele>490.2</ele>
        <time>2025-06-22T07:32:12Z</time>
      </trkpt>
      <trkpt lat="42.89195" lon="1.21044">
        <ele>490.6</ele>
        <time>2025-06-22T07:32:13Z</time>
      </trkpt>
      <trkpt lat="42.89196" lon="1.21043">
        <ele>491</ele>
        <time>2025-06-22T07:32:14Z</time>
      </trkpt>
      <trkpt lat="42.89199" lon="1.21039">
        <ele>491</ele>
        <time>2025-06-22T07:32:17Z</time>
      </trkpt>
      <trkpt lat="42.89208" lon="1.21024">
        <ele>491</ele>
        <time>2025-06-22T07:32:25Z</time>
      </trkpt>
      <trkpt lat="42.89208" lon="1.21022">
        <ele>491.4</ele>
        <time>2025-06-22T07:32:26Z</time>
      </trkpt>
      <trkpt lat="42.89209" lon="1.2102">
        <ele>491.8</ele>
        <time>2025-06-22T07:32:27Z</time>
      </trkpt>
      <trkpt lat="42.8921" lon="1.21018">
        <ele>492.4</ele>
        <time>2025-06-22T07:32:28Z</time>
      </trkpt>
      <trkpt lat="42.89212" lon="1.21016">
        <ele>492.8</ele>
        <time>2025-06-22T07:32:29Z</time>
      </trkpt>
      <trkpt lat="42.89213" lon="1.21014">
        <ele>493.2</ele>
        <time>2025-06-22T07:32:30Z</time>
      </trkpt>
      <trkpt lat="42.8922" lon="1.21007">
        <ele>493.2</ele>
        <time>2025-06-22T07:32:34Z</time>
      </trkpt>
      <trkpt lat="42.8923" lon="1.20998">
        <ele>493.6</ele>
        <time>2025-06-22T07:32:40Z</time>
      </trkpt>
      <trkpt lat="42.89231" lon="1.20996">
        <ele>494</ele>
        <time>2025-06-22T07:32:41Z</time>
      </trkpt>
      <trkpt lat="42.89232" lon="1.20994">
        <ele>494.4</ele>
        <time>2025-06-22T07:32:42Z</time>
      </trkpt>
      <trkpt lat="42.89233" lon="1.20992">
        <ele>495.2</ele>
        <time>2025-06-22T07:32:43Z</time>
      </trkpt>
      <trkpt lat="42.89245" lon="1.20979">
        <ele>495.6</ele>
        <time>2025-06-22T07:32:51Z</time>
      </trkpt>
      <trkpt lat="42.89246" lon="1.20977">
        <ele>496.2</ele>
        <time>2025-06-22T07:32:52Z</time>
      </trkpt>
      <trkpt lat="42.89247" lon="1.20975">
        <ele>496.6</ele>
        <time>2025-06-22T07:32:53Z</time>
      </trkpt>
      <trkpt lat="42.89248" lon="1.20972">
        <ele>497</ele>
        <time>2025-06-22T07:32:54Z</time>
      </trkpt>
      <trkpt lat="42.89249" lon="1.2097">
        <ele>497.4</ele>
        <time>2025-06-22T07:32:55Z</time>
      </trkpt>
      <trkpt lat="42.89252" lon="1.2096">
        <ele>497.4</ele>
        <time>2025-06-22T07:32:59Z</time>
      </trkpt>
      <trkpt lat="42.89252" lon="1.20955">
        <ele>497.4</ele>
        <time>2025-06-22T07:33:01Z</time>
      </trkpt>
      <trkpt lat="42.89247" lon="1.20948">
        <ele>497.8</ele>
        <time>2025-06-22T07:33:04Z</time>
      </trkpt>
      <trkpt lat="42.89245" lon="1.20945">
        <ele>498.2</ele>
        <time>2025-06-22T07:33:05Z</time>
      </trkpt>
      <trkpt lat="42.89243" lon="1.20943">
        <ele>498.6</ele>
        <time>2025-06-22T07:33:06Z</time>
      </trkpt>
      <trkpt lat="42.89241" lon="1.20942">
        <ele>499</ele>
        <time>2025-06-22T07:33:07Z</time>
      </trkpt>
      <trkpt lat="42.89239" lon="1.2094">
        <ele>499.4</ele>
        <time>2025-06-22T07:33:08Z</time>
      </trkpt>
      <trkpt lat="42.89233" lon="1.20935">
        <ele>499.8</ele>
        <time>2025-06-22T07:33:12Z</time>
      </trkpt>
      <trkpt lat="42.89232" lon="1.20934">
        <ele>500.2</ele>
        <time>2025-06-22T07:33:13Z</time>
      </trkpt>
      <trkpt lat="42.8923" lon="1.20933">
        <ele>500.6</ele>
        <time>2025-06-22T07:33:14Z</time>
      </trkpt>
      <trkpt lat="42.89228" lon="1.20932">
        <ele>501</ele>
        <time>2025-06-22T07:33:15Z</time>
      </trkpt>
      <trkpt lat="42.89226" lon="1.2093">
        <ele>501.4</ele>
        <time>2025-06-22T07:33:16Z</time>
      </trkpt>
      <trkpt lat="42.89222" lon="1.20927">
        <ele>501.4</ele>
        <time>2025-06-22T07:33:18Z</time>
      </trkpt>
      <trkpt lat="42.89212" lon="1.20919">
        <ele>501.8</ele>
        <time>2025-06-22T07:33:25Z</time>
      </trkpt>
      <trkpt lat="42.89211" lon="1.20918">
        <ele>502.2</ele>
        <time>2025-06-22T07:33:26Z</time>
      </trkpt>
      <trkpt lat="42.89209" lon="1.20917">
        <ele>502.6</ele>
        <time>2025-06-22T07:33:27Z</time>
      </trkpt>
      <trkpt lat="42.89208" lon="1.20915">
        <ele>503</ele>
        <time>2025-06-22T07:33:28Z</time>
      </trkpt>
      <trkpt lat="42.89206" lon="1.20914">
        <ele>503.4</ele>
        <time>2025-06-22T07:33:29Z</time>
      </trkpt>
      <trkpt lat="42.89204" lon="1.20909">
        <ele>503.4</ele>
        <time>2025-06-22T07:33:32Z</time>
      </trkpt>
      <trkpt lat="42.89203" lon="1.20907">
        <ele>503.4</ele>
        <time>2025-06-22T07:33:33Z</time>
      </trkpt>
      <trkpt lat="42.89198" lon="1.20898">
        <ele>504</ele>
        <time>2025-06-22T07:33:37Z</time>
      </trkpt>
      <trkpt lat="42.89197" lon="1.20896">
        <ele>504.4</ele>
        <time>2025-06-22T07:33:38Z</time>
      </trkpt>
      <trkpt lat="42.89196" lon="1.20894">
        <ele>504.8</ele>
        <time>2025-06-22T07:33:39Z</time>
      </trkpt>
      <trkpt lat="42.89195" lon="1.20892">
        <ele>505.2</ele>
        <time>2025-06-22T07:33:40Z</time>
      </trkpt>
      <trkpt lat="42.89195" lon="1.2089">
        <ele>505.6</ele>
        <time>2025-06-22T07:33:41Z</time>
      </trkpt>
      <trkpt lat="42.89194" lon="1.20888">
        <ele>505.6</ele>
        <time>2025-06-22T07:33:42Z</time>
      </trkpt>
      <trkpt lat="42.89189" lon="1.2087">
        <ele>506</ele>
        <time>2025-06-22T07:33:49Z</time>
      </trkpt>
      <trkpt lat="42.89188" lon="1.20866">
        <ele>506.4</ele>
        <time>2025-06-22T07:33:50Z</time>
      </trkpt>
      <trkpt lat="42.89187" lon="1.20863">
        <ele>506.8</ele>
        <time>2025-06-22T07:33:51Z</time>
      </trkpt>
      <trkpt lat="42.89186" lon="1.2086">
        <ele>507.4</ele>
        <time>2025-06-22T07:33:52Z</time>
      </trkpt>
      <trkpt lat="42.89184" lon="1.20858">
        <ele>507.8</ele>
        <time>2025-06-22T07:33:53Z</time>
      </trkpt>
      <trkpt lat="42.89178" lon="1.20844">
        <ele>507.8</ele>
        <time>2025-06-22T07:33:58Z</time>
      </trkpt>
      <trkpt lat="42.89166" lon="1.20836">
        <ele>507.8</ele>
        <time>2025-06-22T07:34:04Z</time>
      </trkpt>
      <trkpt lat="42.89164" lon="1.20837">
        <ele>508.2</ele>
        <time>2025-06-22T07:34:05Z</time>
      </trkpt>
      <trkpt lat="42.89162" lon="1.20838">
        <ele>508.6</ele>
        <time>2025-06-22T07:34:06Z</time>
      </trkpt>
      <trkpt lat="42.8916" lon="1.20839">
        <ele>509</ele>
        <time>2025-06-22T07:34:07Z</time>
      </trkpt>
      <trkpt lat="42.89159" lon="1.2084">
        <ele>509.4</ele>
        <time>2025-06-22T07:34:08Z</time>
      </trkpt>
      <trkpt lat="42.89158" lon="1.20841">
        <ele>509.8</ele>
        <time>2025-06-22T07:34:09Z</time>
      </trkpt>
      <trkpt lat="42.89151" lon="1.20858">
        <ele>509.8</ele>
        <time>2025-06-22T07:34:16Z</time>
      </trkpt>
      <trkpt lat="42.89148" lon="1.2087">
        <ele>510.6</ele>
        <time>2025-06-22T07:34:20Z</time>
      </trkpt>
      <trkpt lat="42.89147" lon="1.20872">
        <ele>511.2</ele>
        <time>2025-06-22T07:34:21Z</time>
      </trkpt>
      <trkpt lat="42.89145" lon="1.20874">
        <ele>511.6</ele>
        <time>2025-06-22T07:34:22Z</time>
      </trkpt>
      <trkpt lat="42.89144" lon="1.20876">
        <ele>512</ele>
        <time>2025-06-22T07:34:23Z</time>
      </trkpt>
      <trkpt lat="42.89132" lon="1.20882">
        <ele>512</ele>
        <time>2025-06-22T07:34:28Z</time>
      </trkpt>
      <trkpt lat="42.89121" lon="1.20882">
        <ele>512.4</ele>
        <time>2025-06-22T07:34:33Z</time>
      </trkpt>
      <trkpt lat="42.89119" lon="1.20881">
        <ele>512.8</ele>
        <time>2025-06-22T07:34:34Z</time>
      </trkpt>
      <trkpt lat="42.89117" lon="1.2088">
        <ele>513.2</ele>
        <time>2025-06-22T07:34:35Z</time>
      </trkpt>
      <trkpt lat="42.89115" lon="1.20878">
        <ele>513.8</ele>
        <time>2025-06-22T07:34:36Z</time>
      </trkpt>
      <trkpt lat="42.89113" lon="1.20878">
        <ele>514.2</ele>
        <time>2025-06-22T07:34:37Z</time>
      </trkpt>
      <trkpt lat="42.89105" lon="1.20873">
        <ele>514.2</ele>
        <time>2025-06-22T07:34:42Z</time>
      </trkpt>
      <trkpt lat="42.89098" lon="1.20869">
        <ele>514.6</ele>
        <time>2025-06-22T07:34:46Z</time>
      </trkpt>
      <trkpt lat="42.89097" lon="1.20869">
        <ele>515</ele>
        <time>2025-06-22T07:34:47Z</time>
      </trkpt>
      <trkpt lat="42.89094" lon="1.20868">
        <ele>515.4</ele>
        <time>2025-06-22T07:34:48Z</time>
      </trkpt>
      <trkpt lat="42.89092" lon="1.20867">
        <ele>515.8</ele>
        <time>2025-06-22T07:34:49Z</time>
      </trkpt>
      <trkpt lat="42.8909" lon="1.20867">
        <ele>516.2</ele>
        <time>2025-06-22T07:34:50Z</time>
      </trkpt>
      <trkpt lat="42.8908" lon="1.20863">
        <ele>516.2</ele>
        <time>2025-06-22T07:34:55Z</time>
      </trkpt>
      <trkpt lat="42.89074" lon="1.20863">
        <ele>516.6</ele>
        <time>2025-06-22T07:34:58Z</time>
      </trkpt>
      <trkpt lat="42.89072" lon="1.20862">
        <ele>517</ele>
        <time>2025-06-22T07:34:59Z</time>
      </trkpt>
      <trkpt lat="42.8907" lon="1.20862">
        <ele>517.4</ele>
        <time>2025-06-22T07:35:00Z</time>
      </trkpt>
      <trkpt lat="42.89069" lon="1.20861">
        <ele>517.8</ele>
        <time>2025-06-22T07:35:01Z</time>
      </trkpt>
      <trkpt lat="42.89067" lon="1.20861">
        <ele>518.2</ele>
        <time>2025-06-22T07:35:02Z</time>
      </trkpt>
      <trkpt lat="42.89053" lon="1.20859">
        <ele>518.6</ele>
        <time>2025-06-22T07:35:09Z</time>
      </trkpt>
      <trkpt lat="42.89052" lon="1.20858">
        <ele>519.6</ele>
        <time>2025-06-22T07:35:10Z</time>
      </trkpt>
      <trkpt lat="42.8905" lon="1.20858">
        <ele>520</ele>
        <time>2025-06-22T07:35:11Z</time>
      </trkpt>
      <trkpt lat="42.89048" lon="1.20858">
        <ele>520.4</ele>
        <time>2025-06-22T07:35:12Z</time>
      </trkpt>
      <trkpt lat="42.89036" lon="1.20856">
        <ele>520.4</ele>
        <time>2025-06-22T07:35:18Z</time>
      </trkpt>
      <trkpt lat="42.89027" lon="1.20856">
        <ele>520.8</ele>
        <time>2025-06-22T07:35:22Z</time>
      </trkpt>
      <trkpt lat="42.89025" lon="1.20857">
        <ele>521.2</ele>
        <time>2025-06-22T07:35:23Z</time>
      </trkpt>
      <trkpt lat="42.89023" lon="1.20857">
        <ele>521.6</ele>
        <time>2025-06-22T07:35:24Z</time>
      </trkpt>
      <trkpt lat="42.89021" lon="1.20857">
        <ele>522</ele>
        <time>2025-06-22T07:35:25Z</time>
      </trkpt>
      <trkpt lat="42.89018" lon="1.20857">
        <ele>522.4</ele>
        <time>2025-06-22T07:35:26Z</time>
      </trkpt>
      <trkpt lat="42.89008" lon="1.20858">
        <ele>522.4</ele>
        <time>2025-06-22T07:35:30Z</time>
      </trkpt>
      <trkpt lat="42.89004" lon="1.20853">
        <ele>522.4</ele>
        <time>2025-06-22T07:35:34Z</time>
      </trkpt>
      <trkpt lat="42.89004" lon="1.2085">
        <ele>522.8</ele>
        <time>2025-06-22T07:35:36Z</time>
      </trkpt>
      <trkpt lat="42.89004" lon="1.20849">
        <ele>523.2</ele>
        <time>2025-06-22T07:35:37Z</time>
      </trkpt>
      <trkpt lat="42.89005" lon="1.20848">
        <ele>523.6</ele>
        <time>2025-06-22T07:35:38Z</time>
      </trkpt>
      <trkpt lat="42.89006" lon="1.20847">
        <ele>524.2</ele>
        <time>2025-06-22T07:35:39Z</time>
      </trkpt>
      <trkpt lat="42.89008" lon="1.20847">
        <ele>524.6</ele>
        <time>2025-06-22T07:35:40Z</time>
      </trkpt>
      <trkpt lat="42.89017" lon="1.20847">
        <ele>524.6</ele>
        <time>2025-06-22T07:35:46Z</time>
      </trkpt>
      <trkpt lat="42.89022" lon="1.20845">
        <ele>525</ele>
        <time>2025-06-22T07:35:51Z</time>
      </trkpt>
      <trkpt lat="42.89023" lon="1.20845">
        <ele>525.4</ele>
        <time>2025-06-22T07:35:52Z</time>
      </trkpt>
      <trkpt lat="42.89025" lon="1.20845">
        <ele>525.8</ele>
        <time>2025-06-22T07:35:53Z</time>
      </trkpt>
      <trkpt lat="42.89026" lon="1.20845">
        <ele>526.2</ele>
        <time>2025-06-22T07:35:54Z</time>
      </trkpt>
      <trkpt lat="42.89026" lon="1.20845">
        <ele>526.6</ele>
        <time>2025-06-22T07:35:55Z</time>
      </trkpt>
      <trkpt lat="42.8903" lon="1.20844">
        <ele>526.6</ele>
        <time>2025-06-22T07:36:00Z</time>
      </trkpt>
      <trkpt lat="42.8904" lon="1.20835">
        <ele>528.6</ele>
        <time>2025-06-22T07:36:06Z</time>
      </trkpt>
      <trkpt lat="42.89046" lon="1.20828">
        <ele>528.6</ele>
        <time>2025-06-22T07:36:09Z</time>
      </trkpt>
      <trkpt lat="42.89052" lon="1.20824">
        <ele>529.2</ele>
        <time>2025-06-22T07:36:13Z</time>
      </trkpt>
      <trkpt lat="42.89053" lon="1.20823">
        <ele>529.6</ele>
        <time>2025-06-22T07:36:14Z</time>
      </trkpt>
      <trkpt lat="42.89055" lon="1.20822">
        <ele>530</ele>
        <time>2025-06-22T07:36:15Z</time>
      </trkpt>
      <trkpt lat="42.89057" lon="1.20822">
        <ele>530.4</ele>
        <time>2025-06-22T07:36:16Z</time>
      </trkpt>
      <trkpt lat="42.89058" lon="1.20821">
        <ele>530.8</ele>
        <time>2025-06-22T07:36:17Z</time>
      </trkpt>
      <trkpt lat="42.89063" lon="1.20818">
        <ele>530.8</ele>
        <time>2025-06-22T07:36:22Z</time>
      </trkpt>
      <trkpt lat="42.8907" lon="1.20816">
        <ele>530.8</ele>
        <time>2025-06-22T07:36:29Z</time>
      </trkpt>
      <trkpt lat="42.89077" lon="1.20809">
        <ele>531.8</ele>
        <time>2025-06-22T07:36:35Z</time>
      </trkpt>
      <trkpt lat="42.89079" lon="1.20806">
        <ele>532.2</ele>
        <time>2025-06-22T07:36:36Z</time>
      </trkpt>
      <trkpt lat="42.89081" lon="1.20803">
        <ele>532.6</ele>
        <time>2025-06-22T07:36:37Z</time>
      </trkpt>
      <trkpt lat="42.89084" lon="1.208">
        <ele>533</ele>
        <time>2025-06-22T07:36:38Z</time>
      </trkpt>
      <trkpt lat="42.89088" lon="1.2079">
        <ele>533.6</ele>
        <time>2025-06-22T07:36:41Z</time>
      </trkpt>
      <trkpt lat="42.89089" lon="1.20786">
        <ele>534</ele>
        <time>2025-06-22T07:36:42Z</time>
      </trkpt>
      <trkpt lat="42.8909" lon="1.20783">
        <ele>534.4</ele>
        <time>2025-06-22T07:36:43Z</time>
      </trkpt>
      <trkpt lat="42.8909" lon="1.2078">
        <ele>534.8</ele>
        <time>2025-06-22T07:36:44Z</time>
      </trkpt>
      <trkpt lat="42.8909" lon="1.20778">
        <ele>535.2</ele>
        <time>2025-06-22T07:36:45Z</time>
      </trkpt>
      <trkpt lat="42.8909" lon="1.2076">
        <ele>535.6</ele>
        <time>2025-06-22T07:36:51Z</time>
      </trkpt>
      <trkpt lat="42.8909" lon="1.20757">
        <ele>536</ele>
        <time>2025-06-22T07:36:52Z</time>
      </trkpt>
      <trkpt lat="42.89091" lon="1.20754">
        <ele>536.4</ele>
        <time>2025-06-22T07:36:53Z</time>
      </trkpt>
      <trkpt lat="42.89091" lon="1.20751">
        <ele>536.8</ele>
        <time>2025-06-22T07:36:54Z</time>
      </trkpt>
      <trkpt lat="42.89091" lon="1.20748">
        <ele>537.2</ele>
        <time>2025-06-22T07:36:55Z</time>
      </trkpt>
      <trkpt lat="42.89092" lon="1.20739">
        <ele>537.2</ele>
        <time>2025-06-22T07:36:58Z</time>
      </trkpt>
      <trkpt lat="42.89093" lon="1.20724">
        <ele>537.6</ele>
        <time>2025-06-22T07:37:03Z</time>
      </trkpt>
      <trkpt lat="42.89093" lon="1.20721">
        <ele>538</ele>
        <time>2025-06-22T07:37:04Z</time>
      </trkpt>
      <trkpt lat="42.89093" lon="1.20719">
        <ele>538.4</ele>
        <time>2025-06-22T07:37:05Z</time>
      </trkpt>
      <trkpt lat="42.89094" lon="1.20716">
        <ele>538.8</ele>
        <time>2025-06-22T07:37:06Z</time>
      </trkpt>
      <trkpt lat="42.89095" lon="1.20713">
        <ele>539.2</ele>
        <time>2025-06-22T07:37:07Z</time>
      </trkpt>
      <trkpt lat="42.89097" lon="1.20697">
        <ele>539.6</ele>
        <time>2025-06-22T07:37:13Z</time>
      </trkpt>
      <trkpt lat="42.89098" lon="1.20695">
        <ele>540</ele>
        <time>2025-06-22T07:37:14Z</time>
      </trkpt>
      <trkpt lat="42.89099" lon="1.20692">
        <ele>540.4</ele>
        <time>2025-06-22T07:37:15Z</time>
      </trkpt>
      <trkpt lat="42.89101" lon="1.2069">
        <ele>540.8</ele>
        <time>2025-06-22T07:37:16Z</time>
      </trkpt>
      <trkpt lat="42.89102" lon="1.20688">
        <ele>541.2</ele>
        <time>2025-06-22T07:37:17Z</time>
      </trkpt>
      <trkpt lat="42.89106" lon="1.20682">
        <ele>541.2</ele>
        <time>2025-06-22T07:37:20Z</time>
      </trkpt>
      <trkpt lat="42.89108" lon="1.20673">
        <ele>541.8</ele>
        <time>2025-06-22T07:37:25Z</time>
      </trkpt>
      <trkpt lat="42.89109" lon="1.2067">
        <ele>542.2</ele>
        <time>2025-06-22T07:37:26Z</time>
      </trkpt>
      <trkpt lat="42.89109" lon="1.20667">
        <ele>542.6</ele>
        <time>2025-06-22T07:37:27Z</time>
      </trkpt>
      <trkpt lat="42.89109" lon="1.20664">
        <ele>543</ele>
        <time>2025-06-22T07:37:28Z</time>
      </trkpt>
      <trkpt lat="42.8911" lon="1.20661">
        <ele>543.4</ele>
        <time>2025-06-22T07:37:29Z</time>
      </trkpt>
      <trkpt lat="42.89112" lon="1.20655">
        <ele>543.4</ele>
        <time>2025-06-22T07:37:32Z</time>
      </trkpt>
      <trkpt lat="42.89117" lon="1.2065">
        <ele>543.8</ele>
        <time>2025-06-22T07:37:36Z</time>
      </trkpt>
      <trkpt lat="42.89118" lon="1.20649">
        <ele>544.2</ele>
        <time>2025-06-22T07:37:37Z</time>
      </trkpt>
      <trkpt lat="42.8912" lon="1.20647">
        <ele>545</ele>
        <time>2025-06-22T07:37:38Z</time>
      </trkpt>
      <trkpt lat="42.89122" lon="1.20646">
        <ele>545.6</ele>
        <time>2025-06-22T07:37:39Z</time>
      </trkpt>
      <trkpt lat="42.89134" lon="1.20632">
        <ele>546</ele>
        <time>2025-06-22T07:37:46Z</time>
      </trkpt>
      <trkpt lat="42.89136" lon="1.2063">
        <ele>546.4</ele>
        <time>2025-06-22T07:37:47Z</time>
      </trkpt>
      <trkpt lat="42.89138" lon="1.20629">
        <ele>546.8</ele>
        <time>2025-06-22T07:37:48Z</time>
      </trkpt>
      <trkpt lat="42.8914" lon="1.20627">
        <ele>547.2</ele>
        <time>2025-06-22T07:37:49Z</time>
      </trkpt>
      <trkpt lat="42.89142" lon="1.20626">
        <ele>547.6</ele>
        <time>2025-06-22T07:37:50Z</time>
      </trkpt>
      <trkpt lat="42.89149" lon="1.2062">
        <ele>547.6</ele>
        <time>2025-06-22T07:37:53Z</time>
      </trkpt>
      <trkpt lat="42.89156" lon="1.20611">
        <ele>547.6</ele>
        <time>2025-06-22T07:37:57Z</time>
      </trkpt>
      <trkpt lat="42.89157" lon="1.20606">
        <ele>547.6</ele>
        <time>2025-06-22T07:37:59Z</time>
      </trkpt>
      <trkpt lat="42.89155" lon="1.20604">
        <ele>548</ele>
        <time>2025-06-22T07:38:01Z</time>
      </trkpt>
      <trkpt lat="42.89154" lon="1.20604">
        <ele>548.4</ele>
        <time>2025-06-22T07:38:02Z</time>
      </trkpt>
      <trkpt lat="42.89151" lon="1.20605">
        <ele>549.2</ele>
        <time>2025-06-22T07:38:03Z</time>
      </trkpt>
      <trkpt lat="42.8915" lon="1.20606">
        <ele>549.6</ele>
        <time>2025-06-22T07:38:04Z</time>
      </trkpt>
      <trkpt lat="42.89147" lon="1.2061">
        <ele>549.6</ele>
        <time>2025-06-22T07:38:06Z</time>
      </trkpt>
      <trkpt lat="42.8914" lon="1.20614">
        <ele>549.6</ele>
        <time>2025-06-22T07:38:10Z</time>
      </trkpt>
      <trkpt lat="42.89124" lon="1.20616">
        <ele>549.6</ele>
        <time>2025-06-22T07:38:16Z</time>
      </trkpt>
      <trkpt lat="42.89118" lon="1.20615">
        <ele>550</ele>
        <time>2025-06-22T07:38:18Z</time>
      </trkpt>
      <trkpt lat="42.89116" lon="1.20615">
        <ele>550.4</ele>
        <time>2025-06-22T07:38:19Z</time>
      </trkpt>
      <trkpt lat="42.89113" lon="1.20614">
        <ele>550.8</ele>
        <time>2025-06-22T07:38:20Z</time>
      </trkpt>
      <trkpt lat="42.8911" lon="1.20614">
        <ele>551.2</ele>
        <time>2025-06-22T07:38:21Z</time>
      </trkpt>
      <trkpt lat="42.89107" lon="1.20613">
        <ele>551.6</ele>
        <time>2025-06-22T07:38:22Z</time>
      </trkpt>
      <trkpt lat="42.89102" lon="1.20614">
        <ele>551.6</ele>
        <time>2025-06-22T07:38:24Z</time>
      </trkpt>
      <trkpt lat="42.89088" lon="1.20623">
        <ele>552</ele>
        <time>2025-06-22T07:38:30Z</time>
      </trkpt>
      <trkpt lat="42.89087" lon="1.20626">
        <ele>552.4</ele>
        <time>2025-06-22T07:38:31Z</time>
      </trkpt>
      <trkpt lat="42.89085" lon="1.20629">
        <ele>552.8</ele>
        <time>2025-06-22T07:38:32Z</time>
      </trkpt>
      <trkpt lat="42.89084" lon="1.20633">
        <ele>553.2</ele>
        <time>2025-06-22T07:38:33Z</time>
      </trkpt>
      <trkpt lat="42.89084" lon="1.20636">
        <ele>553.6</ele>
        <time>2025-06-22T07:38:34Z</time>
      </trkpt>
      <trkpt lat="42.89082" lon="1.20644">
        <ele>553.6</ele>
        <time>2025-06-22T07:38:36Z</time>
      </trkpt>
      <trkpt lat="42.89077" lon="1.20665">
        <ele>553.6</ele>
        <time>2025-06-22T07:38:43Z</time>
      </trkpt>
      <trkpt lat="42.8907" lon="1.20664">
        <ele>554.2</ele>
        <time>2025-06-22T07:38:47Z</time>
      </trkpt>
      <trkpt lat="42.8907" lon="1.20662">
        <ele>554.6</ele>
        <time>2025-06-22T07:38:48Z</time>
      </trkpt>
      <trkpt lat="42.89069" lon="1.2066">
        <ele>555</ele>
        <time>2025-06-22T07:38:49Z</time>
      </trkpt>
      <trkpt lat="42.8907" lon="1.20658">
        <ele>555.4</ele>
        <time>2025-06-22T07:38:50Z</time>
      </trkpt>
      <trkpt lat="42.8907" lon="1.20655">
        <ele>555.8</ele>
        <time>2025-06-22T07:38:51Z</time>
      </trkpt>
      <trkpt lat="42.8907" lon="1.20653">
        <ele>555.8</ele>
        <time>2025-06-22T07:38:52Z</time>
      </trkpt>
      <trkpt lat="42.89074" lon="1.20631">
        <ele>555.8</ele>
        <time>2025-06-22T07:38:59Z</time>
      </trkpt>
      <trkpt lat="42.89077" lon="1.20616">
        <ele>556.2</ele>
        <time>2025-06-22T07:39:03Z</time>
      </trkpt>
      <trkpt lat="42.89078" lon="1.20612">
        <ele>556.6</ele>
        <time>2025-06-22T07:39:04Z</time>
      </trkpt>
      <trkpt lat="42.89079" lon="1.20609">
        <ele>557</ele>
        <time>2025-06-22T07:39:05Z</time>
      </trkpt>
      <trkpt lat="42.89079" lon="1.20606">
        <ele>557.4</ele>
        <time>2025-06-22T07:39:06Z</time>
      </trkpt>
      <trkpt lat="42.89081" lon="1.20603">
        <ele>557.8</ele>
        <time>2025-06-22T07:39:07Z</time>
      </trkpt>
      <trkpt lat="42.89083" lon="1.20598">
        <ele>557.8</ele>
        <time>2025-06-22T07:39:09Z</time>
      </trkpt>
      <trkpt lat="42.89099" lon="1.20581">
        <ele>557.8</ele>
        <time>2025-06-22T07:39:17Z</time>
      </trkpt>
      <trkpt lat="42.89101" lon="1.2058">
        <ele>558.2</ele>
        <time>2025-06-22T07:39:18Z</time>
      </trkpt>
      <trkpt lat="42.89104" lon="1.20578">
        <ele>558.6</ele>
        <time>2025-06-22T07:39:19Z</time>
      </trkpt>
      <trkpt lat="42.89106" lon="1.20577">
        <ele>559</ele>
        <time>2025-06-22T07:39:20Z</time>
      </trkpt>
      <trkpt lat="42.89109" lon="1.20576">
        <ele>559.4</ele>
        <time>2025-06-22T07:39:21Z</time>
      </trkpt>
      <trkpt lat="42.89111" lon="1.20576">
        <ele>559.8</ele>
        <time>2025-06-22T07:39:22Z</time>
      </trkpt>
      <trkpt lat="42.89118" lon="1.20574">
        <ele>559.8</ele>
        <time>2025-06-22T07:39:25Z</time>
      </trkpt>
      <trkpt lat="42.89133" lon="1.20573">
        <ele>560.2</ele>
        <time>2025-06-22T07:39:32Z</time>
      </trkpt>
      <trkpt lat="42.89135" lon="1.20573">
        <ele>560.6</ele>
        <time>2025-06-22T07:39:33Z</time>
      </trkpt>
      <trkpt lat="42.89137" lon="1.20572">
        <ele>561</ele>
        <time>2025-06-22T07:39:34Z</time>
      </trkpt>
      <trkpt lat="42.8914" lon="1.20572">
        <ele>561.6</ele>
        <time>2025-06-22T07:39:35Z</time>
      </trkpt>
      <trkpt lat="42.89142" lon="1.20572">
        <ele>562</ele>
        <time>2025-06-22T07:39:36Z</time>
      </trkpt>
      <trkpt lat="42.89149" lon="1.20569">
        <ele>562</ele>
        <time>2025-06-22T07:39:39Z</time>
      </trkpt>
      <trkpt lat="42.89162" lon="1.20562">
        <ele>562.4</ele>
        <time>2025-06-22T07:39:45Z</time>
      </trkpt>
      <trkpt lat="42.89165" lon="1.20561">
        <ele>562.8</ele>
        <time>2025-06-22T07:39:46Z</time>
      </trkpt>
      <trkpt lat="42.89167" lon="1.20561">
        <ele>563.2</ele>
        <time>2025-06-22T07:39:47Z</time>
      </trkpt>
      <trkpt lat="42.89169" lon="1.20559">
        <ele>563.6</ele>
        <time>2025-06-22T07:39:48Z</time>
      </trkpt>
      <trkpt lat="42.89171" lon="1.20559">
        <ele>564.2</ele>
        <time>2025-06-22T07:39:49Z</time>
      </trkpt>
      <trkpt lat="42.89176" lon="1.20557">
        <ele>564.2</ele>
        <time>2025-06-22T07:39:52Z</time>
      </trkpt>
      <trkpt lat="42.89187" lon="1.20548">
        <ele>564.6</ele>
        <time>2025-06-22T07:39:57Z</time>
      </trkpt>
      <trkpt lat="42.89189" lon="1.20545">
        <ele>565</ele>
        <time>2025-06-22T07:39:58Z</time>
      </trkpt>
      <trkpt lat="42.8919" lon="1.20543">
        <ele>565.4</ele>
        <time>2025-06-22T07:39:59Z</time>
      </trkpt>
      <trkpt lat="42.89192" lon="1.20541">
        <ele>565.8</ele>
        <time>2025-06-22T07:40:00Z</time>
      </trkpt>
      <trkpt lat="42.89193" lon="1.20539">
        <ele>566.2</ele>
        <time>2025-06-22T07:40:01Z</time>
      </trkpt>
      <trkpt lat="42.89202" lon="1.20528">
        <ele>566.2</ele>
        <time>2025-06-22T07:40:07Z</time>
      </trkpt>
      <trkpt lat="42.89204" lon="1.20526">
        <ele>566.6</ele>
        <time>2025-06-22T07:40:08Z</time>
      </trkpt>
      <trkpt lat="42.89207" lon="1.20524">
        <ele>567</ele>
        <time>2025-06-22T07:40:09Z</time>
      </trkpt>
      <trkpt lat="42.89209" lon="1.20522">
        <ele>567.4</ele>
        <time>2025-06-22T07:40:10Z</time>
      </trkpt>
      <trkpt lat="42.89211" lon="1.2052">
        <ele>567.8</ele>
        <time>2025-06-22T07:40:11Z</time>
      </trkpt>
      <trkpt lat="42.89214" lon="1.20519">
        <ele>568.2</ele>
        <time>2025-06-22T07:40:12Z</time>
      </trkpt>
      <trkpt lat="42.89219" lon="1.20516">
        <ele>568.2</ele>
        <time>2025-06-22T07:40:14Z</time>
      </trkpt>
      <trkpt lat="42.89233" lon="1.20518">
        <ele>568.2</ele>
        <time>2025-06-22T07:40:19Z</time>
      </trkpt>
      <trkpt lat="42.89237" lon="1.20521">
        <ele>568.6</ele>
        <time>2025-06-22T07:40:21Z</time>
      </trkpt>
      <trkpt lat="42.8924" lon="1.20523">
        <ele>569</ele>
        <time>2025-06-22T07:40:22Z</time>
      </trkpt>
      <trkpt lat="42.89242" lon="1.20526">
        <ele>569.4</ele>
        <time>2025-06-22T07:40:23Z</time>
      </trkpt>
      <trkpt lat="42.89245" lon="1.20528">
        <ele>569.8</ele>
        <time>2025-06-22T07:40:24Z</time>
      </trkpt>
      <trkpt lat="42.89247" lon="1.2053">
        <ele>570.2</ele>
        <time>2025-06-22T07:40:25Z</time>
      </trkpt>
      <trkpt lat="42.89259" lon="1.20536">
        <ele>570.2</ele>
        <time>2025-06-22T07:40:32Z</time>
      </trkpt>
      <trkpt lat="42.89263" lon="1.20536">
        <ele>570.6</ele>
        <time>2025-06-22T07:40:35Z</time>
      </trkpt>
      <trkpt lat="42.89265" lon="1.20535">
        <ele>571</ele>
        <time>2025-06-22T07:40:36Z</time>
      </trkpt>
      <trkpt lat="42.89267" lon="1.20534">
        <ele>571.4</ele>
        <time>2025-06-22T07:40:37Z</time>
      </trkpt>
      <trkpt lat="42.89269" lon="1.20532">
        <ele>571.8</ele>
        <time>2025-06-22T07:40:38Z</time>
      </trkpt>
      <trkpt lat="42.89272" lon="1.2053">
        <ele>572.2</ele>
        <time>2025-06-22T07:40:39Z</time>
      </trkpt>
      <trkpt lat="42.89284" lon="1.20522">
        <ele>572.2</ele>
        <time>2025-06-22T07:40:45Z</time>
      </trkpt>
      <trkpt lat="42.89294" lon="1.20518">
        <ele>572.6</ele>
        <time>2025-06-22T07:40:49Z</time>
      </trkpt>
      <trkpt lat="42.89296" lon="1.20518">
        <ele>573</ele>
        <time>2025-06-22T07:40:50Z</time>
      </trkpt>
      <trkpt lat="42.89298" lon="1.20517">
        <ele>573.4</ele>
        <time>2025-06-22T07:40:51Z</time>
      </trkpt>
      <trkpt lat="42.893" lon="1.20516">
        <ele>573.8</ele>
        <time>2025-06-22T07:40:52Z</time>
      </trkpt>
      <trkpt lat="42.89303" lon="1.20515">
        <ele>574.2</ele>
        <time>2025-06-22T07:40:53Z</time>
      </trkpt>
      <trkpt lat="42.89316" lon="1.20509">
        <ele>574.2</ele>
        <time>2025-06-22T07:40:59Z</time>
      </trkpt>
      <trkpt lat="42.89321" lon="1.20506">
        <ele>574.8</ele>
        <time>2025-06-22T07:41:01Z</time>
      </trkpt>
      <trkpt lat="42.89323" lon="1.20505">
        <ele>575.2</ele>
        <time>2025-06-22T07:41:02Z</time>
      </trkpt>
      <trkpt lat="42.89326" lon="1.20505">
        <ele>575.6</ele>
        <time>2025-06-22T07:41:03Z</time>
      </trkpt>
      <trkpt lat="42.89329" lon="1.20504">
        <ele>576</ele>
        <time>2025-06-22T07:41:04Z</time>
      </trkpt>
      <trkpt lat="42.89331" lon="1.20504">
        <ele>576.4</ele>
        <time>2025-06-22T07:41:05Z</time>
      </trkpt>
      <trkpt lat="42.89334" lon="1.20504">
        <ele>576.4</ele>
        <time>2025-06-22T07:41:06Z</time>
      </trkpt>
      <trkpt lat="42.89339" lon="1.20508">
        <ele>576.4</ele>
        <time>2025-06-22T07:41:09Z</time>
      </trkpt>
      <trkpt lat="42.89343" lon="1.20515">
        <ele>576.4</ele>
        <time>2025-06-22T07:41:11Z</time>
      </trkpt>
      <trkpt lat="42.89344" lon="1.20535">
        <ele>576.4</ele>
        <time>2025-06-22T07:41:17Z</time>
      </trkpt>
      <trkpt lat="42.89345" lon="1.20539">
        <ele>576.8</ele>
        <time>2025-06-22T07:41:18Z</time>
      </trkpt>
      <trkpt lat="42.89346" lon="1.20542">
        <ele>577.2</ele>
        <time>2025-06-22T07:41:19Z</time>
      </trkpt>
      <trkpt lat="42.89346" lon="1.20546">
        <ele>577.6</ele>
        <time>2025-06-22T07:41:20Z</time>
      </trkpt>
      <trkpt lat="42.89347" lon="1.2055">
        <ele>578.4</ele>
        <time>2025-06-22T07:41:21Z</time>
      </trkpt>
      <trkpt lat="42.89347" lon="1.20558">
        <ele>578.4</ele>
        <time>2025-06-22T07:41:23Z</time>
      </trkpt>
      <trkpt lat="42.8935" lon="1.20583">
        <ele>578.4</ele>
        <time>2025-06-22T07:41:30Z</time>
      </trkpt>
      <trkpt lat="42.89353" lon="1.20587">
        <ele>578.8</ele>
        <time>2025-06-22T07:41:32Z</time>
      </trkpt>
      <trkpt lat="42.89355" lon="1.20588">
        <ele>579.2</ele>
        <time>2025-06-22T07:41:33Z</time>
      </trkpt>
      <trkpt lat="42.89357" lon="1.20589">
        <ele>579.6</ele>
        <time>2025-06-22T07:41:34Z</time>
      </trkpt>
      <trkpt lat="42.89358" lon="1.20589">
        <ele>580</ele>
        <time>2025-06-22T07:41:35Z</time>
      </trkpt>
      <trkpt lat="42.8936" lon="1.20589">
        <ele>580.4</ele>
        <time>2025-06-22T07:41:36Z</time>
      </trkpt>
      <trkpt lat="42.89365" lon="1.20585">
        <ele>580.4</ele>
        <time>2025-06-22T07:41:40Z</time>
      </trkpt>
      <trkpt lat="42.89365" lon="1.20584">
        <ele>580.8</ele>
        <time>2025-06-22T07:41:41Z</time>
      </trkpt>
      <trkpt lat="42.89365" lon="1.20584">
        <ele>581.2</ele>
        <time>2025-06-22T07:41:42Z</time>
      </trkpt>
      <trkpt lat="42.89366" lon="1.20583">
        <ele>581.6</ele>
        <time>2025-06-22T07:41:43Z</time>
      </trkpt>
      <trkpt lat="42.89366" lon="1.20582">
        <ele>582</ele>
        <time>2025-06-22T07:41:44Z</time>
      </trkpt>
      <trkpt lat="42.89367" lon="1.20581">
        <ele>582.6</ele>
        <time>2025-06-22T07:41:45Z</time>
      </trkpt>
      <trkpt lat="42.89368" lon="1.20579">
        <ele>582.6</ele>
        <time>2025-06-22T07:41:48Z</time>
      </trkpt>
      <trkpt lat="42.8937" lon="1.20573">
        <ele>582.6</ele>
        <time>2025-06-22T07:41:54Z</time>
      </trkpt>
      <trkpt lat="42.89368" lon="1.20568">
        <ele>582.6</ele>
        <time>2025-06-22T07:42:00Z</time>
      </trkpt>
      <trkpt lat="42.89367" lon="1.20561">
        <ele>583</ele>
        <time>2025-06-22T07:42:06Z</time>
      </trkpt>
      <trkpt lat="42.89368" lon="1.20559">
        <ele>583.4</ele>
        <time>2025-06-22T07:42:07Z</time>
      </trkpt>
      <trkpt lat="42.89368" lon="1.20558">
        <ele>583.8</ele>
        <time>2025-06-22T07:42:08Z</time>
      </trkpt>
      <trkpt lat="42.89368" lon="1.20556">
        <ele>584.2</ele>
        <time>2025-06-22T07:42:09Z</time>
      </trkpt>
      <trkpt lat="42.89368" lon="1.20554">
        <ele>584.6</ele>
        <time>2025-06-22T07:42:10Z</time>
      </trkpt>
      <trkpt lat="42.89369" lon="1.2055">
        <ele>584.6</ele>
        <time>2025-06-22T07:42:13Z</time>
      </trkpt>
      <trkpt lat="42.8937" lon="1.20545">
        <ele>584.6</ele>
        <time>2025-06-22T07:42:18Z</time>
      </trkpt>
      <trkpt lat="42.8938" lon="1.20474">
        <ele>591.2</ele>
        <time>2025-06-22T07:43:02Z</time>
      </trkpt>
      <trkpt lat="42.89381" lon="1.20465">
        <ele>591.6</ele>
        <time>2025-06-22T07:43:07Z</time>
      </trkpt>
      <trkpt lat="42.89382" lon="1.20464">
        <ele>592</ele>
        <time>2025-06-22T07:43:08Z</time>
      </trkpt>
      <trkpt lat="42.89382" lon="1.20463">
        <ele>592.4</ele>
        <time>2025-06-22T07:43:09Z</time>
      </trkpt>
      <trkpt lat="42.89382" lon="1.20459">
        <ele>592.8</ele>
        <time>2025-06-22T07:43:10Z</time>
      </trkpt>
      <trkpt lat="42.89382" lon="1.20457">
        <ele>593.2</ele>
        <time>2025-06-22T07:43:11Z</time>
      </trkpt>
      <trkpt lat="42.89379" lon="1.20445">
        <ele>593.2</ele>
        <time>2025-06-22T07:43:16Z</time>
      </trkpt>
      <trkpt lat="42.89378" lon="1.2044">
        <ele>593.6</ele>
        <time>2025-06-22T07:43:19Z</time>
      </trkpt>
      <trkpt lat="42.89378" lon="1.20439">
        <ele>594.2</ele>
        <time>2025-06-22T07:43:20Z</time>
      </trkpt>
      <trkpt lat="42.89377" lon="1.20437">
        <ele>594.8</ele>
        <time>2025-06-22T07:43:21Z</time>
      </trkpt>
      <trkpt lat="42.89376" lon="1.20437">
        <ele>595.4</ele>
        <time>2025-06-22T07:43:22Z</time>
      </trkpt>
      <trkpt lat="42.89374" lon="1.20436">
        <ele>596</ele>
        <time>2025-06-22T07:43:23Z</time>
      </trkpt>
      <trkpt lat="42.89372" lon="1.20435">
        <ele>596</ele>
        <time>2025-06-22T07:43:25Z</time>
      </trkpt>
      <trkpt lat="42.89366" lon="1.20433">
        <ele>596</ele>
        <time>2025-06-22T07:43:31Z</time>
      </trkpt>
      <trkpt lat="42.89364" lon="1.20433">
        <ele>596.4</ele>
        <time>2025-06-22T07:43:33Z</time>
      </trkpt>
      <trkpt lat="42.89364" lon="1.20433">
        <ele>596.8</ele>
        <time>2025-06-22T07:43:34Z</time>
      </trkpt>
      <trkpt lat="42.89363" lon="1.20433">
        <ele>597.2</ele>
        <time>2025-06-22T07:43:35Z</time>
      </trkpt>
      <trkpt lat="42.89362" lon="1.20433">
        <ele>596</ele>
        <time>2025-06-22T07:44:08Z</time>
      </trkpt>
      <trkpt lat="42.89357" lon="1.20433">
        <ele>596</ele>
        <time>2025-06-22T07:44:11Z</time>
      </trkpt>
      <trkpt lat="42.89355" lon="1.20433">
        <ele>596</ele>
        <time>2025-06-22T07:44:12Z</time>
      </trkpt>
      <trkpt lat="42.89347" lon="1.20435">
        <ele>596.4</ele>
        <time>2025-06-22T07:44:18Z</time>
      </trkpt>
      <trkpt lat="42.89346" lon="1.20436">
        <ele>597</ele>
        <time>2025-06-22T07:44:19Z</time>
      </trkpt>
      <trkpt lat="42.89345" lon="1.20436">
        <ele>597.4</ele>
        <time>2025-06-22T07:44:20Z</time>
      </trkpt>
      <trkpt lat="42.89345" lon="1.20436">
        <ele>598.2</ele>
        <time>2025-06-22T07:44:21Z</time>
      </trkpt>
      <trkpt lat="42.89343" lon="1.20437">
        <ele>598.2</ele>
        <time>2025-06-22T07:44:23Z</time>
      </trkpt>
      <trkpt lat="42.89345" lon="1.20435">
        <ele>598.2</ele>
        <time>2025-06-22T07:44:28Z</time>
      </trkpt>
      <trkpt lat="42.89347" lon="1.20434">
        <ele>598.2</ele>
        <time>2025-06-22T07:44:29Z</time>
      </trkpt>
      <trkpt lat="42.89354" lon="1.20432">
        <ele>597.8</ele>
        <time>2025-06-22T07:44:36Z</time>
      </trkpt>
      <trkpt lat="42.89355" lon="1.20432">
        <ele>597.4</ele>
        <time>2025-06-22T07:44:37Z</time>
      </trkpt>
      <trkpt lat="42.89357" lon="1.20432">
        <ele>597</ele>
        <time>2025-06-22T07:44:38Z</time>
      </trkpt>
      <trkpt lat="42.8936" lon="1.20432">
        <ele>596.6</ele>
        <time>2025-06-22T07:44:39Z</time>
      </trkpt>
      <trkpt lat="42.89363" lon="1.20432">
        <ele>596.2</ele>
        <time>2025-06-22T07:44:40Z</time>
      </trkpt>
      <trkpt lat="42.89365" lon="1.20432">
        <ele>596.2</ele>
        <time>2025-06-22T07:44:41Z</time>
      </trkpt>
      <trkpt lat="42.89368" lon="1.20436">
        <ele>596.2</ele>
        <time>2025-06-22T07:44:42Z</time>
      </trkpt>
      <trkpt lat="42.89373" lon="1.20444">
        <ele>596.2</ele>
        <time>2025-06-22T07:44:44Z</time>
      </trkpt>
      <trkpt lat="42.89375" lon="1.2045">
        <ele>595.4</ele>
        <time>2025-06-22T07:44:45Z</time>
      </trkpt>
      <trkpt lat="42.89377" lon="1.20455">
        <ele>595</ele>
        <time>2025-06-22T07:44:46Z</time>
      </trkpt>
      <trkpt lat="42.89378" lon="1.2046">
        <ele>594.6</ele>
        <time>2025-06-22T07:44:47Z</time>
      </trkpt>
      <trkpt lat="42.89378" lon="1.20464">
        <ele>594</ele>
        <time>2025-06-22T07:44:48Z</time>
      </trkpt>
      <trkpt lat="42.89381" lon="1.20469">
        <ele>593.6</ele>
        <time>2025-06-22T07:44:49Z</time>
      </trkpt>
      <trkpt lat="42.89381" lon="1.20474">
        <ele>593.2</ele>
        <time>2025-06-22T07:44:50Z</time>
      </trkpt>
      <trkpt lat="42.8938" lon="1.2048">
        <ele>592.8</ele>
        <time>2025-06-22T07:44:51Z</time>
      </trkpt>
      <trkpt lat="42.8938" lon="1.20486">
        <ele>592.4</ele>
        <time>2025-06-22T07:44:52Z</time>
      </trkpt>
      <trkpt lat="42.89379" lon="1.20491">
        <ele>592</ele>
        <time>2025-06-22T07:44:53Z</time>
      </trkpt>
      <trkpt lat="42.89379" lon="1.20502">
        <ele>591.6</ele>
        <time>2025-06-22T07:44:55Z</time>
      </trkpt>
      <trkpt lat="42.89378" lon="1.20507">
        <ele>591</ele>
        <time>2025-06-22T07:44:56Z</time>
      </trkpt>
      <trkpt lat="42.89377" lon="1.20513">
        <ele>590.6</ele>
        <time>2025-06-22T07:44:57Z</time>
      </trkpt>
      <trkpt lat="42.89375" lon="1.2052">
        <ele>590.2</ele>
        <time>2025-06-22T07:44:58Z</time>
      </trkpt>
      <trkpt lat="42.89374" lon="1.20527">
        <ele>589.6</ele>
        <time>2025-06-22T07:44:59Z</time>
      </trkpt>
      <trkpt lat="42.89373" lon="1.20533">
        <ele>589.2</ele>
        <time>2025-06-22T07:45:00Z</time>
      </trkpt>
      <trkpt lat="42.89373" lon="1.2054">
        <ele>588.6</ele>
        <time>2025-06-22T07:45:01Z</time>
      </trkpt>
      <trkpt lat="42.89371" lon="1.20546">
        <ele>588.2</ele>
        <time>2025-06-22T07:45:02Z</time>
      </trkpt>
      <trkpt lat="42.8937" lon="1.20552">
        <ele>587.8</ele>
        <time>2025-06-22T07:45:03Z</time>
      </trkpt>
      <trkpt lat="42.89369" lon="1.20559">
        <ele>587.2</ele>
        <time>2025-06-22T07:45:04Z</time>
      </trkpt>
      <trkpt lat="42.89368" lon="1.20565">
        <ele>586.8</ele>
        <time>2025-06-22T07:45:05Z</time>
      </trkpt>
      <trkpt lat="42.89369" lon="1.20571">
        <ele>586.2</ele>
        <time>2025-06-22T07:45:06Z</time>
      </trkpt>
      <trkpt lat="42.8937" lon="1.20576">
        <ele>585.6</ele>
        <time>2025-06-22T07:45:07Z</time>
      </trkpt>
      <trkpt lat="42.8937" lon="1.20581">
        <ele>585.2</ele>
        <time>2025-06-22T07:45:08Z</time>
      </trkpt>
      <trkpt lat="42.89372" lon="1.20584">
        <ele>584.6</ele>
        <time>2025-06-22T07:45:09Z</time>
      </trkpt>
      <trkpt lat="42.89374" lon="1.20587">
        <ele>583.4</ele>
        <time>2025-06-22T07:45:10Z</time>
      </trkpt>
      <trkpt lat="42.89376" lon="1.20589">
        <ele>582.8</ele>
        <time>2025-06-22T07:45:11Z</time>
      </trkpt>
      <trkpt lat="42.89377" lon="1.2059">
        <ele>582.4</ele>
        <time>2025-06-22T07:45:12Z</time>
      </trkpt>
      <trkpt lat="42.89379" lon="1.2059">
        <ele>582.4</ele>
        <time>2025-06-22T07:45:15Z</time>
      </trkpt>
      <trkpt lat="42.89387" lon="1.2058">
        <ele>582.4</ele>
        <time>2025-06-22T07:45:20Z</time>
      </trkpt>
      <trkpt lat="42.89389" lon="1.20579">
        <ele>582.4</ele>
        <time>2025-06-22T07:45:23Z</time>
      </trkpt>
      <trkpt lat="42.89387" lon="1.20582">
        <ele>582.4</ele>
        <time>2025-06-22T07:45:34Z</time>
      </trkpt>
      <trkpt lat="42.89384" lon="1.20585">
        <ele>582.4</ele>
        <time>2025-06-22T07:45:35Z</time>
      </trkpt>
      <trkpt lat="42.8937" lon="1.20599">
        <ele>582.4</ele>
        <time>2025-06-22T07:45:40Z</time>
      </trkpt>
      <trkpt lat="42.89364" lon="1.20603">
        <ele>581.8</ele>
        <time>2025-06-22T07:45:42Z</time>
      </trkpt>
      <trkpt lat="42.8936" lon="1.20603">
        <ele>581.4</ele>
        <time>2025-06-22T07:45:43Z</time>
      </trkpt>
      <trkpt lat="42.89357" lon="1.20602">
        <ele>581</ele>
        <time>2025-06-22T07:45:44Z</time>
      </trkpt>
      <trkpt lat="42.89354" lon="1.20601">
        <ele>580.6</ele>
        <time>2025-06-22T07:45:45Z</time>
      </trkpt>
      <trkpt lat="42.89352" lon="1.20601">
        <ele>580.2</ele>
        <time>2025-06-22T07:45:46Z</time>
      </trkpt>
      <trkpt lat="42.89352" lon="1.20602">
        <ele>580.2</ele>
        <time>2025-06-22T07:45:47Z</time>
      </trkpt>
      <trkpt lat="42.89352" lon="1.20603">
        <ele>579.8</ele>
        <time>2025-06-22T07:45:48Z</time>
      </trkpt>
      <trkpt lat="42.89353" lon="1.20604">
        <ele>579.4</ele>
        <time>2025-06-22T07:45:49Z</time>
      </trkpt>
      <trkpt lat="42.89353" lon="1.20606">
        <ele>579</ele>
        <time>2025-06-22T07:45:50Z</time>
      </trkpt>
      <trkpt lat="42.89354" lon="1.20607">
        <ele>578.6</ele>
        <time>2025-06-22T07:45:51Z</time>
      </trkpt>
      <trkpt lat="42.89355" lon="1.20609">
        <ele>578.2</ele>
        <time>2025-06-22T07:45:52Z</time>
      </trkpt>
      <trkpt lat="42.89357" lon="1.20613">
        <ele>578.2</ele>
        <time>2025-06-22T07:45:54Z</time>
      </trkpt>
      <trkpt lat="42.89364" lon="1.20617">
        <ele>577.8</ele>
        <time>2025-06-22T07:45:59Z</time>
      </trkpt>
      <trkpt lat="42.89365" lon="1.20617">
        <ele>577</ele>
        <time>2025-06-22T07:46:00Z</time>
      </trkpt>
      <trkpt lat="42.89366" lon="1.20617">
        <ele>576.6</ele>
        <time>2025-06-22T07:46:01Z</time>
      </trkpt>
      <trkpt lat="42.89367" lon="1.20617">
        <ele>576.2</ele>
        <time>2025-06-22T07:46:02Z</time>
      </trkpt>
      <trkpt lat="42.8937" lon="1.20618">
        <ele>576.2</ele>
        <time>2025-06-22T07:46:10Z</time>
      </trkpt>
      <trkpt lat="42.89374" lon="1.20618">
        <ele>576.2</ele>
        <time>2025-06-22T07:46:12Z</time>
      </trkpt>
      <trkpt lat="42.89377" lon="1.20618">
        <ele>575.8</ele>
        <time>2025-06-22T07:46:13Z</time>
      </trkpt>
      <trkpt lat="42.89379" lon="1.20618">
        <ele>575.2</ele>
        <time>2025-06-22T07:46:14Z</time>
      </trkpt>
      <trkpt lat="42.89382" lon="1.20618">
        <ele>574.8</ele>
        <time>2025-06-22T07:46:15Z</time>
      </trkpt>
      <trkpt lat="42.89384" lon="1.20618">
        <ele>574.4</ele>
        <time>2025-06-22T07:46:16Z</time>
      </trkpt>
      <trkpt lat="42.89386" lon="1.20618">
        <ele>574</ele>
        <time>2025-06-22T07:46:17Z</time>
      </trkpt>
      <trkpt lat="42.89388" lon="1.20617">
        <ele>573.6</ele>
        <time>2025-06-22T07:46:18Z</time>
      </trkpt>
      <trkpt lat="42.89391" lon="1.20616">
        <ele>573.2</ele>
        <time>2025-06-22T07:46:19Z</time>
      </trkpt>
      <trkpt lat="42.89395" lon="1.20616">
        <ele>572.6</ele>
        <time>2025-06-22T07:46:20Z</time>
      </trkpt>
      <trkpt lat="42.89399" lon="1.20615">
        <ele>572.2</ele>
        <time>2025-06-22T07:46:21Z</time>
      </trkpt>
      <trkpt lat="42.89402" lon="1.20614">
        <ele>571.8</ele>
        <time>2025-06-22T07:46:22Z</time>
      </trkpt>
      <trkpt lat="42.89404" lon="1.20612">
        <ele>571.2</ele>
        <time>2025-06-22T07:46:23Z</time>
      </trkpt>
      <trkpt lat="42.89407" lon="1.20611">
        <ele>570.6</ele>
        <time>2025-06-22T07:46:24Z</time>
      </trkpt>
      <trkpt lat="42.89409" lon="1.2061">
        <ele>569.6</ele>
        <time>2025-06-22T07:46:25Z</time>
      </trkpt>
      <trkpt lat="42.89411" lon="1.2061">
        <ele>569.6</ele>
        <time>2025-06-22T07:46:26Z</time>
      </trkpt>
      <trkpt lat="42.89422" lon="1.20604">
        <ele>569.6</ele>
        <time>2025-06-22T07:46:32Z</time>
      </trkpt>
      <trkpt lat="42.89432" lon="1.20602">
        <ele>569.6</ele>
        <time>2025-06-22T07:46:38Z</time>
      </trkpt>
      <trkpt lat="42.89438" lon="1.20596">
        <ele>570</ele>
        <time>2025-06-22T07:46:44Z</time>
      </trkpt>
      <trkpt lat="42.89439" lon="1.20595">
        <ele>570.4</ele>
        <time>2025-06-22T07:46:45Z</time>
      </trkpt>
      <trkpt lat="42.89441" lon="1.20593">
        <ele>571</ele>
        <time>2025-06-22T07:46:46Z</time>
      </trkpt>
      <trkpt lat="42.89442" lon="1.20592">
        <ele>571.4</ele>
        <time>2025-06-22T07:46:47Z</time>
      </trkpt>
      <trkpt lat="42.89444" lon="1.2059">
        <ele>571.8</ele>
        <time>2025-06-22T07:46:48Z</time>
      </trkpt>
      <trkpt lat="42.8945" lon="1.20586">
        <ele>572.2</ele>
        <time>2025-06-22T07:46:51Z</time>
      </trkpt>
      <trkpt lat="42.89451" lon="1.20586">
        <ele>572.6</ele>
        <time>2025-06-22T07:46:52Z</time>
      </trkpt>
      <trkpt lat="42.89453" lon="1.20585">
        <ele>573</ele>
        <time>2025-06-22T07:46:53Z</time>
      </trkpt>
      <trkpt lat="42.89454" lon="1.20585">
        <ele>573.4</ele>
        <time>2025-06-22T07:46:54Z</time>
      </trkpt>
      <trkpt lat="42.89456" lon="1.20586">
        <ele>573.8</ele>
        <time>2025-06-22T07:46:55Z</time>
      </trkpt>
      <trkpt lat="42.8946" lon="1.20588">
        <ele>573.8</ele>
        <time>2025-06-22T07:46:58Z</time>
      </trkpt>
      <trkpt lat="42.89464" lon="1.2059">
        <ele>574.2</ele>
        <time>2025-06-22T07:47:00Z</time>
      </trkpt>
      <trkpt lat="42.89465" lon="1.20591">
        <ele>574.8</ele>
        <time>2025-06-22T07:47:01Z</time>
      </trkpt>
      <trkpt lat="42.89466" lon="1.20592">
        <ele>575.2</ele>
        <time>2025-06-22T07:47:02Z</time>
      </trkpt>
      <trkpt lat="42.89466" lon="1.20593">
        <ele>575.6</ele>
        <time>2025-06-22T07:47:03Z</time>
      </trkpt>
      <trkpt lat="42.89466" lon="1.20595">
        <ele>576</ele>
        <time>2025-06-22T07:47:04Z</time>
      </trkpt>
      <trkpt lat="42.89466" lon="1.20603">
        <ele>576.4</ele>
        <time>2025-06-22T07:47:09Z</time>
      </trkpt>
      <trkpt lat="42.89467" lon="1.20605">
        <ele>576.8</ele>
        <time>2025-06-22T07:47:10Z</time>
      </trkpt>
      <trkpt lat="42.89467" lon="1.20607">
        <ele>577.2</ele>
        <time>2025-06-22T07:47:11Z</time>
      </trkpt>
      <trkpt lat="42.89468" lon="1.2061">
        <ele>577.6</ele>
        <time>2025-06-22T07:47:12Z</time>
      </trkpt>
      <trkpt lat="42.89469" lon="1.20612">
        <ele>578.2</ele>
        <time>2025-06-22T07:47:13Z</time>
      </trkpt>
      <trkpt lat="42.89471" lon="1.20626">
        <ele>578.6</ele>
        <time>2025-06-22T07:47:18Z</time>
      </trkpt>
      <trkpt lat="42.89472" lon="1.2063">
        <ele>579</ele>
        <time>2025-06-22T07:47:19Z</time>
      </trkpt>
      <trkpt lat="42.89472" lon="1.20632">
        <ele>579.4</ele>
        <time>2025-06-22T07:47:20Z</time>
      </trkpt>
      <trkpt lat="42.89473" lon="1.20635">
        <ele>579.8</ele>
        <time>2025-06-22T07:47:21Z</time>
      </trkpt>
      <trkpt lat="42.89473" lon="1.20637">
        <ele>580.2</ele>
        <time>2025-06-22T07:47:22Z</time>
      </trkpt>
      <trkpt lat="42.89475" lon="1.20652">
        <ele>580.2</ele>
        <time>2025-06-22T07:47:27Z</time>
      </trkpt>
      <trkpt lat="42.89475" lon="1.20671">
        <ele>580.6</ele>
        <time>2025-06-22T07:47:33Z</time>
      </trkpt>
      <trkpt lat="42.89475" lon="1.20674">
        <ele>581</ele>
        <time>2025-06-22T07:47:34Z</time>
      </trkpt>
      <trkpt lat="42.89475" lon="1.20677">
        <ele>581.4</ele>
        <time>2025-06-22T07:47:35Z</time>
      </trkpt>
      <trkpt lat="42.89474" lon="1.2068">
        <ele>582</ele>
        <time>2025-06-22T07:47:36Z</time>
      </trkpt>
      <trkpt lat="42.89474" lon="1.20684">
        <ele>582.4</ele>
        <time>2025-06-22T07:47:37Z</time>
      </trkpt>
      <trkpt lat="42.89473" lon="1.20703">
        <ele>582.4</ele>
        <time>2025-06-22T07:47:43Z</time>
      </trkpt>
      <trkpt lat="42.89477" lon="1.20721">
        <ele>582.4</ele>
        <time>2025-06-22T07:47:48Z</time>
      </trkpt>
      <trkpt lat="42.89488" lon="1.20736">
        <ele>582.4</ele>
        <time>2025-06-22T07:47:53Z</time>
      </trkpt>
      <trkpt lat="42.89503" lon="1.20744">
        <ele>582.4</ele>
        <time>2025-06-22T07:47:59Z</time>
      </trkpt>
      <trkpt lat="42.89521" lon="1.20751">
        <ele>582.4</ele>
        <time>2025-06-22T07:48:06Z</time>
      </trkpt>
      <trkpt lat="42.89544" lon="1.20756">
        <ele>582.4</ele>
        <time>2025-06-22T07:48:14Z</time>
      </trkpt>
      <trkpt lat="42.89559" lon="1.20761">
        <ele>582.4</ele>
        <time>2025-06-22T07:48:21Z</time>
      </trkpt>
      <trkpt lat="42.89561" lon="1.20762">
        <ele>582.8</ele>
        <time>2025-06-22T07:48:22Z</time>
      </trkpt>
      <trkpt lat="42.89563" lon="1.20763">
        <ele>583.2</ele>
        <time>2025-06-22T07:48:23Z</time>
      </trkpt>
      <trkpt lat="42.89565" lon="1.20764">
        <ele>583.8</ele>
        <time>2025-06-22T07:48:24Z</time>
      </trkpt>
      <trkpt lat="42.89568" lon="1.20765">
        <ele>584.2</ele>
        <time>2025-06-22T07:48:25Z</time>
      </trkpt>
      <trkpt lat="42.89571" lon="1.20766">
        <ele>584.6</ele>
        <time>2025-06-22T07:48:26Z</time>
      </trkpt>
      <trkpt lat="42.8958" lon="1.20768">
        <ele>584.6</ele>
        <time>2025-06-22T07:48:29Z</time>
      </trkpt>
      <trkpt lat="42.89582" lon="1.20768">
        <ele>585</ele>
        <time>2025-06-22T07:48:30Z</time>
      </trkpt>
      <trkpt lat="42.89585" lon="1.20769">
        <ele>585.4</ele>
        <time>2025-06-22T07:48:31Z</time>
      </trkpt>
      <trkpt lat="42.89587" lon="1.20769">
        <ele>585.8</ele>
        <time>2025-06-22T07:48:32Z</time>
      </trkpt>
      <trkpt lat="42.8959" lon="1.20769">
        <ele>586.4</ele>
        <time>2025-06-22T07:48:33Z</time>
      </trkpt>
      <trkpt lat="42.89594" lon="1.20769">
        <ele>586.8</ele>
        <time>2025-06-22T07:48:34Z</time>
      </trkpt>
      <trkpt lat="42.89599" lon="1.2077">
        <ele>586.8</ele>
        <time>2025-06-22T07:48:36Z</time>
      </trkpt>
      <trkpt lat="42.89617" lon="1.20769">
        <ele>586.8</ele>
        <time>2025-06-22T07:48:43Z</time>
      </trkpt>
      <trkpt lat="42.8963" lon="1.20764">
        <ele>586.8</ele>
        <time>2025-06-22T07:48:49Z</time>
      </trkpt>
      <trkpt lat="42.89643" lon="1.20748">
        <ele>586.8</ele>
        <time>2025-06-22T07:48:55Z</time>
      </trkpt>
      <trkpt lat="42.89654" lon="1.20734">
        <ele>586.8</ele>
        <time>2025-06-22T07:49:01Z</time>
      </trkpt>
      <trkpt lat="42.89666" lon="1.20718">
        <ele>586.8</ele>
        <time>2025-06-22T07:49:06Z</time>
      </trkpt>
      <trkpt lat="42.89683" lon="1.207">
        <ele>586.8</ele>
        <time>2025-06-22T07:49:11Z</time>
      </trkpt>
      <trkpt lat="42.89686" lon="1.20697">
        <ele>586.4</ele>
        <time>2025-06-22T07:49:12Z</time>
      </trkpt>
      <trkpt lat="42.89689" lon="1.20694">
        <ele>586</ele>
        <time>2025-06-22T07:49:13Z</time>
      </trkpt>
      <trkpt lat="42.89692" lon="1.20691">
        <ele>585.4</ele>
        <time>2025-06-22T07:49:14Z</time>
      </trkpt>
      <trkpt lat="42.89695" lon="1.20689">
        <ele>585</ele>
        <time>2025-06-22T07:49:15Z</time>
      </trkpt>
      <trkpt lat="42.89698" lon="1.20686">
        <ele>584.6</ele>
        <time>2025-06-22T07:49:16Z</time>
      </trkpt>
      <trkpt lat="42.89701" lon="1.20682">
        <ele>584.6</ele>
        <time>2025-06-22T07:49:17Z</time>
      </trkpt>
      <trkpt lat="42.89704" lon="1.20679">
        <ele>584.2</ele>
        <time>2025-06-22T07:49:18Z</time>
      </trkpt>
      <trkpt lat="42.89708" lon="1.20675">
        <ele>583.6</ele>
        <time>2025-06-22T07:49:19Z</time>
      </trkpt>
      <trkpt lat="42.89711" lon="1.20671">
        <ele>583.2</ele>
        <time>2025-06-22T07:49:20Z</time>
      </trkpt>
      <trkpt lat="42.89714" lon="1.20667">
        <ele>582.6</ele>
        <time>2025-06-22T07:49:21Z</time>
      </trkpt>
      <trkpt lat="42.89716" lon="1.20664">
        <ele>582.2</ele>
        <time>2025-06-22T07:49:22Z</time>
      </trkpt>
      <trkpt lat="42.89719" lon="1.20661">
        <ele>581.6</ele>
        <time>2025-06-22T07:49:23Z</time>
      </trkpt>
      <trkpt lat="42.89722" lon="1.20659">
        <ele>581.2</ele>
        <time>2025-06-22T07:49:24Z</time>
      </trkpt>
      <trkpt lat="42.89724" lon="1.20657">
        <ele>580.6</ele>
        <time>2025-06-22T07:49:25Z</time>
      </trkpt>
      <trkpt lat="42.89725" lon="1.20655">
        <ele>580.2</ele>
        <time>2025-06-22T07:49:26Z</time>
      </trkpt>
      <trkpt lat="42.89726" lon="1.20654">
        <ele>579.6</ele>
        <time>2025-06-22T07:49:27Z</time>
      </trkpt>
      <trkpt lat="42.89727" lon="1.20653">
        <ele>579</ele>
        <time>2025-06-22T07:49:28Z</time>
      </trkpt>
      <trkpt lat="42.89723" lon="1.20645">
        <ele>578</ele>
        <time>2025-06-22T07:50:37Z</time>
      </trkpt>
      <trkpt lat="42.89721" lon="1.20646">
        <ele>578</ele>
        <time>2025-06-22T07:50:39Z</time>
      </trkpt>
      <trkpt lat="42.89716" lon="1.20655">
        <ele>578.6</ele>
        <time>2025-06-22T07:50:44Z</time>
      </trkpt>
      <trkpt lat="42.89714" lon="1.20657">
        <ele>579</ele>
        <time>2025-06-22T07:50:45Z</time>
      </trkpt>
      <trkpt lat="42.89713" lon="1.20659">
        <ele>579.4</ele>
        <time>2025-06-22T07:50:46Z</time>
      </trkpt>
      <trkpt lat="42.89711" lon="1.20661">
        <ele>579.8</ele>
        <time>2025-06-22T07:50:47Z</time>
      </trkpt>
      <trkpt lat="42.8971" lon="1.20665">
        <ele>580.4</ele>
        <time>2025-06-22T07:50:48Z</time>
      </trkpt>
      <trkpt lat="42.89705" lon="1.20675">
        <ele>580.4</ele>
        <time>2025-06-22T07:50:51Z</time>
      </trkpt>
      <trkpt lat="42.89704" lon="1.20677">
        <ele>580.8</ele>
        <time>2025-06-22T07:50:52Z</time>
      </trkpt>
      <trkpt lat="42.89702" lon="1.20679">
        <ele>581.2</ele>
        <time>2025-06-22T07:50:53Z</time>
      </trkpt>
      <trkpt lat="42.89701" lon="1.20681">
        <ele>581.8</ele>
        <time>2025-06-22T07:50:54Z</time>
      </trkpt>
      <trkpt lat="42.89699" lon="1.20683">
        <ele>582.2</ele>
        <time>2025-06-22T07:50:55Z</time>
      </trkpt>
      <trkpt lat="42.89697" lon="1.20685">
        <ele>582.6</ele>
        <time>2025-06-22T07:50:56Z</time>
      </trkpt>
      <trkpt lat="42.8969" lon="1.2069">
        <ele>583</ele>
        <time>2025-06-22T07:50:59Z</time>
      </trkpt>
      <trkpt lat="42.89688" lon="1.20692">
        <ele>583.4</ele>
        <time>2025-06-22T07:51:00Z</time>
      </trkpt>
      <trkpt lat="42.89687" lon="1.20694">
        <ele>584</ele>
        <time>2025-06-22T07:51:01Z</time>
      </trkpt>
      <trkpt lat="42.89685" lon="1.20696">
        <ele>584.4</ele>
        <time>2025-06-22T07:51:02Z</time>
      </trkpt>
      <trkpt lat="42.89683" lon="1.20698">
        <ele>584.8</ele>
        <time>2025-06-22T07:51:03Z</time>
      </trkpt>
      <trkpt lat="42.89672" lon="1.2071">
        <ele>584.8</ele>
        <time>2025-06-22T07:51:08Z</time>
      </trkpt>
      <trkpt lat="42.8967" lon="1.20712">
        <ele>585.2</ele>
        <time>2025-06-22T07:51:09Z</time>
      </trkpt>
      <trkpt lat="42.89669" lon="1.20715">
        <ele>585.6</ele>
        <time>2025-06-22T07:51:10Z</time>
      </trkpt>
      <trkpt lat="42.89667" lon="1.20718">
        <ele>586</ele>
        <time>2025-06-22T07:51:11Z</time>
      </trkpt>
      <trkpt lat="42.89666" lon="1.2072">
        <ele>586.4</ele>
        <time>2025-06-22T07:51:12Z</time>
      </trkpt>
      <trkpt lat="42.89665" lon="1.20723">
        <ele>586.8</ele>
        <time>2025-06-22T07:51:13Z</time>
      </trkpt>
      <trkpt lat="42.89663" lon="1.20726">
        <ele>586.8</ele>
        <time>2025-06-22T07:51:14Z</time>
      </trkpt>
      <trkpt lat="42.89659" lon="1.20733">
        <ele>587.2</ele>
        <time>2025-06-22T07:51:17Z</time>
      </trkpt>
      <trkpt lat="42.89657" lon="1.20735">
        <ele>587.6</ele>
        <time>2025-06-22T07:51:18Z</time>
      </trkpt>
      <trkpt lat="42.89656" lon="1.20738">
        <ele>588</ele>
        <time>2025-06-22T07:51:19Z</time>
      </trkpt>
      <trkpt lat="42.89654" lon="1.20741">
        <ele>588.4</ele>
        <time>2025-06-22T07:51:20Z</time>
      </trkpt>
      <trkpt lat="42.89652" lon="1.20745">
        <ele>588.8</ele>
        <time>2025-06-22T07:51:21Z</time>
      </trkpt>
      <trkpt lat="42.89639" lon="1.20759">
        <ele>588.8</ele>
        <time>2025-06-22T07:51:26Z</time>
      </trkpt>
      <trkpt lat="42.89627" lon="1.20764">
        <ele>588.8</ele>
        <time>2025-06-22T07:51:30Z</time>
      </trkpt>
      <trkpt lat="42.89606" lon="1.20767">
        <ele>588.8</ele>
        <time>2025-06-22T07:51:36Z</time>
      </trkpt>
      <trkpt lat="42.89581" lon="1.20763">
        <ele>588.8</ele>
        <time>2025-06-22T07:51:42Z</time>
      </trkpt>
      <trkpt lat="42.89572" lon="1.2076">
        <ele>588.4</ele>
        <time>2025-06-22T07:51:44Z</time>
      </trkpt>
      <trkpt lat="42.89567" lon="1.20758">
        <ele>588</ele>
        <time>2025-06-22T07:51:45Z</time>
      </trkpt>
      <trkpt lat="42.89562" lon="1.20757">
        <ele>587.6</ele>
        <time>2025-06-22T07:51:46Z</time>
      </trkpt>
      <trkpt lat="42.89558" lon="1.20755">
        <ele>586.6</ele>
        <time>2025-06-22T07:51:47Z</time>
      </trkpt>
      <trkpt lat="42.89553" lon="1.20755">
        <ele>586</ele>
        <time>2025-06-22T07:51:48Z</time>
      </trkpt>
      <trkpt lat="42.89548" lon="1.20754">
        <ele>585.4</ele>
        <time>2025-06-22T07:51:49Z</time>
      </trkpt>
      <trkpt lat="42.89542" lon="1.20752">
        <ele>584.8</ele>
        <time>2025-06-22T07:51:50Z</time>
      </trkpt>
      <trkpt lat="42.89537" lon="1.2075">
        <ele>584.2</ele>
        <time>2025-06-22T07:51:51Z</time>
      </trkpt>
      <trkpt lat="42.89532" lon="1.20749">
        <ele>584.2</ele>
        <time>2025-06-22T07:51:52Z</time>
      </trkpt>
      <trkpt lat="42.89518" lon="1.20746">
        <ele>584.2</ele>
        <time>2025-06-22T07:51:56Z</time>
      </trkpt>
      <trkpt lat="42.89514" lon="1.20746">
        <ele>584.2</ele>
        <time>2025-06-22T07:51:57Z</time>
      </trkpt>
      <trkpt lat="42.89503" lon="1.20742">
        <ele>584.2</ele>
        <time>2025-06-22T07:52:00Z</time>
      </trkpt>
      <trkpt lat="42.89485" lon="1.2073">
        <ele>584.2</ele>
        <time>2025-06-22T07:52:05Z</time>
      </trkpt>
      <trkpt lat="42.89478" lon="1.2072">
        <ele>584.2</ele>
        <time>2025-06-22T07:52:08Z</time>
      </trkpt>
      <trkpt lat="42.89478" lon="1.20716">
        <ele>584.2</ele>
        <time>2025-06-22T07:52:09Z</time>
      </trkpt>
      <trkpt lat="42.89477" lon="1.20708">
        <ele>584.2</ele>
        <time>2025-06-22T07:52:11Z</time>
      </trkpt>
      <trkpt lat="42.8948" lon="1.20697">
        <ele>584.2</ele>
        <time>2025-06-22T07:52:14Z</time>
      </trkpt>
      <trkpt lat="42.89483" lon="1.20679">
        <ele>584.2</ele>
        <time>2025-06-22T07:52:20Z</time>
      </trkpt>
      <trkpt lat="42.89487" lon="1.20661">
        <ele>583.8</ele>
        <time>2025-06-22T07:52:25Z</time>
      </trkpt>
      <trkpt lat="42.89488" lon="1.20656">
        <ele>583.2</ele>
        <time>2025-06-22T07:52:26Z</time>
      </trkpt>
      <trkpt lat="42.89488" lon="1.2065">
        <ele>582.8</ele>
        <time>2025-06-22T07:52:27Z</time>
      </trkpt>
      <trkpt lat="42.89489" lon="1.20646">
        <ele>582.4</ele>
        <time>2025-06-22T07:52:28Z</time>
      </trkpt>
      <trkpt lat="42.8949" lon="1.2064">
        <ele>581.8</ele>
        <time>2025-06-22T07:52:29Z</time>
      </trkpt>
      <trkpt lat="42.89491" lon="1.20635">
        <ele>581.4</ele>
        <time>2025-06-22T07:52:30Z</time>
      </trkpt>
      <trkpt lat="42.89491" lon="1.2063">
        <ele>580.8</ele>
        <time>2025-06-22T07:52:31Z</time>
      </trkpt>
      <trkpt lat="42.89491" lon="1.20626">
        <ele>580.4</ele>
        <time>2025-06-22T07:52:32Z</time>
      </trkpt>
      <trkpt lat="42.8949" lon="1.20623">
        <ele>579.8</ele>
        <time>2025-06-22T07:52:33Z</time>
      </trkpt>
      <trkpt lat="42.89487" lon="1.20616">
        <ele>579.4</ele>
        <time>2025-06-22T07:52:34Z</time>
      </trkpt>
      <trkpt lat="42.89479" lon="1.20608">
        <ele>579</ele>
        <time>2025-06-22T07:52:35Z</time>
      </trkpt>
      <trkpt lat="42.89473" lon="1.20604">
        <ele>578</ele>
        <time>2025-06-22T07:52:36Z</time>
      </trkpt>
      <trkpt lat="42.89468" lon="1.20601">
        <ele>577.6</ele>
        <time>2025-06-22T07:52:37Z</time>
      </trkpt>
      <trkpt lat="42.89464" lon="1.20599">
        <ele>577.2</ele>
        <time>2025-06-22T07:52:38Z</time>
      </trkpt>
      <trkpt lat="42.89456" lon="1.20596">
        <ele>576.8</ele>
        <time>2025-06-22T07:52:40Z</time>
      </trkpt>
      <trkpt lat="42.89454" lon="1.20596">
        <ele>576.4</ele>
        <time>2025-06-22T07:52:41Z</time>
      </trkpt>
      <trkpt lat="42.89453" lon="1.20596">
        <ele>575.8</ele>
        <time>2025-06-22T07:52:42Z</time>
      </trkpt>
      <trkpt lat="42.89452" lon="1.20596">
        <ele>575.4</ele>
        <time>2025-06-22T07:52:43Z</time>
      </trkpt>
      <trkpt lat="42.8945" lon="1.20596">
        <ele>574.8</ele>
        <time>2025-06-22T07:52:44Z</time>
      </trkpt>
      <trkpt lat="42.89448" lon="1.20595">
        <ele>574.8</ele>
        <time>2025-06-22T07:52:46Z</time>
      </trkpt>
      <trkpt lat="42.89447" lon="1.20595">
        <ele>574.8</ele>
        <time>2025-06-22T07:52:47Z</time>
      </trkpt>
      <trkpt lat="42.89445" lon="1.20596">
        <ele>574.4</ele>
        <time>2025-06-22T07:52:48Z</time>
      </trkpt>
      <trkpt lat="42.89442" lon="1.20596">
        <ele>574</ele>
        <time>2025-06-22T07:52:49Z</time>
      </trkpt>
      <trkpt lat="42.89439" lon="1.20596">
        <ele>573.4</ele>
        <time>2025-06-22T07:52:50Z</time>
      </trkpt>
      <trkpt lat="42.89436" lon="1.20597">
        <ele>573</ele>
        <time>2025-06-22T07:52:51Z</time>
      </trkpt>
      <trkpt lat="42.89431" lon="1.20599">
        <ele>572.6</ele>
        <time>2025-06-22T07:52:52Z</time>
      </trkpt>
      <trkpt lat="42.89414" lon="1.20606">
        <ele>572.6</ele>
        <time>2025-06-22T07:52:56Z</time>
      </trkpt>
      <trkpt lat="42.89396" lon="1.20612">
        <ele>572.6</ele>
        <time>2025-06-22T07:53:01Z</time>
      </trkpt>
      <trkpt lat="42.8939" lon="1.20614">
        <ele>573</ele>
        <time>2025-06-22T07:53:03Z</time>
      </trkpt>
      <trkpt lat="42.89388" lon="1.20614">
        <ele>573.4</ele>
        <time>2025-06-22T07:53:04Z</time>
      </trkpt>
      <trkpt lat="42.89385" lon="1.20615">
        <ele>574</ele>
        <time>2025-06-22T07:53:05Z</time>
      </trkpt>
      <trkpt lat="42.89383" lon="1.20615">
        <ele>574.4</ele>
        <time>2025-06-22T07:53:06Z</time>
      </trkpt>
      <trkpt lat="42.8938" lon="1.20616">
        <ele>575</ele>
        <time>2025-06-22T07:53:07Z</time>
      </trkpt>
      <trkpt lat="42.89378" lon="1.20616">
        <ele>575.4</ele>
        <time>2025-06-22T07:53:08Z</time>
      </trkpt>
      <trkpt lat="42.89376" lon="1.20616">
        <ele>575.8</ele>
        <time>2025-06-22T07:53:09Z</time>
      </trkpt>
      <trkpt lat="42.89373" lon="1.20616">
        <ele>576.2</ele>
        <time>2025-06-22T07:53:10Z</time>
      </trkpt>
      <trkpt lat="42.89371" lon="1.20617">
        <ele>576.6</ele>
        <time>2025-06-22T07:53:11Z</time>
      </trkpt>
      <trkpt lat="42.89369" lon="1.20618">
        <ele>577</ele>
        <time>2025-06-22T07:53:12Z</time>
      </trkpt>
      <trkpt lat="42.89367" lon="1.2062">
        <ele>577</ele>
        <time>2025-06-22T07:53:13Z</time>
      </trkpt>
      <trkpt lat="42.8936" lon="1.20629">
        <ele>577</ele>
        <time>2025-06-22T07:53:16Z</time>
      </trkpt>
      <trkpt lat="42.89357" lon="1.20632">
        <ele>576.4</ele>
        <time>2025-06-22T07:53:17Z</time>
      </trkpt>
      <trkpt lat="42.89355" lon="1.20636">
        <ele>576</ele>
        <time>2025-06-22T07:53:18Z</time>
      </trkpt>
      <trkpt lat="42.89351" lon="1.20639">
        <ele>575.6</ele>
        <time>2025-06-22T07:53:19Z</time>
      </trkpt>
      <trkpt lat="42.89348" lon="1.20643">
        <ele>574.8</ele>
        <time>2025-06-22T07:53:20Z</time>
      </trkpt>
      <trkpt lat="42.89346" lon="1.20646">
        <ele>574</ele>
        <time>2025-06-22T07:53:21Z</time>
      </trkpt>
      <trkpt lat="42.89345" lon="1.20649">
        <ele>573.2</ele>
        <time>2025-06-22T07:53:22Z</time>
      </trkpt>
      <trkpt lat="42.89344" lon="1.20652">
        <ele>572.6</ele>
        <time>2025-06-22T07:53:23Z</time>
      </trkpt>
      <trkpt lat="42.89344" lon="1.20654">
        <ele>571.8</ele>
        <time>2025-06-22T07:53:24Z</time>
      </trkpt>
      <trkpt lat="42.89346" lon="1.20654">
        <ele>570.2</ele>
        <time>2025-06-22T07:53:25Z</time>
      </trkpt>
      <trkpt lat="42.89348" lon="1.20654">
        <ele>569.4</ele>
        <time>2025-06-22T07:53:26Z</time>
      </trkpt>
      <trkpt lat="42.8935" lon="1.20654">
        <ele>568.8</ele>
        <time>2025-06-22T07:53:27Z</time>
      </trkpt>
      <trkpt lat="42.89353" lon="1.20654">
        <ele>568</ele>
        <time>2025-06-22T07:53:28Z</time>
      </trkpt>
      <trkpt lat="42.89354" lon="1.20656">
        <ele>567.2</ele>
        <time>2025-06-22T07:53:29Z</time>
      </trkpt>
      <trkpt lat="42.89355" lon="1.20657">
        <ele>566.4</ele>
        <time>2025-06-22T07:53:30Z</time>
      </trkpt>
      <trkpt lat="42.89355" lon="1.20659">
        <ele>565.6</ele>
        <time>2025-06-22T07:53:31Z</time>
      </trkpt>
      <trkpt lat="42.89354" lon="1.2066">
        <ele>565</ele>
        <time>2025-06-22T07:53:32Z</time>
      </trkpt>
      <trkpt lat="42.89353" lon="1.20663">
        <ele>564.2</ele>
        <time>2025-06-22T07:53:33Z</time>
      </trkpt>
      <trkpt lat="42.89352" lon="1.20666">
        <ele>563.4</ele>
        <time>2025-06-22T07:53:34Z</time>
      </trkpt>
      <trkpt lat="42.89351" lon="1.20668">
        <ele>562.8</ele>
        <time>2025-06-22T07:53:35Z</time>
      </trkpt>
      <trkpt lat="42.89352" lon="1.2067">
        <ele>562.2</ele>
        <time>2025-06-22T07:53:36Z</time>
      </trkpt>
      <trkpt lat="42.89351" lon="1.20672">
        <ele>561.4</ele>
        <time>2025-06-22T07:53:37Z</time>
      </trkpt>
      <trkpt lat="42.89351" lon="1.20674">
        <ele>560.8</ele>
        <time>2025-06-22T07:53:38Z</time>
      </trkpt>
      <trkpt lat="42.89351" lon="1.20675">
        <ele>560.2</ele>
        <time>2025-06-22T07:53:39Z</time>
      </trkpt>
      <trkpt lat="42.89351" lon="1.20675">
        <ele>560.2</ele>
        <time>2025-06-22T07:53:40Z</time>
      </trkpt>
      <trkpt lat="42.8935" lon="1.20679">
        <ele>558</ele>
        <time>2025-06-22T07:53:48Z</time>
      </trkpt>
      <trkpt lat="42.89348" lon="1.20693">
        <ele>557.6</ele>
        <time>2025-06-22T07:53:51Z</time>
      </trkpt>
      <trkpt lat="42.89346" lon="1.20698">
        <ele>557</ele>
        <time>2025-06-22T07:53:52Z</time>
      </trkpt>
      <trkpt lat="42.89344" lon="1.20703">
        <ele>556.6</ele>
        <time>2025-06-22T07:53:53Z</time>
      </trkpt>
      <trkpt lat="42.89342" lon="1.20708">
        <ele>555.8</ele>
        <time>2025-06-22T07:53:54Z</time>
      </trkpt>
      <trkpt lat="42.89341" lon="1.20711">
        <ele>555</ele>
        <time>2025-06-22T07:53:55Z</time>
      </trkpt>
      <trkpt lat="42.8934" lon="1.20714">
        <ele>554.2</ele>
        <time>2025-06-22T07:53:56Z</time>
      </trkpt>
      <trkpt lat="42.89339" lon="1.20716">
        <ele>553.4</ele>
        <time>2025-06-22T07:53:57Z</time>
      </trkpt>
      <trkpt lat="42.89339" lon="1.20716">
        <ele>552.8</ele>
        <time>2025-06-22T07:53:58Z</time>
      </trkpt>
      <trkpt lat="42.89343" lon="1.20721">
        <ele>548.4</ele>
        <time>2025-06-22T07:54:05Z</time>
      </trkpt>
      <trkpt lat="42.89342" lon="1.20725">
        <ele>547.8</ele>
        <time>2025-06-22T07:54:06Z</time>
      </trkpt>
      <trkpt lat="42.89342" lon="1.20729">
        <ele>547.4</ele>
        <time>2025-06-22T07:54:07Z</time>
      </trkpt>
      <trkpt lat="42.89342" lon="1.20734">
        <ele>546.8</ele>
        <time>2025-06-22T07:54:08Z</time>
      </trkpt>
      <trkpt lat="42.89341" lon="1.20741">
        <ele>546</ele>
        <time>2025-06-22T07:54:09Z</time>
      </trkpt>
      <trkpt lat="42.8934" lon="1.20747">
        <ele>545.2</ele>
        <time>2025-06-22T07:54:10Z</time>
      </trkpt>
      <trkpt lat="42.89339" lon="1.20753">
        <ele>544.4</ele>
        <time>2025-06-22T07:54:11Z</time>
      </trkpt>
      <trkpt lat="42.89339" lon="1.2076">
        <ele>543.6</ele>
        <time>2025-06-22T07:54:12Z</time>
      </trkpt>
      <trkpt lat="42.89338" lon="1.20766">
        <ele>542.6</ele>
        <time>2025-06-22T07:54:13Z</time>
      </trkpt>
      <trkpt lat="42.89337" lon="1.20772">
        <ele>541.6</ele>
        <time>2025-06-22T07:54:14Z</time>
      </trkpt>
      <trkpt lat="42.89335" lon="1.20778">
        <ele>539.8</ele>
        <time>2025-06-22T07:54:15Z</time>
      </trkpt>
      <trkpt lat="42.89334" lon="1.20784">
        <ele>538.8</ele>
        <time>2025-06-22T07:54:16Z</time>
      </trkpt>
      <trkpt lat="42.89333" lon="1.20789">
        <ele>537.8</ele>
        <time>2025-06-22T07:54:17Z</time>
      </trkpt>
      <trkpt lat="42.89332" lon="1.20793">
        <ele>536.8</ele>
        <time>2025-06-22T07:54:18Z</time>
      </trkpt>
      <trkpt lat="42.89331" lon="1.20797">
        <ele>536</ele>
        <time>2025-06-22T07:54:19Z</time>
      </trkpt>
      <trkpt lat="42.89329" lon="1.20802">
        <ele>535</ele>
        <time>2025-06-22T07:54:20Z</time>
      </trkpt>
      <trkpt lat="42.89328" lon="1.20806">
        <ele>534</ele>
        <time>2025-06-22T07:54:21Z</time>
      </trkpt>
      <trkpt lat="42.89327" lon="1.20809">
        <ele>533</ele>
        <time>2025-06-22T07:54:22Z</time>
      </trkpt>
      <trkpt lat="42.89327" lon="1.20814">
        <ele>531.8</ele>
        <time>2025-06-22T07:54:23Z</time>
      </trkpt>
      <trkpt lat="42.89326" lon="1.20819">
        <ele>530.8</ele>
        <time>2025-06-22T07:54:24Z</time>
      </trkpt>
      <trkpt lat="42.89325" lon="1.20824">
        <ele>529.8</ele>
        <time>2025-06-22T07:54:25Z</time>
      </trkpt>
      <trkpt lat="42.89325" lon="1.20828">
        <ele>528.8</ele>
        <time>2025-06-22T07:54:26Z</time>
      </trkpt>
      <trkpt lat="42.89324" lon="1.20832">
        <ele>527.8</ele>
        <time>2025-06-22T07:54:27Z</time>
      </trkpt>
      <trkpt lat="42.89324" lon="1.20835">
        <ele>526.8</ele>
        <time>2025-06-22T07:54:28Z</time>
      </trkpt>
      <trkpt lat="42.89324" lon="1.20839">
        <ele>525.8</ele>
        <time>2025-06-22T07:54:29Z</time>
      </trkpt>
      <trkpt lat="42.89323" lon="1.20843">
        <ele>525</ele>
        <time>2025-06-22T07:54:30Z</time>
      </trkpt>
      <trkpt lat="42.89323" lon="1.20847">
        <ele>524.2</ele>
        <time>2025-06-22T07:54:31Z</time>
      </trkpt>
      <trkpt lat="42.89323" lon="1.20851">
        <ele>523.4</ele>
        <time>2025-06-22T07:54:32Z</time>
      </trkpt>
      <trkpt lat="42.89323" lon="1.20855">
        <ele>522.6</ele>
        <time>2025-06-22T07:54:33Z</time>
      </trkpt>
      <trkpt lat="42.89323" lon="1.20859">
        <ele>521.8</ele>
        <time>2025-06-22T07:54:34Z</time>
      </trkpt>
      <trkpt lat="42.89323" lon="1.20863">
        <ele>521</ele>
        <time>2025-06-22T07:54:35Z</time>
      </trkpt>
      <trkpt lat="42.89323" lon="1.20867">
        <ele>520.2</ele>
        <time>2025-06-22T07:54:36Z</time>
      </trkpt>
      <trkpt lat="42.89323" lon="1.20871">
        <ele>519.4</ele>
        <time>2025-06-22T07:54:37Z</time>
      </trkpt>
      <trkpt lat="42.89323" lon="1.20876">
        <ele>518.6</ele>
        <time>2025-06-22T07:54:38Z</time>
      </trkpt>
      <trkpt lat="42.89322" lon="1.20881">
        <ele>517.8</ele>
        <time>2025-06-22T07:54:39Z</time>
      </trkpt>
      <trkpt lat="42.89321" lon="1.20887">
        <ele>516.2</ele>
        <time>2025-06-22T07:54:40Z</time>
      </trkpt>
      <trkpt lat="42.89321" lon="1.20892">
        <ele>515.4</ele>
        <time>2025-06-22T07:54:41Z</time>
      </trkpt>
      <trkpt lat="42.8932" lon="1.20897">
        <ele>514.6</ele>
        <time>2025-06-22T07:54:42Z</time>
      </trkpt>
      <trkpt lat="42.8932" lon="1.20902">
        <ele>513.6</ele>
        <time>2025-06-22T07:54:43Z</time>
      </trkpt>
      <trkpt lat="42.89319" lon="1.20905">
        <ele>512.8</ele>
        <time>2025-06-22T07:54:44Z</time>
      </trkpt>
      <trkpt lat="42.89319" lon="1.20908">
        <ele>511.8</ele>
        <time>2025-06-22T07:54:45Z</time>
      </trkpt>
      <trkpt lat="42.89318" lon="1.2091">
        <ele>511</ele>
        <time>2025-06-22T07:54:46Z</time>
      </trkpt>
      <trkpt lat="42.89317" lon="1.20913">
        <ele>510.2</ele>
        <time>2025-06-22T07:54:47Z</time>
      </trkpt>
      <trkpt lat="42.89316" lon="1.20916">
        <ele>509.4</ele>
        <time>2025-06-22T07:54:48Z</time>
      </trkpt>
      <trkpt lat="42.89314" lon="1.20918">
        <ele>508.8</ele>
        <time>2025-06-22T07:54:49Z</time>
      </trkpt>
      <trkpt lat="42.89312" lon="1.2092">
        <ele>508</ele>
        <time>2025-06-22T07:54:50Z</time>
      </trkpt>
      <trkpt lat="42.8931" lon="1.20923">
        <ele>507.4</ele>
        <time>2025-06-22T07:54:51Z</time>
      </trkpt>
      <trkpt lat="42.89306" lon="1.20927">
        <ele>506.8</ele>
        <time>2025-06-22T07:54:52Z</time>
      </trkpt>
      <trkpt lat="42.89302" lon="1.20931">
        <ele>506</ele>
        <time>2025-06-22T07:54:53Z</time>
      </trkpt>
      <trkpt lat="42.89298" lon="1.20936">
        <ele>505.4</ele>
        <time>2025-06-22T07:54:54Z</time>
      </trkpt>
      <trkpt lat="42.89295" lon="1.20939">
        <ele>504.6</ele>
        <time>2025-06-22T07:54:55Z</time>
      </trkpt>
      <trkpt lat="42.89293" lon="1.20942">
        <ele>504</ele>
        <time>2025-06-22T07:54:56Z</time>
      </trkpt>
      <trkpt lat="42.8929" lon="1.20945">
        <ele>503.2</ele>
        <time>2025-06-22T07:54:57Z</time>
      </trkpt>
      <trkpt lat="42.89289" lon="1.20947">
        <ele>502.6</ele>
        <time>2025-06-22T07:54:58Z</time>
      </trkpt>
      <trkpt lat="42.89287" lon="1.20951">
        <ele>501.8</ele>
        <time>2025-06-22T07:54:59Z</time>
      </trkpt>
      <trkpt lat="42.89286" lon="1.20954">
        <ele>501.2</ele>
        <time>2025-06-22T07:55:00Z</time>
      </trkpt>
      <trkpt lat="42.89284" lon="1.20958">
        <ele>500.4</ele>
        <time>2025-06-22T07:55:01Z</time>
      </trkpt>
      <trkpt lat="42.89282" lon="1.2096">
        <ele>499.8</ele>
        <time>2025-06-22T07:55:02Z</time>
      </trkpt>
      <trkpt lat="42.8928" lon="1.20963">
        <ele>499.4</ele>
        <time>2025-06-22T07:55:03Z</time>
      </trkpt>
      <trkpt lat="42.89278" lon="1.20964">
        <ele>498.4</ele>
        <time>2025-06-22T07:55:04Z</time>
      </trkpt>
      <trkpt lat="42.89276" lon="1.20964">
        <ele>498</ele>
        <time>2025-06-22T07:55:05Z</time>
      </trkpt>
      <trkpt lat="42.89274" lon="1.20964">
        <ele>497.6</ele>
        <time>2025-06-22T07:55:06Z</time>
      </trkpt>
      <trkpt lat="42.89273" lon="1.20964">
        <ele>497.6</ele>
        <time>2025-06-22T07:55:07Z</time>
      </trkpt>
      <trkpt lat="42.89268" lon="1.20964">
        <ele>497.6</ele>
        <time>2025-06-22T07:55:12Z</time>
      </trkpt>
      <trkpt lat="42.89265" lon="1.20965">
        <ele>497.6</ele>
        <time>2025-06-22T07:55:23Z</time>
      </trkpt>
      <trkpt lat="42.89254" lon="1.20962">
        <ele>497.6</ele>
        <time>2025-06-22T07:55:27Z</time>
      </trkpt>
      <trkpt lat="42.89245" lon="1.20956">
        <ele>497.6</ele>
        <time>2025-06-22T07:55:32Z</time>
      </trkpt>
      <trkpt lat="42.89233" lon="1.20948">
        <ele>498</ele>
        <time>2025-06-22T07:55:38Z</time>
      </trkpt>
      <trkpt lat="42.89232" lon="1.20947">
        <ele>498.4</ele>
        <time>2025-06-22T07:55:39Z</time>
      </trkpt>
      <trkpt lat="42.8923" lon="1.20946">
        <ele>498.8</ele>
        <time>2025-06-22T07:55:40Z</time>
      </trkpt>
      <trkpt lat="42.89228" lon="1.20944">
        <ele>499.2</ele>
        <time>2025-06-22T07:55:41Z</time>
      </trkpt>
      <trkpt lat="42.89226" lon="1.20943">
        <ele>499.6</ele>
        <time>2025-06-22T07:55:42Z</time>
      </trkpt>
      <trkpt lat="42.89219" lon="1.20939">
        <ele>499.6</ele>
        <time>2025-06-22T07:55:45Z</time>
      </trkpt>
      <trkpt lat="42.89211" lon="1.2093">
        <ele>500.2</ele>
        <time>2025-06-22T07:55:49Z</time>
      </trkpt>
      <trkpt lat="42.89209" lon="1.20927">
        <ele>500.6</ele>
        <time>2025-06-22T07:55:50Z</time>
      </trkpt>
      <trkpt lat="42.89207" lon="1.20925">
        <ele>501</ele>
        <time>2025-06-22T07:55:51Z</time>
      </trkpt>
      <trkpt lat="42.89205" lon="1.20922">
        <ele>501.4</ele>
        <time>2025-06-22T07:55:52Z</time>
      </trkpt>
      <trkpt lat="42.89203" lon="1.2092">
        <ele>501.8</ele>
        <time>2025-06-22T07:55:53Z</time>
      </trkpt>
      <trkpt lat="42.89195" lon="1.20908">
        <ele>502.2</ele>
        <time>2025-06-22T07:55:57Z</time>
      </trkpt>
      <trkpt lat="42.89194" lon="1.20906">
        <ele>502.8</ele>
        <time>2025-06-22T07:55:58Z</time>
      </trkpt>
      <trkpt lat="42.89192" lon="1.20903">
        <ele>503.2</ele>
        <time>2025-06-22T07:55:59Z</time>
      </trkpt>
      <trkpt lat="42.89191" lon="1.209">
        <ele>503.6</ele>
        <time>2025-06-22T07:56:00Z</time>
      </trkpt>
      <trkpt lat="42.8919" lon="1.20898">
        <ele>504</ele>
        <time>2025-06-22T07:56:01Z</time>
      </trkpt>
      <trkpt lat="42.89187" lon="1.20881">
        <ele>504.4</ele>
        <time>2025-06-22T07:56:06Z</time>
      </trkpt>
      <trkpt lat="42.89186" lon="1.20877">
        <ele>504.8</ele>
        <time>2025-06-22T07:56:07Z</time>
      </trkpt>
      <trkpt lat="42.89186" lon="1.20874">
        <ele>505.2</ele>
        <time>2025-06-22T07:56:08Z</time>
      </trkpt>
      <trkpt lat="42.89186" lon="1.2087">
        <ele>505.6</ele>
        <time>2025-06-22T07:56:09Z</time>
      </trkpt>
      <trkpt lat="42.89185" lon="1.20867">
        <ele>506</ele>
        <time>2025-06-22T07:56:10Z</time>
      </trkpt>
      <trkpt lat="42.89182" lon="1.20861">
        <ele>506</ele>
        <time>2025-06-22T07:56:12Z</time>
      </trkpt>
      <trkpt lat="42.89172" lon="1.20846">
        <ele>506.8</ele>
        <time>2025-06-22T07:56:18Z</time>
      </trkpt>
      <trkpt lat="42.8917" lon="1.20844">
        <ele>507.2</ele>
        <time>2025-06-22T07:56:19Z</time>
      </trkpt>
      <trkpt lat="42.89168" lon="1.20844">
        <ele>507.6</ele>
        <time>2025-06-22T07:56:20Z</time>
      </trkpt>
      <trkpt lat="42.89165" lon="1.20845">
        <ele>508</ele>
        <time>2025-06-22T07:56:21Z</time>
      </trkpt>
      <trkpt lat="42.89161" lon="1.20846">
        <ele>508</ele>
        <time>2025-06-22T07:56:23Z</time>
      </trkpt>
      <trkpt lat="42.8916" lon="1.20848">
        <ele>508</ele>
        <time>2025-06-22T07:56:24Z</time>
      </trkpt>
      <trkpt lat="42.89155" lon="1.20856">
        <ele>508</ele>
        <time>2025-06-22T07:56:28Z</time>
      </trkpt>
      <trkpt lat="42.89152" lon="1.20864">
        <ele>508.4</ele>
        <time>2025-06-22T07:56:31Z</time>
      </trkpt>
      <trkpt lat="42.89151" lon="1.20867">
        <ele>509</ele>
        <time>2025-06-22T07:56:32Z</time>
      </trkpt>
      <trkpt lat="42.8915" lon="1.20871">
        <ele>509.4</ele>
        <time>2025-06-22T07:56:33Z</time>
      </trkpt>
      <trkpt lat="42.89149" lon="1.20875">
        <ele>509.8</ele>
        <time>2025-06-22T07:56:34Z</time>
      </trkpt>
      <trkpt lat="42.89148" lon="1.20878">
        <ele>510.2</ele>
        <time>2025-06-22T07:56:35Z</time>
      </trkpt>
      <trkpt lat="42.89146" lon="1.20881">
        <ele>510.2</ele>
        <time>2025-06-22T07:56:36Z</time>
      </trkpt>
      <trkpt lat="42.89133" lon="1.20893">
        <ele>510.2</ele>
        <time>2025-06-22T07:56:42Z</time>
      </trkpt>
      <trkpt lat="42.89131" lon="1.20893">
        <ele>511</ele>
        <time>2025-06-22T07:56:43Z</time>
      </trkpt>
      <trkpt lat="42.89128" lon="1.20894">
        <ele>511.4</ele>
        <time>2025-06-22T07:56:44Z</time>
      </trkpt>
      <trkpt lat="42.89125" lon="1.20894">
        <ele>512</ele>
        <time>2025-06-22T07:56:45Z</time>
      </trkpt>
      <trkpt lat="42.89123" lon="1.20894">
        <ele>512.4</ele>
        <time>2025-06-22T07:56:46Z</time>
      </trkpt>
      <trkpt lat="42.89118" lon="1.20892">
        <ele>512.4</ele>
        <time>2025-06-22T07:56:48Z</time>
      </trkpt>
      <trkpt lat="42.89108" lon="1.20886">
        <ele>512.8</ele>
        <time>2025-06-22T07:56:52Z</time>
      </trkpt>
      <trkpt lat="42.89105" lon="1.20885">
        <ele>513.2</ele>
        <time>2025-06-22T07:56:53Z</time>
      </trkpt>
      <trkpt lat="42.89102" lon="1.20883">
        <ele>513.6</ele>
        <time>2025-06-22T07:56:54Z</time>
      </trkpt>
      <trkpt lat="42.89101" lon="1.20883">
        <ele>514</ele>
        <time>2025-06-22T07:56:55Z</time>
      </trkpt>
      <trkpt lat="42.89099" lon="1.20882">
        <ele>514.4</ele>
        <time>2025-06-22T07:56:56Z</time>
      </trkpt>
      <trkpt lat="42.89088" lon="1.20877">
        <ele>514.8</ele>
        <time>2025-06-22T07:57:01Z</time>
      </trkpt>
      <trkpt lat="42.89086" lon="1.20876">
        <ele>515.2</ele>
        <time>2025-06-22T07:57:02Z</time>
      </trkpt>
      <trkpt lat="42.89083" lon="1.20876">
        <ele>515.6</ele>
        <time>2025-06-22T07:57:03Z</time>
      </trkpt>
      <trkpt lat="42.8908" lon="1.20876">
        <ele>516</ele>
        <time>2025-06-22T07:57:04Z</time>
      </trkpt>
      <trkpt lat="42.89077" lon="1.20876">
        <ele>516.4</ele>
        <time>2025-06-22T07:57:05Z</time>
      </trkpt>
      <trkpt lat="42.89071" lon="1.20875">
        <ele>516.4</ele>
        <time>2025-06-22T07:57:07Z</time>
      </trkpt>
      <trkpt lat="42.89063" lon="1.20874">
        <ele>517</ele>
        <time>2025-06-22T07:57:10Z</time>
      </trkpt>
      <trkpt lat="42.8906" lon="1.20873">
        <ele>517.4</ele>
        <time>2025-06-22T07:57:11Z</time>
      </trkpt>
      <trkpt lat="42.89058" lon="1.20872">
        <ele>517.8</ele>
        <time>2025-06-22T07:57:12Z</time>
      </trkpt>
      <trkpt lat="42.89056" lon="1.20871">
        <ele>518.2</ele>
        <time>2025-06-22T07:57:13Z</time>
      </trkpt>
      <trkpt lat="42.89053" lon="1.2087">
        <ele>518.6</ele>
        <time>2025-06-22T07:57:14Z</time>
      </trkpt>
      <trkpt lat="42.89039" lon="1.20866">
        <ele>519</ele>
        <time>2025-06-22T07:57:19Z</time>
      </trkpt>
      <trkpt lat="42.89035" lon="1.20866">
        <ele>519.4</ele>
        <time>2025-06-22T07:57:20Z</time>
      </trkpt>
      <trkpt lat="42.89031" lon="1.20865">
        <ele>519.8</ele>
        <time>2025-06-22T07:57:21Z</time>
      </trkpt>
      <trkpt lat="42.89028" lon="1.20865">
        <ele>520.2</ele>
        <time>2025-06-22T07:57:22Z</time>
      </trkpt>
      <trkpt lat="42.89025" lon="1.20865">
        <ele>520.6</ele>
        <time>2025-06-22T07:57:23Z</time>
      </trkpt>
      <trkpt lat="42.89019" lon="1.20865">
        <ele>520.6</ele>
        <time>2025-06-22T07:57:25Z</time>
      </trkpt>
      <trkpt lat="42.89011" lon="1.20865">
        <ele>521</ele>
        <time>2025-06-22T07:57:28Z</time>
      </trkpt>
      <trkpt lat="42.89008" lon="1.20865">
        <ele>521.4</ele>
        <time>2025-06-22T07:57:29Z</time>
      </trkpt>
      <trkpt lat="42.89005" lon="1.20865">
        <ele>521.8</ele>
        <time>2025-06-22T07:57:30Z</time>
      </trkpt>
      <trkpt lat="42.89002" lon="1.20865">
        <ele>522.2</ele>
        <time>2025-06-22T07:57:31Z</time>
      </trkpt>
      <trkpt lat="42.88999" lon="1.20865">
        <ele>522.6</ele>
        <time>2025-06-22T07:57:32Z</time>
      </trkpt>
      <trkpt lat="42.88985" lon="1.2087">
        <ele>522.6</ele>
        <time>2025-06-22T07:57:37Z</time>
      </trkpt>
      <trkpt lat="42.88978" lon="1.20873">
        <ele>522.2</ele>
        <time>2025-06-22T07:57:39Z</time>
      </trkpt>
      <trkpt lat="42.88974" lon="1.20875">
        <ele>521.8</ele>
        <time>2025-06-22T07:57:40Z</time>
      </trkpt>
      <trkpt lat="42.88972" lon="1.20876">
        <ele>521.4</ele>
        <time>2025-06-22T07:57:41Z</time>
      </trkpt>
      <trkpt lat="42.88968" lon="1.20877">
        <ele>521</ele>
        <time>2025-06-22T07:57:42Z</time>
      </trkpt>
      <trkpt lat="42.88966" lon="1.20877">
        <ele>520.6</ele>
        <time>2025-06-22T07:57:43Z</time>
      </trkpt>
      <trkpt lat="42.88964" lon="1.20878">
        <ele>520.2</ele>
        <time>2025-06-22T07:57:44Z</time>
      </trkpt>
      <trkpt lat="42.88963" lon="1.20877">
        <ele>519.8</ele>
        <time>2025-06-22T07:57:45Z</time>
      </trkpt>
      <trkpt lat="42.88961" lon="1.20878">
        <ele>519.4</ele>
        <time>2025-06-22T07:57:46Z</time>
      </trkpt>
      <trkpt lat="42.88959" lon="1.20877">
        <ele>519</ele>
        <time>2025-06-22T07:57:47Z</time>
      </trkpt>
      <trkpt lat="42.88956" lon="1.20876">
        <ele>518.6</ele>
        <time>2025-06-22T07:57:48Z</time>
      </trkpt>
      <trkpt lat="42.88954" lon="1.20877">
        <ele>518</ele>
        <time>2025-06-22T07:57:49Z</time>
      </trkpt>
      <trkpt lat="42.88951" lon="1.20877">
        <ele>517.6</ele>
        <time>2025-06-22T07:57:50Z</time>
      </trkpt>
      <trkpt lat="42.88948" lon="1.20878">
        <ele>517.2</ele>
        <time>2025-06-22T07:57:51Z</time>
      </trkpt>
      <trkpt lat="42.88945" lon="1.20878">
        <ele>516.6</ele>
        <time>2025-06-22T07:57:52Z</time>
      </trkpt>
      <trkpt lat="42.88942" lon="1.20878">
        <ele>516.2</ele>
        <time>2025-06-22T07:57:53Z</time>
      </trkpt>
      <trkpt lat="42.88931" lon="1.20879">
        <ele>515.4</ele>
        <time>2025-06-22T07:57:57Z</time>
      </trkpt>
      <trkpt lat="42.88927" lon="1.20878">
        <ele>515</ele>
        <time>2025-06-22T07:57:58Z</time>
      </trkpt>
      <trkpt lat="42.88924" lon="1.20877">
        <ele>514.6</ele>
        <time>2025-06-22T07:57:59Z</time>
      </trkpt>
      <trkpt lat="42.88921" lon="1.20877">
        <ele>514</ele>
        <time>2025-06-22T07:58:00Z</time>
      </trkpt>
      <trkpt lat="42.88919" lon="1.20876">
        <ele>513.4</ele>
        <time>2025-06-22T07:58:01Z</time>
      </trkpt>
      <trkpt lat="42.88916" lon="1.20875">
        <ele>512.8</ele>
        <time>2025-06-22T07:58:02Z</time>
      </trkpt>
      <trkpt lat="42.88914" lon="1.20873">
        <ele>512.2</ele>
        <time>2025-06-22T07:58:03Z</time>
      </trkpt>
      <trkpt lat="42.88911" lon="1.2087">
        <ele>511.6</ele>
        <time>2025-06-22T07:58:04Z</time>
      </trkpt>
      <trkpt lat="42.88909" lon="1.20869">
        <ele>510.8</ele>
        <time>2025-06-22T07:58:05Z</time>
      </trkpt>
      <trkpt lat="42.88906" lon="1.20867">
        <ele>510.2</ele>
        <time>2025-06-22T07:58:06Z</time>
      </trkpt>
      <trkpt lat="42.88903" lon="1.20864">
        <ele>509.6</ele>
        <time>2025-06-22T07:58:07Z</time>
      </trkpt>
      <trkpt lat="42.88901" lon="1.20863">
        <ele>509.2</ele>
        <time>2025-06-22T07:58:08Z</time>
      </trkpt>
      <trkpt lat="42.889" lon="1.20861">
        <ele>508.8</ele>
        <time>2025-06-22T07:58:09Z</time>
      </trkpt>
      <trkpt lat="42.88897" lon="1.20858">
        <ele>508.4</ele>
        <time>2025-06-22T07:58:10Z</time>
      </trkpt>
      <trkpt lat="42.88895" lon="1.20855">
        <ele>508</ele>
        <time>2025-06-22T07:58:11Z</time>
      </trkpt>
      <trkpt lat="42.88894" lon="1.20852">
        <ele>507.6</ele>
        <time>2025-06-22T07:58:12Z</time>
      </trkpt>
      <trkpt lat="42.8889" lon="1.20847">
        <ele>507.2</ele>
        <time>2025-06-22T07:58:14Z</time>
      </trkpt>
      <trkpt lat="42.88887" lon="1.20843">
        <ele>506.8</ele>
        <time>2025-06-22T07:58:15Z</time>
      </trkpt>
      <trkpt lat="42.88886" lon="1.2084">
        <ele>506.4</ele>
        <time>2025-06-22T07:58:16Z</time>
      </trkpt>
      <trkpt lat="42.88884" lon="1.20836">
        <ele>506</ele>
        <time>2025-06-22T07:58:17Z</time>
      </trkpt>
      <trkpt lat="42.88882" lon="1.20833">
        <ele>505.4</ele>
        <time>2025-06-22T07:58:18Z</time>
      </trkpt>
      <trkpt lat="42.8888" lon="1.2083">
        <ele>505</ele>
        <time>2025-06-22T07:58:19Z</time>
      </trkpt>
      <trkpt lat="42.88878" lon="1.20827">
        <ele>504.6</ele>
        <time>2025-06-22T07:58:20Z</time>
      </trkpt>
      <trkpt lat="42.88875" lon="1.20824">
        <ele>504</ele>
        <time>2025-06-22T07:58:21Z</time>
      </trkpt>
      <trkpt lat="42.88873" lon="1.20821">
        <ele>503</ele>
        <time>2025-06-22T07:58:22Z</time>
      </trkpt>
      <trkpt lat="42.88871" lon="1.20818">
        <ele>502.4</ele>
        <time>2025-06-22T07:58:23Z</time>
      </trkpt>
      <trkpt lat="42.88871" lon="1.20817">
        <ele>502</ele>
        <time>2025-06-22T07:58:24Z</time>
      </trkpt>
      <trkpt lat="42.8887" lon="1.20815">
        <ele>501.4</ele>
        <time>2025-06-22T07:58:25Z</time>
      </trkpt>
      <trkpt lat="42.88865" lon="1.20808">
        <ele>500.8</ele>
        <time>2025-06-22T07:59:13Z</time>
      </trkpt>
      <trkpt lat="42.88863" lon="1.208">
        <ele>500.8</ele>
        <time>2025-06-22T07:59:16Z</time>
      </trkpt>
      <trkpt lat="42.88861" lon="1.20782">
        <ele>500.8</ele>
        <time>2025-06-22T07:59:22Z</time>
      </trkpt>
      <trkpt lat="42.88861" lon="1.20779">
        <ele>501.2</ele>
        <time>2025-06-22T07:59:23Z</time>
      </trkpt>
      <trkpt lat="42.88861" lon="1.20775">
        <ele>501.6</ele>
        <time>2025-06-22T07:59:24Z</time>
      </trkpt>
      <trkpt lat="42.8886" lon="1.20771">
        <ele>502.2</ele>
        <time>2025-06-22T07:59:25Z</time>
      </trkpt>
      <trkpt lat="42.88859" lon="1.20768">
        <ele>502.6</ele>
        <time>2025-06-22T07:59:26Z</time>
      </trkpt>
      <trkpt lat="42.88859" lon="1.20764">
        <ele>503</ele>
        <time>2025-06-22T07:59:27Z</time>
      </trkpt>
      <trkpt lat="42.88858" lon="1.2076">
        <ele>503</ele>
        <time>2025-06-22T07:59:28Z</time>
      </trkpt>
      <trkpt lat="42.88855" lon="1.20733">
        <ele>503.4</ele>
        <time>2025-06-22T07:59:35Z</time>
      </trkpt>
      <trkpt lat="42.88854" lon="1.20729">
        <ele>503.8</ele>
        <time>2025-06-22T07:59:36Z</time>
      </trkpt>
      <trkpt lat="42.88853" lon="1.20725">
        <ele>504.2</ele>
        <time>2025-06-22T07:59:37Z</time>
      </trkpt>
      <trkpt lat="42.88852" lon="1.20722">
        <ele>504.6</ele>
        <time>2025-06-22T07:59:38Z</time>
      </trkpt>
      <trkpt lat="42.88852" lon="1.20718">
        <ele>505</ele>
        <time>2025-06-22T07:59:39Z</time>
      </trkpt>
      <trkpt lat="42.8885" lon="1.20703">
        <ele>505</ele>
        <time>2025-06-22T07:59:43Z</time>
      </trkpt>
      <trkpt lat="42.88845" lon="1.20686">
        <ele>505.6</ele>
        <time>2025-06-22T07:59:48Z</time>
      </trkpt>
      <trkpt lat="42.88845" lon="1.20683">
        <ele>506</ele>
        <time>2025-06-22T07:59:49Z</time>
      </trkpt>
      <trkpt lat="42.88844" lon="1.2068">
        <ele>506.4</ele>
        <time>2025-06-22T07:59:50Z</time>
      </trkpt>
      <trkpt lat="42.88844" lon="1.20676">
        <ele>506.8</ele>
        <time>2025-06-22T07:59:51Z</time>
      </trkpt>
      <trkpt lat="42.88844" lon="1.20672">
        <ele>507.2</ele>
        <time>2025-06-22T07:59:52Z</time>
      </trkpt>
      <trkpt lat="42.88845" lon="1.2066">
        <ele>507.2</ele>
        <time>2025-06-22T07:59:55Z</time>
      </trkpt>
      <trkpt lat="42.88845" lon="1.2064">
        <ele>507.6</ele>
        <time>2025-06-22T08:00:00Z</time>
      </trkpt>
      <trkpt lat="42.88846" lon="1.20635">
        <ele>508</ele>
        <time>2025-06-22T08:00:01Z</time>
      </trkpt>
      <trkpt lat="42.88847" lon="1.20631">
        <ele>508.6</ele>
        <time>2025-06-22T08:00:02Z</time>
      </trkpt>
      <trkpt lat="42.88848" lon="1.20628">
        <ele>509</ele>
        <time>2025-06-22T08:00:03Z</time>
      </trkpt>
      <trkpt lat="42.88849" lon="1.20624">
        <ele>509.4</ele>
        <time>2025-06-22T08:00:04Z</time>
      </trkpt>
      <trkpt lat="42.8885" lon="1.20621">
        <ele>509.4</ele>
        <time>2025-06-22T08:00:05Z</time>
      </trkpt>
      <trkpt lat="42.88854" lon="1.20597">
        <ele>509.4</ele>
        <time>2025-06-22T08:00:11Z</time>
      </trkpt>
      <trkpt lat="42.88861" lon="1.20571">
        <ele>509.4</ele>
        <time>2025-06-22T08:00:18Z</time>
      </trkpt>
      <trkpt lat="42.88864" lon="1.20556">
        <ele>509.8</ele>
        <time>2025-06-22T08:00:22Z</time>
      </trkpt>
      <trkpt lat="42.88865" lon="1.20551">
        <ele>510.2</ele>
        <time>2025-06-22T08:00:23Z</time>
      </trkpt>
      <trkpt lat="42.88866" lon="1.20547">
        <ele>511</ele>
        <time>2025-06-22T08:00:24Z</time>
      </trkpt>
      <trkpt lat="42.88868" lon="1.20543">
        <ele>511.4</ele>
        <time>2025-06-22T08:00:25Z</time>
      </trkpt>
      <trkpt lat="42.88874" lon="1.20522">
        <ele>511.4</ele>
        <time>2025-06-22T08:00:30Z</time>
      </trkpt>
      <trkpt lat="42.8888" lon="1.20492">
        <ele>511.4</ele>
        <time>2025-06-22T08:00:36Z</time>
      </trkpt>
      <trkpt lat="42.8889" lon="1.2047">
        <ele>511.8</ele>
        <time>2025-06-22T08:00:41Z</time>
      </trkpt>
      <trkpt lat="42.88891" lon="1.20465">
        <ele>512.2</ele>
        <time>2025-06-22T08:00:42Z</time>
      </trkpt>
      <trkpt lat="42.88893" lon="1.20461">
        <ele>512.6</ele>
        <time>2025-06-22T08:00:43Z</time>
      </trkpt>
      <trkpt lat="42.88895" lon="1.20456">
        <ele>513</ele>
        <time>2025-06-22T08:00:44Z</time>
      </trkpt>
      <trkpt lat="42.88898" lon="1.20452">
        <ele>513.4</ele>
        <time>2025-06-22T08:00:45Z</time>
      </trkpt>
      <trkpt lat="42.88908" lon="1.20432">
        <ele>513.4</ele>
        <time>2025-06-22T08:00:50Z</time>
      </trkpt>
      <trkpt lat="42.88925" lon="1.20402">
        <ele>513.4</ele>
        <time>2025-06-22T08:00:57Z</time>
      </trkpt>
      <trkpt lat="42.88939" lon="1.20374">
        <ele>513.4</ele>
        <time>2025-06-22T08:01:03Z</time>
      </trkpt>
      <trkpt lat="42.88941" lon="1.20369">
        <ele>513.4</ele>
        <time>2025-06-22T08:01:04Z</time>
      </trkpt>
      <trkpt lat="42.88962" lon="1.20322">
        <ele>513.4</ele>
        <time>2025-06-22T08:01:12Z</time>
      </trkpt>
      <trkpt lat="42.88965" lon="1.2031">
        <ele>513.4</ele>
        <time>2025-06-22T08:01:14Z</time>
      </trkpt>
      <trkpt lat="42.88967" lon="1.20297">
        <ele>513.4</ele>
        <time>2025-06-22T08:01:16Z</time>
      </trkpt>
      <trkpt lat="42.88967" lon="1.20292">
        <ele>513.4</ele>
        <time>2025-06-22T08:01:17Z</time>
      </trkpt>
      <trkpt lat="42.88967" lon="1.20286">
        <ele>513.4</ele>
        <time>2025-06-22T08:01:18Z</time>
      </trkpt>
      <trkpt lat="42.88964" lon="1.20262">
        <ele>513.4</ele>
        <time>2025-06-22T08:01:22Z</time>
      </trkpt>
      <trkpt lat="42.88962" lon="1.20253">
        <ele>514</ele>
        <time>2025-06-22T08:01:24Z</time>
      </trkpt>
      <trkpt lat="42.8896" lon="1.20248">
        <ele>514.4</ele>
        <time>2025-06-22T08:01:25Z</time>
      </trkpt>
      <trkpt lat="42.88958" lon="1.20243">
        <ele>514.8</ele>
        <time>2025-06-22T08:01:26Z</time>
      </trkpt>
      <trkpt lat="42.88956" lon="1.20238">
        <ele>515.4</ele>
        <time>2025-06-22T08:01:27Z</time>
      </trkpt>
      <trkpt lat="42.88955" lon="1.20234">
        <ele>515.8</ele>
        <time>2025-06-22T08:01:28Z</time>
      </trkpt>
      <trkpt lat="42.88953" lon="1.20224">
        <ele>516.2</ele>
        <time>2025-06-22T08:01:30Z</time>
      </trkpt>
      <trkpt lat="42.88952" lon="1.20219">
        <ele>516.6</ele>
        <time>2025-06-22T08:01:31Z</time>
      </trkpt>
      <trkpt lat="42.88951" lon="1.20215">
        <ele>517</ele>
        <time>2025-06-22T08:01:32Z</time>
      </trkpt>
      <trkpt lat="42.8895" lon="1.2021">
        <ele>517.4</ele>
        <time>2025-06-22T08:01:33Z</time>
      </trkpt>
      <trkpt lat="42.88949" lon="1.20205">
        <ele>517.8</ele>
        <time>2025-06-22T08:01:34Z</time>
      </trkpt>
      <trkpt lat="42.88945" lon="1.20193">
        <ele>518.2</ele>
        <time>2025-06-22T08:01:37Z</time>
      </trkpt>
      <trkpt lat="42.88945" lon="1.20189">
        <ele>519</ele>
        <time>2025-06-22T08:01:38Z</time>
      </trkpt>
      <trkpt lat="42.88944" lon="1.20185">
        <ele>519.6</ele>
        <time>2025-06-22T08:01:39Z</time>
      </trkpt>
      <trkpt lat="42.88944" lon="1.20181">
        <ele>520</ele>
        <time>2025-06-22T08:01:40Z</time>
      </trkpt>
      <trkpt lat="42.88943" lon="1.20167">
        <ele>520.4</ele>
        <time>2025-06-22T08:01:43Z</time>
      </trkpt>
      <trkpt lat="42.88943" lon="1.20163">
        <ele>520.8</ele>
        <time>2025-06-22T08:01:44Z</time>
      </trkpt>
      <trkpt lat="42.88943" lon="1.20159">
        <ele>521.2</ele>
        <time>2025-06-22T08:01:45Z</time>
      </trkpt>
      <trkpt lat="42.88942" lon="1.20155">
        <ele>521.8</ele>
        <time>2025-06-22T08:01:46Z</time>
      </trkpt>
      <trkpt lat="42.88942" lon="1.2015">
        <ele>522.2</ele>
        <time>2025-06-22T08:01:47Z</time>
      </trkpt>
      <trkpt lat="42.88942" lon="1.2014">
        <ele>522.6</ele>
        <time>2025-06-22T08:01:49Z</time>
      </trkpt>
      <trkpt lat="42.88942" lon="1.20136">
        <ele>523</ele>
        <time>2025-06-22T08:01:50Z</time>
      </trkpt>
      <trkpt lat="42.88943" lon="1.20132">
        <ele>523.4</ele>
        <time>2025-06-22T08:01:51Z</time>
      </trkpt>
      <trkpt lat="42.88944" lon="1.20129">
        <ele>523.8</ele>
        <time>2025-06-22T08:01:52Z</time>
      </trkpt>
      <trkpt lat="42.88944" lon="1.20125">
        <ele>524.2</ele>
        <time>2025-06-22T08:01:53Z</time>
      </trkpt>
      <trkpt lat="42.88945" lon="1.20117">
        <ele>524.2</ele>
        <time>2025-06-22T08:01:55Z</time>
      </trkpt>
      <trkpt lat="42.88946" lon="1.20113">
        <ele>524.6</ele>
        <time>2025-06-22T08:01:56Z</time>
      </trkpt>
      <trkpt lat="42.88947" lon="1.20108">
        <ele>525</ele>
        <time>2025-06-22T08:01:57Z</time>
      </trkpt>
      <trkpt lat="42.88948" lon="1.20103">
        <ele>525.6</ele>
        <time>2025-06-22T08:01:58Z</time>
      </trkpt>
      <trkpt lat="42.88949" lon="1.20098">
        <ele>526</ele>
        <time>2025-06-22T08:01:59Z</time>
      </trkpt>
      <trkpt lat="42.88949" lon="1.20094">
        <ele>526.4</ele>
        <time>2025-06-22T08:02:00Z</time>
      </trkpt>
      <trkpt lat="42.88949" lon="1.20081">
        <ele>527.4</ele>
        <time>2025-06-22T08:02:03Z</time>
      </trkpt>
      <trkpt lat="42.88949" lon="1.20076">
        <ele>527.8</ele>
        <time>2025-06-22T08:02:04Z</time>
      </trkpt>
      <trkpt lat="42.88949" lon="1.20072">
        <ele>528.2</ele>
        <time>2025-06-22T08:02:05Z</time>
      </trkpt>
      <trkpt lat="42.88948" lon="1.20067">
        <ele>528.8</ele>
        <time>2025-06-22T08:02:06Z</time>
      </trkpt>
      <trkpt lat="42.88945" lon="1.20053">
        <ele>529.2</ele>
        <time>2025-06-22T08:02:09Z</time>
      </trkpt>
      <trkpt lat="42.88944" lon="1.20048">
        <ele>529.6</ele>
        <time>2025-06-22T08:02:10Z</time>
      </trkpt>
      <trkpt lat="42.88942" lon="1.20042">
        <ele>530</ele>
        <time>2025-06-22T08:02:11Z</time>
      </trkpt>
      <trkpt lat="42.88941" lon="1.20037">
        <ele>530.4</ele>
        <time>2025-06-22T08:02:12Z</time>
      </trkpt>
      <trkpt lat="42.88939" lon="1.20032">
        <ele>530.8</ele>
        <time>2025-06-22T08:02:13Z</time>
      </trkpt>
      <trkpt lat="42.88935" lon="1.20022">
        <ele>530.8</ele>
        <time>2025-06-22T08:02:15Z</time>
      </trkpt>
      <trkpt lat="42.88933" lon="1.20018">
        <ele>531.2</ele>
        <time>2025-06-22T08:02:16Z</time>
      </trkpt>
      <trkpt lat="42.88931" lon="1.20014">
        <ele>531.6</ele>
        <time>2025-06-22T08:02:17Z</time>
      </trkpt>
      <trkpt lat="42.8893" lon="1.2001">
        <ele>532</ele>
        <time>2025-06-22T08:02:18Z</time>
      </trkpt>
      <trkpt lat="42.88928" lon="1.20007">
        <ele>532.4</ele>
        <time>2025-06-22T08:02:19Z</time>
      </trkpt>
      <trkpt lat="42.88926" lon="1.20003">
        <ele>532.8</ele>
        <time>2025-06-22T08:02:20Z</time>
      </trkpt>
      <trkpt lat="42.88923" lon="1.19996">
        <ele>532.8</ele>
        <time>2025-06-22T08:02:22Z</time>
      </trkpt>
      <trkpt lat="42.88919" lon="1.1999">
        <ele>533.2</ele>
        <time>2025-06-22T08:02:24Z</time>
      </trkpt>
      <trkpt lat="42.88917" lon="1.19986">
        <ele>533.6</ele>
        <time>2025-06-22T08:02:25Z</time>
      </trkpt>
      <trkpt lat="42.88916" lon="1.19983">
        <ele>534.2</ele>
        <time>2025-06-22T08:02:26Z</time>
      </trkpt>
      <trkpt lat="42.88914" lon="1.1998">
        <ele>535</ele>
        <time>2025-06-22T08:02:27Z</time>
      </trkpt>
      <trkpt lat="42.88905" lon="1.19966">
        <ele>535.4</ele>
        <time>2025-06-22T08:02:31Z</time>
      </trkpt>
      <trkpt lat="42.88903" lon="1.19963">
        <ele>535.8</ele>
        <time>2025-06-22T08:02:32Z</time>
      </trkpt>
      <trkpt lat="42.88901" lon="1.1996">
        <ele>536.2</ele>
        <time>2025-06-22T08:02:33Z</time>
      </trkpt>
      <trkpt lat="42.88899" lon="1.19956">
        <ele>536.6</ele>
        <time>2025-06-22T08:02:34Z</time>
      </trkpt>
      <trkpt lat="42.88897" lon="1.19952">
        <ele>537</ele>
        <time>2025-06-22T08:02:35Z</time>
      </trkpt>
      <trkpt lat="42.88888" lon="1.1994">
        <ele>537.6</ele>
        <time>2025-06-22T08:02:39Z</time>
      </trkpt>
      <trkpt lat="42.88886" lon="1.19938">
        <ele>538</ele>
        <time>2025-06-22T08:02:40Z</time>
      </trkpt>
      <trkpt lat="42.88884" lon="1.19935">
        <ele>538.4</ele>
        <time>2025-06-22T08:02:41Z</time>
      </trkpt>
      <trkpt lat="42.88882" lon="1.19934">
        <ele>538.8</ele>
        <time>2025-06-22T08:02:42Z</time>
      </trkpt>
      <trkpt lat="42.8888" lon="1.19932">
        <ele>539.2</ele>
        <time>2025-06-22T08:02:43Z</time>
      </trkpt>
      <trkpt lat="42.88873" lon="1.19924">
        <ele>539.6</ele>
        <time>2025-06-22T08:02:46Z</time>
      </trkpt>
      <trkpt lat="42.88872" lon="1.19921">
        <ele>540</ele>
        <time>2025-06-22T08:02:47Z</time>
      </trkpt>
      <trkpt lat="42.8887" lon="1.19918">
        <ele>540.4</ele>
        <time>2025-06-22T08:02:48Z</time>
      </trkpt>
      <trkpt lat="42.88869" lon="1.19915">
        <ele>540.8</ele>
        <time>2025-06-22T08:02:49Z</time>
      </trkpt>
      <trkpt lat="42.88867" lon="1.19912">
        <ele>541.2</ele>
        <time>2025-06-22T08:02:50Z</time>
      </trkpt>
      <trkpt lat="42.88864" lon="1.19904">
        <ele>541.2</ele>
        <time>2025-06-22T08:02:52Z</time>
      </trkpt>
      <trkpt lat="42.88862" lon="1.19901">
        <ele>541.8</ele>
        <time>2025-06-22T08:02:53Z</time>
      </trkpt>
      <trkpt lat="42.8886" lon="1.19898">
        <ele>542.2</ele>
        <time>2025-06-22T08:02:54Z</time>
      </trkpt>
      <trkpt lat="42.88858" lon="1.19894">
        <ele>542.6</ele>
        <time>2025-06-22T08:02:55Z</time>
      </trkpt>
      <trkpt lat="42.88857" lon="1.1989">
        <ele>543</ele>
        <time>2025-06-22T08:02:56Z</time>
      </trkpt>
      <trkpt lat="42.88855" lon="1.19887">
        <ele>543.6</ele>
        <time>2025-06-22T08:02:57Z</time>
      </trkpt>
      <trkpt lat="42.88851" lon="1.19877">
        <ele>543.6</ele>
        <time>2025-06-22T08:03:00Z</time>
      </trkpt>
      <trkpt lat="42.88851" lon="1.19874">
        <ele>544</ele>
        <time>2025-06-22T08:03:01Z</time>
      </trkpt>
      <trkpt lat="42.8885" lon="1.19871">
        <ele>544.4</ele>
        <time>2025-06-22T08:03:02Z</time>
      </trkpt>
      <trkpt lat="42.88848" lon="1.19868">
        <ele>545</ele>
        <time>2025-06-22T08:03:03Z</time>
      </trkpt>
      <trkpt lat="42.88848" lon="1.19864">
        <ele>545.4</ele>
        <time>2025-06-22T08:03:04Z</time>
      </trkpt>
      <trkpt lat="42.88848" lon="1.19861">
        <ele>545.8</ele>
        <time>2025-06-22T08:03:05Z</time>
      </trkpt>
      <trkpt lat="42.88847" lon="1.19858">
        <ele>545.8</ele>
        <time>2025-06-22T08:03:06Z</time>
      </trkpt>
      <trkpt lat="42.88845" lon="1.1984">
        <ele>546.2</ele>
        <time>2025-06-22T08:03:11Z</time>
      </trkpt>
      <trkpt lat="42.88845" lon="1.19836">
        <ele>546.6</ele>
        <time>2025-06-22T08:03:12Z</time>
      </trkpt>
      <trkpt lat="42.88845" lon="1.19834">
        <ele>547.2</ele>
        <time>2025-06-22T08:03:13Z</time>
      </trkpt>
      <trkpt lat="42.88846" lon="1.1983">
        <ele>547.6</ele>
        <time>2025-06-22T08:03:14Z</time>
      </trkpt>
      <trkpt lat="42.88846" lon="1.19826">
        <ele>548</ele>
        <time>2025-06-22T08:03:15Z</time>
      </trkpt>
      <trkpt lat="42.88846" lon="1.19822">
        <ele>548</ele>
        <time>2025-06-22T08:03:16Z</time>
      </trkpt>
      <trkpt lat="42.88841" lon="1.198">
        <ele>548</ele>
        <time>2025-06-22T08:03:22Z</time>
      </trkpt>
      <trkpt lat="42.88837" lon="1.19791">
        <ele>548.4</ele>
        <time>2025-06-22T08:03:24Z</time>
      </trkpt>
      <trkpt lat="42.88835" lon="1.19787">
        <ele>548.8</ele>
        <time>2025-06-22T08:03:25Z</time>
      </trkpt>
      <trkpt lat="42.88834" lon="1.19783">
        <ele>549.2</ele>
        <time>2025-06-22T08:03:26Z</time>
      </trkpt>
      <trkpt lat="42.88833" lon="1.19778">
        <ele>549.6</ele>
        <time>2025-06-22T08:03:27Z</time>
      </trkpt>
      <trkpt lat="42.88832" lon="1.19775">
        <ele>550</ele>
        <time>2025-06-22T08:03:28Z</time>
      </trkpt>
      <trkpt lat="42.88825" lon="1.19749">
        <ele>550</ele>
        <time>2025-06-22T08:03:34Z</time>
      </trkpt>
      <trkpt lat="42.88819" lon="1.19728">
        <ele>550.4</ele>
        <time>2025-06-22T08:03:39Z</time>
      </trkpt>
      <trkpt lat="42.88818" lon="1.19724">
        <ele>550.8</ele>
        <time>2025-06-22T08:03:40Z</time>
      </trkpt>
      <trkpt lat="42.88816" lon="1.1972">
        <ele>551.8</ele>
        <time>2025-06-22T08:03:41Z</time>
      </trkpt>
      <trkpt lat="42.88815" lon="1.19715">
        <ele>552.2</ele>
        <time>2025-06-22T08:03:42Z</time>
      </trkpt>
      <trkpt lat="42.88808" lon="1.19696">
        <ele>552.2</ele>
        <time>2025-06-22T08:03:47Z</time>
      </trkpt>
      <trkpt lat="42.88802" lon="1.19671">
        <ele>552.6</ele>
        <time>2025-06-22T08:03:53Z</time>
      </trkpt>
      <trkpt lat="42.88802" lon="1.19666">
        <ele>553</ele>
        <time>2025-06-22T08:03:54Z</time>
      </trkpt>
      <trkpt lat="42.88801" lon="1.19662">
        <ele>553.4</ele>
        <time>2025-06-22T08:03:55Z</time>
      </trkpt>
      <trkpt lat="42.88801" lon="1.19658">
        <ele>554</ele>
        <time>2025-06-22T08:03:56Z</time>
      </trkpt>
      <trkpt lat="42.888" lon="1.19654">
        <ele>554.4</ele>
        <time>2025-06-22T08:03:57Z</time>
      </trkpt>
      <trkpt lat="42.88801" lon="1.1965">
        <ele>554.4</ele>
        <time>2025-06-22T08:03:58Z</time>
      </trkpt>
      <trkpt lat="42.88802" lon="1.19638">
        <ele>554.8</ele>
        <time>2025-06-22T08:04:01Z</time>
      </trkpt>
      <trkpt lat="42.88802" lon="1.19635">
        <ele>555.4</ele>
        <time>2025-06-22T08:04:02Z</time>
      </trkpt>
      <trkpt lat="42.88802" lon="1.19631">
        <ele>555.8</ele>
        <time>2025-06-22T08:04:03Z</time>
      </trkpt>
      <trkpt lat="42.88802" lon="1.19628">
        <ele>556.2</ele>
        <time>2025-06-22T08:04:04Z</time>
      </trkpt>
      <trkpt lat="42.88801" lon="1.19624">
        <ele>556.8</ele>
        <time>2025-06-22T08:04:05Z</time>
      </trkpt>
      <trkpt lat="42.88801" lon="1.19618">
        <ele>556.8</ele>
        <time>2025-06-22T08:04:06Z</time>
      </trkpt>
      <trkpt lat="42.88801" lon="1.19601">
        <ele>557.2</ele>
        <time>2025-06-22T08:04:10Z</time>
      </trkpt>
      <trkpt lat="42.888" lon="1.19597">
        <ele>557.6</ele>
        <time>2025-06-22T08:04:11Z</time>
      </trkpt>
      <trkpt lat="42.888" lon="1.19594">
        <ele>558</ele>
        <time>2025-06-22T08:04:12Z</time>
      </trkpt>
      <trkpt lat="42.88801" lon="1.19589">
        <ele>558.4</ele>
        <time>2025-06-22T08:04:13Z</time>
      </trkpt>
      <trkpt lat="42.88801" lon="1.19584">
        <ele>558.8</ele>
        <time>2025-06-22T08:04:14Z</time>
      </trkpt>
      <trkpt lat="42.88807" lon="1.19556">
        <ele>559.2</ele>
        <time>2025-06-22T08:04:20Z</time>
      </trkpt>
      <trkpt lat="42.88808" lon="1.19552">
        <ele>559.6</ele>
        <time>2025-06-22T08:04:21Z</time>
      </trkpt>
      <trkpt lat="42.8881" lon="1.19547">
        <ele>560</ele>
        <time>2025-06-22T08:04:22Z</time>
      </trkpt>
      <trkpt lat="42.88811" lon="1.19544">
        <ele>560.4</ele>
        <time>2025-06-22T08:04:23Z</time>
      </trkpt>
      <trkpt lat="42.88812" lon="1.19541">
        <ele>561</ele>
        <time>2025-06-22T08:04:24Z</time>
      </trkpt>
      <trkpt lat="42.88812" lon="1.19543">
        <ele>561</ele>
        <time>2025-06-22T08:04:25Z</time>
      </trkpt>
      <trkpt lat="42.88818" lon="1.19537">
        <ele>561.4</ele>
        <time>2025-06-22T08:04:29Z</time>
      </trkpt>
      <trkpt lat="42.8882" lon="1.19535">
        <ele>561.8</ele>
        <time>2025-06-22T08:04:30Z</time>
      </trkpt>
      <trkpt lat="42.88822" lon="1.19534">
        <ele>562.6</ele>
        <time>2025-06-22T08:04:31Z</time>
      </trkpt>
      <trkpt lat="42.88823" lon="1.19531">
        <ele>563</ele>
        <time>2025-06-22T08:04:32Z</time>
      </trkpt>
      <trkpt lat="42.88829" lon="1.19521">
        <ele>563.4</ele>
        <time>2025-06-22T08:04:36Z</time>
      </trkpt>
      <trkpt lat="42.88831" lon="1.19518">
        <ele>563.8</ele>
        <time>2025-06-22T08:04:37Z</time>
      </trkpt>
      <trkpt lat="42.88832" lon="1.19515">
        <ele>564.2</ele>
        <time>2025-06-22T08:04:38Z</time>
      </trkpt>
      <trkpt lat="42.88834" lon="1.19511">
        <ele>564.6</ele>
        <time>2025-06-22T08:04:39Z</time>
      </trkpt>
      <trkpt lat="42.88835" lon="1.19507">
        <ele>565</ele>
        <time>2025-06-22T08:04:40Z</time>
      </trkpt>
      <trkpt lat="42.88841" lon="1.19494">
        <ele>565</ele>
        <time>2025-06-22T08:04:44Z</time>
      </trkpt>
      <trkpt lat="42.88842" lon="1.19491">
        <ele>565.4</ele>
        <time>2025-06-22T08:04:45Z</time>
      </trkpt>
      <trkpt lat="42.88844" lon="1.19487">
        <ele>565.8</ele>
        <time>2025-06-22T08:04:46Z</time>
      </trkpt>
      <trkpt lat="42.88846" lon="1.19484">
        <ele>566.2</ele>
        <time>2025-06-22T08:04:47Z</time>
      </trkpt>
      <trkpt lat="42.88848" lon="1.19481">
        <ele>566.6</ele>
        <time>2025-06-22T08:04:48Z</time>
      </trkpt>
      <trkpt lat="42.8885" lon="1.19477">
        <ele>567</ele>
        <time>2025-06-22T08:04:49Z</time>
      </trkpt>
      <trkpt lat="42.88854" lon="1.19472">
        <ele>567</ele>
        <time>2025-06-22T08:04:51Z</time>
      </trkpt>
      <trkpt lat="42.88861" lon="1.19459">
        <ele>568</ele>
        <time>2025-06-22T08:04:55Z</time>
      </trkpt>
      <trkpt lat="42.88863" lon="1.19456">
        <ele>568.4</ele>
        <time>2025-06-22T08:04:56Z</time>
      </trkpt>
      <trkpt lat="42.88865" lon="1.19453">
        <ele>568.8</ele>
        <time>2025-06-22T08:04:57Z</time>
      </trkpt>
      <trkpt lat="42.88867" lon="1.1945">
        <ele>569.2</ele>
        <time>2025-06-22T08:04:58Z</time>
      </trkpt>
      <trkpt lat="42.88884" lon="1.19441">
        <ele>569.2</ele>
        <time>2025-06-22T08:05:03Z</time>
      </trkpt>
      <trkpt lat="42.88906" lon="1.19432">
        <ele>569.2</ele>
        <time>2025-06-22T08:05:09Z</time>
      </trkpt>
      <trkpt lat="42.88917" lon="1.19428">
        <ele>569.6</ele>
        <time>2025-06-22T08:05:12Z</time>
      </trkpt>
      <trkpt lat="42.8892" lon="1.19427">
        <ele>570</ele>
        <time>2025-06-22T08:05:13Z</time>
      </trkpt>
      <trkpt lat="42.88924" lon="1.19424">
        <ele>570.4</ele>
        <time>2025-06-22T08:05:14Z</time>
      </trkpt>
      <trkpt lat="42.88926" lon="1.19422">
        <ele>570.8</ele>
        <time>2025-06-22T08:05:15Z</time>
      </trkpt>
      <trkpt lat="42.8893" lon="1.19419">
        <ele>571.2</ele>
        <time>2025-06-22T08:05:16Z</time>
      </trkpt>
      <trkpt lat="42.88946" lon="1.19409">
        <ele>571.2</ele>
        <time>2025-06-22T08:05:21Z</time>
      </trkpt>
      <trkpt lat="42.88963" lon="1.19394">
        <ele>571.2</ele>
        <time>2025-06-22T08:05:27Z</time>
      </trkpt>
      <trkpt lat="42.88972" lon="1.19382">
        <ele>571.6</ele>
        <time>2025-06-22T08:05:31Z</time>
      </trkpt>
      <trkpt lat="42.88974" lon="1.19379">
        <ele>572</ele>
        <time>2025-06-22T08:05:32Z</time>
      </trkpt>
      <trkpt lat="42.88976" lon="1.19376">
        <ele>572.4</ele>
        <time>2025-06-22T08:05:33Z</time>
      </trkpt>
      <trkpt lat="42.88979" lon="1.19373">
        <ele>572.8</ele>
        <time>2025-06-22T08:05:34Z</time>
      </trkpt>
      <trkpt lat="42.88982" lon="1.1937">
        <ele>573.2</ele>
        <time>2025-06-22T08:05:35Z</time>
      </trkpt>
      <trkpt lat="42.88996" lon="1.19351">
        <ele>573.2</ele>
        <time>2025-06-22T08:05:41Z</time>
      </trkpt>
      <trkpt lat="42.8901" lon="1.19339">
        <ele>573.6</ele>
        <time>2025-06-22T08:05:46Z</time>
      </trkpt>
      <trkpt lat="42.89013" lon="1.19337">
        <ele>574</ele>
        <time>2025-06-22T08:05:47Z</time>
      </trkpt>
      <trkpt lat="42.89016" lon="1.19336">
        <ele>574.4</ele>
        <time>2025-06-22T08:05:48Z</time>
      </trkpt>
      <trkpt lat="42.89018" lon="1.19335">
        <ele>574.8</ele>
        <time>2025-06-22T08:05:49Z</time>
      </trkpt>
      <trkpt lat="42.89021" lon="1.19335">
        <ele>575.2</ele>
        <time>2025-06-22T08:05:50Z</time>
      </trkpt>
      <trkpt lat="42.89026" lon="1.19333">
        <ele>575.2</ele>
        <time>2025-06-22T08:05:52Z</time>
      </trkpt>
      <trkpt lat="42.89038" lon="1.1933">
        <ele>575.8</ele>
        <time>2025-06-22T08:05:56Z</time>
      </trkpt>
      <trkpt lat="42.89042" lon="1.19329">
        <ele>576.2</ele>
        <time>2025-06-22T08:05:57Z</time>
      </trkpt>
      <trkpt lat="42.89045" lon="1.19329">
        <ele>576.6</ele>
        <time>2025-06-22T08:05:58Z</time>
      </trkpt>
      <trkpt lat="42.89048" lon="1.19328">
        <ele>577</ele>
        <time>2025-06-22T08:05:59Z</time>
      </trkpt>
      <trkpt lat="42.89051" lon="1.19328">
        <ele>577.4</ele>
        <time>2025-06-22T08:06:00Z</time>
      </trkpt>
      <trkpt lat="42.89066" lon="1.19325">
        <ele>577.8</ele>
        <time>2025-06-22T08:06:05Z</time>
      </trkpt>
      <trkpt lat="42.89069" lon="1.19325">
        <ele>578.2</ele>
        <time>2025-06-22T08:06:06Z</time>
      </trkpt>
      <trkpt lat="42.89072" lon="1.19324">
        <ele>578.6</ele>
        <time>2025-06-22T08:06:07Z</time>
      </trkpt>
      <trkpt lat="42.89076" lon="1.19324">
        <ele>579</ele>
        <time>2025-06-22T08:06:08Z</time>
      </trkpt>
      <trkpt lat="42.89079" lon="1.19323">
        <ele>579.6</ele>
        <time>2025-06-22T08:06:09Z</time>
      </trkpt>
      <trkpt lat="42.89087" lon="1.19319">
        <ele>579.6</ele>
        <time>2025-06-22T08:06:12Z</time>
      </trkpt>
      <trkpt lat="42.8909" lon="1.19319">
        <ele>580</ele>
        <time>2025-06-22T08:06:13Z</time>
      </trkpt>
      <trkpt lat="42.89092" lon="1.19318">
        <ele>580.4</ele>
        <time>2025-06-22T08:06:14Z</time>
      </trkpt>
      <trkpt lat="42.89095" lon="1.19317">
        <ele>580.8</ele>
        <time>2025-06-22T08:06:15Z</time>
      </trkpt>
      <trkpt lat="42.89097" lon="1.19315">
        <ele>581.2</ele>
        <time>2025-06-22T08:06:16Z</time>
      </trkpt>
      <trkpt lat="42.891" lon="1.19313">
        <ele>581.6</ele>
        <time>2025-06-22T08:06:17Z</time>
      </trkpt>
      <trkpt lat="42.89107" lon="1.19308">
        <ele>581.6</ele>
        <time>2025-06-22T08:06:20Z</time>
      </trkpt>
      <trkpt lat="42.89111" lon="1.19305">
        <ele>582</ele>
        <time>2025-06-22T08:06:22Z</time>
      </trkpt>
      <trkpt lat="42.89113" lon="1.19303">
        <ele>582.4</ele>
        <time>2025-06-22T08:06:23Z</time>
      </trkpt>
      <trkpt lat="42.89116" lon="1.19301">
        <ele>582.8</ele>
        <time>2025-06-22T08:06:24Z</time>
      </trkpt>
      <trkpt lat="42.89118" lon="1.193">
        <ele>583.2</ele>
        <time>2025-06-22T08:06:25Z</time>
      </trkpt>
      <trkpt lat="42.8912" lon="1.19298">
        <ele>583.8</ele>
        <time>2025-06-22T08:06:26Z</time>
      </trkpt>
      <trkpt lat="42.89127" lon="1.19294">
        <ele>583.8</ele>
        <time>2025-06-22T08:06:28Z</time>
      </trkpt>
      <trkpt lat="42.89139" lon="1.19287">
        <ele>584.2</ele>
        <time>2025-06-22T08:06:32Z</time>
      </trkpt>
      <trkpt lat="42.89142" lon="1.19285">
        <ele>584.6</ele>
        <time>2025-06-22T08:06:33Z</time>
      </trkpt>
      <trkpt lat="42.89145" lon="1.19284">
        <ele>585</ele>
        <time>2025-06-22T08:06:34Z</time>
      </trkpt>
      <trkpt lat="42.89148" lon="1.19283">
        <ele>585.8</ele>
        <time>2025-06-22T08:06:35Z</time>
      </trkpt>
      <trkpt lat="42.89163" lon="1.19275">
        <ele>586.4</ele>
        <time>2025-06-22T08:06:40Z</time>
      </trkpt>
      <trkpt lat="42.89167" lon="1.19274">
        <ele>586.8</ele>
        <time>2025-06-22T08:06:41Z</time>
      </trkpt>
      <trkpt lat="42.8917" lon="1.19272">
        <ele>587.2</ele>
        <time>2025-06-22T08:06:42Z</time>
      </trkpt>
      <trkpt lat="42.89173" lon="1.19269">
        <ele>587.6</ele>
        <time>2025-06-22T08:06:43Z</time>
      </trkpt>
      <trkpt lat="42.89176" lon="1.19266">
        <ele>588</ele>
        <time>2025-06-22T08:06:44Z</time>
      </trkpt>
      <trkpt lat="42.89186" lon="1.19255">
        <ele>588</ele>
        <time>2025-06-22T08:06:48Z</time>
      </trkpt>
      <trkpt lat="42.89188" lon="1.19251">
        <ele>588.4</ele>
        <time>2025-06-22T08:06:49Z</time>
      </trkpt>
      <trkpt lat="42.89191" lon="1.19249">
        <ele>588.8</ele>
        <time>2025-06-22T08:06:50Z</time>
      </trkpt>
      <trkpt lat="42.89193" lon="1.19246">
        <ele>589.2</ele>
        <time>2025-06-22T08:06:51Z</time>
      </trkpt>
      <trkpt lat="42.89195" lon="1.19244">
        <ele>589.8</ele>
        <time>2025-06-22T08:06:52Z</time>
      </trkpt>
      <trkpt lat="42.89198" lon="1.19241">
        <ele>590.2</ele>
        <time>2025-06-22T08:06:53Z</time>
      </trkpt>
      <trkpt lat="42.892" lon="1.19238">
        <ele>590.2</ele>
        <time>2025-06-22T08:06:54Z</time>
      </trkpt>
      <trkpt lat="42.8921" lon="1.19222">
        <ele>590.6</ele>
        <time>2025-06-22T08:06:59Z</time>
      </trkpt>
      <trkpt lat="42.89212" lon="1.19219">
        <ele>591</ele>
        <time>2025-06-22T08:07:00Z</time>
      </trkpt>
      <trkpt lat="42.89213" lon="1.19215">
        <ele>591.4</ele>
        <time>2025-06-22T08:07:01Z</time>
      </trkpt>
      <trkpt lat="42.89215" lon="1.19212">
        <ele>591.8</ele>
        <time>2025-06-22T08:07:02Z</time>
      </trkpt>
      <trkpt lat="42.89216" lon="1.19209">
        <ele>592.2</ele>
        <time>2025-06-22T08:07:03Z</time>
      </trkpt>
      <trkpt lat="42.8922" lon="1.19204">
        <ele>592.2</ele>
        <time>2025-06-22T08:07:05Z</time>
      </trkpt>
      <trkpt lat="42.89224" lon="1.19202">
        <ele>592.2</ele>
        <time>2025-06-22T08:07:06Z</time>
      </trkpt>
      <trkpt lat="42.89226" lon="1.19201">
        <ele>592.6</ele>
        <time>2025-06-22T08:07:09Z</time>
      </trkpt>
      <trkpt lat="42.89226" lon="1.19203">
        <ele>593.2</ele>
        <time>2025-06-22T08:07:10Z</time>
      </trkpt>
      <trkpt lat="42.89224" lon="1.19203">
        <ele>593.6</ele>
        <time>2025-06-22T08:07:11Z</time>
      </trkpt>
      <trkpt lat="42.89223" lon="1.19204">
        <ele>594.2</ele>
        <time>2025-06-22T08:07:12Z</time>
      </trkpt>
      <trkpt lat="42.89221" lon="1.19206">
        <ele>594.6</ele>
        <time>2025-06-22T08:07:13Z</time>
      </trkpt>
      <trkpt lat="42.89219" lon="1.19207">
        <ele>595</ele>
        <time>2025-06-22T08:07:14Z</time>
      </trkpt>
      <trkpt lat="42.89217" lon="1.19209">
        <ele>595.6</ele>
        <time>2025-06-22T08:07:15Z</time>
      </trkpt>
      <trkpt lat="42.89215" lon="1.1921">
        <ele>596</ele>
        <time>2025-06-22T08:07:16Z</time>
      </trkpt>
      <trkpt lat="42.89213" lon="1.19211">
        <ele>596.4</ele>
        <time>2025-06-22T08:07:17Z</time>
      </trkpt>
      <trkpt lat="42.89211" lon="1.19212">
        <ele>597</ele>
        <time>2025-06-22T08:07:18Z</time>
      </trkpt>
      <trkpt lat="42.8921" lon="1.19215">
        <ele>597</ele>
        <time>2025-06-22T08:07:19Z</time>
      </trkpt>
      <trkpt lat="42.89207" lon="1.1922">
        <ele>597.4</ele>
        <time>2025-06-22T08:07:21Z</time>
      </trkpt>
      <trkpt lat="42.89205" lon="1.19222">
        <ele>597.8</ele>
        <time>2025-06-22T08:07:22Z</time>
      </trkpt>
      <trkpt lat="42.89204" lon="1.19225">
        <ele>598.2</ele>
        <time>2025-06-22T08:07:23Z</time>
      </trkpt>
      <trkpt lat="42.89203" lon="1.19227">
        <ele>599</ele>
        <time>2025-06-22T08:07:24Z</time>
      </trkpt>
      <trkpt lat="42.892" lon="1.19231">
        <ele>599</ele>
        <time>2025-06-22T08:07:26Z</time>
      </trkpt>
      <trkpt lat="42.89194" lon="1.19244">
        <ele>599.4</ele>
        <time>2025-06-22T08:07:31Z</time>
      </trkpt>
      <trkpt lat="42.89193" lon="1.19246">
        <ele>600</ele>
        <time>2025-06-22T08:07:32Z</time>
      </trkpt>
      <trkpt lat="42.89191" lon="1.19249">
        <ele>600.4</ele>
        <time>2025-06-22T08:07:33Z</time>
      </trkpt>
      <trkpt lat="42.8919" lon="1.19252">
        <ele>600.8</ele>
        <time>2025-06-22T08:07:34Z</time>
      </trkpt>
      <trkpt lat="42.89188" lon="1.19254">
        <ele>601.2</ele>
        <time>2025-06-22T08:07:35Z</time>
      </trkpt>
      <trkpt lat="42.89183" lon="1.1926">
        <ele>601.2</ele>
        <time>2025-06-22T08:07:38Z</time>
      </trkpt>
      <trkpt lat="42.89176" lon="1.19264">
        <ele>601.8</ele>
        <time>2025-06-22T08:07:42Z</time>
      </trkpt>
      <trkpt lat="42.89174" lon="1.19266">
        <ele>602.2</ele>
        <time>2025-06-22T08:07:43Z</time>
      </trkpt>
      <trkpt lat="42.89174" lon="1.19268">
        <ele>602.6</ele>
        <time>2025-06-22T08:07:44Z</time>
      </trkpt>
      <trkpt lat="42.89175" lon="1.19269">
        <ele>603.2</ele>
        <time>2025-06-22T08:07:45Z</time>
      </trkpt>
      <trkpt lat="42.89176" lon="1.1927">
        <ele>603.6</ele>
        <time>2025-06-22T08:07:46Z</time>
      </trkpt>
      <trkpt lat="42.89178" lon="1.19274">
        <ele>603.6</ele>
        <time>2025-06-22T08:07:47Z</time>
      </trkpt>
      <trkpt lat="42.89186" lon="1.19278">
        <ele>603.6</ele>
        <time>2025-06-22T08:07:51Z</time>
      </trkpt>
      <trkpt lat="42.89188" lon="1.19278">
        <ele>604</ele>
        <time>2025-06-22T08:07:52Z</time>
      </trkpt>
      <trkpt lat="42.8919" lon="1.19277">
        <ele>604.4</ele>
        <time>2025-06-22T08:07:53Z</time>
      </trkpt>
      <trkpt lat="42.89191" lon="1.19277">
        <ele>604.8</ele>
        <time>2025-06-22T08:07:54Z</time>
      </trkpt>
      <trkpt lat="42.89193" lon="1.19276">
        <ele>605.4</ele>
        <time>2025-06-22T08:07:55Z</time>
      </trkpt>
      <trkpt lat="42.89195" lon="1.19275">
        <ele>605.8</ele>
        <time>2025-06-22T08:07:56Z</time>
      </trkpt>
      <trkpt lat="42.89201" lon="1.19272">
        <ele>605.8</ele>
        <time>2025-06-22T08:07:59Z</time>
      </trkpt>
      <trkpt lat="42.89203" lon="1.1927">
        <ele>606.2</ele>
        <time>2025-06-22T08:08:01Z</time>
      </trkpt>
      <trkpt lat="42.89204" lon="1.19269">
        <ele>606.6</ele>
        <time>2025-06-22T08:08:02Z</time>
      </trkpt>
      <trkpt lat="42.89206" lon="1.19268">
        <ele>607</ele>
        <time>2025-06-22T08:08:03Z</time>
      </trkpt>
      <trkpt lat="42.89207" lon="1.19267">
        <ele>607.4</ele>
        <time>2025-06-22T08:08:04Z</time>
      </trkpt>
      <trkpt lat="42.89209" lon="1.19266">
        <ele>607.8</ele>
        <time>2025-06-22T08:08:05Z</time>
      </trkpt>
      <trkpt lat="42.89215" lon="1.19258">
        <ele>608.2</ele>
        <time>2025-06-22T08:08:09Z</time>
      </trkpt>
      <trkpt lat="42.89216" lon="1.19256">
        <ele>608.8</ele>
        <time>2025-06-22T08:08:10Z</time>
      </trkpt>
      <trkpt lat="42.89217" lon="1.19253">
        <ele>609.2</ele>
        <time>2025-06-22T08:08:11Z</time>
      </trkpt>
      <trkpt lat="42.89219" lon="1.19252">
        <ele>609.6</ele>
        <time>2025-06-22T08:08:12Z</time>
      </trkpt>
      <trkpt lat="42.89221" lon="1.19251">
        <ele>610</ele>
        <time>2025-06-22T08:08:13Z</time>
      </trkpt>
      <trkpt lat="42.89226" lon="1.19248">
        <ele>610.4</ele>
        <time>2025-06-22T08:08:16Z</time>
      </trkpt>
      <trkpt lat="42.89228" lon="1.19246">
        <ele>610.8</ele>
        <time>2025-06-22T08:08:17Z</time>
      </trkpt>
      <trkpt lat="42.89229" lon="1.19244">
        <ele>611.2</ele>
        <time>2025-06-22T08:08:18Z</time>
      </trkpt>
      <trkpt lat="42.89231" lon="1.19242">
        <ele>611.6</ele>
        <time>2025-06-22T08:08:19Z</time>
      </trkpt>
      <trkpt lat="42.89233" lon="1.1924">
        <ele>612</ele>
        <time>2025-06-22T08:08:20Z</time>
      </trkpt>
      <trkpt lat="42.89235" lon="1.19234">
        <ele>612</ele>
        <time>2025-06-22T08:08:22Z</time>
      </trkpt>
      <trkpt lat="42.89238" lon="1.19229">
        <ele>612.6</ele>
        <time>2025-06-22T08:08:24Z</time>
      </trkpt>
      <trkpt lat="42.8924" lon="1.19226">
        <ele>613</ele>
        <time>2025-06-22T08:08:25Z</time>
      </trkpt>
      <trkpt lat="42.89241" lon="1.19224">
        <ele>613.4</ele>
        <time>2025-06-22T08:08:26Z</time>
      </trkpt>
      <trkpt lat="42.89243" lon="1.19221">
        <ele>613.8</ele>
        <time>2025-06-22T08:08:27Z</time>
      </trkpt>
      <trkpt lat="42.89246" lon="1.1922">
        <ele>614.2</ele>
        <time>2025-06-22T08:08:28Z</time>
      </trkpt>
      <trkpt lat="42.89248" lon="1.19219">
        <ele>614.2</ele>
        <time>2025-06-22T08:08:29Z</time>
      </trkpt>
      <trkpt lat="42.89253" lon="1.19215">
        <ele>614.6</ele>
        <time>2025-06-22T08:08:32Z</time>
      </trkpt>
      <trkpt lat="42.89255" lon="1.19213">
        <ele>615</ele>
        <time>2025-06-22T08:08:33Z</time>
      </trkpt>
      <trkpt lat="42.89257" lon="1.19212">
        <ele>615.4</ele>
        <time>2025-06-22T08:08:34Z</time>
      </trkpt>
      <trkpt lat="42.89258" lon="1.19209">
        <ele>615.8</ele>
        <time>2025-06-22T08:08:35Z</time>
      </trkpt>
      <trkpt lat="42.89259" lon="1.19206">
        <ele>616.2</ele>
        <time>2025-06-22T08:08:36Z</time>
      </trkpt>
      <trkpt lat="42.89266" lon="1.192">
        <ele>616.8</ele>
        <time>2025-06-22T08:08:40Z</time>
      </trkpt>
      <trkpt lat="42.89269" lon="1.19198">
        <ele>617.2</ele>
        <time>2025-06-22T08:08:41Z</time>
      </trkpt>
      <trkpt lat="42.8927" lon="1.19196">
        <ele>617.6</ele>
        <time>2025-06-22T08:08:42Z</time>
      </trkpt>
      <trkpt lat="42.89271" lon="1.19194">
        <ele>618</ele>
        <time>2025-06-22T08:08:43Z</time>
      </trkpt>
      <trkpt lat="42.89273" lon="1.19192">
        <ele>618.6</ele>
        <time>2025-06-22T08:08:44Z</time>
      </trkpt>
      <trkpt lat="42.89277" lon="1.19188">
        <ele>618.6</ele>
        <time>2025-06-22T08:08:46Z</time>
      </trkpt>
      <trkpt lat="42.89281" lon="1.19184">
        <ele>619</ele>
        <time>2025-06-22T08:08:48Z</time>
      </trkpt>
      <trkpt lat="42.89283" lon="1.19182">
        <ele>619.4</ele>
        <time>2025-06-22T08:08:49Z</time>
      </trkpt>
      <trkpt lat="42.89285" lon="1.19179">
        <ele>619.8</ele>
        <time>2025-06-22T08:08:50Z</time>
      </trkpt>
      <trkpt lat="42.89287" lon="1.19177">
        <ele>620.4</ele>
        <time>2025-06-22T08:08:51Z</time>
      </trkpt>
      <trkpt lat="42.89289" lon="1.19176">
        <ele>620.8</ele>
        <time>2025-06-22T08:08:52Z</time>
      </trkpt>
      <trkpt lat="42.89293" lon="1.1917">
        <ele>620.8</ele>
        <time>2025-06-22T08:08:54Z</time>
      </trkpt>
      <trkpt lat="42.89297" lon="1.19167">
        <ele>621.2</ele>
        <time>2025-06-22T08:08:56Z</time>
      </trkpt>
      <trkpt lat="42.89299" lon="1.19165">
        <ele>621.6</ele>
        <time>2025-06-22T08:08:57Z</time>
      </trkpt>
      <trkpt lat="42.89301" lon="1.19163">
        <ele>622</ele>
        <time>2025-06-22T08:08:58Z</time>
      </trkpt>
      <trkpt lat="42.89304" lon="1.19161">
        <ele>622.4</ele>
        <time>2025-06-22T08:08:59Z</time>
      </trkpt>
      <trkpt lat="42.89306" lon="1.19159">
        <ele>622.8</ele>
        <time>2025-06-22T08:09:00Z</time>
      </trkpt>
      <trkpt lat="42.89314" lon="1.19155">
        <ele>623.2</ele>
        <time>2025-06-22T08:09:03Z</time>
      </trkpt>
      <trkpt lat="42.89316" lon="1.19154">
        <ele>623.6</ele>
        <time>2025-06-22T08:09:04Z</time>
      </trkpt>
      <trkpt lat="42.89319" lon="1.19153">
        <ele>624</ele>
        <time>2025-06-22T08:09:05Z</time>
      </trkpt>
      <trkpt lat="42.89321" lon="1.19152">
        <ele>624.4</ele>
        <time>2025-06-22T08:09:06Z</time>
      </trkpt>
      <trkpt lat="42.89323" lon="1.19151">
        <ele>624.8</ele>
        <time>2025-06-22T08:09:07Z</time>
      </trkpt>
      <trkpt lat="42.8933" lon="1.19149">
        <ele>625.2</ele>
        <time>2025-06-22T08:09:10Z</time>
      </trkpt>
      <trkpt lat="42.89332" lon="1.19148">
        <ele>625.6</ele>
        <time>2025-06-22T08:09:11Z</time>
      </trkpt>
      <trkpt lat="42.89334" lon="1.19148">
        <ele>626</ele>
        <time>2025-06-22T08:09:12Z</time>
      </trkpt>
      <trkpt lat="42.89337" lon="1.19147">
        <ele>626.4</ele>
        <time>2025-06-22T08:09:13Z</time>
      </trkpt>
      <trkpt lat="42.89339" lon="1.19147">
        <ele>626.8</ele>
        <time>2025-06-22T08:09:14Z</time>
      </trkpt>
      <trkpt lat="42.89347" lon="1.19143">
        <ele>627.2</ele>
        <time>2025-06-22T08:09:17Z</time>
      </trkpt>
      <trkpt lat="42.89349" lon="1.19143">
        <ele>627.6</ele>
        <time>2025-06-22T08:09:18Z</time>
      </trkpt>
      <trkpt lat="42.89351" lon="1.19142">
        <ele>628.2</ele>
        <time>2025-06-22T08:09:19Z</time>
      </trkpt>
      <trkpt lat="42.89353" lon="1.19141">
        <ele>628.6</ele>
        <time>2025-06-22T08:09:20Z</time>
      </trkpt>
      <trkpt lat="42.89355" lon="1.1914">
        <ele>629</ele>
        <time>2025-06-22T08:09:21Z</time>
      </trkpt>
      <trkpt lat="42.89361" lon="1.19138">
        <ele>629.4</ele>
        <time>2025-06-22T08:09:24Z</time>
      </trkpt>
      <trkpt lat="42.89364" lon="1.19137">
        <ele>629.8</ele>
        <time>2025-06-22T08:09:25Z</time>
      </trkpt>
      <trkpt lat="42.89366" lon="1.19137">
        <ele>630.4</ele>
        <time>2025-06-22T08:09:26Z</time>
      </trkpt>
      <trkpt lat="42.89369" lon="1.19136">
        <ele>630.8</ele>
        <time>2025-06-22T08:09:27Z</time>
      </trkpt>
      <trkpt lat="42.89372" lon="1.19135">
        <ele>631.2</ele>
        <time>2025-06-22T08:09:28Z</time>
      </trkpt>
      <trkpt lat="42.89377" lon="1.19133">
        <ele>631.6</ele>
        <time>2025-06-22T08:09:30Z</time>
      </trkpt>
      <trkpt lat="42.8938" lon="1.19132">
        <ele>632</ele>
        <time>2025-06-22T08:09:31Z</time>
      </trkpt>
      <trkpt lat="42.89383" lon="1.19131">
        <ele>632.6</ele>
        <time>2025-06-22T08:09:32Z</time>
      </trkpt>
      <trkpt lat="42.89386" lon="1.19131">
        <ele>633</ele>
        <time>2025-06-22T08:09:33Z</time>
      </trkpt>
      <trkpt lat="42.89389" lon="1.19129">
        <ele>633.4</ele>
        <time>2025-06-22T08:09:34Z</time>
      </trkpt>
      <trkpt lat="42.89396" lon="1.19127">
        <ele>633.4</ele>
        <time>2025-06-22T08:09:36Z</time>
      </trkpt>
      <trkpt lat="42.89402" lon="1.19124">
        <ele>633.8</ele>
        <time>2025-06-22T08:09:38Z</time>
      </trkpt>
      <trkpt lat="42.89405" lon="1.19122">
        <ele>634.2</ele>
        <time>2025-06-22T08:09:39Z</time>
      </trkpt>
      <trkpt lat="42.89407" lon="1.19121">
        <ele>634.6</ele>
        <time>2025-06-22T08:09:40Z</time>
      </trkpt>
      <trkpt lat="42.89411" lon="1.19119">
        <ele>635</ele>
        <time>2025-06-22T08:09:41Z</time>
      </trkpt>
      <trkpt lat="42.89413" lon="1.19118">
        <ele>635.6</ele>
        <time>2025-06-22T08:09:42Z</time>
      </trkpt>
      <trkpt lat="42.89418" lon="1.19116">
        <ele>635.6</ele>
        <time>2025-06-22T08:09:44Z</time>
      </trkpt>
      <trkpt lat="42.89421" lon="1.19115">
        <ele>636</ele>
        <time>2025-06-22T08:09:45Z</time>
      </trkpt>
      <trkpt lat="42.89423" lon="1.19113">
        <ele>636.4</ele>
        <time>2025-06-22T08:09:46Z</time>
      </trkpt>
      <trkpt lat="42.89426" lon="1.19112">
        <ele>636.8</ele>
        <time>2025-06-22T08:09:47Z</time>
      </trkpt>
      <trkpt lat="42.89428" lon="1.19111">
        <ele>637.2</ele>
        <time>2025-06-22T08:09:48Z</time>
      </trkpt>
      <trkpt lat="42.89431" lon="1.1911">
        <ele>637.6</ele>
        <time>2025-06-22T08:09:49Z</time>
      </trkpt>
      <trkpt lat="42.89435" lon="1.19107">
        <ele>637.6</ele>
        <time>2025-06-22T08:09:51Z</time>
      </trkpt>
      <trkpt lat="42.8944" lon="1.19103">
        <ele>638</ele>
        <time>2025-06-22T08:09:53Z</time>
      </trkpt>
      <trkpt lat="42.89442" lon="1.19101">
        <ele>638.6</ele>
        <time>2025-06-22T08:09:54Z</time>
      </trkpt>
      <trkpt lat="42.89444" lon="1.19099">
        <ele>639</ele>
        <time>2025-06-22T08:09:55Z</time>
      </trkpt>
      <trkpt lat="42.89446" lon="1.19097">
        <ele>639.4</ele>
        <time>2025-06-22T08:09:56Z</time>
      </trkpt>
      <trkpt lat="42.89449" lon="1.19095">
        <ele>639.8</ele>
        <time>2025-06-22T08:09:57Z</time>
      </trkpt>
      <trkpt lat="42.89451" lon="1.19094">
        <ele>639.8</ele>
        <time>2025-06-22T08:09:58Z</time>
      </trkpt>
      <trkpt lat="42.89458" lon="1.19087">
        <ele>640.4</ele>
        <time>2025-06-22T08:10:01Z</time>
      </trkpt>
      <trkpt lat="42.8946" lon="1.19085">
        <ele>640.8</ele>
        <time>2025-06-22T08:10:02Z</time>
      </trkpt>
      <trkpt lat="42.89462" lon="1.19082">
        <ele>641.2</ele>
        <time>2025-06-22T08:10:03Z</time>
      </trkpt>
      <trkpt lat="42.89463" lon="1.19079">
        <ele>641.8</ele>
        <time>2025-06-22T08:10:04Z</time>
      </trkpt>
      <trkpt lat="42.89465" lon="1.19076">
        <ele>642.2</ele>
        <time>2025-06-22T08:10:05Z</time>
      </trkpt>
      <trkpt lat="42.89469" lon="1.19068">
        <ele>642.6</ele>
        <time>2025-06-22T08:10:08Z</time>
      </trkpt>
      <trkpt lat="42.8947" lon="1.19065">
        <ele>643.2</ele>
        <time>2025-06-22T08:10:09Z</time>
      </trkpt>
      <trkpt lat="42.89471" lon="1.19062">
        <ele>643.6</ele>
        <time>2025-06-22T08:10:10Z</time>
      </trkpt>
      <trkpt lat="42.89472" lon="1.1906">
        <ele>644</ele>
        <time>2025-06-22T08:10:11Z</time>
      </trkpt>
      <trkpt lat="42.89474" lon="1.19058">
        <ele>644.6</ele>
        <time>2025-06-22T08:10:12Z</time>
      </trkpt>
      <trkpt lat="42.89479" lon="1.19051">
        <ele>645</ele>
        <time>2025-06-22T08:10:15Z</time>
      </trkpt>
      <trkpt lat="42.89482" lon="1.19049">
        <ele>645.4</ele>
        <time>2025-06-22T08:10:16Z</time>
      </trkpt>
      <trkpt lat="42.89484" lon="1.19048">
        <ele>646.4</ele>
        <time>2025-06-22T08:10:17Z</time>
      </trkpt>
      <trkpt lat="42.89486" lon="1.19047">
        <ele>646.8</ele>
        <time>2025-06-22T08:10:18Z</time>
      </trkpt>
      <trkpt lat="42.89496" lon="1.19039">
        <ele>647.2</ele>
        <time>2025-06-22T08:10:22Z</time>
      </trkpt>
      <trkpt lat="42.89498" lon="1.19037">
        <ele>647.6</ele>
        <time>2025-06-22T08:10:23Z</time>
      </trkpt>
      <trkpt lat="42.89501" lon="1.19035">
        <ele>648</ele>
        <time>2025-06-22T08:10:24Z</time>
      </trkpt>
      <trkpt lat="42.89503" lon="1.19033">
        <ele>648.4</ele>
        <time>2025-06-22T08:10:25Z</time>
      </trkpt>
      <trkpt lat="42.89505" lon="1.19031">
        <ele>648.8</ele>
        <time>2025-06-22T08:10:26Z</time>
      </trkpt>
      <trkpt lat="42.89514" lon="1.19025">
        <ele>649.4</ele>
        <time>2025-06-22T08:10:30Z</time>
      </trkpt>
      <trkpt lat="42.89516" lon="1.19023">
        <ele>649.8</ele>
        <time>2025-06-22T08:10:31Z</time>
      </trkpt>
      <trkpt lat="42.89518" lon="1.19021">
        <ele>650.2</ele>
        <time>2025-06-22T08:10:32Z</time>
      </trkpt>
      <trkpt lat="42.8952" lon="1.1902">
        <ele>650.6</ele>
        <time>2025-06-22T08:10:33Z</time>
      </trkpt>
      <trkpt lat="42.89522" lon="1.19018">
        <ele>651</ele>
        <time>2025-06-22T08:10:34Z</time>
      </trkpt>
      <trkpt lat="42.89529" lon="1.19012">
        <ele>651.4</ele>
        <time>2025-06-22T08:10:37Z</time>
      </trkpt>
      <trkpt lat="42.89532" lon="1.1901">
        <ele>651.8</ele>
        <time>2025-06-22T08:10:38Z</time>
      </trkpt>
      <trkpt lat="42.89534" lon="1.19008">
        <ele>652.4</ele>
        <time>2025-06-22T08:10:39Z</time>
      </trkpt>
      <trkpt lat="42.89537" lon="1.19006">
        <ele>652.8</ele>
        <time>2025-06-22T08:10:40Z</time>
      </trkpt>
      <trkpt lat="42.89539" lon="1.19004">
        <ele>653.2</ele>
        <time>2025-06-22T08:10:41Z</time>
      </trkpt>
      <trkpt lat="42.89544" lon="1.18998">
        <ele>653.6</ele>
        <time>2025-06-22T08:10:43Z</time>
      </trkpt>
      <trkpt lat="42.89546" lon="1.18995">
        <ele>654</ele>
        <time>2025-06-22T08:10:44Z</time>
      </trkpt>
      <trkpt lat="42.89548" lon="1.18993">
        <ele>654.6</ele>
        <time>2025-06-22T08:10:45Z</time>
      </trkpt>
      <trkpt lat="42.8955" lon="1.18992">
        <ele>655</ele>
        <time>2025-06-22T08:10:46Z</time>
      </trkpt>
      <trkpt lat="42.89552" lon="1.1899">
        <ele>655.4</ele>
        <time>2025-06-22T08:10:47Z</time>
      </trkpt>
      <trkpt lat="42.89556" lon="1.18991">
        <ele>655.8</ele>
        <time>2025-06-22T08:10:49Z</time>
      </trkpt>
      <trkpt lat="42.89557" lon="1.18993">
        <ele>656.2</ele>
        <time>2025-06-22T08:10:50Z</time>
      </trkpt>
      <trkpt lat="42.89557" lon="1.18995">
        <ele>656.6</ele>
        <time>2025-06-22T08:10:51Z</time>
      </trkpt>
      <trkpt lat="42.89556" lon="1.18998">
        <ele>657</ele>
        <time>2025-06-22T08:10:52Z</time>
      </trkpt>
      <trkpt lat="42.89554" lon="1.19001">
        <ele>657.4</ele>
        <time>2025-06-22T08:10:53Z</time>
      </trkpt>
      <trkpt lat="42.89549" lon="1.19007">
        <ele>657.4</ele>
        <time>2025-06-22T08:10:55Z</time>
      </trkpt>
      <trkpt lat="42.89543" lon="1.19015">
        <ele>657.8</ele>
        <time>2025-06-22T08:10:58Z</time>
      </trkpt>
      <trkpt lat="42.8954" lon="1.19018">
        <ele>658.2</ele>
        <time>2025-06-22T08:10:59Z</time>
      </trkpt>
      <trkpt lat="42.89538" lon="1.1902">
        <ele>658.6</ele>
        <time>2025-06-22T08:11:00Z</time>
      </trkpt>
      <trkpt lat="42.89535" lon="1.19024">
        <ele>659</ele>
        <time>2025-06-22T08:11:01Z</time>
      </trkpt>
      <trkpt lat="42.89533" lon="1.19028">
        <ele>659.4</ele>
        <time>2025-06-22T08:11:02Z</time>
      </trkpt>
      <trkpt lat="42.89527" lon="1.1904">
        <ele>659.4</ele>
        <time>2025-06-22T08:11:05Z</time>
      </trkpt>
      <trkpt lat="42.89505" lon="1.19074">
        <ele>659.4</ele>
        <time>2025-06-22T08:11:13Z</time>
      </trkpt>
      <trkpt lat="42.89488" lon="1.19108">
        <ele>659.4</ele>
        <time>2025-06-22T08:11:20Z</time>
      </trkpt>
      <trkpt lat="42.89481" lon="1.19137">
        <ele>659.4</ele>
        <time>2025-06-22T08:11:26Z</time>
      </trkpt>
      <trkpt lat="42.89476" lon="1.19149">
        <ele>660</ele>
        <time>2025-06-22T08:11:29Z</time>
      </trkpt>
      <trkpt lat="42.89474" lon="1.19153">
        <ele>660.4</ele>
        <time>2025-06-22T08:11:30Z</time>
      </trkpt>
      <trkpt lat="42.89472" lon="1.19157">
        <ele>660.8</ele>
        <time>2025-06-22T08:11:31Z</time>
      </trkpt>
      <trkpt lat="42.8947" lon="1.19161">
        <ele>661.8</ele>
        <time>2025-06-22T08:11:32Z</time>
      </trkpt>
      <trkpt lat="42.8946" lon="1.19172">
        <ele>662.2</ele>
        <time>2025-06-22T08:11:36Z</time>
      </trkpt>
      <trkpt lat="42.89458" lon="1.19175">
        <ele>662.6</ele>
        <time>2025-06-22T08:11:37Z</time>
      </trkpt>
      <trkpt lat="42.89456" lon="1.19177">
        <ele>663</ele>
        <time>2025-06-22T08:11:38Z</time>
      </trkpt>
      <trkpt lat="42.89454" lon="1.19181">
        <ele>663.4</ele>
        <time>2025-06-22T08:11:39Z</time>
      </trkpt>
      <trkpt lat="42.89451" lon="1.19185">
        <ele>663.8</ele>
        <time>2025-06-22T08:11:40Z</time>
      </trkpt>
      <trkpt lat="42.89439" lon="1.19202">
        <ele>663.8</ele>
        <time>2025-06-22T08:11:45Z</time>
      </trkpt>
      <trkpt lat="42.89437" lon="1.19206">
        <ele>664.2</ele>
        <time>2025-06-22T08:11:46Z</time>
      </trkpt>
      <trkpt lat="42.89434" lon="1.1921">
        <ele>664.8</ele>
        <time>2025-06-22T08:11:47Z</time>
      </trkpt>
      <trkpt lat="42.89432" lon="1.19213">
        <ele>665.2</ele>
        <time>2025-06-22T08:11:48Z</time>
      </trkpt>
      <trkpt lat="42.89429" lon="1.19216">
        <ele>665.6</ele>
        <time>2025-06-22T08:11:49Z</time>
      </trkpt>
      <trkpt lat="42.89426" lon="1.19219">
        <ele>666</ele>
        <time>2025-06-22T08:11:50Z</time>
      </trkpt>
      <trkpt lat="42.8942" lon="1.19229">
        <ele>666</ele>
        <time>2025-06-22T08:11:53Z</time>
      </trkpt>
      <trkpt lat="42.89414" lon="1.19235">
        <ele>666.4</ele>
        <time>2025-06-22T08:11:55Z</time>
      </trkpt>
      <trkpt lat="42.89412" lon="1.19239">
        <ele>667</ele>
        <time>2025-06-22T08:11:56Z</time>
      </trkpt>
      <trkpt lat="42.89409" lon="1.19243">
        <ele>667.8</ele>
        <time>2025-06-22T08:11:57Z</time>
      </trkpt>
      <trkpt lat="42.89406" lon="1.19247">
        <ele>668.2</ele>
        <time>2025-06-22T08:11:58Z</time>
      </trkpt>
      <trkpt lat="42.89401" lon="1.19255">
        <ele>668.2</ele>
        <time>2025-06-22T08:12:00Z</time>
      </trkpt>
      <trkpt lat="42.89399" lon="1.19259">
        <ele>668.6</ele>
        <time>2025-06-22T08:12:01Z</time>
      </trkpt>
      <trkpt lat="42.89396" lon="1.19262">
        <ele>669</ele>
        <time>2025-06-22T08:12:02Z</time>
      </trkpt>
      <trkpt lat="42.89394" lon="1.19266">
        <ele>669.4</ele>
        <time>2025-06-22T08:12:03Z</time>
      </trkpt>
      <trkpt lat="42.89392" lon="1.19269">
        <ele>669.8</ele>
        <time>2025-06-22T08:12:04Z</time>
      </trkpt>
      <trkpt lat="42.89389" lon="1.19273">
        <ele>670.2</ele>
        <time>2025-06-22T08:12:05Z</time>
      </trkpt>
      <trkpt lat="42.89385" lon="1.1928">
        <ele>670.2</ele>
        <time>2025-06-22T08:12:07Z</time>
      </trkpt>
      <trkpt lat="42.8938" lon="1.19288">
        <ele>670.6</ele>
        <time>2025-06-22T08:12:09Z</time>
      </trkpt>
      <trkpt lat="42.89378" lon="1.19292">
        <ele>671</ele>
        <time>2025-06-22T08:12:10Z</time>
      </trkpt>
      <trkpt lat="42.89376" lon="1.19295">
        <ele>671.4</ele>
        <time>2025-06-22T08:12:11Z</time>
      </trkpt>
      <trkpt lat="42.89374" lon="1.19298">
        <ele>672</ele>
        <time>2025-06-22T08:12:12Z</time>
      </trkpt>
      <trkpt lat="42.89372" lon="1.19302">
        <ele>672.4</ele>
        <time>2025-06-22T08:12:13Z</time>
      </trkpt>
      <trkpt lat="42.8937" lon="1.19306">
        <ele>672.4</ele>
        <time>2025-06-22T08:12:14Z</time>
      </trkpt>
      <trkpt lat="42.89364" lon="1.19317">
        <ele>672.8</ele>
        <time>2025-06-22T08:12:17Z</time>
      </trkpt>
      <trkpt lat="42.89362" lon="1.1932">
        <ele>673.2</ele>
        <time>2025-06-22T08:12:18Z</time>
      </trkpt>
      <trkpt lat="42.89361" lon="1.19324">
        <ele>673.6</ele>
        <time>2025-06-22T08:12:19Z</time>
      </trkpt>
      <trkpt lat="42.89359" lon="1.19327">
        <ele>674</ele>
        <time>2025-06-22T08:12:20Z</time>
      </trkpt>
      <trkpt lat="42.89358" lon="1.19331">
        <ele>674.4</ele>
        <time>2025-06-22T08:12:21Z</time>
      </trkpt>
      <trkpt lat="42.89352" lon="1.1934">
        <ele>674.8</ele>
        <time>2025-06-22T08:12:24Z</time>
      </trkpt>
      <trkpt lat="42.89351" lon="1.19344">
        <ele>675.2</ele>
        <time>2025-06-22T08:12:25Z</time>
      </trkpt>
      <trkpt lat="42.89349" lon="1.19348">
        <ele>675.6</ele>
        <time>2025-06-22T08:12:26Z</time>
      </trkpt>
      <trkpt lat="42.89347" lon="1.19351">
        <ele>676</ele>
        <time>2025-06-22T08:12:27Z</time>
      </trkpt>
      <trkpt lat="42.89345" lon="1.19355">
        <ele>676.4</ele>
        <time>2025-06-22T08:12:28Z</time>
      </trkpt>
      <trkpt lat="42.89339" lon="1.1937">
        <ele>676.8</ele>
        <time>2025-06-22T08:12:32Z</time>
      </trkpt>
      <trkpt lat="42.89337" lon="1.19373">
        <ele>677.2</ele>
        <time>2025-06-22T08:12:33Z</time>
      </trkpt>
      <trkpt lat="42.89335" lon="1.19375">
        <ele>677.8</ele>
        <time>2025-06-22T08:12:34Z</time>
      </trkpt>
      <trkpt lat="42.89334" lon="1.19379">
        <ele>678.2</ele>
        <time>2025-06-22T08:12:35Z</time>
      </trkpt>
      <trkpt lat="42.89332" lon="1.19382">
        <ele>678.6</ele>
        <time>2025-06-22T08:12:36Z</time>
      </trkpt>
      <trkpt lat="42.8933" lon="1.1939">
        <ele>678.6</ele>
        <time>2025-06-22T08:12:38Z</time>
      </trkpt>
      <trkpt lat="42.89329" lon="1.19395">
        <ele>679</ele>
        <time>2025-06-22T08:12:39Z</time>
      </trkpt>
      <trkpt lat="42.89328" lon="1.19399">
        <ele>679.4</ele>
        <time>2025-06-22T08:12:40Z</time>
      </trkpt>
      <trkpt lat="42.89327" lon="1.19403">
        <ele>679.8</ele>
        <time>2025-06-22T08:12:41Z</time>
      </trkpt>
      <trkpt lat="42.89325" lon="1.19407">
        <ele>680.2</ele>
        <time>2025-06-22T08:12:42Z</time>
      </trkpt>
      <trkpt lat="42.89325" lon="1.19411">
        <ele>680.6</ele>
        <time>2025-06-22T08:12:43Z</time>
      </trkpt>
      <trkpt lat="42.89324" lon="1.19422">
        <ele>681.4</ele>
        <time>2025-06-22T08:12:46Z</time>
      </trkpt>
      <trkpt lat="42.89323" lon="1.19426">
        <ele>681.8</ele>
        <time>2025-06-22T08:12:47Z</time>
      </trkpt>
      <trkpt lat="42.89323" lon="1.1943">
        <ele>682.2</ele>
        <time>2025-06-22T08:12:48Z</time>
      </trkpt>
      <trkpt lat="42.89322" lon="1.19434">
        <ele>682.6</ele>
        <time>2025-06-22T08:12:49Z</time>
      </trkpt>
      <trkpt lat="42.89318" lon="1.19445">
        <ele>682.6</ele>
        <time>2025-06-22T08:12:52Z</time>
      </trkpt>
      <trkpt lat="42.89318" lon="1.19464">
        <ele>683</ele>
        <time>2025-06-22T08:12:56Z</time>
      </trkpt>
      <trkpt lat="42.89319" lon="1.19468">
        <ele>683.4</ele>
        <time>2025-06-22T08:12:57Z</time>
      </trkpt>
      <trkpt lat="42.89321" lon="1.19473">
        <ele>683.8</ele>
        <time>2025-06-22T08:12:58Z</time>
      </trkpt>
      <trkpt lat="42.89324" lon="1.19477">
        <ele>684.2</ele>
        <time>2025-06-22T08:12:59Z</time>
      </trkpt>
      <trkpt lat="42.89326" lon="1.19481">
        <ele>684.8</ele>
        <time>2025-06-22T08:13:00Z</time>
      </trkpt>
      <trkpt lat="42.89329" lon="1.19484">
        <ele>684.8</ele>
        <time>2025-06-22T08:13:01Z</time>
      </trkpt>
      <trkpt lat="42.89344" lon="1.19487">
        <ele>684.8</ele>
        <time>2025-06-22T08:13:06Z</time>
      </trkpt>
      <trkpt lat="42.89363" lon="1.19475">
        <ele>685.2</ele>
        <time>2025-06-22T08:13:12Z</time>
      </trkpt>
      <trkpt lat="42.89365" lon="1.19473">
        <ele>685.6</ele>
        <time>2025-06-22T08:13:13Z</time>
      </trkpt>
      <trkpt lat="42.89368" lon="1.1947">
        <ele>686</ele>
        <time>2025-06-22T08:13:14Z</time>
      </trkpt>
      <trkpt lat="42.89371" lon="1.19468">
        <ele>686.4</ele>
        <time>2025-06-22T08:13:15Z</time>
      </trkpt>
      <trkpt lat="42.89373" lon="1.19466">
        <ele>686.8</ele>
        <time>2025-06-22T08:13:16Z</time>
      </trkpt>
      <trkpt lat="42.89383" lon="1.19456">
        <ele>687.4</ele>
        <time>2025-06-22T08:13:20Z</time>
      </trkpt>
      <trkpt lat="42.89386" lon="1.19453">
        <ele>687.8</ele>
        <time>2025-06-22T08:13:21Z</time>
      </trkpt>
      <trkpt lat="42.89389" lon="1.19451">
        <ele>688.2</ele>
        <time>2025-06-22T08:13:22Z</time>
      </trkpt>
      <trkpt lat="42.89391" lon="1.19447">
        <ele>688.6</ele>
        <time>2025-06-22T08:13:23Z</time>
      </trkpt>
      <trkpt lat="42.89394" lon="1.19444">
        <ele>689</ele>
        <time>2025-06-22T08:13:24Z</time>
      </trkpt>
      <trkpt lat="42.89405" lon="1.19434">
        <ele>689</ele>
        <time>2025-06-22T08:13:28Z</time>
      </trkpt>
      <trkpt lat="42.89407" lon="1.19432">
        <ele>689.4</ele>
        <time>2025-06-22T08:13:29Z</time>
      </trkpt>
      <trkpt lat="42.8941" lon="1.1943">
        <ele>690</ele>
        <time>2025-06-22T08:13:30Z</time>
      </trkpt>
      <trkpt lat="42.89412" lon="1.19428">
        <ele>690.4</ele>
        <time>2025-06-22T08:13:31Z</time>
      </trkpt>
      <trkpt lat="42.89415" lon="1.19425">
        <ele>690.8</ele>
        <time>2025-06-22T08:13:32Z</time>
      </trkpt>
      <trkpt lat="42.89418" lon="1.19423">
        <ele>691.2</ele>
        <time>2025-06-22T08:13:33Z</time>
      </trkpt>
      <trkpt lat="42.89428" lon="1.19416">
        <ele>691.2</ele>
        <time>2025-06-22T08:13:36Z</time>
      </trkpt>
      <trkpt lat="42.89431" lon="1.19414">
        <ele>691.6</ele>
        <time>2025-06-22T08:13:37Z</time>
      </trkpt>
      <trkpt lat="42.89434" lon="1.19411">
        <ele>692</ele>
        <time>2025-06-22T08:13:38Z</time>
      </trkpt>
      <trkpt lat="42.89436" lon="1.19408">
        <ele>692.4</ele>
        <time>2025-06-22T08:13:39Z</time>
      </trkpt>
      <trkpt lat="42.89439" lon="1.19406">
        <ele>692.8</ele>
        <time>2025-06-22T08:13:40Z</time>
      </trkpt>
      <trkpt lat="42.89442" lon="1.19403">
        <ele>693.4</ele>
        <time>2025-06-22T08:13:41Z</time>
      </trkpt>
      <trkpt lat="42.89448" lon="1.19398">
        <ele>693.4</ele>
        <time>2025-06-22T08:13:43Z</time>
      </trkpt>
      <trkpt lat="42.89464" lon="1.19381">
        <ele>693.8</ele>
        <time>2025-06-22T08:13:49Z</time>
      </trkpt>
      <trkpt lat="42.89467" lon="1.19378">
        <ele>694.2</ele>
        <time>2025-06-22T08:13:50Z</time>
      </trkpt>
      <trkpt lat="42.8947" lon="1.19376">
        <ele>694.6</ele>
        <time>2025-06-22T08:13:51Z</time>
      </trkpt>
      <trkpt lat="42.89473" lon="1.19373">
        <ele>695</ele>
        <time>2025-06-22T08:13:52Z</time>
      </trkpt>
      <trkpt lat="42.89475" lon="1.19371">
        <ele>695.4</ele>
        <time>2025-06-22T08:13:53Z</time>
      </trkpt>
      <trkpt lat="42.89484" lon="1.19364">
        <ele>695.4</ele>
        <time>2025-06-22T08:13:56Z</time>
      </trkpt>
      <trkpt lat="42.89495" lon="1.19356">
        <ele>696.2</ele>
        <time>2025-06-22T08:14:00Z</time>
      </trkpt>
      <trkpt lat="42.89497" lon="1.19353">
        <ele>696.6</ele>
        <time>2025-06-22T08:14:01Z</time>
      </trkpt>
      <trkpt lat="42.895" lon="1.19352">
        <ele>697.2</ele>
        <time>2025-06-22T08:14:02Z</time>
      </trkpt>
      <trkpt lat="42.89502" lon="1.1935">
        <ele>697.6</ele>
        <time>2025-06-22T08:14:03Z</time>
      </trkpt>
      <trkpt lat="42.89505" lon="1.19348">
        <ele>697.6</ele>
        <time>2025-06-22T08:14:04Z</time>
      </trkpt>
      <trkpt lat="42.89517" lon="1.19338">
        <ele>698</ele>
        <time>2025-06-22T08:14:08Z</time>
      </trkpt>
      <trkpt lat="42.8952" lon="1.19335">
        <ele>698.4</ele>
        <time>2025-06-22T08:14:09Z</time>
      </trkpt>
      <trkpt lat="42.89523" lon="1.19332">
        <ele>698.8</ele>
        <time>2025-06-22T08:14:10Z</time>
      </trkpt>
      <trkpt lat="42.89525" lon="1.19329">
        <ele>699.4</ele>
        <time>2025-06-22T08:14:11Z</time>
      </trkpt>
      <trkpt lat="42.89528" lon="1.19326">
        <ele>699.8</ele>
        <time>2025-06-22T08:14:12Z</time>
      </trkpt>
      <trkpt lat="42.89546" lon="1.19307">
        <ele>700.2</ele>
        <time>2025-06-22T08:14:19Z</time>
      </trkpt>
      <trkpt lat="42.89547" lon="1.19304">
        <ele>700.6</ele>
        <time>2025-06-22T08:14:20Z</time>
      </trkpt>
      <trkpt lat="42.89549" lon="1.19301">
        <ele>701</ele>
        <time>2025-06-22T08:14:21Z</time>
      </trkpt>
      <trkpt lat="42.89551" lon="1.19298">
        <ele>701.4</ele>
        <time>2025-06-22T08:14:22Z</time>
      </trkpt>
      <trkpt lat="42.89552" lon="1.19297">
        <ele>702</ele>
        <time>2025-06-22T08:14:23Z</time>
      </trkpt>
      <trkpt lat="42.89556" lon="1.19293">
        <ele>702</ele>
        <time>2025-06-22T08:14:26Z</time>
      </trkpt>
      <trkpt lat="42.89558" lon="1.19291">
        <ele>702.4</ele>
        <time>2025-06-22T08:14:27Z</time>
      </trkpt>
      <trkpt lat="42.89559" lon="1.19289">
        <ele>702.8</ele>
        <time>2025-06-22T08:14:28Z</time>
      </trkpt>
      <trkpt lat="42.8956" lon="1.19288">
        <ele>703.2</ele>
        <time>2025-06-22T08:14:29Z</time>
      </trkpt>
      <trkpt lat="42.89561" lon="1.19288">
        <ele>703.6</ele>
        <time>2025-06-22T08:14:30Z</time>
      </trkpt>
      <trkpt lat="42.89562" lon="1.19288">
        <ele>704</ele>
        <time>2025-06-22T08:14:31Z</time>
      </trkpt>
      <trkpt lat="42.89563" lon="1.19289">
        <ele>704</ele>
        <time>2025-06-22T08:14:32Z</time>
      </trkpt>
      <trkpt lat="42.89563" lon="1.1929">
        <ele>704</ele>
        <time>2025-06-22T08:14:33Z</time>
      </trkpt>
      <trkpt lat="42.89572" lon="1.19287">
        <ele>704</ele>
        <time>2025-06-22T08:14:37Z</time>
      </trkpt>
      <trkpt lat="42.89587" lon="1.1928">
        <ele>704</ele>
        <time>2025-06-22T08:14:43Z</time>
      </trkpt>
      <trkpt lat="42.89593" lon="1.19273">
        <ele>704.4</ele>
        <time>2025-06-22T08:14:46Z</time>
      </trkpt>
      <trkpt lat="42.89596" lon="1.1927">
        <ele>704.8</ele>
        <time>2025-06-22T08:14:47Z</time>
      </trkpt>
      <trkpt lat="42.89598" lon="1.19268">
        <ele>705.4</ele>
        <time>2025-06-22T08:14:48Z</time>
      </trkpt>
      <trkpt lat="42.89601" lon="1.19266">
        <ele>705.8</ele>
        <time>2025-06-22T08:14:49Z</time>
      </trkpt>
      <trkpt lat="42.89603" lon="1.19264">
        <ele>706.8</ele>
        <time>2025-06-22T08:14:50Z</time>
      </trkpt>
      <trkpt lat="42.89605" lon="1.19262">
        <ele>707.4</ele>
        <time>2025-06-22T08:14:51Z</time>
      </trkpt>
      <trkpt lat="42.89607" lon="1.1926">
        <ele>708</ele>
        <time>2025-06-22T08:14:52Z</time>
      </trkpt>
      <trkpt lat="42.89608" lon="1.19259">
        <ele>708.4</ele>
        <time>2025-06-22T08:14:53Z</time>
      </trkpt>
      <trkpt lat="42.89609" lon="1.19258">
        <ele>708.8</ele>
        <time>2025-06-22T08:14:54Z</time>
      </trkpt>
      <trkpt lat="42.89611" lon="1.19256">
        <ele>709.2</ele>
        <time>2025-06-22T08:14:55Z</time>
      </trkpt>
      <trkpt lat="42.89612" lon="1.19255">
        <ele>709.8</ele>
        <time>2025-06-22T08:14:56Z</time>
      </trkpt>
      <trkpt lat="42.89614" lon="1.19253">
        <ele>710.2</ele>
        <time>2025-06-22T08:14:57Z</time>
      </trkpt>
      <trkpt lat="42.89616" lon="1.19253">
        <ele>710.6</ele>
        <time>2025-06-22T08:14:58Z</time>
      </trkpt>
      <trkpt lat="42.89619" lon="1.19251">
        <ele>711</ele>
        <time>2025-06-22T08:15:00Z</time>
      </trkpt>
      <trkpt lat="42.89621" lon="1.19249">
        <ele>711.4</ele>
        <time>2025-06-22T08:15:01Z</time>
      </trkpt>
      <trkpt lat="42.89623" lon="1.19248">
        <ele>711.8</ele>
        <time>2025-06-22T08:15:02Z</time>
      </trkpt>
      <trkpt lat="42.89625" lon="1.19247">
        <ele>712.2</ele>
        <time>2025-06-22T08:15:03Z</time>
      </trkpt>
      <trkpt lat="42.89627" lon="1.19246">
        <ele>712.8</ele>
        <time>2025-06-22T08:15:04Z</time>
      </trkpt>
      <trkpt lat="42.89631" lon="1.19244">
        <ele>713.2</ele>
        <time>2025-06-22T08:15:06Z</time>
      </trkpt>
      <trkpt lat="42.89633" lon="1.19243">
        <ele>713.6</ele>
        <time>2025-06-22T08:15:07Z</time>
      </trkpt>
      <trkpt lat="42.89635" lon="1.19242">
        <ele>714</ele>
        <time>2025-06-22T08:15:08Z</time>
      </trkpt>
      <trkpt lat="42.89636" lon="1.19241">
        <ele>714.4</ele>
        <time>2025-06-22T08:15:09Z</time>
      </trkpt>
      <trkpt lat="42.89638" lon="1.1924">
        <ele>714.8</ele>
        <time>2025-06-22T08:15:10Z</time>
      </trkpt>
      <trkpt lat="42.89639" lon="1.1924">
        <ele>714.8</ele>
        <time>2025-06-22T08:15:11Z</time>
      </trkpt>
      <trkpt lat="42.89642" lon="1.19236">
        <ele>715.2</ele>
        <time>2025-06-22T08:15:13Z</time>
      </trkpt>
      <trkpt lat="42.89644" lon="1.19233">
        <ele>715.8</ele>
        <time>2025-06-22T08:15:14Z</time>
      </trkpt>
      <trkpt lat="42.89646" lon="1.19231">
        <ele>716.6</ele>
        <time>2025-06-22T08:15:15Z</time>
      </trkpt>
      <trkpt lat="42.89648" lon="1.19227">
        <ele>717</ele>
        <time>2025-06-22T08:15:16Z</time>
      </trkpt>
      <trkpt lat="42.89649" lon="1.19224">
        <ele>717.4</ele>
        <time>2025-06-22T08:15:17Z</time>
      </trkpt>
      <trkpt lat="42.89651" lon="1.19221">
        <ele>717.8</ele>
        <time>2025-06-22T08:15:18Z</time>
      </trkpt>
      <trkpt lat="42.89652" lon="1.19219">
        <ele>718.4</ele>
        <time>2025-06-22T08:15:19Z</time>
      </trkpt>
      <trkpt lat="42.89653" lon="1.19216">
        <ele>718.8</ele>
        <time>2025-06-22T08:15:20Z</time>
      </trkpt>
      <trkpt lat="42.89655" lon="1.19214">
        <ele>719.2</ele>
        <time>2025-06-22T08:15:21Z</time>
      </trkpt>
      <trkpt lat="42.89656" lon="1.19212">
        <ele>719.6</ele>
        <time>2025-06-22T08:15:22Z</time>
      </trkpt>
      <trkpt lat="42.89657" lon="1.19211">
        <ele>720</ele>
        <time>2025-06-22T08:15:23Z</time>
      </trkpt>
      <trkpt lat="42.89658" lon="1.19208">
        <ele>720.4</ele>
        <time>2025-06-22T08:15:24Z</time>
      </trkpt>
      <trkpt lat="42.89659" lon="1.19207">
        <ele>721</ele>
        <time>2025-06-22T08:15:25Z</time>
      </trkpt>
      <trkpt lat="42.8966" lon="1.19205">
        <ele>721.4</ele>
        <time>2025-06-22T08:15:26Z</time>
      </trkpt>
      <trkpt lat="42.89664" lon="1.19198">
        <ele>721.8</ele>
        <time>2025-06-22T08:15:29Z</time>
      </trkpt>
      <trkpt lat="42.89666" lon="1.19195">
        <ele>722.2</ele>
        <time>2025-06-22T08:15:30Z</time>
      </trkpt>
      <trkpt lat="42.89667" lon="1.19193">
        <ele>722.8</ele>
        <time>2025-06-22T08:15:31Z</time>
      </trkpt>
      <trkpt lat="42.89668" lon="1.19191">
        <ele>723.2</ele>
        <time>2025-06-22T08:15:32Z</time>
      </trkpt>
      <trkpt lat="42.89669" lon="1.19188">
        <ele>723.6</ele>
        <time>2025-06-22T08:15:33Z</time>
      </trkpt>
      <trkpt lat="42.8967" lon="1.19186">
        <ele>723.6</ele>
        <time>2025-06-22T08:15:34Z</time>
      </trkpt>
      <trkpt lat="42.89672" lon="1.19182">
        <ele>724</ele>
        <time>2025-06-22T08:15:36Z</time>
      </trkpt>
      <trkpt lat="42.89673" lon="1.1918">
        <ele>724.6</ele>
        <time>2025-06-22T08:15:37Z</time>
      </trkpt>
      <trkpt lat="42.89674" lon="1.19178">
        <ele>725</ele>
        <time>2025-06-22T08:15:38Z</time>
      </trkpt>
      <trkpt lat="42.89675" lon="1.19176">
        <ele>725.8</ele>
        <time>2025-06-22T08:15:39Z</time>
      </trkpt>
      <trkpt lat="42.89679" lon="1.19169">
        <ele>726.2</ele>
        <time>2025-06-22T08:15:42Z</time>
      </trkpt>
      <trkpt lat="42.89681" lon="1.19167">
        <ele>726.8</ele>
        <time>2025-06-22T08:15:43Z</time>
      </trkpt>
      <trkpt lat="42.89682" lon="1.19165">
        <ele>727.2</ele>
        <time>2025-06-22T08:15:44Z</time>
      </trkpt>
      <trkpt lat="42.89683" lon="1.19163">
        <ele>727.6</ele>
        <time>2025-06-22T08:15:45Z</time>
      </trkpt>
      <trkpt lat="42.89684" lon="1.19162">
        <ele>728</ele>
        <time>2025-06-22T08:15:46Z</time>
      </trkpt>
      <trkpt lat="42.89688" lon="1.19157">
        <ele>728.4</ele>
        <time>2025-06-22T08:15:49Z</time>
      </trkpt>
      <trkpt lat="42.89689" lon="1.19156">
        <ele>728.8</ele>
        <time>2025-06-22T08:15:50Z</time>
      </trkpt>
      <trkpt lat="42.89691" lon="1.19154">
        <ele>729.2</ele>
        <time>2025-06-22T08:15:51Z</time>
      </trkpt>
      <trkpt lat="42.89692" lon="1.19153">
        <ele>729.8</ele>
        <time>2025-06-22T08:15:52Z</time>
      </trkpt>
      <trkpt lat="42.89693" lon="1.19151">
        <ele>730.2</ele>
        <time>2025-06-22T08:15:53Z</time>
      </trkpt>
      <trkpt lat="42.89697" lon="1.19147">
        <ele>730.6</ele>
        <time>2025-06-22T08:15:56Z</time>
      </trkpt>
      <trkpt lat="42.89698" lon="1.19146">
        <ele>731</ele>
        <time>2025-06-22T08:15:57Z</time>
      </trkpt>
      <trkpt lat="42.89699" lon="1.19144">
        <ele>731.4</ele>
        <time>2025-06-22T08:15:58Z</time>
      </trkpt>
      <trkpt lat="42.897" lon="1.19142">
        <ele>731.8</ele>
        <time>2025-06-22T08:15:59Z</time>
      </trkpt>
      <trkpt lat="42.89701" lon="1.19141">
        <ele>732.2</ele>
        <time>2025-06-22T08:16:00Z</time>
      </trkpt>
      <trkpt lat="42.89705" lon="1.19136">
        <ele>733</ele>
        <time>2025-06-22T08:16:04Z</time>
      </trkpt>
      <trkpt lat="42.89706" lon="1.19135">
        <ele>733.4</ele>
        <time>2025-06-22T08:16:05Z</time>
      </trkpt>
      <trkpt lat="42.89707" lon="1.19132">
        <ele>733.8</ele>
        <time>2025-06-22T08:16:06Z</time>
      </trkpt>
      <trkpt lat="42.89708" lon="1.1913">
        <ele>734.4</ele>
        <time>2025-06-22T08:16:07Z</time>
      </trkpt>
      <trkpt lat="42.8971" lon="1.19123">
        <ele>734.4</ele>
        <time>2025-06-22T08:16:10Z</time>
      </trkpt>
      <trkpt lat="42.89711" lon="1.19121">
        <ele>734.8</ele>
        <time>2025-06-22T08:16:11Z</time>
      </trkpt>
      <trkpt lat="42.89713" lon="1.19119">
        <ele>735.2</ele>
        <time>2025-06-22T08:16:12Z</time>
      </trkpt>
      <trkpt lat="42.89714" lon="1.19117">
        <ele>735.6</ele>
        <time>2025-06-22T08:16:13Z</time>
      </trkpt>
      <trkpt lat="42.89715" lon="1.19114">
        <ele>736</ele>
        <time>2025-06-22T08:16:14Z</time>
      </trkpt>
      <trkpt lat="42.89717" lon="1.19113">
        <ele>736.4</ele>
        <time>2025-06-22T08:16:15Z</time>
      </trkpt>
      <trkpt lat="42.89719" lon="1.19107">
        <ele>736.4</ele>
        <time>2025-06-22T08:16:17Z</time>
      </trkpt>
      <trkpt lat="42.89723" lon="1.191">
        <ele>736.8</ele>
        <time>2025-06-22T08:16:20Z</time>
      </trkpt>
      <trkpt lat="42.89724" lon="1.19098">
        <ele>737.2</ele>
        <time>2025-06-22T08:16:21Z</time>
      </trkpt>
      <trkpt lat="42.89725" lon="1.19096">
        <ele>737.6</ele>
        <time>2025-06-22T08:16:22Z</time>
      </trkpt>
      <trkpt lat="42.89727" lon="1.19094">
        <ele>738</ele>
        <time>2025-06-22T08:16:23Z</time>
      </trkpt>
      <trkpt lat="42.89728" lon="1.19093">
        <ele>738.4</ele>
        <time>2025-06-22T08:16:24Z</time>
      </trkpt>
      <trkpt lat="42.89733" lon="1.19086">
        <ele>739.2</ele>
        <time>2025-06-22T08:16:29Z</time>
      </trkpt>
      <trkpt lat="42.89733" lon="1.19084">
        <ele>739.6</ele>
        <time>2025-06-22T08:16:30Z</time>
      </trkpt>
      <trkpt lat="42.89734" lon="1.19082">
        <ele>740</ele>
        <time>2025-06-22T08:16:31Z</time>
      </trkpt>
      <trkpt lat="42.89735" lon="1.1908">
        <ele>740.4</ele>
        <time>2025-06-22T08:16:32Z</time>
      </trkpt>
      <trkpt lat="42.89739" lon="1.19072">
        <ele>740.8</ele>
        <time>2025-06-22T08:16:36Z</time>
      </trkpt>
      <trkpt lat="42.89741" lon="1.1907">
        <ele>741.4</ele>
        <time>2025-06-22T08:16:37Z</time>
      </trkpt>
      <trkpt lat="42.89742" lon="1.19068">
        <ele>741.8</ele>
        <time>2025-06-22T08:16:38Z</time>
      </trkpt>
      <trkpt lat="42.89743" lon="1.19065">
        <ele>742.2</ele>
        <time>2025-06-22T08:16:39Z</time>
      </trkpt>
      <trkpt lat="42.89744" lon="1.19062">
        <ele>742.6</ele>
        <time>2025-06-22T08:16:40Z</time>
      </trkpt>
      <trkpt lat="42.89749" lon="1.19056">
        <ele>742.6</ele>
        <time>2025-06-22T08:16:43Z</time>
      </trkpt>
      <trkpt lat="42.89755" lon="1.19049">
        <ele>743</ele>
        <time>2025-06-22T08:16:47Z</time>
      </trkpt>
      <trkpt lat="42.89756" lon="1.19048">
        <ele>743.4</ele>
        <time>2025-06-22T08:16:48Z</time>
      </trkpt>
      <trkpt lat="42.89757" lon="1.19047">
        <ele>743.8</ele>
        <time>2025-06-22T08:16:49Z</time>
      </trkpt>
      <trkpt lat="42.89759" lon="1.19046">
        <ele>744.4</ele>
        <time>2025-06-22T08:16:50Z</time>
      </trkpt>
      <trkpt lat="42.8976" lon="1.19045">
        <ele>744.8</ele>
        <time>2025-06-22T08:16:51Z</time>
      </trkpt>
      <trkpt lat="42.89763" lon="1.19038">
        <ele>745.2</ele>
        <time>2025-06-22T08:16:55Z</time>
      </trkpt>
      <trkpt lat="42.89763" lon="1.19037">
        <ele>745.6</ele>
        <time>2025-06-22T08:16:56Z</time>
      </trkpt>
      <trkpt lat="42.89764" lon="1.19035">
        <ele>746</ele>
        <time>2025-06-22T08:16:57Z</time>
      </trkpt>
      <trkpt lat="42.89765" lon="1.19031">
        <ele>746.4</ele>
        <time>2025-06-22T08:16:58Z</time>
      </trkpt>
      <trkpt lat="42.89766" lon="1.1903">
        <ele>747</ele>
        <time>2025-06-22T08:16:59Z</time>
      </trkpt>
      <trkpt lat="42.89768" lon="1.19024">
        <ele>747</ele>
        <time>2025-06-22T08:17:01Z</time>
      </trkpt>
      <trkpt lat="42.8977" lon="1.19023">
        <ele>747.4</ele>
        <time>2025-06-22T08:17:02Z</time>
      </trkpt>
      <trkpt lat="42.89772" lon="1.19021">
        <ele>747.8</ele>
        <time>2025-06-22T08:17:03Z</time>
      </trkpt>
      <trkpt lat="42.89774" lon="1.1902">
        <ele>748.2</ele>
        <time>2025-06-22T08:17:04Z</time>
      </trkpt>
      <trkpt lat="42.89777" lon="1.19019">
        <ele>748.6</ele>
        <time>2025-06-22T08:17:05Z</time>
      </trkpt>
      <trkpt lat="42.89779" lon="1.19018">
        <ele>749.2</ele>
        <time>2025-06-22T08:17:06Z</time>
      </trkpt>
      <trkpt lat="42.89788" lon="1.19012">
        <ele>749.2</ele>
        <time>2025-06-22T08:17:10Z</time>
      </trkpt>
      <trkpt lat="42.89792" lon="1.19008">
        <ele>749.6</ele>
        <time>2025-06-22T08:17:12Z</time>
      </trkpt>
      <trkpt lat="42.89795" lon="1.19005">
        <ele>750</ele>
        <time>2025-06-22T08:17:13Z</time>
      </trkpt>
      <trkpt lat="42.89796" lon="1.19003">
        <ele>750.4</ele>
        <time>2025-06-22T08:17:14Z</time>
      </trkpt>
      <trkpt lat="42.89798" lon="1.19001">
        <ele>750.8</ele>
        <time>2025-06-22T08:17:15Z</time>
      </trkpt>
      <trkpt lat="42.89801" lon="1.18999">
        <ele>751.2</ele>
        <time>2025-06-22T08:17:16Z</time>
      </trkpt>
      <trkpt lat="42.89805" lon="1.18996">
        <ele>751.6</ele>
        <time>2025-06-22T08:17:18Z</time>
      </trkpt>
      <trkpt lat="42.89807" lon="1.18995">
        <ele>752.2</ele>
        <time>2025-06-22T08:17:19Z</time>
      </trkpt>
      <trkpt lat="42.89808" lon="1.18994">
        <ele>752.6</ele>
        <time>2025-06-22T08:17:20Z</time>
      </trkpt>
      <trkpt lat="42.89809" lon="1.18992">
        <ele>753</ele>
        <time>2025-06-22T08:17:21Z</time>
      </trkpt>
      <trkpt lat="42.8981" lon="1.18989">
        <ele>753.4</ele>
        <time>2025-06-22T08:17:22Z</time>
      </trkpt>
      <trkpt lat="42.89811" lon="1.18987">
        <ele>753.4</ele>
        <time>2025-06-22T08:17:23Z</time>
      </trkpt>
      <trkpt lat="42.89811" lon="1.18976">
        <ele>754</ele>
        <time>2025-06-22T08:17:27Z</time>
      </trkpt>
      <trkpt lat="42.89811" lon="1.18972">
        <ele>754.4</ele>
        <time>2025-06-22T08:17:28Z</time>
      </trkpt>
      <trkpt lat="42.89811" lon="1.1897">
        <ele>754.8</ele>
        <time>2025-06-22T08:17:29Z</time>
      </trkpt>
      <trkpt lat="42.8981" lon="1.18967">
        <ele>755.2</ele>
        <time>2025-06-22T08:17:30Z</time>
      </trkpt>
      <trkpt lat="42.8981" lon="1.18964">
        <ele>755.8</ele>
        <time>2025-06-22T08:17:31Z</time>
      </trkpt>
      <trkpt lat="42.89808" lon="1.18957">
        <ele>755.8</ele>
        <time>2025-06-22T08:17:34Z</time>
      </trkpt>
      <trkpt lat="42.89807" lon="1.18955">
        <ele>756.2</ele>
        <time>2025-06-22T08:17:36Z</time>
      </trkpt>
      <trkpt lat="42.89805" lon="1.18953">
        <ele>756.6</ele>
        <time>2025-06-22T08:17:37Z</time>
      </trkpt>
      <trkpt lat="42.89805" lon="1.18951">
        <ele>757</ele>
        <time>2025-06-22T08:17:38Z</time>
      </trkpt>
      <trkpt lat="42.89804" lon="1.1895">
        <ele>757.4</ele>
        <time>2025-06-22T08:17:39Z</time>
      </trkpt>
      <trkpt lat="42.89804" lon="1.18948">
        <ele>757.8</ele>
        <time>2025-06-22T08:17:40Z</time>
      </trkpt>
      <trkpt lat="42.89804" lon="1.18946">
        <ele>757.8</ele>
        <time>2025-06-22T08:17:41Z</time>
      </trkpt>
      <trkpt lat="42.89804" lon="1.18944">
        <ele>758.4</ele>
        <time>2025-06-22T08:17:42Z</time>
      </trkpt>
      <trkpt lat="42.89804" lon="1.18943">
        <ele>759.2</ele>
        <time>2025-06-22T08:17:43Z</time>
      </trkpt>
      <trkpt lat="42.89804" lon="1.18942">
        <ele>759.6</ele>
        <time>2025-06-22T08:17:44Z</time>
      </trkpt>
      <trkpt lat="42.89804" lon="1.18939">
        <ele>760</ele>
        <time>2025-06-22T08:17:45Z</time>
      </trkpt>
      <trkpt lat="42.89805" lon="1.18937">
        <ele>760</ele>
        <time>2025-06-22T08:17:46Z</time>
      </trkpt>
      <trkpt lat="42.89805" lon="1.18936">
        <ele>760.4</ele>
        <time>2025-06-22T08:17:47Z</time>
      </trkpt>
      <trkpt lat="42.89805" lon="1.18934">
        <ele>760.8</ele>
        <time>2025-06-22T08:17:48Z</time>
      </trkpt>
      <trkpt lat="42.89806" lon="1.18933">
        <ele>761.2</ele>
        <time>2025-06-22T08:17:49Z</time>
      </trkpt>
      <trkpt lat="42.89806" lon="1.18932">
        <ele>761.8</ele>
        <time>2025-06-22T08:17:50Z</time>
      </trkpt>
      <trkpt lat="42.89806" lon="1.18932">
        <ele>762.2</ele>
        <time>2025-06-22T08:17:51Z</time>
      </trkpt>
      <trkpt lat="42.89828" lon="1.18889">
        <ele>770.8</ele>
        <time>2025-06-22T08:18:22Z</time>
      </trkpt>
      <trkpt lat="42.89829" lon="1.18887">
        <ele>770.8</ele>
        <time>2025-06-22T08:18:23Z</time>
      </trkpt>
      <trkpt lat="42.89834" lon="1.18881">
        <ele>770.8</ele>
        <time>2025-06-22T08:18:26Z</time>
      </trkpt>
      <trkpt lat="42.89835" lon="1.1888">
        <ele>771.2</ele>
        <time>2025-06-22T08:18:27Z</time>
      </trkpt>
      <trkpt lat="42.89837" lon="1.18879">
        <ele>771.6</ele>
        <time>2025-06-22T08:18:28Z</time>
      </trkpt>
      <trkpt lat="42.89838" lon="1.18878">
        <ele>772</ele>
        <time>2025-06-22T08:18:29Z</time>
      </trkpt>
      <trkpt lat="42.89839" lon="1.18877">
        <ele>772.4</ele>
        <time>2025-06-22T08:18:30Z</time>
      </trkpt>
      <trkpt lat="42.8984" lon="1.18875">
        <ele>772.8</ele>
        <time>2025-06-22T08:18:31Z</time>
      </trkpt>
      <trkpt lat="42.89844" lon="1.18871">
        <ele>772.8</ele>
        <time>2025-06-22T08:18:35Z</time>
      </trkpt>
      <trkpt lat="42.89845" lon="1.18869">
        <ele>773.2</ele>
        <time>2025-06-22T08:18:36Z</time>
      </trkpt>
      <trkpt lat="42.89846" lon="1.18868">
        <ele>773.8</ele>
        <time>2025-06-22T08:18:37Z</time>
      </trkpt>
      <trkpt lat="42.89847" lon="1.18866">
        <ele>774.2</ele>
        <time>2025-06-22T08:18:38Z</time>
      </trkpt>
      <trkpt lat="42.89848" lon="1.18864">
        <ele>774.6</ele>
        <time>2025-06-22T08:18:39Z</time>
      </trkpt>
      <trkpt lat="42.89849" lon="1.18862">
        <ele>775</ele>
        <time>2025-06-22T08:18:40Z</time>
      </trkpt>
      <trkpt lat="42.89852" lon="1.18858">
        <ele>775</ele>
        <time>2025-06-22T08:18:43Z</time>
      </trkpt>
      <trkpt lat="42.89854" lon="1.18855">
        <ele>775.4</ele>
        <time>2025-06-22T08:18:45Z</time>
      </trkpt>
      <trkpt lat="42.89854" lon="1.18855">
        <ele>775.8</ele>
        <time>2025-06-22T08:18:46Z</time>
      </trkpt>
      <trkpt lat="42.89855" lon="1.18854">
        <ele>776.4</ele>
        <time>2025-06-22T08:18:47Z</time>
      </trkpt>
      <trkpt lat="42.8986" lon="1.1885">
        <ele>777.6</ele>
        <time>2025-06-22T08:19:37Z</time>
      </trkpt>
      <trkpt lat="42.89861" lon="1.18849">
        <ele>778</ele>
        <time>2025-06-22T08:19:38Z</time>
      </trkpt>
      <trkpt lat="42.89861" lon="1.18848">
        <ele>778.6</ele>
        <time>2025-06-22T08:19:39Z</time>
      </trkpt>
      <trkpt lat="42.8986" lon="1.18847">
        <ele>779</ele>
        <time>2025-06-22T08:19:40Z</time>
      </trkpt>
      <trkpt lat="42.89859" lon="1.18846">
        <ele>779.4</ele>
        <time>2025-06-22T08:19:41Z</time>
      </trkpt>
      <trkpt lat="42.8986" lon="1.18845">
        <ele>779.4</ele>
        <time>2025-06-22T08:19:42Z</time>
      </trkpt>
      <trkpt lat="42.89863" lon="1.18841">
        <ele>779.8</ele>
        <time>2025-06-22T08:19:44Z</time>
      </trkpt>
      <trkpt lat="42.89864" lon="1.18839">
        <ele>780.2</ele>
        <time>2025-06-22T08:19:45Z</time>
      </trkpt>
      <trkpt lat="42.89865" lon="1.18838">
        <ele>780.6</ele>
        <time>2025-06-22T08:19:46Z</time>
      </trkpt>
      <trkpt lat="42.89865" lon="1.18837">
        <ele>781.6</ele>
        <time>2025-06-22T08:19:47Z</time>
      </trkpt>
      <trkpt lat="42.89867" lon="1.18833">
        <ele>782</ele>
        <time>2025-06-22T08:19:49Z</time>
      </trkpt>
      <trkpt lat="42.89867" lon="1.18831">
        <ele>782.4</ele>
        <time>2025-06-22T08:19:50Z</time>
      </trkpt>
      <trkpt lat="42.89869" lon="1.18829">
        <ele>782.8</ele>
        <time>2025-06-22T08:19:51Z</time>
      </trkpt>
      <trkpt lat="42.8987" lon="1.18827">
        <ele>783.2</ele>
        <time>2025-06-22T08:19:52Z</time>
      </trkpt>
      <trkpt lat="42.89871" lon="1.18825">
        <ele>783.6</ele>
        <time>2025-06-22T08:19:53Z</time>
      </trkpt>
      <trkpt lat="42.89873" lon="1.1882">
        <ele>784</ele>
        <time>2025-06-22T08:19:55Z</time>
      </trkpt>
      <trkpt lat="42.89875" lon="1.18818">
        <ele>784.4</ele>
        <time>2025-06-22T08:19:56Z</time>
      </trkpt>
      <trkpt lat="42.89877" lon="1.18815">
        <ele>784.8</ele>
        <time>2025-06-22T08:19:57Z</time>
      </trkpt>
      <trkpt lat="42.89878" lon="1.18812">
        <ele>785.4</ele>
        <time>2025-06-22T08:19:58Z</time>
      </trkpt>
      <trkpt lat="42.89879" lon="1.18809">
        <ele>785.8</ele>
        <time>2025-06-22T08:19:59Z</time>
      </trkpt>
      <trkpt lat="42.89881" lon="1.18804">
        <ele>785.8</ele>
        <time>2025-06-22T08:20:01Z</time>
      </trkpt>
      <trkpt lat="42.89883" lon="1.18798">
        <ele>786.2</ele>
        <time>2025-06-22T08:20:03Z</time>
      </trkpt>
      <trkpt lat="42.89883" lon="1.18796">
        <ele>786.6</ele>
        <time>2025-06-22T08:20:04Z</time>
      </trkpt>
      <trkpt lat="42.89883" lon="1.18793">
        <ele>787</ele>
        <time>2025-06-22T08:20:05Z</time>
      </trkpt>
      <trkpt lat="42.89884" lon="1.1879">
        <ele>787.6</ele>
        <time>2025-06-22T08:20:06Z</time>
      </trkpt>
      <trkpt lat="42.89884" lon="1.18787">
        <ele>788</ele>
        <time>2025-06-22T08:20:07Z</time>
      </trkpt>
      <trkpt lat="42.89884" lon="1.18781">
        <ele>788</ele>
        <time>2025-06-22T08:20:09Z</time>
      </trkpt>
      <trkpt lat="42.89885" lon="1.18772">
        <ele>788.8</ele>
        <time>2025-06-22T08:20:12Z</time>
      </trkpt>
      <trkpt lat="42.89885" lon="1.1877">
        <ele>789.2</ele>
        <time>2025-06-22T08:20:13Z</time>
      </trkpt>
      <trkpt lat="42.89886" lon="1.18768">
        <ele>789.8</ele>
        <time>2025-06-22T08:20:14Z</time>
      </trkpt>
      <trkpt lat="42.89887" lon="1.18765">
        <ele>790.2</ele>
        <time>2025-06-22T08:20:15Z</time>
      </trkpt>
      <trkpt lat="42.8989" lon="1.18745">
        <ele>790.2</ele>
        <time>2025-06-22T08:20:22Z</time>
      </trkpt>
      <trkpt lat="42.89892" lon="1.18718">
        <ele>790.2</ele>
        <time>2025-06-22T08:20:29Z</time>
      </trkpt>
      <trkpt lat="42.89893" lon="1.18696">
        <ele>790.6</ele>
        <time>2025-06-22T08:20:34Z</time>
      </trkpt>
      <trkpt lat="42.89893" lon="1.18693">
        <ele>791</ele>
        <time>2025-06-22T08:20:35Z</time>
      </trkpt>
      <trkpt lat="42.89893" lon="1.18689">
        <ele>791.4</ele>
        <time>2025-06-22T08:20:36Z</time>
      </trkpt>
      <trkpt lat="42.89893" lon="1.18686">
        <ele>792.2</ele>
        <time>2025-06-22T08:20:37Z</time>
      </trkpt>
      <trkpt lat="42.89892" lon="1.18664">
        <ele>792.2</ele>
        <time>2025-06-22T08:20:42Z</time>
      </trkpt>
      <trkpt lat="42.89888" lon="1.18641">
        <ele>792.2</ele>
        <time>2025-06-22T08:20:48Z</time>
      </trkpt>
      <trkpt lat="42.89887" lon="1.18637">
        <ele>792.6</ele>
        <time>2025-06-22T08:20:49Z</time>
      </trkpt>
      <trkpt lat="42.89887" lon="1.18633">
        <ele>793</ele>
        <time>2025-06-22T08:20:50Z</time>
      </trkpt>
      <trkpt lat="42.89886" lon="1.1863">
        <ele>793.4</ele>
        <time>2025-06-22T08:20:51Z</time>
      </trkpt>
      <trkpt lat="42.89885" lon="1.18626">
        <ele>794</ele>
        <time>2025-06-22T08:20:52Z</time>
      </trkpt>
      <trkpt lat="42.89885" lon="1.18622">
        <ele>794.4</ele>
        <time>2025-06-22T08:20:53Z</time>
      </trkpt>
      <trkpt lat="42.89884" lon="1.18615">
        <ele>794.4</ele>
        <time>2025-06-22T08:20:55Z</time>
      </trkpt>
      <trkpt lat="42.89882" lon="1.1859">
        <ele>794.4</ele>
        <time>2025-06-22T08:21:01Z</time>
      </trkpt>
      <trkpt lat="42.8988" lon="1.18582">
        <ele>794.8</ele>
        <time>2025-06-22T08:21:03Z</time>
      </trkpt>
      <trkpt lat="42.8988" lon="1.18577">
        <ele>795.2</ele>
        <time>2025-06-22T08:21:04Z</time>
      </trkpt>
      <trkpt lat="42.89879" lon="1.18573">
        <ele>795.6</ele>
        <time>2025-06-22T08:21:05Z</time>
      </trkpt>
      <trkpt lat="42.89879" lon="1.18569">
        <ele>796</ele>
        <time>2025-06-22T08:21:06Z</time>
      </trkpt>
      <trkpt lat="42.89878" lon="1.18565">
        <ele>796.4</ele>
        <time>2025-06-22T08:21:07Z</time>
      </trkpt>
      <trkpt lat="42.89875" lon="1.18551">
        <ele>796.4</ele>
        <time>2025-06-22T08:21:12Z</time>
      </trkpt>
      <trkpt lat="42.89874" lon="1.18538">
        <ele>796.4</ele>
        <time>2025-06-22T08:21:19Z</time>
      </trkpt>
      <trkpt lat="42.89874" lon="1.18524">
        <ele>798.6</ele>
        <time>2025-06-22T08:22:07Z</time>
      </trkpt>
      <trkpt lat="42.89873" lon="1.18523">
        <ele>798.6</ele>
        <time>2025-06-22T08:22:09Z</time>
      </trkpt>
      <trkpt lat="42.89874" lon="1.18512">
        <ele>798.6</ele>
        <time>2025-06-22T08:22:39Z</time>
      </trkpt>
      <trkpt lat="42.89875" lon="1.18494">
        <ele>798.6</ele>
        <time>2025-06-22T08:22:43Z</time>
      </trkpt>
      <trkpt lat="42.89872" lon="1.18476">
        <ele>798.6</ele>
        <time>2025-06-22T08:22:48Z</time>
      </trkpt>
      <trkpt lat="42.89869" lon="1.18446">
        <ele>798.6</ele>
        <time>2025-06-22T08:22:54Z</time>
      </trkpt>
      <trkpt lat="42.89869" lon="1.18424">
        <ele>798.6</ele>
        <time>2025-06-22T08:22:59Z</time>
      </trkpt>
      <trkpt lat="42.89869" lon="1.18414">
        <ele>799</ele>
        <time>2025-06-22T08:23:01Z</time>
      </trkpt>
      <trkpt lat="42.8987" lon="1.1841">
        <ele>799.4</ele>
        <time>2025-06-22T08:23:02Z</time>
      </trkpt>
      <trkpt lat="42.8987" lon="1.18406">
        <ele>799.8</ele>
        <time>2025-06-22T08:23:03Z</time>
      </trkpt>
      <trkpt lat="42.8987" lon="1.18401">
        <ele>800.2</ele>
        <time>2025-06-22T08:23:04Z</time>
      </trkpt>
      <trkpt lat="42.89869" lon="1.18396">
        <ele>800.6</ele>
        <time>2025-06-22T08:23:05Z</time>
      </trkpt>
      <trkpt lat="42.89869" lon="1.18392">
        <ele>800.6</ele>
        <time>2025-06-22T08:23:06Z</time>
      </trkpt>
      <trkpt lat="42.89869" lon="1.18387">
        <ele>801</ele>
        <time>2025-06-22T08:23:07Z</time>
      </trkpt>
      <trkpt lat="42.89868" lon="1.18382">
        <ele>801.4</ele>
        <time>2025-06-22T08:23:08Z</time>
      </trkpt>
      <trkpt lat="42.89868" lon="1.18378">
        <ele>802</ele>
        <time>2025-06-22T08:23:09Z</time>
      </trkpt>
      <trkpt lat="42.89867" lon="1.18374">
        <ele>802.4</ele>
        <time>2025-06-22T08:23:10Z</time>
      </trkpt>
      <trkpt lat="42.89867" lon="1.1837">
        <ele>802.8</ele>
        <time>2025-06-22T08:23:11Z</time>
      </trkpt>
      <trkpt lat="42.89867" lon="1.18365">
        <ele>802.8</ele>
        <time>2025-06-22T08:23:12Z</time>
      </trkpt>
      <trkpt lat="42.89865" lon="1.18358">
        <ele>803.2</ele>
        <time>2025-06-22T08:23:14Z</time>
      </trkpt>
      <trkpt lat="42.89864" lon="1.18356">
        <ele>803.6</ele>
        <time>2025-06-22T08:23:15Z</time>
      </trkpt>
      <trkpt lat="42.89865" lon="1.18354">
        <ele>804.2</ele>
        <time>2025-06-22T08:23:16Z</time>
      </trkpt>
      <trkpt lat="42.89868" lon="1.18353">
        <ele>804.6</ele>
        <time>2025-06-22T08:23:17Z</time>
      </trkpt>
      <trkpt lat="42.8987" lon="1.18352">
        <ele>805</ele>
        <time>2025-06-22T08:23:18Z</time>
      </trkpt>
      <trkpt lat="42.89872" lon="1.18353">
        <ele>805.4</ele>
        <time>2025-06-22T08:23:19Z</time>
      </trkpt>
      <trkpt lat="42.89874" lon="1.18354">
        <ele>805.8</ele>
        <time>2025-06-22T08:23:20Z</time>
      </trkpt>
      <trkpt lat="42.89876" lon="1.18355">
        <ele>806.2</ele>
        <time>2025-06-22T08:23:21Z</time>
      </trkpt>
      <trkpt lat="42.89877" lon="1.18357">
        <ele>806.6</ele>
        <time>2025-06-22T08:23:22Z</time>
      </trkpt>
      <trkpt lat="42.89878" lon="1.18359">
        <ele>807</ele>
        <time>2025-06-22T08:23:23Z</time>
      </trkpt>
      <trkpt lat="42.89879" lon="1.18359">
        <ele>807</ele>
        <time>2025-06-22T08:23:27Z</time>
      </trkpt>
      <trkpt lat="42.89867" lon="1.18348">
        <ele>807</ele>
        <time>2025-06-22T08:23:32Z</time>
      </trkpt>
      <trkpt lat="42.89864" lon="1.1834">
        <ele>807</ele>
        <time>2025-06-22T08:23:35Z</time>
      </trkpt>
      <trkpt lat="42.89865" lon="1.18338">
        <ele>807</ele>
        <time>2025-06-22T08:23:36Z</time>
      </trkpt>
      <trkpt lat="42.89867" lon="1.18333">
        <ele>807.4</ele>
        <time>2025-06-22T08:23:38Z</time>
      </trkpt>
      <trkpt lat="42.89868" lon="1.18329">
        <ele>808</ele>
        <time>2025-06-22T08:23:39Z</time>
      </trkpt>
      <trkpt lat="42.8987" lon="1.18326">
        <ele>808.4</ele>
        <time>2025-06-22T08:23:40Z</time>
      </trkpt>
      <trkpt lat="42.8987" lon="1.18326">
        <ele>809</ele>
        <time>2025-06-22T08:23:41Z</time>
      </trkpt>
      <trkpt lat="42.89875" lon="1.18323">
        <ele>809.6</ele>
        <time>2025-06-22T08:23:42Z</time>
      </trkpt>
      <trkpt lat="42.89878" lon="1.18322">
        <ele>810.2</ele>
        <time>2025-06-22T08:23:43Z</time>
      </trkpt>
      <trkpt lat="42.89882" lon="1.1832">
        <ele>810.8</ele>
        <time>2025-06-22T08:23:44Z</time>
      </trkpt>
      <trkpt lat="42.89886" lon="1.18319">
        <ele>811.4</ele>
        <time>2025-06-22T08:23:45Z</time>
      </trkpt>
      <trkpt lat="42.89889" lon="1.18317">
        <ele>812</ele>
        <time>2025-06-22T08:23:46Z</time>
      </trkpt>
      <trkpt lat="42.89891" lon="1.18317">
        <ele>812.4</ele>
        <time>2025-06-22T08:23:47Z</time>
      </trkpt>
      <trkpt lat="42.89894" lon="1.18316">
        <ele>813</ele>
        <time>2025-06-22T08:23:48Z</time>
      </trkpt>
      <trkpt lat="42.89896" lon="1.18315">
        <ele>813.6</ele>
        <time>2025-06-22T08:23:49Z</time>
      </trkpt>
      <trkpt lat="42.89898" lon="1.18314">
        <ele>814</ele>
        <time>2025-06-22T08:23:50Z</time>
      </trkpt>
      <trkpt lat="42.89899" lon="1.18312">
        <ele>814.4</ele>
        <time>2025-06-22T08:23:51Z</time>
      </trkpt>
      <trkpt lat="42.89898" lon="1.1831">
        <ele>814.8</ele>
        <time>2025-06-22T08:23:52Z</time>
      </trkpt>
      <trkpt lat="42.89898" lon="1.18309">
        <ele>815.2</ele>
        <time>2025-06-22T08:23:53Z</time>
      </trkpt>
      <trkpt lat="42.89896" lon="1.18307">
        <ele>815.6</ele>
        <time>2025-06-22T08:23:54Z</time>
      </trkpt>
      <trkpt lat="42.89894" lon="1.18303">
        <ele>815.6</ele>
        <time>2025-06-22T08:23:56Z</time>
      </trkpt>
      <trkpt lat="42.89889" lon="1.183">
        <ele>816</ele>
        <time>2025-06-22T08:23:58Z</time>
      </trkpt>
      <trkpt lat="42.89887" lon="1.18298">
        <ele>816.4</ele>
        <time>2025-06-22T08:23:59Z</time>
      </trkpt>
      <trkpt lat="42.89885" lon="1.18297">
        <ele>817</ele>
        <time>2025-06-22T08:24:00Z</time>
      </trkpt>
      <trkpt lat="42.89883" lon="1.18295">
        <ele>817.4</ele>
        <time>2025-06-22T08:24:01Z</time>
      </trkpt>
      <trkpt lat="42.8988" lon="1.18294">
        <ele>817.8</ele>
        <time>2025-06-22T08:24:02Z</time>
      </trkpt>
      <trkpt lat="42.89873" lon="1.18286">
        <ele>817.8</ele>
        <time>2025-06-22T08:24:08Z</time>
      </trkpt>
      <trkpt lat="42.89872" lon="1.18285">
        <ele>817.8</ele>
        <time>2025-06-22T08:24:14Z</time>
      </trkpt>
      <trkpt lat="42.89868" lon="1.18282">
        <ele>817.8</ele>
        <time>2025-06-22T08:24:16Z</time>
      </trkpt>
      <trkpt lat="42.89863" lon="1.18276">
        <ele>817.8</ele>
        <time>2025-06-22T08:24:19Z</time>
      </trkpt>
      <trkpt lat="42.8986" lon="1.18272">
        <ele>817.8</ele>
        <time>2025-06-22T08:24:21Z</time>
      </trkpt>
      <trkpt lat="42.8985" lon="1.18263">
        <ele>817.8</ele>
        <time>2025-06-22T08:24:27Z</time>
      </trkpt>
      <trkpt lat="42.89849" lon="1.18262">
        <ele>818.2</ele>
        <time>2025-06-22T08:24:28Z</time>
      </trkpt>
      <trkpt lat="42.89845" lon="1.18259">
        <ele>818.6</ele>
        <time>2025-06-22T08:24:29Z</time>
      </trkpt>
      <trkpt lat="42.89843" lon="1.18256">
        <ele>819</ele>
        <time>2025-06-22T08:24:30Z</time>
      </trkpt>
      <trkpt lat="42.89841" lon="1.18254">
        <ele>819.4</ele>
        <time>2025-06-22T08:24:31Z</time>
      </trkpt>
      <trkpt lat="42.89838" lon="1.18251">
        <ele>819.8</ele>
        <time>2025-06-22T08:24:32Z</time>
      </trkpt>
      <trkpt lat="42.89833" lon="1.18247">
        <ele>819.8</ele>
        <time>2025-06-22T08:24:34Z</time>
      </trkpt>
      <trkpt lat="42.89822" lon="1.18234">
        <ele>819.8</ele>
        <time>2025-06-22T08:24:40Z</time>
      </trkpt>
      <trkpt lat="42.89807" lon="1.18219">
        <ele>819.8</ele>
        <time>2025-06-22T08:24:46Z</time>
      </trkpt>
      <trkpt lat="42.89804" lon="1.18216">
        <ele>819.2</ele>
        <time>2025-06-22T08:24:48Z</time>
      </trkpt>
      <trkpt lat="42.89801" lon="1.18215">
        <ele>819.2</ele>
        <time>2025-06-22T08:24:49Z</time>
      </trkpt>
      <trkpt lat="42.89799" lon="1.18213">
        <ele>819.6</ele>
        <time>2025-06-22T08:24:50Z</time>
      </trkpt>
      <trkpt lat="42.89797" lon="1.18212">
        <ele>820</ele>
        <time>2025-06-22T08:24:51Z</time>
      </trkpt>
      <trkpt lat="42.89795" lon="1.1821">
        <ele>820.2</ele>
        <time>2025-06-22T08:24:52Z</time>
      </trkpt>
      <trkpt lat="42.89793" lon="1.18208">
        <ele>820.6</ele>
        <time>2025-06-22T08:24:53Z</time>
      </trkpt>
      <trkpt lat="42.89792" lon="1.18207">
        <ele>821</ele>
        <time>2025-06-22T08:24:54Z</time>
      </trkpt>
      <trkpt lat="42.89789" lon="1.18206">
        <ele>820.2</ele>
        <time>2025-06-22T08:24:55Z</time>
      </trkpt>
      <trkpt lat="42.89787" lon="1.18204">
        <ele>819.4</ele>
        <time>2025-06-22T08:24:56Z</time>
      </trkpt>
      <trkpt lat="42.89784" lon="1.18202">
        <ele>818.6</ele>
        <time>2025-06-22T08:24:57Z</time>
      </trkpt>
      <trkpt lat="42.89782" lon="1.18201">
        <ele>819</ele>
        <time>2025-06-22T08:24:58Z</time>
      </trkpt>
      <trkpt lat="42.8978" lon="1.18199">
        <ele>819.2</ele>
        <time>2025-06-22T08:24:59Z</time>
      </trkpt>
      <trkpt lat="42.89778" lon="1.18197">
        <ele>819.6</ele>
        <time>2025-06-22T08:25:00Z</time>
      </trkpt>
      <trkpt lat="42.89776" lon="1.18195">
        <ele>820</ele>
        <time>2025-06-22T08:25:01Z</time>
      </trkpt>
      <trkpt lat="42.89774" lon="1.18193">
        <ele>820.4</ele>
        <time>2025-06-22T08:25:02Z</time>
      </trkpt>
      <trkpt lat="42.89768" lon="1.1819">
        <ele>820.4</ele>
        <time>2025-06-22T08:25:05Z</time>
      </trkpt>
      <trkpt lat="42.89766" lon="1.18189">
        <ele>820.4</ele>
        <time>2025-06-22T08:25:06Z</time>
      </trkpt>
      <trkpt lat="42.89756" lon="1.18187">
        <ele>820.4</ele>
        <time>2025-06-22T08:25:10Z</time>
      </trkpt>
      <trkpt lat="42.89754" lon="1.18186">
        <ele>820.8</ele>
        <time>2025-06-22T08:25:11Z</time>
      </trkpt>
      <trkpt lat="42.89751" lon="1.18185">
        <ele>821.4</ele>
        <time>2025-06-22T08:25:12Z</time>
      </trkpt>
      <trkpt lat="42.89748" lon="1.18183">
        <ele>821.8</ele>
        <time>2025-06-22T08:25:13Z</time>
      </trkpt>
      <trkpt lat="42.89744" lon="1.1818">
        <ele>822.2</ele>
        <time>2025-06-22T08:25:14Z</time>
      </trkpt>
      <trkpt lat="42.89741" lon="1.18179">
        <ele>822.8</ele>
        <time>2025-06-22T08:25:15Z</time>
      </trkpt>
      <trkpt lat="42.89738" lon="1.18177">
        <ele>822.8</ele>
        <time>2025-06-22T08:25:16Z</time>
      </trkpt>
      <trkpt lat="42.89735" lon="1.18175">
        <ele>823.2</ele>
        <time>2025-06-22T08:25:17Z</time>
      </trkpt>
      <trkpt lat="42.89732" lon="1.18174">
        <ele>823.6</ele>
        <time>2025-06-22T08:25:18Z</time>
      </trkpt>
      <trkpt lat="42.89729" lon="1.18173">
        <ele>824.2</ele>
        <time>2025-06-22T08:25:19Z</time>
      </trkpt>
      <trkpt lat="42.89725" lon="1.18172">
        <ele>824.6</ele>
        <time>2025-06-22T08:25:20Z</time>
      </trkpt>
      <trkpt lat="42.89721" lon="1.18171">
        <ele>825</ele>
        <time>2025-06-22T08:25:21Z</time>
      </trkpt>
      <trkpt lat="42.8971" lon="1.18166">
        <ele>825.6</ele>
        <time>2025-06-22T08:25:24Z</time>
      </trkpt>
      <trkpt lat="42.89707" lon="1.18164">
        <ele>826</ele>
        <time>2025-06-22T08:25:25Z</time>
      </trkpt>
      <trkpt lat="42.89703" lon="1.18163">
        <ele>826.4</ele>
        <time>2025-06-22T08:25:26Z</time>
      </trkpt>
      <trkpt lat="42.89699" lon="1.18161">
        <ele>826.8</ele>
        <time>2025-06-22T08:25:27Z</time>
      </trkpt>
      <trkpt lat="42.89697" lon="1.18161">
        <ele>827.2</ele>
        <time>2025-06-22T08:25:28Z</time>
      </trkpt>
      <trkpt lat="42.89687" lon="1.18158">
        <ele>827.8</ele>
        <time>2025-06-22T08:25:31Z</time>
      </trkpt>
      <trkpt lat="42.89684" lon="1.18156">
        <ele>828.2</ele>
        <time>2025-06-22T08:25:32Z</time>
      </trkpt>
      <trkpt lat="42.89681" lon="1.18154">
        <ele>828.6</ele>
        <time>2025-06-22T08:25:33Z</time>
      </trkpt>
      <trkpt lat="42.89677" lon="1.18153">
        <ele>829.8</ele>
        <time>2025-06-22T08:25:34Z</time>
      </trkpt>
      <trkpt lat="42.89674" lon="1.18151">
        <ele>830.4</ele>
        <time>2025-06-22T08:25:35Z</time>
      </trkpt>
      <trkpt lat="42.89671" lon="1.18149">
        <ele>831</ele>
        <time>2025-06-22T08:25:36Z</time>
      </trkpt>
      <trkpt lat="42.89668" lon="1.18147">
        <ele>831.6</ele>
        <time>2025-06-22T08:25:37Z</time>
      </trkpt>
      <trkpt lat="42.89665" lon="1.18145">
        <ele>832.2</ele>
        <time>2025-06-22T08:25:38Z</time>
      </trkpt>
      <trkpt lat="42.89645" lon="1.18137">
        <ele>832.2</ele>
        <time>2025-06-22T08:25:43Z</time>
      </trkpt>
      <trkpt lat="42.89628" lon="1.18125">
        <ele>832.2</ele>
        <time>2025-06-22T08:25:48Z</time>
      </trkpt>
      <trkpt lat="42.89626" lon="1.18123">
        <ele>832.6</ele>
        <time>2025-06-22T08:25:49Z</time>
      </trkpt>
      <trkpt lat="42.89623" lon="1.1812">
        <ele>833</ele>
        <time>2025-06-22T08:25:50Z</time>
      </trkpt>
      <trkpt lat="42.89621" lon="1.18118">
        <ele>833.4</ele>
        <time>2025-06-22T08:25:51Z</time>
      </trkpt>
      <trkpt lat="42.89619" lon="1.18116">
        <ele>833.8</ele>
        <time>2025-06-22T08:25:52Z</time>
      </trkpt>
      <trkpt lat="42.89617" lon="1.18113">
        <ele>834.2</ele>
        <time>2025-06-22T08:25:53Z</time>
      </trkpt>
      <trkpt lat="42.89604" lon="1.18091">
        <ele>834.2</ele>
        <time>2025-06-22T08:25:58Z</time>
      </trkpt>
      <trkpt lat="42.89593" lon="1.18058">
        <ele>834.2</ele>
        <time>2025-06-22T08:26:04Z</time>
      </trkpt>
      <trkpt lat="42.89591" lon="1.18053">
        <ele>834.2</ele>
        <time>2025-06-22T08:26:05Z</time>
      </trkpt>
      <trkpt lat="42.89585" lon="1.18035">
        <ele>834.2</ele>
        <time>2025-06-22T08:26:08Z</time>
      </trkpt>
      <trkpt lat="42.89583" lon="1.18028">
        <ele>833.8</ele>
        <time>2025-06-22T08:26:09Z</time>
      </trkpt>
      <trkpt lat="42.89582" lon="1.1802">
        <ele>833.4</ele>
        <time>2025-06-22T08:26:10Z</time>
      </trkpt>
      <trkpt lat="42.89581" lon="1.18011">
        <ele>832.8</ele>
        <time>2025-06-22T08:26:11Z</time>
      </trkpt>
      <trkpt lat="42.89581" lon="1.18003">
        <ele>832.4</ele>
        <time>2025-06-22T08:26:12Z</time>
      </trkpt>
      <trkpt lat="42.89582" lon="1.17996">
        <ele>832</ele>
        <time>2025-06-22T08:26:13Z</time>
      </trkpt>
      <trkpt lat="42.89582" lon="1.17984">
        <ele>832</ele>
        <time>2025-06-22T08:26:15Z</time>
      </trkpt>
      <trkpt lat="42.89582" lon="1.17957">
        <ele>832</ele>
        <time>2025-06-22T08:26:20Z</time>
      </trkpt>
      <trkpt lat="42.89581" lon="1.17947">
        <ele>832</ele>
        <time>2025-06-22T08:26:22Z</time>
      </trkpt>
      <trkpt lat="42.89581" lon="1.17935">
        <ele>832</ele>
        <time>2025-06-22T08:26:24Z</time>
      </trkpt>
      <trkpt lat="42.8958" lon="1.17906">
        <ele>832</ele>
        <time>2025-06-22T08:26:30Z</time>
      </trkpt>
      <trkpt lat="42.89578" lon="1.17878">
        <ele>832.4</ele>
        <time>2025-06-22T08:26:35Z</time>
      </trkpt>
      <trkpt lat="42.89578" lon="1.17873">
        <ele>832.8</ele>
        <time>2025-06-22T08:26:36Z</time>
      </trkpt>
      <trkpt lat="42.89577" lon="1.17867">
        <ele>833.2</ele>
        <time>2025-06-22T08:26:37Z</time>
      </trkpt>
      <trkpt lat="42.89576" lon="1.17862">
        <ele>833.6</ele>
        <time>2025-06-22T08:26:38Z</time>
      </trkpt>
      <trkpt lat="42.89575" lon="1.17857">
        <ele>834</ele>
        <time>2025-06-22T08:26:39Z</time>
      </trkpt>
      <trkpt lat="42.89573" lon="1.17849">
        <ele>834</ele>
        <time>2025-06-22T08:26:41Z</time>
      </trkpt>
      <trkpt lat="42.89566" lon="1.17829">
        <ele>834</ele>
        <time>2025-06-22T08:26:47Z</time>
      </trkpt>
      <trkpt lat="42.89563" lon="1.17828">
        <ele>834</ele>
        <time>2025-06-22T08:26:49Z</time>
      </trkpt>
      <trkpt lat="42.89562" lon="1.17829">
        <ele>834</ele>
        <time>2025-06-22T08:26:50Z</time>
      </trkpt>
      <trkpt lat="42.89558" lon="1.17841">
        <ele>834</ele>
        <time>2025-06-22T08:26:53Z</time>
      </trkpt>
      <trkpt lat="42.89549" lon="1.17859">
        <ele>833.6</ele>
        <time>2025-06-22T08:26:56Z</time>
      </trkpt>
      <trkpt lat="42.89547" lon="1.17865">
        <ele>833</ele>
        <time>2025-06-22T08:26:57Z</time>
      </trkpt>
      <trkpt lat="42.89544" lon="1.17871">
        <ele>832.4</ele>
        <time>2025-06-22T08:26:58Z</time>
      </trkpt>
      <trkpt lat="42.89541" lon="1.17876">
        <ele>831.8</ele>
        <time>2025-06-22T08:26:59Z</time>
      </trkpt>
      <trkpt lat="42.89538" lon="1.17882">
        <ele>831</ele>
        <time>2025-06-22T08:27:00Z</time>
      </trkpt>
      <trkpt lat="42.89536" lon="1.17887">
        <ele>830.2</ele>
        <time>2025-06-22T08:27:01Z</time>
      </trkpt>
      <trkpt lat="42.89534" lon="1.1789">
        <ele>829.4</ele>
        <time>2025-06-22T08:27:02Z</time>
      </trkpt>
      <trkpt lat="42.89534" lon="1.17892">
        <ele>828.4</ele>
        <time>2025-06-22T08:27:03Z</time>
      </trkpt>
      <trkpt lat="42.89533" lon="1.17893">
        <ele>827.6</ele>
        <time>2025-06-22T08:27:04Z</time>
      </trkpt>
      <trkpt lat="42.89533" lon="1.17893">
        <ele>826.8</ele>
        <time>2025-06-22T08:27:05Z</time>
      </trkpt>
      <trkpt lat="42.89532" lon="1.17894">
        <ele>826</ele>
        <time>2025-06-22T08:27:06Z</time>
      </trkpt>
      <trkpt lat="42.89531" lon="1.17895">
        <ele>825.2</ele>
        <time>2025-06-22T08:27:07Z</time>
      </trkpt>
      <trkpt lat="42.89528" lon="1.17896">
        <ele>824.4</ele>
        <time>2025-06-22T08:27:08Z</time>
      </trkpt>
      <trkpt lat="42.89524" lon="1.17895">
        <ele>823.6</ele>
        <time>2025-06-22T08:27:09Z</time>
      </trkpt>
      <trkpt lat="42.89518" lon="1.1789">
        <ele>823.6</ele>
        <time>2025-06-22T08:27:11Z</time>
      </trkpt>
      <trkpt lat="42.89513" lon="1.17886">
        <ele>823.6</ele>
        <time>2025-06-22T08:27:13Z</time>
      </trkpt>
      <trkpt lat="42.89503" lon="1.17879">
        <ele>823.6</ele>
        <time>2025-06-22T08:27:17Z</time>
      </trkpt>
      <trkpt lat="42.89487" lon="1.17873">
        <ele>823.6</ele>
        <time>2025-06-22T08:27:20Z</time>
      </trkpt>
      <trkpt lat="42.89481" lon="1.17871">
        <ele>823.2</ele>
        <time>2025-06-22T08:27:21Z</time>
      </trkpt>
      <trkpt lat="42.89475" lon="1.1787">
        <ele>822.8</ele>
        <time>2025-06-22T08:27:22Z</time>
      </trkpt>
      <trkpt lat="42.8947" lon="1.17868">
        <ele>822.4</ele>
        <time>2025-06-22T08:27:23Z</time>
      </trkpt>
      <trkpt lat="42.89464" lon="1.17867">
        <ele>822</ele>
        <time>2025-06-22T08:27:24Z</time>
      </trkpt>
      <trkpt lat="42.89459" lon="1.17865">
        <ele>821.6</ele>
        <time>2025-06-22T08:27:25Z</time>
      </trkpt>
      <trkpt lat="42.89448" lon="1.17861">
        <ele>821.6</ele>
        <time>2025-06-22T08:27:27Z</time>
      </trkpt>
      <trkpt lat="42.89441" lon="1.17853">
        <ele>821.6</ele>
        <time>2025-06-22T08:27:30Z</time>
      </trkpt>
      <trkpt lat="42.89435" lon="1.17848">
        <ele>821.6</ele>
        <time>2025-06-22T08:27:33Z</time>
      </trkpt>
      <trkpt lat="42.89432" lon="1.17847">
        <ele>821.6</ele>
        <time>2025-06-22T08:27:35Z</time>
      </trkpt>
      <trkpt lat="42.89423" lon="1.17843">
        <ele>821.6</ele>
        <time>2025-06-22T08:27:39Z</time>
      </trkpt>
      <trkpt lat="42.89415" lon="1.17833">
        <ele>821</ele>
        <time>2025-06-22T08:27:41Z</time>
      </trkpt>
      <trkpt lat="42.89411" lon="1.17829">
        <ele>820.6</ele>
        <time>2025-06-22T08:27:42Z</time>
      </trkpt>
      <trkpt lat="42.89407" lon="1.17825">
        <ele>820</ele>
        <time>2025-06-22T08:27:43Z</time>
      </trkpt>
      <trkpt lat="42.89403" lon="1.17821">
        <ele>819.6</ele>
        <time>2025-06-22T08:27:44Z</time>
      </trkpt>
      <trkpt lat="42.89399" lon="1.17817">
        <ele>819</ele>
        <time>2025-06-22T08:27:45Z</time>
      </trkpt>
      <trkpt lat="42.89396" lon="1.17812">
        <ele>818.6</ele>
        <time>2025-06-22T08:27:46Z</time>
      </trkpt>
      <trkpt lat="42.89393" lon="1.17808">
        <ele>818</ele>
        <time>2025-06-22T08:27:47Z</time>
      </trkpt>
      <trkpt lat="42.8939" lon="1.17804">
        <ele>817.6</ele>
        <time>2025-06-22T08:27:48Z</time>
      </trkpt>
      <trkpt lat="42.89387" lon="1.17801">
        <ele>817</ele>
        <time>2025-06-22T08:27:49Z</time>
      </trkpt>
      <trkpt lat="42.89384" lon="1.17797">
        <ele>816.6</ele>
        <time>2025-06-22T08:27:50Z</time>
      </trkpt>
      <trkpt lat="42.8938" lon="1.17794">
        <ele>816</ele>
        <time>2025-06-22T08:27:51Z</time>
      </trkpt>
      <trkpt lat="42.89377" lon="1.17791">
        <ele>815.4</ele>
        <time>2025-06-22T08:27:52Z</time>
      </trkpt>
      <trkpt lat="42.89373" lon="1.17788">
        <ele>815</ele>
        <time>2025-06-22T08:27:53Z</time>
      </trkpt>
      <trkpt lat="42.89369" lon="1.17784">
        <ele>814.4</ele>
        <time>2025-06-22T08:27:54Z</time>
      </trkpt>
      <trkpt lat="42.89365" lon="1.1778">
        <ele>814</ele>
        <time>2025-06-22T08:27:55Z</time>
      </trkpt>
      <trkpt lat="42.89361" lon="1.17777">
        <ele>813.4</ele>
        <time>2025-06-22T08:27:56Z</time>
      </trkpt>
      <trkpt lat="42.89358" lon="1.17776">
        <ele>812.8</ele>
        <time>2025-06-22T08:27:57Z</time>
      </trkpt>
      <trkpt lat="42.89354" lon="1.17775">
        <ele>812.2</ele>
        <time>2025-06-22T08:27:58Z</time>
      </trkpt>
      <trkpt lat="42.89351" lon="1.17775">
        <ele>811.8</ele>
        <time>2025-06-22T08:27:59Z</time>
      </trkpt>
      <trkpt lat="42.89347" lon="1.17774">
        <ele>811.2</ele>
        <time>2025-06-22T08:28:00Z</time>
      </trkpt>
      <trkpt lat="42.89343" lon="1.17773">
        <ele>810.6</ele>
        <time>2025-06-22T08:28:01Z</time>
      </trkpt>
      <trkpt lat="42.8934" lon="1.17773">
        <ele>810.2</ele>
        <time>2025-06-22T08:28:02Z</time>
      </trkpt>
      <trkpt lat="42.89335" lon="1.17773">
        <ele>809.6</ele>
        <time>2025-06-22T08:28:03Z</time>
      </trkpt>
      <trkpt lat="42.89332" lon="1.17772">
        <ele>809</ele>
        <time>2025-06-22T08:28:04Z</time>
      </trkpt>
      <trkpt lat="42.89329" lon="1.17769">
        <ele>808.6</ele>
        <time>2025-06-22T08:28:05Z</time>
      </trkpt>
      <trkpt lat="42.89327" lon="1.17767">
        <ele>808</ele>
        <time>2025-06-22T08:28:06Z</time>
      </trkpt>
      <trkpt lat="42.89324" lon="1.17763">
        <ele>807.4</ele>
        <time>2025-06-22T08:28:07Z</time>
      </trkpt>
      <trkpt lat="42.89321" lon="1.17761">
        <ele>806.8</ele>
        <time>2025-06-22T08:28:08Z</time>
      </trkpt>
      <trkpt lat="42.89318" lon="1.17759">
        <ele>806.4</ele>
        <time>2025-06-22T08:28:09Z</time>
      </trkpt>
      <trkpt lat="42.89315" lon="1.17757">
        <ele>805.8</ele>
        <time>2025-06-22T08:28:10Z</time>
      </trkpt>
      <trkpt lat="42.89311" lon="1.17756">
        <ele>805.4</ele>
        <time>2025-06-22T08:28:11Z</time>
      </trkpt>
      <trkpt lat="42.89307" lon="1.17756">
        <ele>804.8</ele>
        <time>2025-06-22T08:28:12Z</time>
      </trkpt>
      <trkpt lat="42.89303" lon="1.17756">
        <ele>804.4</ele>
        <time>2025-06-22T08:28:13Z</time>
      </trkpt>
      <trkpt lat="42.89299" lon="1.17755">
        <ele>804</ele>
        <time>2025-06-22T08:28:14Z</time>
      </trkpt>
      <trkpt lat="42.89296" lon="1.17755">
        <ele>803.6</ele>
        <time>2025-06-22T08:28:15Z</time>
      </trkpt>
      <trkpt lat="42.89284" lon="1.17754">
        <ele>803.6</ele>
        <time>2025-06-22T08:28:18Z</time>
      </trkpt>
      <trkpt lat="42.89269" lon="1.17755">
        <ele>803.6</ele>
        <time>2025-06-22T08:28:23Z</time>
      </trkpt>
      <trkpt lat="42.89266" lon="1.17755">
        <ele>803.6</ele>
        <time>2025-06-22T08:28:24Z</time>
      </trkpt>
      <trkpt lat="42.89258" lon="1.17754">
        <ele>803.6</ele>
        <time>2025-06-22T08:28:27Z</time>
      </trkpt>
      <trkpt lat="42.89236" lon="1.17757">
        <ele>804</ele>
        <time>2025-06-22T08:28:33Z</time>
      </trkpt>
      <trkpt lat="42.89232" lon="1.17759">
        <ele>804.4</ele>
        <time>2025-06-22T08:28:34Z</time>
      </trkpt>
      <trkpt lat="42.89229" lon="1.17761">
        <ele>804.8</ele>
        <time>2025-06-22T08:28:35Z</time>
      </trkpt>
      <trkpt lat="42.89227" lon="1.17763">
        <ele>805.2</ele>
        <time>2025-06-22T08:28:36Z</time>
      </trkpt>
      <trkpt lat="42.89225" lon="1.17764">
        <ele>805.6</ele>
        <time>2025-06-22T08:28:37Z</time>
      </trkpt>
      <trkpt lat="42.89224" lon="1.17765">
        <ele>805.6</ele>
        <time>2025-06-22T08:28:38Z</time>
      </trkpt>
      <trkpt lat="42.89221" lon="1.17768">
        <ele>805.6</ele>
        <time>2025-06-22T08:28:40Z</time>
      </trkpt>
      <trkpt lat="42.89208" lon="1.1778">
        <ele>807.2</ele>
        <time>2025-06-22T08:28:50Z</time>
      </trkpt>
      <trkpt lat="42.89207" lon="1.17783">
        <ele>807.6</ele>
        <time>2025-06-22T08:28:51Z</time>
      </trkpt>
      <trkpt lat="42.89205" lon="1.17786">
        <ele>807.6</ele>
        <time>2025-06-22T08:28:52Z</time>
      </trkpt>
      <trkpt lat="42.89197" lon="1.17803">
        <ele>807.6</ele>
        <time>2025-06-22T08:28:58Z</time>
      </trkpt>
      <trkpt lat="42.89196" lon="1.17807">
        <ele>807.6</ele>
        <time>2025-06-22T08:29:00Z</time>
      </trkpt>
      <trkpt lat="42.89192" lon="1.17817">
        <ele>807.6</ele>
        <time>2025-06-22T08:29:08Z</time>
      </trkpt>
      <trkpt lat="42.89189" lon="1.17823">
        <ele>807.6</ele>
        <time>2025-06-22T08:29:10Z</time>
      </trkpt>
      <trkpt lat="42.89183" lon="1.17841">
        <ele>807.6</ele>
        <time>2025-06-22T08:29:15Z</time>
      </trkpt>
      <trkpt lat="42.89174" lon="1.17857">
        <ele>808</ele>
        <time>2025-06-22T08:29:21Z</time>
      </trkpt>
      <trkpt lat="42.89172" lon="1.17859">
        <ele>808.4</ele>
        <time>2025-06-22T08:29:22Z</time>
      </trkpt>
      <trkpt lat="42.89171" lon="1.17862">
        <ele>808.8</ele>
        <time>2025-06-22T08:29:23Z</time>
      </trkpt>
      <trkpt lat="42.89169" lon="1.17864">
        <ele>809.2</ele>
        <time>2025-06-22T08:29:24Z</time>
      </trkpt>
      <trkpt lat="42.89167" lon="1.17867">
        <ele>809.6</ele>
        <time>2025-06-22T08:29:25Z</time>
      </trkpt>
      <trkpt lat="42.8916" lon="1.17878">
        <ele>809.6</ele>
        <time>2025-06-22T08:29:28Z</time>
      </trkpt>
      <trkpt lat="42.89141" lon="1.17906">
        <ele>809.6</ele>
        <time>2025-06-22T08:29:37Z</time>
      </trkpt>
      <trkpt lat="42.89131" lon="1.17912">
        <ele>809.6</ele>
        <time>2025-06-22T08:29:41Z</time>
      </trkpt>
      <trkpt lat="42.89129" lon="1.17913">
        <ele>809.6</ele>
        <time>2025-06-22T08:29:42Z</time>
      </trkpt>
      <trkpt lat="42.89125" lon="1.17915">
        <ele>810.2</ele>
        <time>2025-06-22T08:29:44Z</time>
      </trkpt>
      <trkpt lat="42.89123" lon="1.17916">
        <ele>810.6</ele>
        <time>2025-06-22T08:29:45Z</time>
      </trkpt>
      <trkpt lat="42.89122" lon="1.17916">
        <ele>811</ele>
        <time>2025-06-22T08:29:46Z</time>
      </trkpt>
      <trkpt lat="42.8912" lon="1.17916">
        <ele>811.6</ele>
        <time>2025-06-22T08:29:47Z</time>
      </trkpt>
      <trkpt lat="42.89119" lon="1.17916">
        <ele>812</ele>
        <time>2025-06-22T08:29:48Z</time>
      </trkpt>
      <trkpt lat="42.89115" lon="1.17915">
        <ele>812.4</ele>
        <time>2025-06-22T08:29:50Z</time>
      </trkpt>
      <trkpt lat="42.89113" lon="1.17913">
        <ele>812.8</ele>
        <time>2025-06-22T08:29:51Z</time>
      </trkpt>
      <trkpt lat="42.89111" lon="1.17912">
        <ele>813.2</ele>
        <time>2025-06-22T08:29:52Z</time>
      </trkpt>
      <trkpt lat="42.89109" lon="1.1791">
        <ele>813.6</ele>
        <time>2025-06-22T08:29:53Z</time>
      </trkpt>
      <trkpt lat="42.89107" lon="1.1791">
        <ele>814</ele>
        <time>2025-06-22T08:29:54Z</time>
      </trkpt>
      <trkpt lat="42.89105" lon="1.17909">
        <ele>814.4</ele>
        <time>2025-06-22T08:29:55Z</time>
      </trkpt>
      <trkpt lat="42.89103" lon="1.17908">
        <ele>815</ele>
        <time>2025-06-22T08:29:56Z</time>
      </trkpt>
      <trkpt lat="42.89101" lon="1.17906">
        <ele>815.4</ele>
        <time>2025-06-22T08:29:57Z</time>
      </trkpt>
      <trkpt lat="42.891" lon="1.17904">
        <ele>816</ele>
        <time>2025-06-22T08:29:58Z</time>
      </trkpt>
      <trkpt lat="42.89098" lon="1.17902">
        <ele>816.4</ele>
        <time>2025-06-22T08:29:59Z</time>
      </trkpt>
      <trkpt lat="42.89094" lon="1.17899">
        <ele>817</ele>
        <time>2025-06-22T08:30:01Z</time>
      </trkpt>
      <trkpt lat="42.89092" lon="1.17897">
        <ele>817.4</ele>
        <time>2025-06-22T08:30:02Z</time>
      </trkpt>
      <trkpt lat="42.8909" lon="1.17896">
        <ele>818</ele>
        <time>2025-06-22T08:30:03Z</time>
      </trkpt>
      <trkpt lat="42.89088" lon="1.17894">
        <ele>818.4</ele>
        <time>2025-06-22T08:30:04Z</time>
      </trkpt>
      <trkpt lat="42.89086" lon="1.17892">
        <ele>819</ele>
        <time>2025-06-22T08:30:05Z</time>
      </trkpt>
      <trkpt lat="42.89082" lon="1.17889">
        <ele>819.4</ele>
        <time>2025-06-22T08:30:07Z</time>
      </trkpt>
      <trkpt lat="42.8908" lon="1.1789">
        <ele>819.8</ele>
        <time>2025-06-22T08:30:08Z</time>
      </trkpt>
      <trkpt lat="42.89078" lon="1.17889">
        <ele>820.2</ele>
        <time>2025-06-22T08:30:09Z</time>
      </trkpt>
      <trkpt lat="42.89076" lon="1.17888">
        <ele>820.6</ele>
        <time>2025-06-22T08:30:10Z</time>
      </trkpt>
      <trkpt lat="42.89074" lon="1.17887">
        <ele>821</ele>
        <time>2025-06-22T08:30:11Z</time>
      </trkpt>
      <trkpt lat="42.89072" lon="1.17885">
        <ele>821</ele>
        <time>2025-06-22T08:30:12Z</time>
      </trkpt>
      <trkpt lat="42.89069" lon="1.17884">
        <ele>821</ele>
        <time>2025-06-22T08:30:13Z</time>
      </trkpt>
      <trkpt lat="42.89059" lon="1.17875">
        <ele>821</ele>
        <time>2025-06-22T08:30:18Z</time>
      </trkpt>
      <trkpt lat="42.89055" lon="1.17873">
        <ele>821.4</ele>
        <time>2025-06-22T08:30:21Z</time>
      </trkpt>
      <trkpt lat="42.89053" lon="1.17871">
        <ele>821.8</ele>
        <time>2025-06-22T08:30:22Z</time>
      </trkpt>
      <trkpt lat="42.89051" lon="1.17869">
        <ele>822.4</ele>
        <time>2025-06-22T08:30:23Z</time>
      </trkpt>
      <trkpt lat="42.89049" lon="1.17867">
        <ele>822.8</ele>
        <time>2025-06-22T08:30:24Z</time>
      </trkpt>
      <trkpt lat="42.89047" lon="1.17865">
        <ele>823.2</ele>
        <time>2025-06-22T08:30:25Z</time>
      </trkpt>
      <trkpt lat="42.89039" lon="1.1786">
        <ele>823.2</ele>
        <time>2025-06-22T08:30:29Z</time>
      </trkpt>
      <trkpt lat="42.89026" lon="1.17851">
        <ele>823.6</ele>
        <time>2025-06-22T08:30:35Z</time>
      </trkpt>
      <trkpt lat="42.89023" lon="1.1785">
        <ele>824</ele>
        <time>2025-06-22T08:30:36Z</time>
      </trkpt>
      <trkpt lat="42.8902" lon="1.17849">
        <ele>824.6</ele>
        <time>2025-06-22T08:30:37Z</time>
      </trkpt>
      <trkpt lat="42.89018" lon="1.17849">
        <ele>825</ele>
        <time>2025-06-22T08:30:38Z</time>
      </trkpt>
      <trkpt lat="42.89015" lon="1.17848">
        <ele>825.4</ele>
        <time>2025-06-22T08:30:39Z</time>
      </trkpt>
      <trkpt lat="42.89012" lon="1.17848">
        <ele>825.4</ele>
        <time>2025-06-22T08:30:41Z</time>
      </trkpt>
      <trkpt lat="42.8901" lon="1.17848">
        <ele>825.4</ele>
        <time>2025-06-22T08:30:42Z</time>
      </trkpt>
      <trkpt lat="42.89" lon="1.17852">
        <ele>825.4</ele>
        <time>2025-06-22T08:30:46Z</time>
      </trkpt>
      <trkpt lat="42.88988" lon="1.17859">
        <ele>825.4</ele>
        <time>2025-06-22T08:30:51Z</time>
      </trkpt>
      <trkpt lat="42.88978" lon="1.17867">
        <ele>825.4</ele>
        <time>2025-06-22T08:30:57Z</time>
      </trkpt>
      <trkpt lat="42.88968" lon="1.17875">
        <ele>825.4</ele>
        <time>2025-06-22T08:31:01Z</time>
      </trkpt>
      <trkpt lat="42.8896" lon="1.17878">
        <ele>825.4</ele>
        <time>2025-06-22T08:31:05Z</time>
      </trkpt>
      <trkpt lat="42.88952" lon="1.17881">
        <ele>825.4</ele>
        <time>2025-06-22T08:31:08Z</time>
      </trkpt>
      <trkpt lat="42.88949" lon="1.17882">
        <ele>825.4</ele>
        <time>2025-06-22T08:31:09Z</time>
      </trkpt>
      <trkpt lat="42.88944" lon="1.17883">
        <ele>825.8</ele>
        <time>2025-06-22T08:31:11Z</time>
      </trkpt>
      <trkpt lat="42.88941" lon="1.17883">
        <ele>826.2</ele>
        <time>2025-06-22T08:31:12Z</time>
      </trkpt>
      <trkpt lat="42.88938" lon="1.17884">
        <ele>826.6</ele>
        <time>2025-06-22T08:31:13Z</time>
      </trkpt>
      <trkpt lat="42.88935" lon="1.17885">
        <ele>827</ele>
        <time>2025-06-22T08:31:14Z</time>
      </trkpt>
      <trkpt lat="42.88932" lon="1.17885">
        <ele>827.4</ele>
        <time>2025-06-22T08:31:15Z</time>
      </trkpt>
      <trkpt lat="42.88923" lon="1.17886">
        <ele>828</ele>
        <time>2025-06-22T08:31:19Z</time>
      </trkpt>
      <trkpt lat="42.8892" lon="1.17886">
        <ele>828.4</ele>
        <time>2025-06-22T08:31:20Z</time>
      </trkpt>
      <trkpt lat="42.88918" lon="1.17886">
        <ele>829.2</ele>
        <time>2025-06-22T08:31:21Z</time>
      </trkpt>
      <trkpt lat="42.88915" lon="1.17887">
        <ele>829.6</ele>
        <time>2025-06-22T08:31:22Z</time>
      </trkpt>
      <trkpt lat="42.88904" lon="1.17889">
        <ele>830</ele>
        <time>2025-06-22T08:31:26Z</time>
      </trkpt>
      <trkpt lat="42.88901" lon="1.17889">
        <ele>830.4</ele>
        <time>2025-06-22T08:31:27Z</time>
      </trkpt>
      <trkpt lat="42.88898" lon="1.17889">
        <ele>831</ele>
        <time>2025-06-22T08:31:28Z</time>
      </trkpt>
      <trkpt lat="42.88896" lon="1.17889">
        <ele>831.4</ele>
        <time>2025-06-22T08:31:29Z</time>
      </trkpt>
      <trkpt lat="42.88893" lon="1.17889">
        <ele>831.8</ele>
        <time>2025-06-22T08:31:30Z</time>
      </trkpt>
      <trkpt lat="42.88885" lon="1.17887">
        <ele>832.2</ele>
        <time>2025-06-22T08:31:33Z</time>
      </trkpt>
      <trkpt lat="42.88883" lon="1.17887">
        <ele>832.6</ele>
        <time>2025-06-22T08:31:34Z</time>
      </trkpt>
      <trkpt lat="42.8888" lon="1.17886">
        <ele>833</ele>
        <time>2025-06-22T08:31:35Z</time>
      </trkpt>
      <trkpt lat="42.88877" lon="1.17886">
        <ele>833.4</ele>
        <time>2025-06-22T08:31:36Z</time>
      </trkpt>
      <trkpt lat="42.88874" lon="1.17886">
        <ele>833.8</ele>
        <time>2025-06-22T08:31:37Z</time>
      </trkpt>
      <trkpt lat="42.88868" lon="1.17887">
        <ele>833.8</ele>
        <time>2025-06-22T08:31:39Z</time>
      </trkpt>
      <trkpt lat="42.88854" lon="1.1789">
        <ele>833.8</ele>
        <time>2025-06-22T08:31:45Z</time>
      </trkpt>
      <trkpt lat="42.88843" lon="1.17893">
        <ele>833.8</ele>
        <time>2025-06-22T08:31:50Z</time>
      </trkpt>
      <trkpt lat="42.8884" lon="1.17894">
        <ele>834.2</ele>
        <time>2025-06-22T08:31:52Z</time>
      </trkpt>
      <trkpt lat="42.88838" lon="1.17894">
        <ele>834.8</ele>
        <time>2025-06-22T08:31:53Z</time>
      </trkpt>
      <trkpt lat="42.88835" lon="1.17893">
        <ele>835.2</ele>
        <time>2025-06-22T08:31:54Z</time>
      </trkpt>
      <trkpt lat="42.88833" lon="1.17894">
        <ele>835.6</ele>
        <time>2025-06-22T08:31:55Z</time>
      </trkpt>
      <trkpt lat="42.8883" lon="1.17894">
        <ele>836</ele>
        <time>2025-06-22T08:31:56Z</time>
      </trkpt>
      <trkpt lat="42.88823" lon="1.17891">
        <ele>836.4</ele>
        <time>2025-06-22T08:31:59Z</time>
      </trkpt>
      <trkpt lat="42.88821" lon="1.17889">
        <ele>837</ele>
        <time>2025-06-22T08:32:00Z</time>
      </trkpt>
      <trkpt lat="42.88819" lon="1.17889">
        <ele>837.4</ele>
        <time>2025-06-22T08:32:01Z</time>
      </trkpt>
      <trkpt lat="42.88817" lon="1.17888">
        <ele>837.8</ele>
        <time>2025-06-22T08:32:02Z</time>
      </trkpt>
      <trkpt lat="42.88815" lon="1.17887">
        <ele>838.2</ele>
        <time>2025-06-22T08:32:03Z</time>
      </trkpt>
      <trkpt lat="42.88806" lon="1.17886">
        <ele>838.2</ele>
        <time>2025-06-22T08:32:06Z</time>
      </trkpt>
      <trkpt lat="42.88787" lon="1.17877">
        <ele>838.2</ele>
        <time>2025-06-22T08:32:12Z</time>
      </trkpt>
      <trkpt lat="42.88779" lon="1.1787">
        <ele>837.8</ele>
        <time>2025-06-22T08:32:15Z</time>
      </trkpt>
      <trkpt lat="42.88776" lon="1.17868">
        <ele>837.4</ele>
        <time>2025-06-22T08:32:16Z</time>
      </trkpt>
      <trkpt lat="42.88773" lon="1.17869">
        <ele>836.8</ele>
        <time>2025-06-22T08:32:17Z</time>
      </trkpt>
      <trkpt lat="42.8877" lon="1.17869">
        <ele>836.2</ele>
        <time>2025-06-22T08:32:18Z</time>
      </trkpt>
      <trkpt lat="42.88766" lon="1.1787">
        <ele>835.6</ele>
        <time>2025-06-22T08:32:19Z</time>
      </trkpt>
      <trkpt lat="42.88763" lon="1.17872">
        <ele>835</ele>
        <time>2025-06-22T08:32:20Z</time>
      </trkpt>
      <trkpt lat="42.88761" lon="1.17871">
        <ele>834.2</ele>
        <time>2025-06-22T08:32:21Z</time>
      </trkpt>
      <trkpt lat="42.88759" lon="1.17868">
        <ele>833.4</ele>
        <time>2025-06-22T08:32:22Z</time>
      </trkpt>
      <trkpt lat="42.88757" lon="1.17864">
        <ele>832.6</ele>
        <time>2025-06-22T08:32:23Z</time>
      </trkpt>
      <trkpt lat="42.88756" lon="1.17859">
        <ele>831.8</ele>
        <time>2025-06-22T08:32:24Z</time>
      </trkpt>
      <trkpt lat="42.88755" lon="1.17856">
        <ele>831.2</ele>
        <time>2025-06-22T08:32:25Z</time>
      </trkpt>
      <trkpt lat="42.88754" lon="1.17852">
        <ele>830.6</ele>
        <time>2025-06-22T08:32:26Z</time>
      </trkpt>
      <trkpt lat="42.88753" lon="1.17848">
        <ele>830</ele>
        <time>2025-06-22T08:32:27Z</time>
      </trkpt>
      <trkpt lat="42.88754" lon="1.17843">
        <ele>829.2</ele>
        <time>2025-06-22T08:32:28Z</time>
      </trkpt>
      <trkpt lat="42.88757" lon="1.1784">
        <ele>828.4</ele>
        <time>2025-06-22T08:32:29Z</time>
      </trkpt>
      <trkpt lat="42.8876" lon="1.17839">
        <ele>827.6</ele>
        <time>2025-06-22T08:32:30Z</time>
      </trkpt>
      <trkpt lat="42.88761" lon="1.17838">
        <ele>826.8</ele>
        <time>2025-06-22T08:32:31Z</time>
      </trkpt>
      <trkpt lat="42.88763" lon="1.17836">
        <ele>826</ele>
        <time>2025-06-22T08:32:32Z</time>
      </trkpt>
      <trkpt lat="42.88765" lon="1.17834">
        <ele>826</ele>
        <time>2025-06-22T08:32:33Z</time>
      </trkpt>
      <trkpt lat="42.88772" lon="1.17821">
        <ele>826</ele>
        <time>2025-06-22T08:32:39Z</time>
      </trkpt>
      <trkpt lat="42.88774" lon="1.1782">
        <ele>826.4</ele>
        <time>2025-06-22T08:32:40Z</time>
      </trkpt>
      <trkpt lat="42.88775" lon="1.17818">
        <ele>826.8</ele>
        <time>2025-06-22T08:32:41Z</time>
      </trkpt>
      <trkpt lat="42.88776" lon="1.17817">
        <ele>827.2</ele>
        <time>2025-06-22T08:32:42Z</time>
      </trkpt>
      <trkpt lat="42.88777" lon="1.17816">
        <ele>827.6</ele>
        <time>2025-06-22T08:32:43Z</time>
      </trkpt>
      <trkpt lat="42.88777" lon="1.17814">
        <ele>828</ele>
        <time>2025-06-22T08:32:44Z</time>
      </trkpt>
      <trkpt lat="42.88778" lon="1.17813">
        <ele>828</ele>
        <time>2025-06-22T08:32:45Z</time>
      </trkpt>
      <trkpt lat="42.88778" lon="1.17811">
        <ele>828</ele>
        <time>2025-06-22T08:32:47Z</time>
      </trkpt>
      <trkpt lat="42.88781" lon="1.17806">
        <ele>828.6</ele>
        <time>2025-06-22T08:34:15Z</time>
      </trkpt>
      <trkpt lat="42.88781" lon="1.17804">
        <ele>829</ele>
        <time>2025-06-22T08:34:16Z</time>
      </trkpt>
      <trkpt lat="42.88781" lon="1.17804">
        <ele>829.4</ele>
        <time>2025-06-22T08:34:17Z</time>
      </trkpt>
      <trkpt lat="42.88782" lon="1.17801">
        <ele>830.2</ele>
        <time>2025-06-22T08:36:12Z</time>
      </trkpt>
      <trkpt lat="42.88783" lon="1.17796">
        <ele>830.2</ele>
        <time>2025-06-22T08:36:14Z</time>
      </trkpt>
      <trkpt lat="42.88785" lon="1.1779">
        <ele>830.2</ele>
        <time>2025-06-22T08:36:16Z</time>
      </trkpt>
      <trkpt lat="42.88788" lon="1.17778">
        <ele>830.2</ele>
        <time>2025-06-22T08:36:20Z</time>
      </trkpt>
      <trkpt lat="42.88792" lon="1.17765">
        <ele>830.6</ele>
        <time>2025-06-22T08:36:24Z</time>
      </trkpt>
      <trkpt lat="42.88793" lon="1.17762">
        <ele>831</ele>
        <time>2025-06-22T08:36:25Z</time>
      </trkpt>
      <trkpt lat="42.88794" lon="1.17759">
        <ele>831.6</ele>
        <time>2025-06-22T08:36:26Z</time>
      </trkpt>
      <trkpt lat="42.88794" lon="1.17756">
        <ele>832</ele>
        <time>2025-06-22T08:36:27Z</time>
      </trkpt>
      <trkpt lat="42.88795" lon="1.17752">
        <ele>832.4</ele>
        <time>2025-06-22T08:36:28Z</time>
      </trkpt>
      <trkpt lat="42.88804" lon="1.17727">
        <ele>832.4</ele>
        <time>2025-06-22T08:36:36Z</time>
      </trkpt>
      <trkpt lat="42.88806" lon="1.1772">
        <ele>832.4</ele>
        <time>2025-06-22T08:36:38Z</time>
      </trkpt>
      <trkpt lat="42.88811" lon="1.17704">
        <ele>832.4</ele>
        <time>2025-06-22T08:36:43Z</time>
      </trkpt>
      <trkpt lat="42.88814" lon="1.17691">
        <ele>832.4</ele>
        <time>2025-06-22T08:36:48Z</time>
      </trkpt>
      <trkpt lat="42.8882" lon="1.17677">
        <ele>832.8</ele>
        <time>2025-06-22T08:36:52Z</time>
      </trkpt>
      <trkpt lat="42.88821" lon="1.17673">
        <ele>833.2</ele>
        <time>2025-06-22T08:36:53Z</time>
      </trkpt>
      <trkpt lat="42.88822" lon="1.1767">
        <ele>833.6</ele>
        <time>2025-06-22T08:36:54Z</time>
      </trkpt>
      <trkpt lat="42.88823" lon="1.17666">
        <ele>834</ele>
        <time>2025-06-22T08:36:55Z</time>
      </trkpt>
      <trkpt lat="42.88825" lon="1.17662">
        <ele>834.6</ele>
        <time>2025-06-22T08:36:56Z</time>
      </trkpt>
      <trkpt lat="42.88834" lon="1.17636">
        <ele>834.6</ele>
        <time>2025-06-22T08:37:03Z</time>
      </trkpt>
      <trkpt lat="42.88846" lon="1.17614">
        <ele>834.6</ele>
        <time>2025-06-22T08:37:10Z</time>
      </trkpt>
      <trkpt lat="42.88862" lon="1.17593">
        <ele>835</ele>
        <time>2025-06-22T08:37:18Z</time>
      </trkpt>
      <trkpt lat="42.88864" lon="1.1759">
        <ele>835.4</ele>
        <time>2025-06-22T08:37:19Z</time>
      </trkpt>
      <trkpt lat="42.88866" lon="1.17588">
        <ele>835.8</ele>
        <time>2025-06-22T08:37:20Z</time>
      </trkpt>
      <trkpt lat="42.88868" lon="1.17585">
        <ele>836.2</ele>
        <time>2025-06-22T08:37:21Z</time>
      </trkpt>
      <trkpt lat="42.8887" lon="1.17583">
        <ele>836.6</ele>
        <time>2025-06-22T08:37:22Z</time>
      </trkpt>
      <trkpt lat="42.88876" lon="1.17575">
        <ele>836.6</ele>
        <time>2025-06-22T08:37:25Z</time>
      </trkpt>
      <trkpt lat="42.8889" lon="1.17558">
        <ele>836.6</ele>
        <time>2025-06-22T08:37:32Z</time>
      </trkpt>
      <trkpt lat="42.88908" lon="1.1754">
        <ele>836.6</ele>
        <time>2025-06-22T08:37:40Z</time>
      </trkpt>
      <trkpt lat="42.88926" lon="1.17521">
        <ele>836.6</ele>
        <time>2025-06-22T08:37:48Z</time>
      </trkpt>
      <trkpt lat="42.88945" lon="1.17506">
        <ele>836.6</ele>
        <time>2025-06-22T08:37:56Z</time>
      </trkpt>
      <trkpt lat="42.88947" lon="1.17504">
        <ele>837</ele>
        <time>2025-06-22T08:37:57Z</time>
      </trkpt>
      <trkpt lat="42.88949" lon="1.17502">
        <ele>837.4</ele>
        <time>2025-06-22T08:37:58Z</time>
      </trkpt>
      <trkpt lat="42.88951" lon="1.175">
        <ele>837.8</ele>
        <time>2025-06-22T08:37:59Z</time>
      </trkpt>
      <trkpt lat="42.88953" lon="1.17498">
        <ele>838.2</ele>
        <time>2025-06-22T08:38:00Z</time>
      </trkpt>
      <trkpt lat="42.88955" lon="1.17496">
        <ele>838.6</ele>
        <time>2025-06-22T08:38:01Z</time>
      </trkpt>
      <trkpt lat="42.88957" lon="1.17494">
        <ele>838.6</ele>
        <time>2025-06-22T08:38:02Z</time>
      </trkpt>
      <trkpt lat="42.88971" lon="1.17484">
        <ele>838.6</ele>
        <time>2025-06-22T08:38:08Z</time>
      </trkpt>
      <trkpt lat="42.88989" lon="1.17469">
        <ele>838.6</ele>
        <time>2025-06-22T08:38:15Z</time>
      </trkpt>
      <trkpt lat="42.89003" lon="1.1746">
        <ele>838.6</ele>
        <time>2025-06-22T08:38:20Z</time>
      </trkpt>
      <trkpt lat="42.89023" lon="1.17444">
        <ele>838.6</ele>
        <time>2025-06-22T08:38:27Z</time>
      </trkpt>
      <trkpt lat="42.8903" lon="1.17441">
        <ele>838.6</ele>
        <time>2025-06-22T08:38:31Z</time>
      </trkpt>
      <trkpt lat="42.8904" lon="1.17438">
        <ele>838.6</ele>
        <time>2025-06-22T08:38:37Z</time>
      </trkpt>
      <trkpt lat="42.89051" lon="1.1743">
        <ele>838.6</ele>
        <time>2025-06-22T08:38:43Z</time>
      </trkpt>
      <trkpt lat="42.89062" lon="1.17421">
        <ele>838.6</ele>
        <time>2025-06-22T08:38:50Z</time>
      </trkpt>
      <trkpt lat="42.89065" lon="1.17418">
        <ele>839</ele>
        <time>2025-06-22T08:38:52Z</time>
      </trkpt>
      <trkpt lat="42.89067" lon="1.17417">
        <ele>839.6</ele>
        <time>2025-06-22T08:38:53Z</time>
      </trkpt>
      <trkpt lat="42.89068" lon="1.17415">
        <ele>840</ele>
        <time>2025-06-22T08:38:54Z</time>
      </trkpt>
      <trkpt lat="42.8907" lon="1.17414">
        <ele>840.4</ele>
        <time>2025-06-22T08:38:55Z</time>
      </trkpt>
      <trkpt lat="42.89071" lon="1.17412">
        <ele>840.8</ele>
        <time>2025-06-22T08:38:56Z</time>
      </trkpt>
      <trkpt lat="42.89075" lon="1.17408">
        <ele>840.8</ele>
        <time>2025-06-22T08:38:58Z</time>
      </trkpt>
      <trkpt lat="42.89089" lon="1.17398">
        <ele>840.8</ele>
        <time>2025-06-22T08:39:05Z</time>
      </trkpt>
      <trkpt lat="42.89093" lon="1.17392">
        <ele>841.2</ele>
        <time>2025-06-22T08:39:08Z</time>
      </trkpt>
      <trkpt lat="42.89095" lon="1.1739">
        <ele>841.8</ele>
        <time>2025-06-22T08:39:09Z</time>
      </trkpt>
      <trkpt lat="42.89097" lon="1.17388">
        <ele>842.6</ele>
        <time>2025-06-22T08:39:10Z</time>
      </trkpt>
      <trkpt lat="42.89099" lon="1.17386">
        <ele>843</ele>
        <time>2025-06-22T08:39:11Z</time>
      </trkpt>
      <trkpt lat="42.89107" lon="1.17378">
        <ele>843.6</ele>
        <time>2025-06-22T08:39:15Z</time>
      </trkpt>
      <trkpt lat="42.89108" lon="1.17375">
        <ele>844</ele>
        <time>2025-06-22T08:39:16Z</time>
      </trkpt>
      <trkpt lat="42.8911" lon="1.17373">
        <ele>844.4</ele>
        <time>2025-06-22T08:39:17Z</time>
      </trkpt>
      <trkpt lat="42.89112" lon="1.17371">
        <ele>845</ele>
        <time>2025-06-22T08:39:18Z</time>
      </trkpt>
      <trkpt lat="42.89113" lon="1.17368">
        <ele>845.4</ele>
        <time>2025-06-22T08:39:19Z</time>
      </trkpt>
      <trkpt lat="42.89118" lon="1.17361">
        <ele>845.8</ele>
        <time>2025-06-22T08:39:22Z</time>
      </trkpt>
      <trkpt lat="42.89119" lon="1.17359">
        <ele>846.4</ele>
        <time>2025-06-22T08:39:23Z</time>
      </trkpt>
      <trkpt lat="42.89119" lon="1.17356">
        <ele>846.8</ele>
        <time>2025-06-22T08:39:24Z</time>
      </trkpt>
      <trkpt lat="42.8912" lon="1.17353">
        <ele>847.2</ele>
        <time>2025-06-22T08:39:25Z</time>
      </trkpt>
      <trkpt lat="42.89121" lon="1.17351">
        <ele>847.8</ele>
        <time>2025-06-22T08:39:26Z</time>
      </trkpt>
      <trkpt lat="42.89122" lon="1.17343">
        <ele>848.2</ele>
        <time>2025-06-22T08:39:29Z</time>
      </trkpt>
      <trkpt lat="42.89122" lon="1.1734">
        <ele>848.6</ele>
        <time>2025-06-22T08:39:30Z</time>
      </trkpt>
      <trkpt lat="42.89122" lon="1.17337">
        <ele>849</ele>
        <time>2025-06-22T08:39:31Z</time>
      </trkpt>
      <trkpt lat="42.89122" lon="1.17334">
        <ele>849.4</ele>
        <time>2025-06-22T08:39:32Z</time>
      </trkpt>
      <trkpt lat="42.89122" lon="1.17331">
        <ele>849.8</ele>
        <time>2025-06-22T08:39:33Z</time>
      </trkpt>
      <trkpt lat="42.89124" lon="1.17323">
        <ele>850.2</ele>
        <time>2025-06-22T08:39:36Z</time>
      </trkpt>
      <trkpt lat="42.89124" lon="1.1732">
        <ele>850.6</ele>
        <time>2025-06-22T08:39:37Z</time>
      </trkpt>
      <trkpt lat="42.89125" lon="1.17317">
        <ele>851</ele>
        <time>2025-06-22T08:39:38Z</time>
      </trkpt>
      <trkpt lat="42.89125" lon="1.17314">
        <ele>851.4</ele>
        <time>2025-06-22T08:39:39Z</time>
      </trkpt>
      <trkpt lat="42.89126" lon="1.17312">
        <ele>851.8</ele>
        <time>2025-06-22T08:39:40Z</time>
      </trkpt>
      <trkpt lat="42.89133" lon="1.17288">
        <ele>851.8</ele>
        <time>2025-06-22T08:39:48Z</time>
      </trkpt>
      <trkpt lat="42.89138" lon="1.17273">
        <ele>852.2</ele>
        <time>2025-06-22T08:39:53Z</time>
      </trkpt>
      <trkpt lat="42.89138" lon="1.1727">
        <ele>852.6</ele>
        <time>2025-06-22T08:39:54Z</time>
      </trkpt>
      <trkpt lat="42.89139" lon="1.17267">
        <ele>853</ele>
        <time>2025-06-22T08:39:55Z</time>
      </trkpt>
      <trkpt lat="42.8914" lon="1.17264">
        <ele>853.6</ele>
        <time>2025-06-22T08:39:56Z</time>
      </trkpt>
      <trkpt lat="42.8914" lon="1.17261">
        <ele>854</ele>
        <time>2025-06-22T08:39:57Z</time>
      </trkpt>
      <trkpt lat="42.89141" lon="1.17248">
        <ele>854</ele>
        <time>2025-06-22T08:40:01Z</time>
      </trkpt>
      <trkpt lat="42.89136" lon="1.1723">
        <ele>854</ele>
        <time>2025-06-22T08:40:07Z</time>
      </trkpt>
      <trkpt lat="42.89125" lon="1.17211">
        <ele>854</ele>
        <time>2025-06-22T08:40:13Z</time>
      </trkpt>
      <trkpt lat="42.8912" lon="1.17184">
        <ele>854</ele>
        <time>2025-06-22T08:40:19Z</time>
      </trkpt>
      <trkpt lat="42.89122" lon="1.17158">
        <ele>854</ele>
        <time>2025-06-22T08:40:25Z</time>
      </trkpt>
      <trkpt lat="42.89127" lon="1.17141">
        <ele>854</ele>
        <time>2025-06-22T08:40:30Z</time>
      </trkpt>
      <trkpt lat="42.89135" lon="1.17124">
        <ele>854</ele>
        <time>2025-06-22T08:40:35Z</time>
      </trkpt>
      <trkpt lat="42.89143" lon="1.17108">
        <ele>854.4</ele>
        <time>2025-06-22T08:40:40Z</time>
      </trkpt>
      <trkpt lat="42.89145" lon="1.17104">
        <ele>854.8</ele>
        <time>2025-06-22T08:40:41Z</time>
      </trkpt>
      <trkpt lat="42.89147" lon="1.17101">
        <ele>855.2</ele>
        <time>2025-06-22T08:40:42Z</time>
      </trkpt>
      <trkpt lat="42.89148" lon="1.17098">
        <ele>855.6</ele>
        <time>2025-06-22T08:40:43Z</time>
      </trkpt>
      <trkpt lat="42.8915" lon="1.17095">
        <ele>856</ele>
        <time>2025-06-22T08:40:44Z</time>
      </trkpt>
      <trkpt lat="42.89156" lon="1.17083">
        <ele>856</ele>
        <time>2025-06-22T08:40:48Z</time>
      </trkpt>
      <trkpt lat="42.89165" lon="1.1706">
        <ele>856</ele>
        <time>2025-06-22T08:40:54Z</time>
      </trkpt>
      <trkpt lat="42.89179" lon="1.17041">
        <ele>856</ele>
        <time>2025-06-22T08:41:00Z</time>
      </trkpt>
      <trkpt lat="42.89193" lon="1.1702">
        <ele>856</ele>
        <time>2025-06-22T08:41:07Z</time>
      </trkpt>
      <trkpt lat="42.89205" lon="1.16999">
        <ele>856</ele>
        <time>2025-06-22T08:41:14Z</time>
      </trkpt>
      <trkpt lat="42.8921" lon="1.16993">
        <ele>856.4</ele>
        <time>2025-06-22T08:41:16Z</time>
      </trkpt>
      <trkpt lat="42.89212" lon="1.1699">
        <ele>856.8</ele>
        <time>2025-06-22T08:41:17Z</time>
      </trkpt>
      <trkpt lat="42.89214" lon="1.16987">
        <ele>857.2</ele>
        <time>2025-06-22T08:41:18Z</time>
      </trkpt>
      <trkpt lat="42.89216" lon="1.16984">
        <ele>857.6</ele>
        <time>2025-06-22T08:41:19Z</time>
      </trkpt>
      <trkpt lat="42.89218" lon="1.16981">
        <ele>858</ele>
        <time>2025-06-22T08:41:20Z</time>
      </trkpt>
      <trkpt lat="42.8922" lon="1.16977">
        <ele>858</ele>
        <time>2025-06-22T08:41:21Z</time>
      </trkpt>
      <trkpt lat="42.89235" lon="1.16955">
        <ele>858</ele>
        <time>2025-06-22T08:41:28Z</time>
      </trkpt>
      <trkpt lat="42.89248" lon="1.16935">
        <ele>858.4</ele>
        <time>2025-06-22T08:41:35Z</time>
      </trkpt>
      <trkpt lat="42.8925" lon="1.16932">
        <ele>858.8</ele>
        <time>2025-06-22T08:41:36Z</time>
      </trkpt>
      <trkpt lat="42.89252" lon="1.16929">
        <ele>859.2</ele>
        <time>2025-06-22T08:41:37Z</time>
      </trkpt>
      <trkpt lat="42.89254" lon="1.16927">
        <ele>860</ele>
        <time>2025-06-22T08:41:38Z</time>
      </trkpt>
      <trkpt lat="42.89263" lon="1.16915">
        <ele>860</ele>
        <time>2025-06-22T08:41:43Z</time>
      </trkpt>
      <trkpt lat="42.89272" lon="1.16903">
        <ele>860.4</ele>
        <time>2025-06-22T08:41:49Z</time>
      </trkpt>
      <trkpt lat="42.89274" lon="1.169">
        <ele>860.8</ele>
        <time>2025-06-22T08:41:50Z</time>
      </trkpt>
      <trkpt lat="42.89275" lon="1.16897">
        <ele>861.2</ele>
        <time>2025-06-22T08:41:51Z</time>
      </trkpt>
      <trkpt lat="42.89277" lon="1.16894">
        <ele>861.6</ele>
        <time>2025-06-22T08:41:52Z</time>
      </trkpt>
      <trkpt lat="42.89279" lon="1.16891">
        <ele>862.2</ele>
        <time>2025-06-22T08:41:53Z</time>
      </trkpt>
      <trkpt lat="42.89286" lon="1.1688">
        <ele>862.2</ele>
        <time>2025-06-22T08:41:57Z</time>
      </trkpt>
      <trkpt lat="42.89296" lon="1.16862">
        <ele>862.2</ele>
        <time>2025-06-22T08:42:04Z</time>
      </trkpt>
      <trkpt lat="42.89298" lon="1.16856">
        <ele>862.6</ele>
        <time>2025-06-22T08:42:06Z</time>
      </trkpt>
      <trkpt lat="42.89299" lon="1.16854">
        <ele>863</ele>
        <time>2025-06-22T08:42:07Z</time>
      </trkpt>
      <trkpt lat="42.893" lon="1.16852">
        <ele>863.4</ele>
        <time>2025-06-22T08:42:08Z</time>
      </trkpt>
      <trkpt lat="42.89301" lon="1.16849">
        <ele>863.8</ele>
        <time>2025-06-22T08:42:09Z</time>
      </trkpt>
      <trkpt lat="42.89302" lon="1.16847">
        <ele>864.2</ele>
        <time>2025-06-22T08:42:10Z</time>
      </trkpt>
      <trkpt lat="42.89303" lon="1.16844">
        <ele>864.2</ele>
        <time>2025-06-22T08:42:11Z</time>
      </trkpt>
      <trkpt lat="42.8931" lon="1.16823">
        <ele>864.2</ele>
        <time>2025-06-22T08:42:18Z</time>
      </trkpt>
      <trkpt lat="42.89311" lon="1.1682">
        <ele>864.2</ele>
        <time>2025-06-22T08:42:19Z</time>
      </trkpt>
      <trkpt lat="42.89317" lon="1.16807">
        <ele>864.6</ele>
        <time>2025-06-22T08:42:23Z</time>
      </trkpt>
      <trkpt lat="42.89319" lon="1.16805">
        <ele>865.2</ele>
        <time>2025-06-22T08:42:24Z</time>
      </trkpt>
      <trkpt lat="42.89322" lon="1.16803">
        <ele>865.6</ele>
        <time>2025-06-22T08:42:25Z</time>
      </trkpt>
      <trkpt lat="42.89325" lon="1.16802">
        <ele>866</ele>
        <time>2025-06-22T08:42:26Z</time>
      </trkpt>
      <trkpt lat="42.89327" lon="1.16801">
        <ele>866.6</ele>
        <time>2025-06-22T08:42:27Z</time>
      </trkpt>
      <trkpt lat="42.8933" lon="1.16801">
        <ele>867.4</ele>
        <time>2025-06-22T08:42:28Z</time>
      </trkpt>
      <trkpt lat="42.89332" lon="1.16801">
        <ele>867.8</ele>
        <time>2025-06-22T08:42:29Z</time>
      </trkpt>
      <trkpt lat="42.89334" lon="1.16801">
        <ele>868.2</ele>
        <time>2025-06-22T08:42:30Z</time>
      </trkpt>
      <trkpt lat="42.89336" lon="1.168">
        <ele>868.8</ele>
        <time>2025-06-22T08:42:31Z</time>
      </trkpt>
      <trkpt lat="42.89337" lon="1.16799">
        <ele>869.4</ele>
        <time>2025-06-22T08:42:32Z</time>
      </trkpt>
      <trkpt lat="42.89339" lon="1.16798">
        <ele>869.8</ele>
        <time>2025-06-22T08:42:33Z</time>
      </trkpt>
      <trkpt lat="42.8934" lon="1.16797">
        <ele>870.4</ele>
        <time>2025-06-22T08:42:34Z</time>
      </trkpt>
      <trkpt lat="42.89342" lon="1.16797">
        <ele>871</ele>
        <time>2025-06-22T08:42:35Z</time>
      </trkpt>
      <trkpt lat="42.89344" lon="1.16795">
        <ele>871.4</ele>
        <time>2025-06-22T08:42:36Z</time>
      </trkpt>
      <trkpt lat="42.89346" lon="1.16794">
        <ele>872</ele>
        <time>2025-06-22T08:42:37Z</time>
      </trkpt>
      <trkpt lat="42.89348" lon="1.16794">
        <ele>872.4</ele>
        <time>2025-06-22T08:42:38Z</time>
      </trkpt>
      <trkpt lat="42.89351" lon="1.16793">
        <ele>873</ele>
        <time>2025-06-22T08:42:39Z</time>
      </trkpt>
      <trkpt lat="42.89353" lon="1.16792">
        <ele>873.4</ele>
        <time>2025-06-22T08:42:40Z</time>
      </trkpt>
      <trkpt lat="42.89356" lon="1.1679">
        <ele>873.8</ele>
        <time>2025-06-22T08:42:41Z</time>
      </trkpt>
      <trkpt lat="42.89359" lon="1.16788">
        <ele>874.4</ele>
        <time>2025-06-22T08:42:42Z</time>
      </trkpt>
      <trkpt lat="42.89361" lon="1.16787">
        <ele>874.8</ele>
        <time>2025-06-22T08:42:43Z</time>
      </trkpt>
      <trkpt lat="42.89363" lon="1.16787">
        <ele>875.2</ele>
        <time>2025-06-22T08:42:44Z</time>
      </trkpt>
      <trkpt lat="42.89367" lon="1.16788">
        <ele>875.6</ele>
        <time>2025-06-22T08:42:45Z</time>
      </trkpt>
      <trkpt lat="42.89375" lon="1.16791">
        <ele>875.6</ele>
        <time>2025-06-22T08:42:48Z</time>
      </trkpt>
      <trkpt lat="42.89383" lon="1.16795">
        <ele>875.6</ele>
        <time>2025-06-22T08:42:51Z</time>
      </trkpt>
      <trkpt lat="42.89399" lon="1.16804">
        <ele>875.6</ele>
        <time>2025-06-22T08:42:57Z</time>
      </trkpt>
      <trkpt lat="42.89407" lon="1.1681">
        <ele>875.6</ele>
        <time>2025-06-22T08:43:02Z</time>
      </trkpt>
      <trkpt lat="42.89413" lon="1.16813">
        <ele>875.6</ele>
        <time>2025-06-22T08:43:09Z</time>
      </trkpt>
      <trkpt lat="42.89416" lon="1.16817">
        <ele>875.6</ele>
        <time>2025-06-22T08:43:14Z</time>
      </trkpt>
      <trkpt lat="42.89417" lon="1.16813">
        <ele>875.6</ele>
        <time>2025-06-22T08:46:52Z</time>
      </trkpt>
      <trkpt lat="42.89418" lon="1.16812">
        <ele>875.6</ele>
        <time>2025-06-22T08:46:53Z</time>
      </trkpt>
      <trkpt lat="42.89425" lon="1.16798">
        <ele>875.6</ele>
        <time>2025-06-22T08:46:59Z</time>
      </trkpt>
      <trkpt lat="42.89431" lon="1.16789">
        <ele>875.6</ele>
        <time>2025-06-22T08:47:04Z</time>
      </trkpt>
      <trkpt lat="42.89434" lon="1.1678">
        <ele>876</ele>
        <time>2025-06-22T08:47:07Z</time>
      </trkpt>
      <trkpt lat="42.89436" lon="1.16778">
        <ele>876.4</ele>
        <time>2025-06-22T08:47:08Z</time>
      </trkpt>
      <trkpt lat="42.89437" lon="1.16775">
        <ele>876.8</ele>
        <time>2025-06-22T08:47:09Z</time>
      </trkpt>
      <trkpt lat="42.89438" lon="1.16773">
        <ele>877.2</ele>
        <time>2025-06-22T08:47:10Z</time>
      </trkpt>
      <trkpt lat="42.89439" lon="1.16771">
        <ele>877.6</ele>
        <time>2025-06-22T08:47:11Z</time>
      </trkpt>
      <trkpt lat="42.89443" lon="1.16761">
        <ele>877.6</ele>
        <time>2025-06-22T08:47:16Z</time>
      </trkpt>
      <trkpt lat="42.89449" lon="1.16747">
        <ele>878</ele>
        <time>2025-06-22T08:47:24Z</time>
      </trkpt>
      <trkpt lat="42.8945" lon="1.16745">
        <ele>878.6</ele>
        <time>2025-06-22T08:47:25Z</time>
      </trkpt>
      <trkpt lat="42.89451" lon="1.16743">
        <ele>879.4</ele>
        <time>2025-06-22T08:47:26Z</time>
      </trkpt>
      <trkpt lat="42.89453" lon="1.16739">
        <ele>879.8</ele>
        <time>2025-06-22T08:47:27Z</time>
      </trkpt>
      <trkpt lat="42.89468" lon="1.16713">
        <ele>879.8</ele>
        <time>2025-06-22T08:47:35Z</time>
      </trkpt>
      <trkpt lat="42.89475" lon="1.16704">
        <ele>880.2</ele>
        <time>2025-06-22T08:47:38Z</time>
      </trkpt>
      <trkpt lat="42.89477" lon="1.16702">
        <ele>880.6</ele>
        <time>2025-06-22T08:47:39Z</time>
      </trkpt>
      <trkpt lat="42.89479" lon="1.16699">
        <ele>881</ele>
        <time>2025-06-22T08:47:40Z</time>
      </trkpt>
      <trkpt lat="42.89481" lon="1.16697">
        <ele>881.4</ele>
        <time>2025-06-22T08:47:41Z</time>
      </trkpt>
      <trkpt lat="42.89484" lon="1.16693">
        <ele>881.8</ele>
        <time>2025-06-22T08:47:42Z</time>
      </trkpt>
      <trkpt lat="42.89496" lon="1.16677">
        <ele>881.8</ele>
        <time>2025-06-22T08:47:48Z</time>
      </trkpt>
      <trkpt lat="42.89499" lon="1.16672">
        <ele>882.2</ele>
        <time>2025-06-22T08:47:50Z</time>
      </trkpt>
      <trkpt lat="42.89501" lon="1.16669">
        <ele>882.6</ele>
        <time>2025-06-22T08:47:51Z</time>
      </trkpt>
      <trkpt lat="42.89502" lon="1.16667">
        <ele>883</ele>
        <time>2025-06-22T08:47:52Z</time>
      </trkpt>
      <trkpt lat="42.89504" lon="1.16663">
        <ele>883.4</ele>
        <time>2025-06-22T08:47:53Z</time>
      </trkpt>
      <trkpt lat="42.89505" lon="1.1666">
        <ele>883.8</ele>
        <time>2025-06-22T08:47:54Z</time>
      </trkpt>
      <trkpt lat="42.89515" lon="1.16642">
        <ele>884.4</ele>
        <time>2025-06-22T08:47:59Z</time>
      </trkpt>
      <trkpt lat="42.89516" lon="1.16639">
        <ele>884.8</ele>
        <time>2025-06-22T08:48:00Z</time>
      </trkpt>
      <trkpt lat="42.89518" lon="1.16636">
        <ele>885.2</ele>
        <time>2025-06-22T08:48:01Z</time>
      </trkpt>
      <trkpt lat="42.89522" lon="1.16629">
        <ele>886</ele>
        <time>2025-06-22T08:48:02Z</time>
      </trkpt>
      <trkpt lat="42.89526" lon="1.16618">
        <ele>886.4</ele>
        <time>2025-06-22T08:48:06Z</time>
      </trkpt>
      <trkpt lat="42.89527" lon="1.16615">
        <ele>886.8</ele>
        <time>2025-06-22T08:48:07Z</time>
      </trkpt>
      <trkpt lat="42.89529" lon="1.16611">
        <ele>887.4</ele>
        <time>2025-06-22T08:48:08Z</time>
      </trkpt>
      <trkpt lat="42.8953" lon="1.16608">
        <ele>887.8</ele>
        <time>2025-06-22T08:48:09Z</time>
      </trkpt>
      <trkpt lat="42.89532" lon="1.16604">
        <ele>888.2</ele>
        <time>2025-06-22T08:48:10Z</time>
      </trkpt>
      <trkpt lat="42.8954" lon="1.16591">
        <ele>888.2</ele>
        <time>2025-06-22T08:48:14Z</time>
      </trkpt>
      <trkpt lat="42.89542" lon="1.16588">
        <ele>889</ele>
        <time>2025-06-22T08:48:15Z</time>
      </trkpt>
      <trkpt lat="42.89543" lon="1.16585">
        <ele>889.4</ele>
        <time>2025-06-22T08:48:16Z</time>
      </trkpt>
      <trkpt lat="42.89544" lon="1.16582">
        <ele>890</ele>
        <time>2025-06-22T08:48:17Z</time>
      </trkpt>
      <trkpt lat="42.89546" lon="1.16578">
        <ele>890.4</ele>
        <time>2025-06-22T08:48:18Z</time>
      </trkpt>
      <trkpt lat="42.8955" lon="1.16568">
        <ele>890.4</ele>
        <time>2025-06-22T08:48:21Z</time>
      </trkpt>
      <trkpt lat="42.89551" lon="1.16564">
        <ele>890.8</ele>
        <time>2025-06-22T08:48:22Z</time>
      </trkpt>
      <trkpt lat="42.89552" lon="1.16562">
        <ele>891.2</ele>
        <time>2025-06-22T08:48:23Z</time>
      </trkpt>
      <trkpt lat="42.89552" lon="1.16559">
        <ele>891.6</ele>
        <time>2025-06-22T08:48:24Z</time>
      </trkpt>
      <trkpt lat="42.89553" lon="1.16556">
        <ele>892</ele>
        <time>2025-06-22T08:48:25Z</time>
      </trkpt>
      <trkpt lat="42.89554" lon="1.16552">
        <ele>892.6</ele>
        <time>2025-06-22T08:48:26Z</time>
      </trkpt>
      <trkpt lat="42.89556" lon="1.16542">
        <ele>892.6</ele>
        <time>2025-06-22T08:48:29Z</time>
      </trkpt>
      <trkpt lat="42.8956" lon="1.16533">
        <ele>893</ele>
        <time>2025-06-22T08:48:32Z</time>
      </trkpt>
      <trkpt lat="42.89561" lon="1.1653">
        <ele>893.4</ele>
        <time>2025-06-22T08:48:33Z</time>
      </trkpt>
      <trkpt lat="42.89562" lon="1.16526">
        <ele>893.8</ele>
        <time>2025-06-22T08:48:34Z</time>
      </trkpt>
      <trkpt lat="42.89563" lon="1.16523">
        <ele>894.2</ele>
        <time>2025-06-22T08:48:35Z</time>
      </trkpt>
      <trkpt lat="42.89563" lon="1.16519">
        <ele>894.6</ele>
        <time>2025-06-22T08:48:36Z</time>
      </trkpt>
      <trkpt lat="42.89568" lon="1.16504">
        <ele>894.6</ele>
        <time>2025-06-22T08:48:41Z</time>
      </trkpt>
      <trkpt lat="42.89569" lon="1.165">
        <ele>895</ele>
        <time>2025-06-22T08:48:42Z</time>
      </trkpt>
      <trkpt lat="42.8957" lon="1.16497">
        <ele>895.6</ele>
        <time>2025-06-22T08:48:43Z</time>
      </trkpt>
      <trkpt lat="42.89571" lon="1.16494">
        <ele>896</ele>
        <time>2025-06-22T08:48:44Z</time>
      </trkpt>
      <trkpt lat="42.89572" lon="1.1649">
        <ele>896.4</ele>
        <time>2025-06-22T08:48:45Z</time>
      </trkpt>
      <trkpt lat="42.89573" lon="1.16486">
        <ele>896.8</ele>
        <time>2025-06-22T08:48:46Z</time>
      </trkpt>
      <trkpt lat="42.89574" lon="1.16483">
        <ele>896.8</ele>
        <time>2025-06-22T08:48:47Z</time>
      </trkpt>
      <trkpt lat="42.89581" lon="1.16459">
        <ele>896.8</ele>
        <time>2025-06-22T08:48:54Z</time>
      </trkpt>
      <trkpt lat="42.89582" lon="1.16455">
        <ele>897.2</ele>
        <time>2025-06-22T08:48:55Z</time>
      </trkpt>
      <trkpt lat="42.89583" lon="1.16452">
        <ele>897.6</ele>
        <time>2025-06-22T08:48:56Z</time>
      </trkpt>
      <trkpt lat="42.89584" lon="1.16448">
        <ele>898</ele>
        <time>2025-06-22T08:48:57Z</time>
      </trkpt>
      <trkpt lat="42.89585" lon="1.16446">
        <ele>898.4</ele>
        <time>2025-06-22T08:48:58Z</time>
      </trkpt>
      <trkpt lat="42.89586" lon="1.16443">
        <ele>898.8</ele>
        <time>2025-06-22T08:48:59Z</time>
      </trkpt>
      <trkpt lat="42.89589" lon="1.16433">
        <ele>898.8</ele>
        <time>2025-06-22T08:49:02Z</time>
      </trkpt>
      <trkpt lat="42.89593" lon="1.16415">
        <ele>899.2</ele>
        <time>2025-06-22T08:49:07Z</time>
      </trkpt>
      <trkpt lat="42.89593" lon="1.16411">
        <ele>899.6</ele>
        <time>2025-06-22T08:49:08Z</time>
      </trkpt>
      <trkpt lat="42.89594" lon="1.16408">
        <ele>900</ele>
        <time>2025-06-22T08:49:09Z</time>
      </trkpt>
      <trkpt lat="42.89595" lon="1.16406">
        <ele>900.4</ele>
        <time>2025-06-22T08:49:10Z</time>
      </trkpt>
      <trkpt lat="42.89596" lon="1.16402">
        <ele>900.8</ele>
        <time>2025-06-22T08:49:11Z</time>
      </trkpt>
      <trkpt lat="42.89598" lon="1.16393">
        <ele>900.8</ele>
        <time>2025-06-22T08:49:14Z</time>
      </trkpt>
      <trkpt lat="42.89602" lon="1.16376">
        <ele>900.8</ele>
        <time>2025-06-22T08:49:19Z</time>
      </trkpt>
      <trkpt lat="42.89608" lon="1.16361">
        <ele>901.2</ele>
        <time>2025-06-22T08:49:24Z</time>
      </trkpt>
      <trkpt lat="42.89609" lon="1.16359">
        <ele>901.6</ele>
        <time>2025-06-22T08:49:25Z</time>
      </trkpt>
      <trkpt lat="42.8961" lon="1.16356">
        <ele>902</ele>
        <time>2025-06-22T08:49:26Z</time>
      </trkpt>
      <trkpt lat="42.89611" lon="1.16352">
        <ele>902.4</ele>
        <time>2025-06-22T08:49:27Z</time>
      </trkpt>
      <trkpt lat="42.89612" lon="1.16348">
        <ele>902.8</ele>
        <time>2025-06-22T08:49:28Z</time>
      </trkpt>
      <trkpt lat="42.89614" lon="1.16341">
        <ele>902.8</ele>
        <time>2025-06-22T08:49:30Z</time>
      </trkpt>
      <trkpt lat="42.89616" lon="1.16324">
        <ele>902.8</ele>
        <time>2025-06-22T08:49:36Z</time>
      </trkpt>
      <trkpt lat="42.89619" lon="1.16319">
        <ele>903.2</ele>
        <time>2025-06-22T08:49:38Z</time>
      </trkpt>
      <trkpt lat="42.8962" lon="1.16314">
        <ele>903.6</ele>
        <time>2025-06-22T08:49:39Z</time>
      </trkpt>
      <trkpt lat="42.8962" lon="1.16309">
        <ele>904.2</ele>
        <time>2025-06-22T08:49:40Z</time>
      </trkpt>
      <trkpt lat="42.89622" lon="1.16305">
        <ele>904.6</ele>
        <time>2025-06-22T08:49:41Z</time>
      </trkpt>
      <trkpt lat="42.89623" lon="1.163">
        <ele>905</ele>
        <time>2025-06-22T08:49:42Z</time>
      </trkpt>
      <trkpt lat="42.89624" lon="1.16296">
        <ele>905</ele>
        <time>2025-06-22T08:49:43Z</time>
      </trkpt>
      <trkpt lat="42.89632" lon="1.1628">
        <ele>905</ele>
        <time>2025-06-22T08:49:48Z</time>
      </trkpt>
      <trkpt lat="42.89645" lon="1.16254">
        <ele>905</ele>
        <time>2025-06-22T08:49:56Z</time>
      </trkpt>
      <trkpt lat="42.89647" lon="1.16243">
        <ele>905.4</ele>
        <time>2025-06-22T08:50:00Z</time>
      </trkpt>
      <trkpt lat="42.89649" lon="1.1624">
        <ele>905.8</ele>
        <time>2025-06-22T08:50:01Z</time>
      </trkpt>
      <trkpt lat="42.8965" lon="1.16237">
        <ele>906.2</ele>
        <time>2025-06-22T08:50:02Z</time>
      </trkpt>
      <trkpt lat="42.89652" lon="1.16235">
        <ele>906.6</ele>
        <time>2025-06-22T08:50:03Z</time>
      </trkpt>
      <trkpt lat="42.89654" lon="1.16232">
        <ele>907</ele>
        <time>2025-06-22T08:50:04Z</time>
      </trkpt>
      <trkpt lat="42.89663" lon="1.16221">
        <ele>907</ele>
        <time>2025-06-22T08:50:07Z</time>
      </trkpt>
      <trkpt lat="42.89682" lon="1.16203">
        <ele>907</ele>
        <time>2025-06-22T08:50:15Z</time>
      </trkpt>
      <trkpt lat="42.89684" lon="1.16201">
        <ele>907.4</ele>
        <time>2025-06-22T08:50:16Z</time>
      </trkpt>
      <trkpt lat="42.89686" lon="1.16199">
        <ele>907.8</ele>
        <time>2025-06-22T08:50:17Z</time>
      </trkpt>
      <trkpt lat="42.89688" lon="1.16198">
        <ele>908.2</ele>
        <time>2025-06-22T08:50:18Z</time>
      </trkpt>
      <trkpt lat="42.8969" lon="1.16197">
        <ele>909</ele>
        <time>2025-06-22T08:50:19Z</time>
      </trkpt>
      <trkpt lat="42.89696" lon="1.16192">
        <ele>909</ele>
        <time>2025-06-22T08:50:22Z</time>
      </trkpt>
      <trkpt lat="42.89707" lon="1.16188">
        <ele>909.4</ele>
        <time>2025-06-22T08:50:27Z</time>
      </trkpt>
      <trkpt lat="42.89709" lon="1.16188">
        <ele>910</ele>
        <time>2025-06-22T08:50:28Z</time>
      </trkpt>
      <trkpt lat="42.89711" lon="1.16187">
        <ele>910.4</ele>
        <time>2025-06-22T08:50:29Z</time>
      </trkpt>
      <trkpt lat="42.89713" lon="1.16186">
        <ele>910.8</ele>
        <time>2025-06-22T08:50:30Z</time>
      </trkpt>
      <trkpt lat="42.89715" lon="1.16186">
        <ele>911.2</ele>
        <time>2025-06-22T08:50:31Z</time>
      </trkpt>
      <trkpt lat="42.89725" lon="1.16184">
        <ele>911.2</ele>
        <time>2025-06-22T08:50:36Z</time>
      </trkpt>
      <trkpt lat="42.89727" lon="1.16183">
        <ele>911.6</ele>
        <time>2025-06-22T08:50:37Z</time>
      </trkpt>
      <trkpt lat="42.8973" lon="1.16182">
        <ele>912</ele>
        <time>2025-06-22T08:50:38Z</time>
      </trkpt>
      <trkpt lat="42.89732" lon="1.16182">
        <ele>912.4</ele>
        <time>2025-06-22T08:50:39Z</time>
      </trkpt>
      <trkpt lat="42.89734" lon="1.16181">
        <ele>912.8</ele>
        <time>2025-06-22T08:50:40Z</time>
      </trkpt>
      <trkpt lat="42.89736" lon="1.16181">
        <ele>913.2</ele>
        <time>2025-06-22T08:50:41Z</time>
      </trkpt>
      <trkpt lat="42.89741" lon="1.1618">
        <ele>913.2</ele>
        <time>2025-06-22T08:50:43Z</time>
      </trkpt>
      <trkpt lat="42.89744" lon="1.16179">
        <ele>913.6</ele>
        <time>2025-06-22T08:50:45Z</time>
      </trkpt>
      <trkpt lat="42.89747" lon="1.16177">
        <ele>914.2</ele>
        <time>2025-06-22T08:50:46Z</time>
      </trkpt>
      <trkpt lat="42.89748" lon="1.16175">
        <ele>914.6</ele>
        <time>2025-06-22T08:50:47Z</time>
      </trkpt>
      <trkpt lat="42.8975" lon="1.16174">
        <ele>915</ele>
        <time>2025-06-22T08:50:48Z</time>
      </trkpt>
      <trkpt lat="42.89752" lon="1.16172">
        <ele>915.6</ele>
        <time>2025-06-22T08:50:49Z</time>
      </trkpt>
      <trkpt lat="42.89753" lon="1.16172">
        <ele>915.6</ele>
        <time>2025-06-22T08:50:50Z</time>
      </trkpt>
      <trkpt lat="42.89755" lon="1.16171">
        <ele>916</ele>
        <time>2025-06-22T08:50:51Z</time>
      </trkpt>
      <trkpt lat="42.89758" lon="1.1617">
        <ele>916.4</ele>
        <time>2025-06-22T08:50:52Z</time>
      </trkpt>
      <trkpt lat="42.8976" lon="1.1617">
        <ele>916.8</ele>
        <time>2025-06-22T08:50:53Z</time>
      </trkpt>
      <trkpt lat="42.89762" lon="1.16168">
        <ele>917.2</ele>
        <time>2025-06-22T08:50:54Z</time>
      </trkpt>
      <trkpt lat="42.89764" lon="1.16167">
        <ele>917.6</ele>
        <time>2025-06-22T08:50:55Z</time>
      </trkpt>
      <trkpt lat="42.89771" lon="1.16162">
        <ele>917.6</ele>
        <time>2025-06-22T08:50:59Z</time>
      </trkpt>
      <trkpt lat="42.89777" lon="1.16158">
        <ele>918</ele>
        <time>2025-06-22T08:51:02Z</time>
      </trkpt>
      <trkpt lat="42.89779" lon="1.16156">
        <ele>918.4</ele>
        <time>2025-06-22T08:51:03Z</time>
      </trkpt>
      <trkpt lat="42.8978" lon="1.16155">
        <ele>918.8</ele>
        <time>2025-06-22T08:51:04Z</time>
      </trkpt>
      <trkpt lat="42.89782" lon="1.16153">
        <ele>919.2</ele>
        <time>2025-06-22T08:51:05Z</time>
      </trkpt>
      <trkpt lat="42.89784" lon="1.16152">
        <ele>919.8</ele>
        <time>2025-06-22T08:51:06Z</time>
      </trkpt>
      <trkpt lat="42.89791" lon="1.16149">
        <ele>919.8</ele>
        <time>2025-06-22T08:51:10Z</time>
      </trkpt>
      <trkpt lat="42.898" lon="1.16143">
        <ele>919.8</ele>
        <time>2025-06-22T08:51:16Z</time>
      </trkpt>
      <trkpt lat="42.89804" lon="1.16141">
        <ele>920.2</ele>
        <time>2025-06-22T08:51:19Z</time>
      </trkpt>
      <trkpt lat="42.89806" lon="1.1614">
        <ele>921.8</ele>
        <time>2025-06-22T08:51:40Z</time>
      </trkpt>
      <trkpt lat="42.89808" lon="1.16139">
        <ele>921.8</ele>
        <time>2025-06-22T08:51:41Z</time>
      </trkpt>
      <trkpt lat="42.89822" lon="1.16133">
        <ele>921.8</ele>
        <time>2025-06-22T08:51:47Z</time>
      </trkpt>
      <trkpt lat="42.89838" lon="1.16134">
        <ele>922.2</ele>
        <time>2025-06-22T08:51:54Z</time>
      </trkpt>
      <trkpt lat="42.89841" lon="1.16134">
        <ele>922.6</ele>
        <time>2025-06-22T08:51:55Z</time>
      </trkpt>
      <trkpt lat="42.89843" lon="1.16134">
        <ele>923</ele>
        <time>2025-06-22T08:51:56Z</time>
      </trkpt>
      <trkpt lat="42.89846" lon="1.16134">
        <ele>923.8</ele>
        <time>2025-06-22T08:51:57Z</time>
      </trkpt>
      <trkpt lat="42.89858" lon="1.16136">
        <ele>923.8</ele>
        <time>2025-06-22T08:52:02Z</time>
      </trkpt>
      <trkpt lat="42.89867" lon="1.16138">
        <ele>924.2</ele>
        <time>2025-06-22T08:52:06Z</time>
      </trkpt>
      <trkpt lat="42.89869" lon="1.16138">
        <ele>924.6</ele>
        <time>2025-06-22T08:52:07Z</time>
      </trkpt>
      <trkpt lat="42.89872" lon="1.16139">
        <ele>925</ele>
        <time>2025-06-22T08:52:08Z</time>
      </trkpt>
      <trkpt lat="42.89874" lon="1.1614">
        <ele>925.6</ele>
        <time>2025-06-22T08:52:09Z</time>
      </trkpt>
      <trkpt lat="42.89877" lon="1.16141">
        <ele>926</ele>
        <time>2025-06-22T08:52:10Z</time>
      </trkpt>
      <trkpt lat="42.89887" lon="1.16145">
        <ele>926.4</ele>
        <time>2025-06-22T08:52:14Z</time>
      </trkpt>
      <trkpt lat="42.89889" lon="1.16146">
        <ele>926.8</ele>
        <time>2025-06-22T08:52:15Z</time>
      </trkpt>
      <trkpt lat="42.89891" lon="1.16147">
        <ele>927.2</ele>
        <time>2025-06-22T08:52:16Z</time>
      </trkpt>
      <trkpt lat="42.89893" lon="1.16148">
        <ele>927.6</ele>
        <time>2025-06-22T08:52:17Z</time>
      </trkpt>
      <trkpt lat="42.89895" lon="1.1615">
        <ele>928</ele>
        <time>2025-06-22T08:52:18Z</time>
      </trkpt>
      <trkpt lat="42.89906" lon="1.16155">
        <ele>928</ele>
        <time>2025-06-22T08:52:24Z</time>
      </trkpt>
      <trkpt lat="42.89908" lon="1.16155">
        <ele>928.4</ele>
        <time>2025-06-22T08:52:25Z</time>
      </trkpt>
      <trkpt lat="42.8991" lon="1.16156">
        <ele>928.8</ele>
        <time>2025-06-22T08:52:26Z</time>
      </trkpt>
      <trkpt lat="42.89913" lon="1.16157">
        <ele>929.2</ele>
        <time>2025-06-22T08:52:27Z</time>
      </trkpt>
      <trkpt lat="42.89915" lon="1.16158">
        <ele>929.6</ele>
        <time>2025-06-22T08:52:28Z</time>
      </trkpt>
      <trkpt lat="42.89918" lon="1.16159">
        <ele>930</ele>
        <time>2025-06-22T08:52:29Z</time>
      </trkpt>
      <trkpt lat="42.8992" lon="1.16159">
        <ele>930</ele>
        <time>2025-06-22T08:52:30Z</time>
      </trkpt>
      <trkpt lat="42.89932" lon="1.1616">
        <ele>930</ele>
        <time>2025-06-22T08:52:35Z</time>
      </trkpt>
      <trkpt lat="42.89938" lon="1.16162">
        <ele>930.6</ele>
        <time>2025-06-22T08:52:38Z</time>
      </trkpt>
      <trkpt lat="42.8994" lon="1.16163">
        <ele>931</ele>
        <time>2025-06-22T08:52:39Z</time>
      </trkpt>
      <trkpt lat="42.89942" lon="1.16163">
        <ele>931.4</ele>
        <time>2025-06-22T08:52:40Z</time>
      </trkpt>
      <trkpt lat="42.89944" lon="1.16164">
        <ele>931.8</ele>
        <time>2025-06-22T08:52:41Z</time>
      </trkpt>
      <trkpt lat="42.89946" lon="1.16165">
        <ele>932.2</ele>
        <time>2025-06-22T08:52:42Z</time>
      </trkpt>
      <trkpt lat="42.89953" lon="1.16171">
        <ele>932.2</ele>
        <time>2025-06-22T08:52:46Z</time>
      </trkpt>
      <trkpt lat="42.89954" lon="1.16173">
        <ele>932.6</ele>
        <time>2025-06-22T08:52:47Z</time>
      </trkpt>
      <trkpt lat="42.89954" lon="1.16176">
        <ele>933</ele>
        <time>2025-06-22T08:52:48Z</time>
      </trkpt>
      <trkpt lat="42.89956" lon="1.16179">
        <ele>933.4</ele>
        <time>2025-06-22T08:52:49Z</time>
      </trkpt>
      <trkpt lat="42.89958" lon="1.16182">
        <ele>933.8</ele>
        <time>2025-06-22T08:52:50Z</time>
      </trkpt>
      <trkpt lat="42.8996" lon="1.16185">
        <ele>934.4</ele>
        <time>2025-06-22T08:52:51Z</time>
      </trkpt>
      <trkpt lat="42.89969" lon="1.16194">
        <ele>934.8</ele>
        <time>2025-06-22T08:52:56Z</time>
      </trkpt>
      <trkpt lat="42.8997" lon="1.16195">
        <ele>935.2</ele>
        <time>2025-06-22T08:52:57Z</time>
      </trkpt>
      <trkpt lat="42.89971" lon="1.16196">
        <ele>935.6</ele>
        <time>2025-06-22T08:52:58Z</time>
      </trkpt>
      <trkpt lat="42.89972" lon="1.16197">
        <ele>936.2</ele>
        <time>2025-06-22T08:52:59Z</time>
      </trkpt>
      <trkpt lat="42.89974" lon="1.16199">
        <ele>936.6</ele>
        <time>2025-06-22T08:53:00Z</time>
      </trkpt>
      <trkpt lat="42.89978" lon="1.16202">
        <ele>937</ele>
        <time>2025-06-22T08:53:02Z</time>
      </trkpt>
      <trkpt lat="42.89981" lon="1.16203">
        <ele>937.4</ele>
        <time>2025-06-22T08:53:03Z</time>
      </trkpt>
      <trkpt lat="42.89983" lon="1.16203">
        <ele>937.8</ele>
        <time>2025-06-22T08:53:04Z</time>
      </trkpt>
      <trkpt lat="42.89985" lon="1.16203">
        <ele>938.2</ele>
        <time>2025-06-22T08:53:05Z</time>
      </trkpt>
      <trkpt lat="42.89987" lon="1.16203">
        <ele>938.6</ele>
        <time>2025-06-22T08:53:06Z</time>
      </trkpt>
      <trkpt lat="42.89994" lon="1.16201">
        <ele>939</ele>
        <time>2025-06-22T08:53:09Z</time>
      </trkpt>
      <trkpt lat="42.89996" lon="1.16201">
        <ele>939.4</ele>
        <time>2025-06-22T08:53:10Z</time>
      </trkpt>
      <trkpt lat="42.89998" lon="1.162">
        <ele>939.8</ele>
        <time>2025-06-22T08:53:11Z</time>
      </trkpt>
      <trkpt lat="42.9" lon="1.162">
        <ele>940.6</ele>
        <time>2025-06-22T08:53:12Z</time>
      </trkpt>
      <trkpt lat="42.90012" lon="1.162">
        <ele>940.6</ele>
        <time>2025-06-22T08:53:18Z</time>
      </trkpt>
      <trkpt lat="42.90016" lon="1.16201">
        <ele>941</ele>
        <time>2025-06-22T08:53:20Z</time>
      </trkpt>
      <trkpt lat="42.90017" lon="1.16202">
        <ele>941.6</ele>
        <time>2025-06-22T08:53:21Z</time>
      </trkpt>
      <trkpt lat="42.90018" lon="1.16202">
        <ele>942</ele>
        <time>2025-06-22T08:53:22Z</time>
      </trkpt>
      <trkpt lat="42.9002" lon="1.16203">
        <ele>942.4</ele>
        <time>2025-06-22T08:53:23Z</time>
      </trkpt>
      <trkpt lat="42.90021" lon="1.16205">
        <ele>942.8</ele>
        <time>2025-06-22T08:53:24Z</time>
      </trkpt>
      <trkpt lat="42.90031" lon="1.16211">
        <ele>943.2</ele>
        <time>2025-06-22T08:53:31Z</time>
      </trkpt>
      <trkpt lat="42.90033" lon="1.16212">
        <ele>943.6</ele>
        <time>2025-06-22T08:53:32Z</time>
      </trkpt>
      <trkpt lat="42.90035" lon="1.16212">
        <ele>944</ele>
        <time>2025-06-22T08:53:33Z</time>
      </trkpt>
      <trkpt lat="42.90035" lon="1.16212">
        <ele>944.4</ele>
        <time>2025-06-22T08:53:34Z</time>
      </trkpt>
      <trkpt lat="42.90036" lon="1.16213">
        <ele>945</ele>
        <time>2025-06-22T08:53:35Z</time>
      </trkpt>
      <trkpt lat="42.90042" lon="1.16213">
        <ele>945.4</ele>
        <time>2025-06-22T08:53:38Z</time>
      </trkpt>
      <trkpt lat="42.90044" lon="1.16213">
        <ele>945.8</ele>
        <time>2025-06-22T08:53:39Z</time>
      </trkpt>
      <trkpt lat="42.90046" lon="1.16214">
        <ele>946.2</ele>
        <time>2025-06-22T08:53:40Z</time>
      </trkpt>
      <trkpt lat="42.90047" lon="1.16214">
        <ele>946.6</ele>
        <time>2025-06-22T08:53:41Z</time>
      </trkpt>
      <trkpt lat="42.90048" lon="1.16214">
        <ele>947</ele>
        <time>2025-06-22T08:53:42Z</time>
      </trkpt>
      <trkpt lat="42.90096" lon="1.16173">
        <ele>960.2</ele>
        <time>2025-06-22T08:54:22Z</time>
      </trkpt>
      <trkpt lat="42.90097" lon="1.16172">
        <ele>960.2</ele>
        <time>2025-06-22T08:54:23Z</time>
      </trkpt>
      <trkpt lat="42.90102" lon="1.16168">
        <ele>961</ele>
        <time>2025-06-22T08:54:26Z</time>
      </trkpt>
      <trkpt lat="42.90103" lon="1.16166">
        <ele>961.4</ele>
        <time>2025-06-22T08:54:27Z</time>
      </trkpt>
      <trkpt lat="42.90105" lon="1.16165">
        <ele>961.8</ele>
        <time>2025-06-22T08:54:28Z</time>
      </trkpt>
      <trkpt lat="42.90106" lon="1.16163">
        <ele>962.2</ele>
        <time>2025-06-22T08:54:29Z</time>
      </trkpt>
      <trkpt lat="42.90109" lon="1.1616">
        <ele>962.2</ele>
        <time>2025-06-22T08:54:31Z</time>
      </trkpt>
      <trkpt lat="42.90123" lon="1.16151">
        <ele>962.2</ele>
        <time>2025-06-22T08:54:38Z</time>
      </trkpt>
      <trkpt lat="42.90131" lon="1.16147">
        <ele>962.2</ele>
        <time>2025-06-22T08:54:43Z</time>
      </trkpt>
      <trkpt lat="42.90141" lon="1.16144">
        <ele>962.2</ele>
        <time>2025-06-22T08:54:48Z</time>
      </trkpt>
      <trkpt lat="42.90144" lon="1.16143">
        <ele>962.2</ele>
        <time>2025-06-22T08:54:49Z</time>
      </trkpt>
      <trkpt lat="42.9015" lon="1.1614">
        <ele>962.2</ele>
        <time>2025-06-22T08:54:52Z</time>
      </trkpt>
      <trkpt lat="42.90155" lon="1.16134">
        <ele>962.2</ele>
        <time>2025-06-22T08:54:54Z</time>
      </trkpt>
      <trkpt lat="42.90156" lon="1.16129">
        <ele>961.6</ele>
        <time>2025-06-22T08:54:55Z</time>
      </trkpt>
      <trkpt lat="42.90158" lon="1.16123">
        <ele>961.2</ele>
        <time>2025-06-22T08:54:56Z</time>
      </trkpt>
      <trkpt lat="42.9016" lon="1.16117">
        <ele>960.4</ele>
        <time>2025-06-22T08:54:57Z</time>
      </trkpt>
      <trkpt lat="42.90161" lon="1.16112">
        <ele>959.6</ele>
        <time>2025-06-22T08:54:58Z</time>
      </trkpt>
      <trkpt lat="42.90162" lon="1.16106">
        <ele>958.8</ele>
        <time>2025-06-22T08:54:59Z</time>
      </trkpt>
      <trkpt lat="42.90163" lon="1.16098">
        <ele>958</ele>
        <time>2025-06-22T08:55:00Z</time>
      </trkpt>
      <trkpt lat="42.90164" lon="1.16091">
        <ele>957</ele>
        <time>2025-06-22T08:55:01Z</time>
      </trkpt>
      <trkpt lat="42.90165" lon="1.16086">
        <ele>956.2</ele>
        <time>2025-06-22T08:55:02Z</time>
      </trkpt>
      <trkpt lat="42.90166" lon="1.16081">
        <ele>955.4</ele>
        <time>2025-06-22T08:55:03Z</time>
      </trkpt>
      <trkpt lat="42.90169" lon="1.16075">
        <ele>954.6</ele>
        <time>2025-06-22T08:55:04Z</time>
      </trkpt>
      <trkpt lat="42.90171" lon="1.16072">
        <ele>953.6</ele>
        <time>2025-06-22T08:55:05Z</time>
      </trkpt>
      <trkpt lat="42.90173" lon="1.16068">
        <ele>952.8</ele>
        <time>2025-06-22T08:55:06Z</time>
      </trkpt>
      <trkpt lat="42.90175" lon="1.16062">
        <ele>951.8</ele>
        <time>2025-06-22T08:55:07Z</time>
      </trkpt>
      <trkpt lat="42.90179" lon="1.16057">
        <ele>950.8</ele>
        <time>2025-06-22T08:55:08Z</time>
      </trkpt>
      <trkpt lat="42.90182" lon="1.16053">
        <ele>950.2</ele>
        <time>2025-06-22T08:55:09Z</time>
      </trkpt>
      <trkpt lat="42.90185" lon="1.16048">
        <ele>949.4</ele>
        <time>2025-06-22T08:55:10Z</time>
      </trkpt>
      <trkpt lat="42.90188" lon="1.16045">
        <ele>948.6</ele>
        <time>2025-06-22T08:55:11Z</time>
      </trkpt>
      <trkpt lat="42.90191" lon="1.16041">
        <ele>947.8</ele>
        <time>2025-06-22T08:55:12Z</time>
      </trkpt>
      <trkpt lat="42.90195" lon="1.16034">
        <ele>947.2</ele>
        <time>2025-06-22T08:55:13Z</time>
      </trkpt>
      <trkpt lat="42.90199" lon="1.16028">
        <ele>946.6</ele>
        <time>2025-06-22T08:55:14Z</time>
      </trkpt>
      <trkpt lat="42.90203" lon="1.16023">
        <ele>945.8</ele>
        <time>2025-06-22T08:55:15Z</time>
      </trkpt>
      <trkpt lat="42.90206" lon="1.16018">
        <ele>944.4</ele>
        <time>2025-06-22T08:55:16Z</time>
      </trkpt>
      <trkpt lat="42.90209" lon="1.16013">
        <ele>943.6</ele>
        <time>2025-06-22T08:55:17Z</time>
      </trkpt>
      <trkpt lat="42.90213" lon="1.16008">
        <ele>943</ele>
        <time>2025-06-22T08:55:18Z</time>
      </trkpt>
      <trkpt lat="42.90217" lon="1.16004">
        <ele>942.2</ele>
        <time>2025-06-22T08:55:19Z</time>
      </trkpt>
      <trkpt lat="42.90222" lon="1.15998">
        <ele>941.6</ele>
        <time>2025-06-22T08:55:20Z</time>
      </trkpt>
      <trkpt lat="42.90225" lon="1.15992">
        <ele>940.8</ele>
        <time>2025-06-22T08:55:21Z</time>
      </trkpt>
      <trkpt lat="42.90229" lon="1.15986">
        <ele>940</ele>
        <time>2025-06-22T08:55:22Z</time>
      </trkpt>
      <trkpt lat="42.90234" lon="1.1598">
        <ele>939.4</ele>
        <time>2025-06-22T08:55:23Z</time>
      </trkpt>
      <trkpt lat="42.90238" lon="1.15974">
        <ele>938.6</ele>
        <time>2025-06-22T08:55:24Z</time>
      </trkpt>
      <trkpt lat="42.90243" lon="1.15968">
        <ele>938</ele>
        <time>2025-06-22T08:55:25Z</time>
      </trkpt>
      <trkpt lat="42.90248" lon="1.15964">
        <ele>937.2</ele>
        <time>2025-06-22T08:55:26Z</time>
      </trkpt>
      <trkpt lat="42.90253" lon="1.15959">
        <ele>936.6</ele>
        <time>2025-06-22T08:55:27Z</time>
      </trkpt>
      <trkpt lat="42.90258" lon="1.15954">
        <ele>936</ele>
        <time>2025-06-22T08:55:28Z</time>
      </trkpt>
      <trkpt lat="42.90261" lon="1.15949">
        <ele>935.2</ele>
        <time>2025-06-22T08:55:29Z</time>
      </trkpt>
      <trkpt lat="42.90265" lon="1.15943">
        <ele>934.6</ele>
        <time>2025-06-22T08:55:30Z</time>
      </trkpt>
      <trkpt lat="42.90268" lon="1.15938">
        <ele>934</ele>
        <time>2025-06-22T08:55:31Z</time>
      </trkpt>
      <trkpt lat="42.90271" lon="1.15932">
        <ele>933.2</ele>
        <time>2025-06-22T08:55:32Z</time>
      </trkpt>
      <trkpt lat="42.90273" lon="1.15927">
        <ele>932.2</ele>
        <time>2025-06-22T08:55:33Z</time>
      </trkpt>
      <trkpt lat="42.90274" lon="1.15922">
        <ele>931.4</ele>
        <time>2025-06-22T08:55:34Z</time>
      </trkpt>
      <trkpt lat="42.90276" lon="1.15917">
        <ele>930.6</ele>
        <time>2025-06-22T08:55:35Z</time>
      </trkpt>
      <trkpt lat="42.90276" lon="1.1591">
        <ele>929.6</ele>
        <time>2025-06-22T08:55:36Z</time>
      </trkpt>
      <trkpt lat="42.90277" lon="1.15905">
        <ele>928.6</ele>
        <time>2025-06-22T08:55:37Z</time>
      </trkpt>
      <trkpt lat="42.90279" lon="1.15899">
        <ele>927.8</ele>
        <time>2025-06-22T08:55:38Z</time>
      </trkpt>
      <trkpt lat="42.90281" lon="1.15893">
        <ele>927</ele>
        <time>2025-06-22T08:55:39Z</time>
      </trkpt>
      <trkpt lat="42.90283" lon="1.15886">
        <ele>925.4</ele>
        <time>2025-06-22T08:55:40Z</time>
      </trkpt>
      <trkpt lat="42.90286" lon="1.15881">
        <ele>924.6</ele>
        <time>2025-06-22T08:55:41Z</time>
      </trkpt>
      <trkpt lat="42.9029" lon="1.15874">
        <ele>923.8</ele>
        <time>2025-06-22T08:55:42Z</time>
      </trkpt>
      <trkpt lat="42.90294" lon="1.15867">
        <ele>922.8</ele>
        <time>2025-06-22T08:55:43Z</time>
      </trkpt>
      <trkpt lat="42.90298" lon="1.15859">
        <ele>922.2</ele>
        <time>2025-06-22T08:55:44Z</time>
      </trkpt>
      <trkpt lat="42.90301" lon="1.15851">
        <ele>921.6</ele>
        <time>2025-06-22T08:55:45Z</time>
      </trkpt>
      <trkpt lat="42.90303" lon="1.15843">
        <ele>920.8</ele>
        <time>2025-06-22T08:55:46Z</time>
      </trkpt>
      <trkpt lat="42.90306" lon="1.15836">
        <ele>920.2</ele>
        <time>2025-06-22T08:55:47Z</time>
      </trkpt>
      <trkpt lat="42.90309" lon="1.15829">
        <ele>919.6</ele>
        <time>2025-06-22T08:55:48Z</time>
      </trkpt>
      <trkpt lat="42.90313" lon="1.15816">
        <ele>919</ele>
        <time>2025-06-22T08:55:50Z</time>
      </trkpt>
      <trkpt lat="42.90316" lon="1.15809">
        <ele>918.6</ele>
        <time>2025-06-22T08:55:51Z</time>
      </trkpt>
      <trkpt lat="42.90319" lon="1.15804">
        <ele>918.2</ele>
        <time>2025-06-22T08:55:52Z</time>
      </trkpt>
      <trkpt lat="42.90321" lon="1.158">
        <ele>917.8</ele>
        <time>2025-06-22T08:55:53Z</time>
      </trkpt>
      <trkpt lat="42.90324" lon="1.15795">
        <ele>917.4</ele>
        <time>2025-06-22T08:55:54Z</time>
      </trkpt>
      <trkpt lat="42.90335" lon="1.15783">
        <ele>917.4</ele>
        <time>2025-06-22T08:55:59Z</time>
      </trkpt>
      <trkpt lat="42.90344" lon="1.15767">
        <ele>917.4</ele>
        <time>2025-06-22T08:56:03Z</time>
      </trkpt>
      <trkpt lat="42.90351" lon="1.15755">
        <ele>917.4</ele>
        <time>2025-06-22T08:56:07Z</time>
      </trkpt>
      <trkpt lat="42.90353" lon="1.1575">
        <ele>917.4</ele>
        <time>2025-06-22T08:56:08Z</time>
      </trkpt>
      <trkpt lat="42.90356" lon="1.1574">
        <ele>916.8</ele>
        <time>2025-06-22T08:56:10Z</time>
      </trkpt>
      <trkpt lat="42.90358" lon="1.15736">
        <ele>916.4</ele>
        <time>2025-06-22T08:56:11Z</time>
      </trkpt>
      <trkpt lat="42.9036" lon="1.15731">
        <ele>916</ele>
        <time>2025-06-22T08:56:12Z</time>
      </trkpt>
      <trkpt lat="42.90363" lon="1.15725">
        <ele>915.4</ele>
        <time>2025-06-22T08:56:13Z</time>
      </trkpt>
      <trkpt lat="42.90365" lon="1.15719">
        <ele>914.8</ele>
        <time>2025-06-22T08:56:14Z</time>
      </trkpt>
      <trkpt lat="42.90367" lon="1.15713">
        <ele>914.4</ele>
        <time>2025-06-22T08:56:15Z</time>
      </trkpt>
      <trkpt lat="42.90369" lon="1.15708">
        <ele>913.8</ele>
        <time>2025-06-22T08:56:16Z</time>
      </trkpt>
      <trkpt lat="42.90371" lon="1.15704">
        <ele>913</ele>
        <time>2025-06-22T08:56:17Z</time>
      </trkpt>
      <trkpt lat="42.90373" lon="1.15698">
        <ele>912.2</ele>
        <time>2025-06-22T08:56:18Z</time>
      </trkpt>
      <trkpt lat="42.90374" lon="1.15694">
        <ele>911.4</ele>
        <time>2025-06-22T08:56:19Z</time>
      </trkpt>
      <trkpt lat="42.90376" lon="1.15689">
        <ele>910.4</ele>
        <time>2025-06-22T08:56:20Z</time>
      </trkpt>
      <trkpt lat="42.90377" lon="1.15685">
        <ele>909.6</ele>
        <time>2025-06-22T08:56:21Z</time>
      </trkpt>
      <trkpt lat="42.90378" lon="1.1568">
        <ele>908.8</ele>
        <time>2025-06-22T08:56:22Z</time>
      </trkpt>
      <trkpt lat="42.9038" lon="1.15675">
        <ele>908.2</ele>
        <time>2025-06-22T08:56:23Z</time>
      </trkpt>
      <trkpt lat="42.90382" lon="1.1567">
        <ele>907.4</ele>
        <time>2025-06-22T08:56:24Z</time>
      </trkpt>
      <trkpt lat="42.90383" lon="1.15666">
        <ele>906.6</ele>
        <time>2025-06-22T08:56:25Z</time>
      </trkpt>
      <trkpt lat="42.90386" lon="1.15661">
        <ele>905.8</ele>
        <time>2025-06-22T08:56:26Z</time>
      </trkpt>
      <trkpt lat="42.90388" lon="1.15657">
        <ele>905</ele>
        <time>2025-06-22T08:56:27Z</time>
      </trkpt>
      <trkpt lat="42.90391" lon="1.15653">
        <ele>903.8</ele>
        <time>2025-06-22T08:56:28Z</time>
      </trkpt>
      <trkpt lat="42.90394" lon="1.15649">
        <ele>902.8</ele>
        <time>2025-06-22T08:56:29Z</time>
      </trkpt>
      <trkpt lat="42.90398" lon="1.1564">
        <ele>900.6</ele>
        <time>2025-06-22T08:56:30Z</time>
      </trkpt>
      <trkpt lat="42.90401" lon="1.15633">
        <ele>899.6</ele>
        <time>2025-06-22T08:56:31Z</time>
      </trkpt>
      <trkpt lat="42.90404" lon="1.15626">
        <ele>898.6</ele>
        <time>2025-06-22T08:56:32Z</time>
      </trkpt>
      <trkpt lat="42.90408" lon="1.15619">
        <ele>897.6</ele>
        <time>2025-06-22T08:56:33Z</time>
      </trkpt>
      <trkpt lat="42.90411" lon="1.15613">
        <ele>896.6</ele>
        <time>2025-06-22T08:56:34Z</time>
      </trkpt>
      <trkpt lat="42.90416" lon="1.15606">
        <ele>895.4</ele>
        <time>2025-06-22T08:56:35Z</time>
      </trkpt>
      <trkpt lat="42.9042" lon="1.15601">
        <ele>894.4</ele>
        <time>2025-06-22T08:56:36Z</time>
      </trkpt>
      <trkpt lat="42.90422" lon="1.15595">
        <ele>893.4</ele>
        <time>2025-06-22T08:56:37Z</time>
      </trkpt>
      <trkpt lat="42.90424" lon="1.15589">
        <ele>892.6</ele>
        <time>2025-06-22T08:56:38Z</time>
      </trkpt>
      <trkpt lat="42.90427" lon="1.15584">
        <ele>891.6</ele>
        <time>2025-06-22T08:56:39Z</time>
      </trkpt>
      <trkpt lat="42.9043" lon="1.15579">
        <ele>890.6</ele>
        <time>2025-06-22T08:56:40Z</time>
      </trkpt>
      <trkpt lat="42.90433" lon="1.15574">
        <ele>889.6</ele>
        <time>2025-06-22T08:56:41Z</time>
      </trkpt>
      <trkpt lat="42.90437" lon="1.15569">
        <ele>888.8</ele>
        <time>2025-06-22T08:56:42Z</time>
      </trkpt>
      <trkpt lat="42.90441" lon="1.15563">
        <ele>887.8</ele>
        <time>2025-06-22T08:56:43Z</time>
      </trkpt>
      <trkpt lat="42.90444" lon="1.15557">
        <ele>886.8</ele>
        <time>2025-06-22T08:56:44Z</time>
      </trkpt>
      <trkpt lat="42.90448" lon="1.15552">
        <ele>885.8</ele>
        <time>2025-06-22T08:56:45Z</time>
      </trkpt>
      <trkpt lat="42.90451" lon="1.15544">
        <ele>884.8</ele>
        <time>2025-06-22T08:56:46Z</time>
      </trkpt>
      <trkpt lat="42.90454" lon="1.15538">
        <ele>884</ele>
        <time>2025-06-22T08:56:47Z</time>
      </trkpt>
      <trkpt lat="42.90457" lon="1.1553">
        <ele>883</ele>
        <time>2025-06-22T08:56:48Z</time>
      </trkpt>
      <trkpt lat="42.9046" lon="1.15523">
        <ele>882</ele>
        <time>2025-06-22T08:56:49Z</time>
      </trkpt>
      <trkpt lat="42.90462" lon="1.15517">
        <ele>881</ele>
        <time>2025-06-22T08:56:50Z</time>
      </trkpt>
      <trkpt lat="42.90464" lon="1.15513">
        <ele>880</ele>
        <time>2025-06-22T08:56:51Z</time>
      </trkpt>
      <trkpt lat="42.90467" lon="1.15509">
        <ele>878.8</ele>
        <time>2025-06-22T08:56:52Z</time>
      </trkpt>
      <trkpt lat="42.9047" lon="1.15506">
        <ele>877.8</ele>
        <time>2025-06-22T08:56:53Z</time>
      </trkpt>
      <trkpt lat="42.90473" lon="1.15503">
        <ele>876.8</ele>
        <time>2025-06-22T08:56:54Z</time>
      </trkpt>
      <trkpt lat="42.90477" lon="1.155">
        <ele>874.6</ele>
        <time>2025-06-22T08:56:55Z</time>
      </trkpt>
      <trkpt lat="42.9048" lon="1.15496">
        <ele>873.6</ele>
        <time>2025-06-22T08:56:56Z</time>
      </trkpt>
      <trkpt lat="42.90483" lon="1.15492">
        <ele>872.6</ele>
        <time>2025-06-22T08:56:57Z</time>
      </trkpt>
      <trkpt lat="42.90486" lon="1.15489">
        <ele>871.4</ele>
        <time>2025-06-22T08:56:58Z</time>
      </trkpt>
      <trkpt lat="42.90488" lon="1.15486">
        <ele>870.6</ele>
        <time>2025-06-22T08:56:59Z</time>
      </trkpt>
      <trkpt lat="42.90491" lon="1.15482">
        <ele>869.6</ele>
        <time>2025-06-22T08:57:00Z</time>
      </trkpt>
      <trkpt lat="42.90494" lon="1.15478">
        <ele>868.6</ele>
        <time>2025-06-22T08:57:01Z</time>
      </trkpt>
      <trkpt lat="42.90498" lon="1.15474">
        <ele>867.6</ele>
        <time>2025-06-22T08:57:02Z</time>
      </trkpt>
      <trkpt lat="42.90501" lon="1.1547">
        <ele>866.8</ele>
        <time>2025-06-22T08:57:03Z</time>
      </trkpt>
      <trkpt lat="42.90502" lon="1.15466">
        <ele>866</ele>
        <time>2025-06-22T08:57:04Z</time>
      </trkpt>
      <trkpt lat="42.90505" lon="1.15459">
        <ele>865</ele>
        <time>2025-06-22T08:57:05Z</time>
      </trkpt>
      <trkpt lat="42.90507" lon="1.15454">
        <ele>864.4</ele>
        <time>2025-06-22T08:57:06Z</time>
      </trkpt>
      <trkpt lat="42.90512" lon="1.15445">
        <ele>863.8</ele>
        <time>2025-06-22T08:57:07Z</time>
      </trkpt>
      <trkpt lat="42.90516" lon="1.15438">
        <ele>863</ele>
        <time>2025-06-22T08:57:08Z</time>
      </trkpt>
      <trkpt lat="42.90521" lon="1.15427">
        <ele>862.4</ele>
        <time>2025-06-22T08:57:09Z</time>
      </trkpt>
      <trkpt lat="42.90525" lon="1.15421">
        <ele>861.6</ele>
        <time>2025-06-22T08:57:10Z</time>
      </trkpt>
      <trkpt lat="42.90528" lon="1.15415">
        <ele>860.8</ele>
        <time>2025-06-22T08:57:11Z</time>
      </trkpt>
      <trkpt lat="42.90532" lon="1.1541">
        <ele>860</ele>
        <time>2025-06-22T08:57:12Z</time>
      </trkpt>
      <trkpt lat="42.90535" lon="1.15404">
        <ele>859.2</ele>
        <time>2025-06-22T08:57:13Z</time>
      </trkpt>
      <trkpt lat="42.90539" lon="1.15398">
        <ele>858.4</ele>
        <time>2025-06-22T08:57:14Z</time>
      </trkpt>
      <trkpt lat="42.90544" lon="1.1539">
        <ele>857.6</ele>
        <time>2025-06-22T08:57:15Z</time>
      </trkpt>
      <trkpt lat="42.90548" lon="1.15382">
        <ele>856.8</ele>
        <time>2025-06-22T08:57:16Z</time>
      </trkpt>
      <trkpt lat="42.90551" lon="1.15375">
        <ele>856</ele>
        <time>2025-06-22T08:57:17Z</time>
      </trkpt>
      <trkpt lat="42.90555" lon="1.15368">
        <ele>855.2</ele>
        <time>2025-06-22T08:57:18Z</time>
      </trkpt>
      <trkpt lat="42.9056" lon="1.1536">
        <ele>854</ele>
        <time>2025-06-22T08:57:19Z</time>
      </trkpt>
      <trkpt lat="42.90564" lon="1.15354">
        <ele>853.2</ele>
        <time>2025-06-22T08:57:20Z</time>
      </trkpt>
      <trkpt lat="42.90568" lon="1.15347">
        <ele>852.4</ele>
        <time>2025-06-22T08:57:21Z</time>
      </trkpt>
      <trkpt lat="42.90573" lon="1.15341">
        <ele>851.6</ele>
        <time>2025-06-22T08:57:22Z</time>
      </trkpt>
      <trkpt lat="42.90577" lon="1.15335">
        <ele>850.8</ele>
        <time>2025-06-22T08:57:23Z</time>
      </trkpt>
      <trkpt lat="42.90581" lon="1.15328">
        <ele>850</ele>
        <time>2025-06-22T08:57:24Z</time>
      </trkpt>
      <trkpt lat="42.90585" lon="1.15322">
        <ele>849</ele>
        <time>2025-06-22T08:57:25Z</time>
      </trkpt>
      <trkpt lat="42.90587" lon="1.15314">
        <ele>848.2</ele>
        <time>2025-06-22T08:57:26Z</time>
      </trkpt>
      <trkpt lat="42.90591" lon="1.15308">
        <ele>847.2</ele>
        <time>2025-06-22T08:57:27Z</time>
      </trkpt>
      <trkpt lat="42.90594" lon="1.15302">
        <ele>846.4</ele>
        <time>2025-06-22T08:57:28Z</time>
      </trkpt>
      <trkpt lat="42.90597" lon="1.15296">
        <ele>845.4</ele>
        <time>2025-06-22T08:57:29Z</time>
      </trkpt>
      <trkpt lat="42.90599" lon="1.15289">
        <ele>844.6</ele>
        <time>2025-06-22T08:57:30Z</time>
      </trkpt>
      <trkpt lat="42.90567" lon="1.15204">
        <ele>843.8</ele>
        <time>2025-06-22T08:57:31Z</time>
      </trkpt>
      <trkpt lat="42.90578" lon="1.15211">
        <ele>843</ele>
        <time>2025-06-22T08:57:32Z</time>
      </trkpt>
      <trkpt lat="42.90583" lon="1.15209">
        <ele>842.2</ele>
        <time>2025-06-22T08:57:33Z</time>
      </trkpt>
      <trkpt lat="42.90583" lon="1.15205">
        <ele>841.4</ele>
        <time>2025-06-22T08:57:34Z</time>
      </trkpt>
      <trkpt lat="42.90586" lon="1.15204">
        <ele>840.8</ele>
        <time>2025-06-22T08:57:35Z</time>
      </trkpt>
      <trkpt lat="42.90588" lon="1.15201">
        <ele>840</ele>
        <time>2025-06-22T08:57:36Z</time>
      </trkpt>
      <trkpt lat="42.90591" lon="1.15198">
        <ele>839.2</ele>
        <time>2025-06-22T08:57:37Z</time>
      </trkpt>
      <trkpt lat="42.90594" lon="1.15196">
        <ele>838.4</ele>
        <time>2025-06-22T08:57:38Z</time>
      </trkpt>
      <trkpt lat="42.90596" lon="1.15194">
        <ele>837.6</ele>
        <time>2025-06-22T08:57:39Z</time>
      </trkpt>
      <trkpt lat="42.90598" lon="1.15191">
        <ele>836.8</ele>
        <time>2025-06-22T08:57:40Z</time>
      </trkpt>
      <trkpt lat="42.90599" lon="1.1519">
        <ele>836</ele>
        <time>2025-06-22T08:57:41Z</time>
      </trkpt>
      <trkpt lat="42.90599" lon="1.1519">
        <ele>835.2</ele>
        <time>2025-06-22T08:57:42Z</time>
      </trkpt>
      <trkpt lat="42.906" lon="1.15176">
        <ele>832.4</ele>
        <time>2025-06-22T08:58:28Z</time>
      </trkpt>
      <trkpt lat="42.90602" lon="1.15173">
        <ele>831.8</ele>
        <time>2025-06-22T08:58:29Z</time>
      </trkpt>
      <trkpt lat="42.90603" lon="1.1517">
        <ele>831.2</ele>
        <time>2025-06-22T08:58:30Z</time>
      </trkpt>
      <trkpt lat="42.90604" lon="1.15167">
        <ele>830.6</ele>
        <time>2025-06-22T08:58:31Z</time>
      </trkpt>
      <trkpt lat="42.90605" lon="1.15164">
        <ele>829.4</ele>
        <time>2025-06-22T08:58:32Z</time>
      </trkpt>
      <trkpt lat="42.90605" lon="1.15161">
        <ele>828.6</ele>
        <time>2025-06-22T08:58:33Z</time>
      </trkpt>
      <trkpt lat="42.90606" lon="1.15158">
        <ele>828</ele>
        <time>2025-06-22T08:58:34Z</time>
      </trkpt>
      <trkpt lat="42.90607" lon="1.15155">
        <ele>827.2</ele>
        <time>2025-06-22T08:58:35Z</time>
      </trkpt>
      <trkpt lat="42.90609" lon="1.15151">
        <ele>826.4</ele>
        <time>2025-06-22T08:58:36Z</time>
      </trkpt>
      <trkpt lat="42.9061" lon="1.15148">
        <ele>825.6</ele>
        <time>2025-06-22T08:58:37Z</time>
      </trkpt>
      <trkpt lat="42.9061" lon="1.15146">
        <ele>824.6</ele>
        <time>2025-06-22T08:58:38Z</time>
      </trkpt>
      <trkpt lat="42.90611" lon="1.15144">
        <ele>823.8</ele>
        <time>2025-06-22T08:58:39Z</time>
      </trkpt>
      <trkpt lat="42.90611" lon="1.15142">
        <ele>823</ele>
        <time>2025-06-22T08:58:40Z</time>
      </trkpt>
      <trkpt lat="42.90613" lon="1.15138">
        <ele>822</ele>
        <time>2025-06-22T08:58:41Z</time>
      </trkpt>
      <trkpt lat="42.90614" lon="1.15136">
        <ele>821.2</ele>
        <time>2025-06-22T08:58:42Z</time>
      </trkpt>
      <trkpt lat="42.90615" lon="1.15133">
        <ele>820.4</ele>
        <time>2025-06-22T08:58:43Z</time>
      </trkpt>
      <trkpt lat="42.90616" lon="1.1513">
        <ele>819.4</ele>
        <time>2025-06-22T08:58:44Z</time>
      </trkpt>
      <trkpt lat="42.90617" lon="1.15128">
        <ele>818.6</ele>
        <time>2025-06-22T08:58:45Z</time>
      </trkpt>
      <trkpt lat="42.90618" lon="1.15126">
        <ele>817.6</ele>
        <time>2025-06-22T08:58:46Z</time>
      </trkpt>
      <trkpt lat="42.90619" lon="1.15124">
        <ele>816.4</ele>
        <time>2025-06-22T08:58:47Z</time>
      </trkpt>
      <trkpt lat="42.9062" lon="1.1512">
        <ele>815.4</ele>
        <time>2025-06-22T08:58:48Z</time>
      </trkpt>
      <trkpt lat="42.9062" lon="1.15117">
        <ele>814.4</ele>
        <time>2025-06-22T08:58:49Z</time>
      </trkpt>
      <trkpt lat="42.90621" lon="1.15114">
        <ele>813.2</ele>
        <time>2025-06-22T08:58:50Z</time>
      </trkpt>
      <trkpt lat="42.90622" lon="1.15111">
        <ele>812.2</ele>
        <time>2025-06-22T08:58:51Z</time>
      </trkpt>
      <trkpt lat="42.90624" lon="1.15108">
        <ele>811</ele>
        <time>2025-06-22T08:58:52Z</time>
      </trkpt>
      <trkpt lat="42.90625" lon="1.15103">
        <ele>810.2</ele>
        <time>2025-06-22T08:58:53Z</time>
      </trkpt>
      <trkpt lat="42.90626" lon="1.15099">
        <ele>809.2</ele>
        <time>2025-06-22T08:58:54Z</time>
      </trkpt>
      <trkpt lat="42.90627" lon="1.15092">
        <ele>808.4</ele>
        <time>2025-06-22T08:58:55Z</time>
      </trkpt>
      <trkpt lat="42.90627" lon="1.15089">
        <ele>806.8</ele>
        <time>2025-06-22T08:58:56Z</time>
      </trkpt>
      <trkpt lat="42.90626" lon="1.15084">
        <ele>805.8</ele>
        <time>2025-06-22T08:58:57Z</time>
      </trkpt>
      <trkpt lat="42.90627" lon="1.15079">
        <ele>805</ele>
        <time>2025-06-22T08:58:58Z</time>
      </trkpt>
      <trkpt lat="42.90628" lon="1.15074">
        <ele>804.2</ele>
        <time>2025-06-22T08:58:59Z</time>
      </trkpt>
      <trkpt lat="42.90628" lon="1.1507">
        <ele>803.4</ele>
        <time>2025-06-22T08:59:00Z</time>
      </trkpt>
      <trkpt lat="42.90629" lon="1.15066">
        <ele>802.4</ele>
        <time>2025-06-22T08:59:01Z</time>
      </trkpt>
      <trkpt lat="42.90629" lon="1.15063">
        <ele>801.6</ele>
        <time>2025-06-22T08:59:02Z</time>
      </trkpt>
      <trkpt lat="42.90629" lon="1.15059">
        <ele>800.6</ele>
        <time>2025-06-22T08:59:03Z</time>
      </trkpt>
      <trkpt lat="42.90629" lon="1.15055">
        <ele>799.8</ele>
        <time>2025-06-22T08:59:04Z</time>
      </trkpt>
      <trkpt lat="42.9063" lon="1.15051">
        <ele>798.8</ele>
        <time>2025-06-22T08:59:05Z</time>
      </trkpt>
      <trkpt lat="42.90629" lon="1.15047">
        <ele>798</ele>
        <time>2025-06-22T08:59:06Z</time>
      </trkpt>
      <trkpt lat="42.90629" lon="1.15043">
        <ele>797</ele>
        <time>2025-06-22T08:59:07Z</time>
      </trkpt>
      <trkpt lat="42.90629" lon="1.15036">
        <ele>796.2</ele>
        <time>2025-06-22T08:59:08Z</time>
      </trkpt>
      <trkpt lat="42.90629" lon="1.15028">
        <ele>795.2</ele>
        <time>2025-06-22T08:59:09Z</time>
      </trkpt>
      <trkpt lat="42.90628" lon="1.15018">
        <ele>794.4</ele>
        <time>2025-06-22T08:59:10Z</time>
      </trkpt>
      <trkpt lat="42.90628" lon="1.15009">
        <ele>793.4</ele>
        <time>2025-06-22T08:59:11Z</time>
      </trkpt>
      <trkpt lat="42.90628" lon="1.15003">
        <ele>792.4</ele>
        <time>2025-06-22T08:59:12Z</time>
      </trkpt>
      <trkpt lat="42.90628" lon="1.14997">
        <ele>791.6</ele>
        <time>2025-06-22T08:59:13Z</time>
      </trkpt>
      <trkpt lat="42.90628" lon="1.14991">
        <ele>790.6</ele>
        <time>2025-06-22T08:59:14Z</time>
      </trkpt>
      <trkpt lat="42.90628" lon="1.14988">
        <ele>789.8</ele>
        <time>2025-06-22T08:59:15Z</time>
      </trkpt>
      <trkpt lat="42.90628" lon="1.14984">
        <ele>788.8</ele>
        <time>2025-06-22T08:59:16Z</time>
      </trkpt>
      <trkpt lat="42.90629" lon="1.14981">
        <ele>787.8</ele>
        <time>2025-06-22T08:59:17Z</time>
      </trkpt>
      <trkpt lat="42.90628" lon="1.14978">
        <ele>787</ele>
        <time>2025-06-22T08:59:18Z</time>
      </trkpt>
      <trkpt lat="42.90628" lon="1.14971">
        <ele>786</ele>
        <time>2025-06-22T08:59:19Z</time>
      </trkpt>
      <trkpt lat="42.90626" lon="1.14967">
        <ele>785.2</ele>
        <time>2025-06-22T08:59:20Z</time>
      </trkpt>
      <trkpt lat="42.90623" lon="1.14958">
        <ele>783.4</ele>
        <time>2025-06-22T08:59:21Z</time>
      </trkpt>
      <trkpt lat="42.9062" lon="1.14952">
        <ele>782.4</ele>
        <time>2025-06-22T08:59:22Z</time>
      </trkpt>
      <trkpt lat="42.90616" lon="1.14948">
        <ele>781.6</ele>
        <time>2025-06-22T08:59:23Z</time>
      </trkpt>
      <trkpt lat="42.90614" lon="1.14944">
        <ele>780.6</ele>
        <time>2025-06-22T08:59:24Z</time>
      </trkpt>
      <trkpt lat="42.90612" lon="1.14941">
        <ele>779.8</ele>
        <time>2025-06-22T08:59:25Z</time>
      </trkpt>
      <trkpt lat="42.90609" lon="1.14938">
        <ele>779.8</ele>
        <time>2025-06-22T08:59:27Z</time>
      </trkpt>
      <trkpt lat="42.90607" lon="1.14935">
        <ele>779.8</ele>
        <time>2025-06-22T08:59:31Z</time>
      </trkpt>
      <trkpt lat="42.906" lon="1.14924">
        <ele>779.8</ele>
        <time>2025-06-22T08:59:37Z</time>
      </trkpt>
      <trkpt lat="42.90591" lon="1.14917">
        <ele>779.8</ele>
        <time>2025-06-22T08:59:43Z</time>
      </trkpt>
      <trkpt lat="42.90585" lon="1.14913">
        <ele>780.2</ele>
        <time>2025-06-22T08:59:46Z</time>
      </trkpt>
      <trkpt lat="42.90584" lon="1.14912">
        <ele>780.6</ele>
        <time>2025-06-22T08:59:47Z</time>
      </trkpt>
      <trkpt lat="42.90583" lon="1.14912">
        <ele>781</ele>
        <time>2025-06-22T08:59:48Z</time>
      </trkpt>
      <trkpt lat="42.90581" lon="1.14911">
        <ele>781.4</ele>
        <time>2025-06-22T08:59:49Z</time>
      </trkpt>
      <trkpt lat="42.90579" lon="1.14909">
        <ele>781.8</ele>
        <time>2025-06-22T08:59:50Z</time>
      </trkpt>
      <trkpt lat="42.90578" lon="1.14909">
        <ele>781.8</ele>
        <time>2025-06-22T08:59:51Z</time>
      </trkpt>
      <trkpt lat="42.90573" lon="1.14906">
        <ele>782.2</ele>
        <time>2025-06-22T08:59:54Z</time>
      </trkpt>
      <trkpt lat="42.90573" lon="1.14905">
        <ele>782.8</ele>
        <time>2025-06-22T08:59:55Z</time>
      </trkpt>
      <trkpt lat="42.90571" lon="1.14904">
        <ele>783.2</ele>
        <time>2025-06-22T08:59:56Z</time>
      </trkpt>
      <trkpt lat="42.90569" lon="1.14902">
        <ele>783.6</ele>
        <time>2025-06-22T08:59:57Z</time>
      </trkpt>
      <trkpt lat="42.90567" lon="1.14901">
        <ele>784</ele>
        <time>2025-06-22T08:59:58Z</time>
      </trkpt>
      <trkpt lat="42.90548" lon="1.14896">
        <ele>784.4</ele>
        <time>2025-06-22T09:00:04Z</time>
      </trkpt>
      <trkpt lat="42.90546" lon="1.14896">
        <ele>784.8</ele>
        <time>2025-06-22T09:00:05Z</time>
      </trkpt>
      <trkpt lat="42.90543" lon="1.14895">
        <ele>785.4</ele>
        <time>2025-06-22T09:00:06Z</time>
      </trkpt>
      <trkpt lat="42.90541" lon="1.14895">
        <ele>785.8</ele>
        <time>2025-06-22T09:00:07Z</time>
      </trkpt>
      <trkpt lat="42.90539" lon="1.14896">
        <ele>786.2</ele>
        <time>2025-06-22T09:00:08Z</time>
      </trkpt>
      <trkpt lat="42.90532" lon="1.14896">
        <ele>786.6</ele>
        <time>2025-06-22T09:00:11Z</time>
      </trkpt>
      <trkpt lat="42.9053" lon="1.14896">
        <ele>787</ele>
        <time>2025-06-22T09:00:12Z</time>
      </trkpt>
      <trkpt lat="42.90527" lon="1.14896">
        <ele>787.4</ele>
        <time>2025-06-22T09:00:13Z</time>
      </trkpt>
      <trkpt lat="42.90524" lon="1.14897">
        <ele>787.8</ele>
        <time>2025-06-22T09:00:14Z</time>
      </trkpt>
      <trkpt lat="42.90522" lon="1.14896">
        <ele>788.2</ele>
        <time>2025-06-22T09:00:15Z</time>
      </trkpt>
      <trkpt lat="42.90511" lon="1.14898">
        <ele>788.6</ele>
        <time>2025-06-22T09:00:19Z</time>
      </trkpt>
      <trkpt lat="42.9051" lon="1.14898">
        <ele>789</ele>
        <time>2025-06-22T09:00:20Z</time>
      </trkpt>
      <trkpt lat="42.90507" lon="1.14899">
        <ele>789.6</ele>
        <time>2025-06-22T09:00:21Z</time>
      </trkpt>
      <trkpt lat="42.90504" lon="1.14899">
        <ele>790</ele>
        <time>2025-06-22T09:00:22Z</time>
      </trkpt>
      <trkpt lat="42.90502" lon="1.149">
        <ele>790.4</ele>
        <time>2025-06-22T09:00:23Z</time>
      </trkpt>
      <trkpt lat="42.90497" lon="1.14902">
        <ele>790.4</ele>
        <time>2025-06-22T09:00:25Z</time>
      </trkpt>
      <trkpt lat="42.90487" lon="1.14904">
        <ele>790.8</ele>
        <time>2025-06-22T09:00:29Z</time>
      </trkpt>
      <trkpt lat="42.90484" lon="1.14904">
        <ele>791.2</ele>
        <time>2025-06-22T09:00:30Z</time>
      </trkpt>
      <trkpt lat="42.90481" lon="1.14904">
        <ele>791.6</ele>
        <time>2025-06-22T09:00:31Z</time>
      </trkpt>
      <trkpt lat="42.90479" lon="1.14903">
        <ele>792</ele>
        <time>2025-06-22T09:00:32Z</time>
      </trkpt>
      <trkpt lat="42.90477" lon="1.14904">
        <ele>792.4</ele>
        <time>2025-06-22T09:00:33Z</time>
      </trkpt>
      <trkpt lat="42.90461" lon="1.14904">
        <ele>792.8</ele>
        <time>2025-06-22T09:00:38Z</time>
      </trkpt>
      <trkpt lat="42.90458" lon="1.14904">
        <ele>793.2</ele>
        <time>2025-06-22T09:00:39Z</time>
      </trkpt>
      <trkpt lat="42.90456" lon="1.14904">
        <ele>793.6</ele>
        <time>2025-06-22T09:00:40Z</time>
      </trkpt>
      <trkpt lat="42.90453" lon="1.14904">
        <ele>794</ele>
        <time>2025-06-22T09:00:41Z</time>
      </trkpt>
      <trkpt lat="42.90451" lon="1.14905">
        <ele>794.4</ele>
        <time>2025-06-22T09:00:42Z</time>
      </trkpt>
      <trkpt lat="42.9044" lon="1.14907">
        <ele>794.4</ele>
        <time>2025-06-22T09:00:46Z</time>
      </trkpt>
      <trkpt lat="42.90431" lon="1.14908">
        <ele>794.8</ele>
        <time>2025-06-22T09:00:50Z</time>
      </trkpt>
      <trkpt lat="42.90428" lon="1.14908">
        <ele>795.2</ele>
        <time>2025-06-22T09:00:51Z</time>
      </trkpt>
      <trkpt lat="42.90426" lon="1.14909">
        <ele>795.8</ele>
        <time>2025-06-22T09:00:52Z</time>
      </trkpt>
      <trkpt lat="42.90423" lon="1.14909">
        <ele>796.2</ele>
        <time>2025-06-22T09:00:53Z</time>
      </trkpt>
      <trkpt lat="42.90421" lon="1.14908">
        <ele>796.6</ele>
        <time>2025-06-22T09:00:54Z</time>
      </trkpt>
      <trkpt lat="42.90407" lon="1.14912">
        <ele>796.6</ele>
        <time>2025-06-22T09:01:00Z</time>
      </trkpt>
      <trkpt lat="42.90405" lon="1.14912">
        <ele>797</ele>
        <time>2025-06-22T09:01:01Z</time>
      </trkpt>
      <trkpt lat="42.90403" lon="1.14912">
        <ele>797.4</ele>
        <time>2025-06-22T09:01:02Z</time>
      </trkpt>
      <trkpt lat="42.90401" lon="1.14912">
        <ele>798</ele>
        <time>2025-06-22T09:01:03Z</time>
      </trkpt>
      <trkpt lat="42.90399" lon="1.14913">
        <ele>798.4</ele>
        <time>2025-06-22T09:01:04Z</time>
      </trkpt>
      <trkpt lat="42.90396" lon="1.14913">
        <ele>798.8</ele>
        <time>2025-06-22T09:01:05Z</time>
      </trkpt>
      <trkpt lat="42.90394" lon="1.14914">
        <ele>798.8</ele>
        <time>2025-06-22T09:01:06Z</time>
      </trkpt>
      <trkpt lat="42.9039" lon="1.14917">
        <ele>798.8</ele>
        <time>2025-06-22T09:01:09Z</time>
      </trkpt>
      <trkpt lat="42.90387" lon="1.14916">
        <ele>799.2</ele>
        <time>2025-06-22T09:01:10Z</time>
      </trkpt>
      <trkpt lat="42.90385" lon="1.14916">
        <ele>799.6</ele>
        <time>2025-06-22T09:01:11Z</time>
      </trkpt>
      <trkpt lat="42.90383" lon="1.14917">
        <ele>800</ele>
        <time>2025-06-22T09:01:12Z</time>
      </trkpt>
      <trkpt lat="42.90381" lon="1.14918">
        <ele>800.4</ele>
        <time>2025-06-22T09:01:13Z</time>
      </trkpt>
      <trkpt lat="42.90379" lon="1.14919">
        <ele>800.8</ele>
        <time>2025-06-22T09:01:14Z</time>
      </trkpt>
      <trkpt lat="42.90375" lon="1.14922">
        <ele>800.8</ele>
        <time>2025-06-22T09:01:17Z</time>
      </trkpt>
      <trkpt lat="42.9037" lon="1.14926">
        <ele>801.2</ele>
        <time>2025-06-22T09:01:20Z</time>
      </trkpt>
      <trkpt lat="42.90368" lon="1.14928">
        <ele>801.8</ele>
        <time>2025-06-22T09:01:21Z</time>
      </trkpt>
      <trkpt lat="42.90367" lon="1.1493">
        <ele>802.2</ele>
        <time>2025-06-22T09:01:22Z</time>
      </trkpt>
      <trkpt lat="42.90365" lon="1.14932">
        <ele>802.6</ele>
        <time>2025-06-22T09:01:23Z</time>
      </trkpt>
      <trkpt lat="42.90364" lon="1.14933">
        <ele>803</ele>
        <time>2025-06-22T09:01:24Z</time>
      </trkpt>
      <trkpt lat="42.90357" lon="1.14939">
        <ele>803.4</ele>
        <time>2025-06-22T09:01:28Z</time>
      </trkpt>
      <trkpt lat="42.90355" lon="1.1494">
        <ele>804</ele>
        <time>2025-06-22T09:01:29Z</time>
      </trkpt>
      <trkpt lat="42.90352" lon="1.14943">
        <ele>804.4</ele>
        <time>2025-06-22T09:01:30Z</time>
      </trkpt>
      <trkpt lat="42.90351" lon="1.14945">
        <ele>804.8</ele>
        <time>2025-06-22T09:01:31Z</time>
      </trkpt>
      <trkpt lat="42.90349" lon="1.14947">
        <ele>805.2</ele>
        <time>2025-06-22T09:01:32Z</time>
      </trkpt>
      <trkpt lat="42.90336" lon="1.14959">
        <ele>805.6</ele>
        <time>2025-06-22T09:01:38Z</time>
      </trkpt>
      <trkpt lat="42.90333" lon="1.14961">
        <ele>806.2</ele>
        <time>2025-06-22T09:01:39Z</time>
      </trkpt>
      <trkpt lat="42.90331" lon="1.14962">
        <ele>806.6</ele>
        <time>2025-06-22T09:01:40Z</time>
      </trkpt>
      <trkpt lat="42.90329" lon="1.14964">
        <ele>807</ele>
        <time>2025-06-22T09:01:41Z</time>
      </trkpt>
      <trkpt lat="42.90327" lon="1.14965">
        <ele>807.4</ele>
        <time>2025-06-22T09:01:42Z</time>
      </trkpt>
      <trkpt lat="42.90321" lon="1.14969">
        <ele>807.4</ele>
        <time>2025-06-22T09:01:45Z</time>
      </trkpt>
      <trkpt lat="42.90316" lon="1.14975">
        <ele>807.8</ele>
        <time>2025-06-22T09:01:49Z</time>
      </trkpt>
      <trkpt lat="42.90315" lon="1.14978">
        <ele>808.8</ele>
        <time>2025-06-22T09:01:50Z</time>
      </trkpt>
      <trkpt lat="42.90314" lon="1.14979">
        <ele>809.2</ele>
        <time>2025-06-22T09:01:51Z</time>
      </trkpt>
      <trkpt lat="42.90311" lon="1.1498">
        <ele>809.6</ele>
        <time>2025-06-22T09:01:52Z</time>
      </trkpt>
      <trkpt lat="42.90301" lon="1.14989">
        <ele>809.6</ele>
        <time>2025-06-22T09:01:57Z</time>
      </trkpt>
      <trkpt lat="42.90289" lon="1.14993">
        <ele>810</ele>
        <time>2025-06-22T09:02:01Z</time>
      </trkpt>
      <trkpt lat="42.90286" lon="1.14994">
        <ele>810.4</ele>
        <time>2025-06-22T09:02:02Z</time>
      </trkpt>
      <trkpt lat="42.90284" lon="1.14995">
        <ele>810.8</ele>
        <time>2025-06-22T09:02:03Z</time>
      </trkpt>
      <trkpt lat="42.90281" lon="1.14996">
        <ele>811.4</ele>
        <time>2025-06-22T09:02:04Z</time>
      </trkpt>
      <trkpt lat="42.9028" lon="1.14996">
        <ele>811.8</ele>
        <time>2025-06-22T09:02:05Z</time>
      </trkpt>
      <trkpt lat="42.9027" lon="1.15001">
        <ele>811.8</ele>
        <time>2025-06-22T09:02:08Z</time>
      </trkpt>
      <trkpt lat="42.90265" lon="1.15003">
        <ele>811.8</ele>
        <time>2025-06-22T09:02:10Z</time>
      </trkpt>
      <trkpt lat="42.90259" lon="1.15004">
        <ele>811.8</ele>
        <time>2025-06-22T09:02:12Z</time>
      </trkpt>
      <trkpt lat="42.90257" lon="1.15004">
        <ele>812.2</ele>
        <time>2025-06-22T09:02:13Z</time>
      </trkpt>
      <trkpt lat="42.90254" lon="1.15005">
        <ele>812.6</ele>
        <time>2025-06-22T09:02:14Z</time>
      </trkpt>
      <trkpt lat="42.90251" lon="1.15005">
        <ele>813</ele>
        <time>2025-06-22T09:02:15Z</time>
      </trkpt>
      <trkpt lat="42.90248" lon="1.15006">
        <ele>813.4</ele>
        <time>2025-06-22T09:02:16Z</time>
      </trkpt>
      <trkpt lat="42.90245" lon="1.15007">
        <ele>813.8</ele>
        <time>2025-06-22T09:02:17Z</time>
      </trkpt>
      <trkpt lat="42.90222" lon="1.1501">
        <ele>813.8</ele>
        <time>2025-06-22T09:02:25Z</time>
      </trkpt>
      <trkpt lat="42.90215" lon="1.1501">
        <ele>814.2</ele>
        <time>2025-06-22T09:02:27Z</time>
      </trkpt>
      <trkpt lat="42.90212" lon="1.15011">
        <ele>814.6</ele>
        <time>2025-06-22T09:02:28Z</time>
      </trkpt>
      <trkpt lat="42.9021" lon="1.15011">
        <ele>815</ele>
        <time>2025-06-22T09:02:29Z</time>
      </trkpt>
      <trkpt lat="42.90207" lon="1.15011">
        <ele>815.4</ele>
        <time>2025-06-22T09:02:30Z</time>
      </trkpt>
      <trkpt lat="42.90204" lon="1.15012">
        <ele>815.8</ele>
        <time>2025-06-22T09:02:31Z</time>
      </trkpt>
      <trkpt lat="42.90201" lon="1.15013">
        <ele>815.8</ele>
        <time>2025-06-22T09:02:32Z</time>
      </trkpt>
      <trkpt lat="42.90179" lon="1.15015">
        <ele>815.8</ele>
        <time>2025-06-22T09:02:39Z</time>
      </trkpt>
      <trkpt lat="42.90156" lon="1.15015">
        <ele>816.2</ele>
        <time>2025-06-22T09:02:47Z</time>
      </trkpt>
      <trkpt lat="42.90153" lon="1.15016">
        <ele>816.6</ele>
        <time>2025-06-22T09:02:48Z</time>
      </trkpt>
      <trkpt lat="42.9015" lon="1.15016">
        <ele>817</ele>
        <time>2025-06-22T09:02:49Z</time>
      </trkpt>
      <trkpt lat="42.90147" lon="1.15016">
        <ele>817.4</ele>
        <time>2025-06-22T09:02:50Z</time>
      </trkpt>
      <trkpt lat="42.90144" lon="1.15016">
        <ele>817.8</ele>
        <time>2025-06-22T09:02:51Z</time>
      </trkpt>
      <trkpt lat="42.90138" lon="1.15017">
        <ele>817.8</ele>
        <time>2025-06-22T09:02:53Z</time>
      </trkpt>
      <trkpt lat="42.9012" lon="1.1502">
        <ele>817.8</ele>
        <time>2025-06-22T09:02:59Z</time>
      </trkpt>
      <trkpt lat="42.90103" lon="1.15022">
        <ele>818.2</ele>
        <time>2025-06-22T09:03:05Z</time>
      </trkpt>
      <trkpt lat="42.901" lon="1.15022">
        <ele>818.6</ele>
        <time>2025-06-22T09:03:06Z</time>
      </trkpt>
      <trkpt lat="42.90097" lon="1.15023">
        <ele>819</ele>
        <time>2025-06-22T09:03:07Z</time>
      </trkpt>
      <trkpt lat="42.90093" lon="1.15025">
        <ele>819.4</ele>
        <time>2025-06-22T09:03:08Z</time>
      </trkpt>
      <trkpt lat="42.9009" lon="1.15026">
        <ele>819.8</ele>
        <time>2025-06-22T09:03:09Z</time>
      </trkpt>
      <trkpt lat="42.90084" lon="1.15027">
        <ele>819.8</ele>
        <time>2025-06-22T09:03:11Z</time>
      </trkpt>
      <trkpt lat="42.90062" lon="1.15031">
        <ele>819.8</ele>
        <time>2025-06-22T09:03:17Z</time>
      </trkpt>
      <trkpt lat="42.90042" lon="1.15032">
        <ele>820.2</ele>
        <time>2025-06-22T09:03:23Z</time>
      </trkpt>
      <trkpt lat="42.90039" lon="1.15031">
        <ele>820.6</ele>
        <time>2025-06-22T09:03:24Z</time>
      </trkpt>
      <trkpt lat="42.90035" lon="1.15031">
        <ele>821.2</ele>
        <time>2025-06-22T09:03:25Z</time>
      </trkpt>
      <trkpt lat="42.90032" lon="1.1503">
        <ele>821.6</ele>
        <time>2025-06-22T09:03:26Z</time>
      </trkpt>
      <trkpt lat="42.90029" lon="1.15029">
        <ele>822</ele>
        <time>2025-06-22T09:03:27Z</time>
      </trkpt>
      <trkpt lat="42.90017" lon="1.15028">
        <ele>822</ele>
        <time>2025-06-22T09:03:31Z</time>
      </trkpt>
      <trkpt lat="42.89996" lon="1.15023">
        <ele>822.4</ele>
        <time>2025-06-22T09:03:37Z</time>
      </trkpt>
      <trkpt lat="42.89992" lon="1.15022">
        <ele>822.8</ele>
        <time>2025-06-22T09:03:38Z</time>
      </trkpt>
      <trkpt lat="42.89988" lon="1.15022">
        <ele>823.2</ele>
        <time>2025-06-22T09:03:39Z</time>
      </trkpt>
      <trkpt lat="42.89985" lon="1.15022">
        <ele>823.6</ele>
        <time>2025-06-22T09:03:40Z</time>
      </trkpt>
      <trkpt lat="42.89981" lon="1.15021">
        <ele>824</ele>
        <time>2025-06-22T09:03:41Z</time>
      </trkpt>
      <trkpt lat="42.89971" lon="1.15021">
        <ele>824</ele>
        <time>2025-06-22T09:03:44Z</time>
      </trkpt>
      <trkpt lat="42.89952" lon="1.15027">
        <ele>824.4</ele>
        <time>2025-06-22T09:03:50Z</time>
      </trkpt>
      <trkpt lat="42.89949" lon="1.15029">
        <ele>824.8</ele>
        <time>2025-06-22T09:03:51Z</time>
      </trkpt>
      <trkpt lat="42.89947" lon="1.1503">
        <ele>825.6</ele>
        <time>2025-06-22T09:03:52Z</time>
      </trkpt>
      <trkpt lat="42.89945" lon="1.15032">
        <ele>826.2</ele>
        <time>2025-06-22T09:03:53Z</time>
      </trkpt>
      <trkpt lat="42.89934" lon="1.15041">
        <ele>826.6</ele>
        <time>2025-06-22T09:03:58Z</time>
      </trkpt>
      <trkpt lat="42.89933" lon="1.15042">
        <ele>827</ele>
        <time>2025-06-22T09:03:59Z</time>
      </trkpt>
      <trkpt lat="42.8993" lon="1.15044">
        <ele>827.4</ele>
        <time>2025-06-22T09:04:00Z</time>
      </trkpt>
      <trkpt lat="42.89928" lon="1.15045">
        <ele>827.8</ele>
        <time>2025-06-22T09:04:01Z</time>
      </trkpt>
      <trkpt lat="42.89927" lon="1.15047">
        <ele>828.2</ele>
        <time>2025-06-22T09:04:02Z</time>
      </trkpt>
      <trkpt lat="42.89923" lon="1.15049">
        <ele>828.2</ele>
        <time>2025-06-22T09:04:04Z</time>
      </trkpt>
      <trkpt lat="42.89919" lon="1.15054">
        <ele>828.6</ele>
        <time>2025-06-22T09:04:07Z</time>
      </trkpt>
      <trkpt lat="42.89917" lon="1.15056">
        <ele>829</ele>
        <time>2025-06-22T09:04:08Z</time>
      </trkpt>
      <trkpt lat="42.89915" lon="1.15058">
        <ele>829.4</ele>
        <time>2025-06-22T09:04:09Z</time>
      </trkpt>
      <trkpt lat="42.89913" lon="1.1506">
        <ele>829.8</ele>
        <time>2025-06-22T09:04:10Z</time>
      </trkpt>
      <trkpt lat="42.8991" lon="1.15063">
        <ele>830.2</ele>
        <time>2025-06-22T09:04:11Z</time>
      </trkpt>
      <trkpt lat="42.89908" lon="1.15065">
        <ele>830.2</ele>
        <time>2025-06-22T09:04:12Z</time>
      </trkpt>
      <trkpt lat="42.89902" lon="1.1507">
        <ele>830.6</ele>
        <time>2025-06-22T09:04:15Z</time>
      </trkpt>
      <trkpt lat="42.899" lon="1.15072">
        <ele>831</ele>
        <time>2025-06-22T09:04:16Z</time>
      </trkpt>
      <trkpt lat="42.89899" lon="1.15074">
        <ele>831.8</ele>
        <time>2025-06-22T09:04:17Z</time>
      </trkpt>
      <trkpt lat="42.89897" lon="1.15075">
        <ele>832.2</ele>
        <time>2025-06-22T09:04:18Z</time>
      </trkpt>
      <trkpt lat="42.8989" lon="1.15083">
        <ele>832.6</ele>
        <time>2025-06-22T09:04:22Z</time>
      </trkpt>
      <trkpt lat="42.89888" lon="1.15085">
        <ele>833</ele>
        <time>2025-06-22T09:04:23Z</time>
      </trkpt>
      <trkpt lat="42.89886" lon="1.15088">
        <ele>833.4</ele>
        <time>2025-06-22T09:04:24Z</time>
      </trkpt>
      <trkpt lat="42.89885" lon="1.15089">
        <ele>833.8</ele>
        <time>2025-06-22T09:04:25Z</time>
      </trkpt>
      <trkpt lat="42.89882" lon="1.1509">
        <ele>834.4</ele>
        <time>2025-06-22T09:04:26Z</time>
      </trkpt>
      <trkpt lat="42.89877" lon="1.15099">
        <ele>834.8</ele>
        <time>2025-06-22T09:04:30Z</time>
      </trkpt>
      <trkpt lat="42.89876" lon="1.15102">
        <ele>835.2</ele>
        <time>2025-06-22T09:04:31Z</time>
      </trkpt>
      <trkpt lat="42.89874" lon="1.15104">
        <ele>835.6</ele>
        <time>2025-06-22T09:04:32Z</time>
      </trkpt>
      <trkpt lat="42.89873" lon="1.15105">
        <ele>836</ele>
        <time>2025-06-22T09:04:33Z</time>
      </trkpt>
      <trkpt lat="42.89871" lon="1.15107">
        <ele>836.4</ele>
        <time>2025-06-22T09:04:34Z</time>
      </trkpt>
      <trkpt lat="42.89864" lon="1.1511">
        <ele>836.4</ele>
        <time>2025-06-22T09:04:36Z</time>
      </trkpt>
      <trkpt lat="42.89861" lon="1.15112">
        <ele>836.8</ele>
        <time>2025-06-22T09:04:37Z</time>
      </trkpt>
      <trkpt lat="42.89858" lon="1.15114">
        <ele>837.2</ele>
        <time>2025-06-22T09:04:38Z</time>
      </trkpt>
      <trkpt lat="42.89854" lon="1.15116">
        <ele>837.6</ele>
        <time>2025-06-22T09:04:39Z</time>
      </trkpt>
      <trkpt lat="42.89849" lon="1.15118">
        <ele>838</ele>
        <time>2025-06-22T09:04:40Z</time>
      </trkpt>
      <trkpt lat="42.89845" lon="1.1512">
        <ele>838.4</ele>
        <time>2025-06-22T09:04:41Z</time>
      </trkpt>
      <trkpt lat="42.89838" lon="1.15125">
        <ele>839</ele>
        <time>2025-06-22T09:04:43Z</time>
      </trkpt>
      <trkpt lat="42.89836" lon="1.15127">
        <ele>839.4</ele>
        <time>2025-06-22T09:04:44Z</time>
      </trkpt>
      <trkpt lat="42.89833" lon="1.15128">
        <ele>839.8</ele>
        <time>2025-06-22T09:04:45Z</time>
      </trkpt>
      <trkpt lat="42.8983" lon="1.1513">
        <ele>840.2</ele>
        <time>2025-06-22T09:04:46Z</time>
      </trkpt>
      <trkpt lat="42.89828" lon="1.15131">
        <ele>840.6</ele>
        <time>2025-06-22T09:04:47Z</time>
      </trkpt>
      <trkpt lat="42.89821" lon="1.15137">
        <ele>840.6</ele>
        <time>2025-06-22T09:04:50Z</time>
      </trkpt>
      <trkpt lat="42.89819" lon="1.15139">
        <ele>841.2</ele>
        <time>2025-06-22T09:04:51Z</time>
      </trkpt>
      <trkpt lat="42.89816" lon="1.15141">
        <ele>841.6</ele>
        <time>2025-06-22T09:04:52Z</time>
      </trkpt>
      <trkpt lat="42.89812" lon="1.15143">
        <ele>842</ele>
        <time>2025-06-22T09:04:53Z</time>
      </trkpt>
      <trkpt lat="42.8981" lon="1.15146">
        <ele>842.4</ele>
        <time>2025-06-22T09:04:54Z</time>
      </trkpt>
      <trkpt lat="42.89807" lon="1.15147">
        <ele>843</ele>
        <time>2025-06-22T09:04:55Z</time>
      </trkpt>
      <trkpt lat="42.89805" lon="1.15149">
        <ele>843</ele>
        <time>2025-06-22T09:04:56Z</time>
      </trkpt>
      <trkpt lat="42.89797" lon="1.15155">
        <ele>843.4</ele>
        <time>2025-06-22T09:04:59Z</time>
      </trkpt>
      <trkpt lat="42.89795" lon="1.15157">
        <ele>843.8</ele>
        <time>2025-06-22T09:05:00Z</time>
      </trkpt>
      <trkpt lat="42.89792" lon="1.15159">
        <ele>844.2</ele>
        <time>2025-06-22T09:05:01Z</time>
      </trkpt>
      <trkpt lat="42.8979" lon="1.1516">
        <ele>844.6</ele>
        <time>2025-06-22T09:05:02Z</time>
      </trkpt>
      <trkpt lat="42.89787" lon="1.15162">
        <ele>845.2</ele>
        <time>2025-06-22T09:05:03Z</time>
      </trkpt>
      <trkpt lat="42.89778" lon="1.15168">
        <ele>846</ele>
        <time>2025-06-22T09:05:07Z</time>
      </trkpt>
      <trkpt lat="42.89775" lon="1.15169">
        <ele>846.4</ele>
        <time>2025-06-22T09:05:08Z</time>
      </trkpt>
      <trkpt lat="42.89772" lon="1.1517">
        <ele>846.8</ele>
        <time>2025-06-22T09:05:09Z</time>
      </trkpt>
      <trkpt lat="42.89769" lon="1.15171">
        <ele>847.2</ele>
        <time>2025-06-22T09:05:10Z</time>
      </trkpt>
      <trkpt lat="42.89747" lon="1.15172">
        <ele>847.8</ele>
        <time>2025-06-22T09:05:16Z</time>
      </trkpt>
      <trkpt lat="42.89744" lon="1.15172">
        <ele>848.2</ele>
        <time>2025-06-22T09:05:17Z</time>
      </trkpt>
      <trkpt lat="42.89741" lon="1.15171">
        <ele>848.6</ele>
        <time>2025-06-22T09:05:18Z</time>
      </trkpt>
      <trkpt lat="42.89738" lon="1.15171">
        <ele>849</ele>
        <time>2025-06-22T09:05:19Z</time>
      </trkpt>
      <trkpt lat="42.89735" lon="1.1517">
        <ele>849.4</ele>
        <time>2025-06-22T09:05:20Z</time>
      </trkpt>
      <trkpt lat="42.89724" lon="1.15167">
        <ele>849.4</ele>
        <time>2025-06-22T09:05:24Z</time>
      </trkpt>
      <trkpt lat="42.89722" lon="1.15166">
        <ele>849.8</ele>
        <time>2025-06-22T09:05:25Z</time>
      </trkpt>
      <trkpt lat="42.89719" lon="1.15165">
        <ele>850.2</ele>
        <time>2025-06-22T09:05:26Z</time>
      </trkpt>
      <trkpt lat="42.89716" lon="1.15164">
        <ele>850.8</ele>
        <time>2025-06-22T09:05:27Z</time>
      </trkpt>
      <trkpt lat="42.89714" lon="1.15163">
        <ele>851.2</ele>
        <time>2025-06-22T09:05:28Z</time>
      </trkpt>
      <trkpt lat="42.89711" lon="1.15162">
        <ele>851.6</ele>
        <time>2025-06-22T09:05:29Z</time>
      </trkpt>
      <trkpt lat="42.89703" lon="1.15159">
        <ele>851.6</ele>
        <time>2025-06-22T09:05:32Z</time>
      </trkpt>
      <trkpt lat="42.897" lon="1.15158">
        <ele>852</ele>
        <time>2025-06-22T09:05:33Z</time>
      </trkpt>
      <trkpt lat="42.89697" lon="1.15157">
        <ele>852.4</ele>
        <time>2025-06-22T09:05:34Z</time>
      </trkpt>
      <trkpt lat="42.89694" lon="1.15156">
        <ele>852.8</ele>
        <time>2025-06-22T09:05:35Z</time>
      </trkpt>
      <trkpt lat="42.89691" lon="1.15154">
        <ele>853.2</ele>
        <time>2025-06-22T09:05:36Z</time>
      </trkpt>
      <trkpt lat="42.89689" lon="1.15153">
        <ele>853.8</ele>
        <time>2025-06-22T09:05:37Z</time>
      </trkpt>
      <trkpt lat="42.89686" lon="1.15152">
        <ele>853.8</ele>
        <time>2025-06-22T09:05:38Z</time>
      </trkpt>
      <trkpt lat="42.89673" lon="1.15146">
        <ele>854.2</ele>
        <time>2025-06-22T09:05:43Z</time>
      </trkpt>
      <trkpt lat="42.8967" lon="1.15145">
        <ele>854.6</ele>
        <time>2025-06-22T09:05:44Z</time>
      </trkpt>
      <trkpt lat="42.89668" lon="1.15144">
        <ele>855</ele>
        <time>2025-06-22T09:05:45Z</time>
      </trkpt>
      <trkpt lat="42.89665" lon="1.15143">
        <ele>855.4</ele>
        <time>2025-06-22T09:05:46Z</time>
      </trkpt>
      <trkpt lat="42.89662" lon="1.15143">
        <ele>855.8</ele>
        <time>2025-06-22T09:05:47Z</time>
      </trkpt>
      <trkpt lat="42.89648" lon="1.15141">
        <ele>855.8</ele>
        <time>2025-06-22T09:05:53Z</time>
      </trkpt>
      <trkpt lat="42.89643" lon="1.15139">
        <ele>856.2</ele>
        <time>2025-06-22T09:05:55Z</time>
      </trkpt>
      <trkpt lat="42.8964" lon="1.15138">
        <ele>857</ele>
        <time>2025-06-22T09:05:56Z</time>
      </trkpt>
      <trkpt lat="42.89638" lon="1.15138">
        <ele>857.4</ele>
        <time>2025-06-22T09:05:57Z</time>
      </trkpt>
      <trkpt lat="42.89636" lon="1.15139">
        <ele>857.8</ele>
        <time>2025-06-22T09:05:58Z</time>
      </trkpt>
      <trkpt lat="42.89633" lon="1.1514">
        <ele>857.8</ele>
        <time>2025-06-22T09:05:59Z</time>
      </trkpt>
      <trkpt lat="42.89618" lon="1.15153">
        <ele>857.8</ele>
        <time>2025-06-22T09:06:06Z</time>
      </trkpt>
      <trkpt lat="42.89609" lon="1.15179">
        <ele>857.8</ele>
        <time>2025-06-22T09:06:12Z</time>
      </trkpt>
      <trkpt lat="42.89602" lon="1.15194">
        <ele>857.8</ele>
        <time>2025-06-22T09:06:15Z</time>
      </trkpt>
      <trkpt lat="42.89593" lon="1.15206">
        <ele>857.8</ele>
        <time>2025-06-22T09:06:18Z</time>
      </trkpt>
      <trkpt lat="42.89573" lon="1.15237">
        <ele>857.8</ele>
        <time>2025-06-22T09:06:24Z</time>
      </trkpt>
      <trkpt lat="42.8957" lon="1.15242">
        <ele>857.8</ele>
        <time>2025-06-22T09:06:25Z</time>
      </trkpt>
      <trkpt lat="42.89567" lon="1.15255">
        <ele>857.4</ele>
        <time>2025-06-22T09:06:27Z</time>
      </trkpt>
      <trkpt lat="42.89567" lon="1.15262">
        <ele>857</ele>
        <time>2025-06-22T09:06:28Z</time>
      </trkpt>
      <trkpt lat="42.89567" lon="1.1527">
        <ele>856.6</ele>
        <time>2025-06-22T09:06:29Z</time>
      </trkpt>
      <trkpt lat="42.89567" lon="1.15277">
        <ele>856.2</ele>
        <time>2025-06-22T09:06:30Z</time>
      </trkpt>
      <trkpt lat="42.89567" lon="1.15284">
        <ele>855.8</ele>
        <time>2025-06-22T09:06:31Z</time>
      </trkpt>
      <trkpt lat="42.89567" lon="1.15291">
        <ele>855.8</ele>
        <time>2025-06-22T09:06:32Z</time>
      </trkpt>
      <trkpt lat="42.89566" lon="1.15311">
        <ele>855.8</ele>
        <time>2025-06-22T09:06:35Z</time>
      </trkpt>
      <trkpt lat="42.89563" lon="1.1532">
        <ele>855.8</ele>
        <time>2025-06-22T09:06:37Z</time>
      </trkpt>
      <trkpt lat="42.89559" lon="1.15326">
        <ele>855.8</ele>
        <time>2025-06-22T09:06:39Z</time>
      </trkpt>
      <trkpt lat="42.89556" lon="1.15326">
        <ele>855.8</ele>
        <time>2025-06-22T09:06:40Z</time>
      </trkpt>
      <trkpt lat="42.89545" lon="1.15319">
        <ele>855.8</ele>
        <time>2025-06-22T09:06:43Z</time>
      </trkpt>
      <trkpt lat="42.89539" lon="1.15311">
        <ele>855.8</ele>
        <time>2025-06-22T09:06:45Z</time>
      </trkpt>
      <trkpt lat="42.89529" lon="1.15299">
        <ele>855.8</ele>
        <time>2025-06-22T09:06:48Z</time>
      </trkpt>
      <trkpt lat="42.89526" lon="1.15295">
        <ele>855.8</ele>
        <time>2025-06-22T09:06:49Z</time>
      </trkpt>
      <trkpt lat="42.89508" lon="1.15271">
        <ele>856.2</ele>
        <time>2025-06-22T09:06:55Z</time>
      </trkpt>
      <trkpt lat="42.89505" lon="1.15268">
        <ele>856.6</ele>
        <time>2025-06-22T09:06:56Z</time>
      </trkpt>
      <trkpt lat="42.89501" lon="1.15266">
        <ele>857.2</ele>
        <time>2025-06-22T09:06:57Z</time>
      </trkpt>
      <trkpt lat="42.89497" lon="1.15265">
        <ele>857.6</ele>
        <time>2025-06-22T09:06:58Z</time>
      </trkpt>
      <trkpt lat="42.89493" lon="1.15264">
        <ele>858</ele>
        <time>2025-06-22T09:06:59Z</time>
      </trkpt>
      <trkpt lat="42.89473" lon="1.15267">
        <ele>858</ele>
        <time>2025-06-22T09:07:04Z</time>
      </trkpt>
      <trkpt lat="42.89451" lon="1.15274">
        <ele>858</ele>
        <time>2025-06-22T09:07:10Z</time>
      </trkpt>
      <trkpt lat="42.89439" lon="1.15275">
        <ele>858.4</ele>
        <time>2025-06-22T09:07:13Z</time>
      </trkpt>
      <trkpt lat="42.89434" lon="1.15275">
        <ele>858.8</ele>
        <time>2025-06-22T09:07:14Z</time>
      </trkpt>
      <trkpt lat="42.8943" lon="1.15274">
        <ele>859.2</ele>
        <time>2025-06-22T09:07:15Z</time>
      </trkpt>
      <trkpt lat="42.89426" lon="1.15273">
        <ele>859.6</ele>
        <time>2025-06-22T09:07:16Z</time>
      </trkpt>
      <trkpt lat="42.89423" lon="1.15272">
        <ele>860.2</ele>
        <time>2025-06-22T09:07:17Z</time>
      </trkpt>
      <trkpt lat="42.89407" lon="1.15262">
        <ele>860.6</ele>
        <time>2025-06-22T09:07:22Z</time>
      </trkpt>
      <trkpt lat="42.89404" lon="1.1526">
        <ele>861</ele>
        <time>2025-06-22T09:07:23Z</time>
      </trkpt>
      <trkpt lat="42.89401" lon="1.15258">
        <ele>861.4</ele>
        <time>2025-06-22T09:07:24Z</time>
      </trkpt>
      <trkpt lat="42.89398" lon="1.15256">
        <ele>861.8</ele>
        <time>2025-06-22T09:07:25Z</time>
      </trkpt>
      <trkpt lat="42.89395" lon="1.15254">
        <ele>862.2</ele>
        <time>2025-06-22T09:07:26Z</time>
      </trkpt>
      <trkpt lat="42.89381" lon="1.15245">
        <ele>862.6</ele>
        <time>2025-06-22T09:07:31Z</time>
      </trkpt>
      <trkpt lat="42.89377" lon="1.15244">
        <ele>863.2</ele>
        <time>2025-06-22T09:07:32Z</time>
      </trkpt>
      <trkpt lat="42.89374" lon="1.15243">
        <ele>863.6</ele>
        <time>2025-06-22T09:07:33Z</time>
      </trkpt>
      <trkpt lat="42.89371" lon="1.15243">
        <ele>864</ele>
        <time>2025-06-22T09:07:34Z</time>
      </trkpt>
      <trkpt lat="42.89367" lon="1.15243">
        <ele>864.4</ele>
        <time>2025-06-22T09:07:35Z</time>
      </trkpt>
      <trkpt lat="42.89364" lon="1.15243">
        <ele>864.4</ele>
        <time>2025-06-22T09:07:36Z</time>
      </trkpt>
      <trkpt lat="42.89357" lon="1.15244">
        <ele>864.8</ele>
        <time>2025-06-22T09:07:38Z</time>
      </trkpt>
      <trkpt lat="42.89354" lon="1.15245">
        <ele>865.2</ele>
        <time>2025-06-22T09:07:39Z</time>
      </trkpt>
      <trkpt lat="42.89351" lon="1.15248">
        <ele>865.6</ele>
        <time>2025-06-22T09:07:40Z</time>
      </trkpt>
      <trkpt lat="42.89348" lon="1.1525">
        <ele>866</ele>
        <time>2025-06-22T09:07:41Z</time>
      </trkpt>
      <trkpt lat="42.89346" lon="1.15253">
        <ele>866.4</ele>
        <time>2025-06-22T09:07:42Z</time>
      </trkpt>
      <trkpt lat="42.89324" lon="1.15271">
        <ele>866.4</ele>
        <time>2025-06-22T09:07:48Z</time>
      </trkpt>
      <trkpt lat="42.89292" lon="1.15301">
        <ele>866.4</ele>
        <time>2025-06-22T09:07:56Z</time>
      </trkpt>
      <trkpt lat="42.89282" lon="1.15324">
        <ele>866.4</ele>
        <time>2025-06-22T09:08:00Z</time>
      </trkpt>
      <trkpt lat="42.89281" lon="1.1533">
        <ele>866.4</ele>
        <time>2025-06-22T09:08:01Z</time>
      </trkpt>
      <trkpt lat="42.8928" lon="1.15362">
        <ele>866.4</ele>
        <time>2025-06-22T09:08:06Z</time>
      </trkpt>
      <trkpt lat="42.8928" lon="1.15413">
        <ele>866.4</ele>
        <time>2025-06-22T09:08:13Z</time>
      </trkpt>
      <trkpt lat="42.89273" lon="1.15458">
        <ele>866.4</ele>
        <time>2025-06-22T09:08:19Z</time>
      </trkpt>
      <trkpt lat="42.89263" lon="1.15474">
        <ele>866.4</ele>
        <time>2025-06-22T09:08:22Z</time>
      </trkpt>
      <trkpt lat="42.89249" lon="1.15475">
        <ele>866.4</ele>
        <time>2025-06-22T09:08:25Z</time>
      </trkpt>
      <trkpt lat="42.89232" lon="1.15461">
        <ele>866.4</ele>
        <time>2025-06-22T09:08:29Z</time>
      </trkpt>
      <trkpt lat="42.89228" lon="1.15457">
        <ele>866.4</ele>
        <time>2025-06-22T09:08:30Z</time>
      </trkpt>
      <trkpt lat="42.8921" lon="1.15445">
        <ele>866.4</ele>
        <time>2025-06-22T09:08:34Z</time>
      </trkpt>
      <trkpt lat="42.89206" lon="1.15445">
        <ele>866.4</ele>
        <time>2025-06-22T09:08:35Z</time>
      </trkpt>
      <trkpt lat="42.89186" lon="1.15447">
        <ele>866.4</ele>
        <time>2025-06-22T09:08:39Z</time>
      </trkpt>
      <trkpt lat="42.89176" lon="1.15446">
        <ele>866.4</ele>
        <time>2025-06-22T09:08:41Z</time>
      </trkpt>
      <trkpt lat="42.89167" lon="1.15444">
        <ele>866.4</ele>
        <time>2025-06-22T09:08:43Z</time>
      </trkpt>
      <trkpt lat="42.89158" lon="1.1544">
        <ele>867</ele>
        <time>2025-06-22T09:08:45Z</time>
      </trkpt>
      <trkpt lat="42.89154" lon="1.15438">
        <ele>867.6</ele>
        <time>2025-06-22T09:08:46Z</time>
      </trkpt>
      <trkpt lat="42.89149" lon="1.15437">
        <ele>868</ele>
        <time>2025-06-22T09:08:47Z</time>
      </trkpt>
      <trkpt lat="42.89144" lon="1.15437">
        <ele>868.6</ele>
        <time>2025-06-22T09:08:48Z</time>
      </trkpt>
      <trkpt lat="42.89139" lon="1.15437">
        <ele>869</ele>
        <time>2025-06-22T09:08:49Z</time>
      </trkpt>
      <trkpt lat="42.89134" lon="1.15438">
        <ele>870</ele>
        <time>2025-06-22T09:08:50Z</time>
      </trkpt>
      <trkpt lat="42.89129" lon="1.15439">
        <ele>870.4</ele>
        <time>2025-06-22T09:08:51Z</time>
      </trkpt>
      <trkpt lat="42.89125" lon="1.1544">
        <ele>870.8</ele>
        <time>2025-06-22T09:08:52Z</time>
      </trkpt>
      <trkpt lat="42.89121" lon="1.15442">
        <ele>871.2</ele>
        <time>2025-06-22T09:08:53Z</time>
      </trkpt>
      <trkpt lat="42.89114" lon="1.15445">
        <ele>871.2</ele>
        <time>2025-06-22T09:08:55Z</time>
      </trkpt>
      <trkpt lat="42.8911" lon="1.15447">
        <ele>871.6</ele>
        <time>2025-06-22T09:08:56Z</time>
      </trkpt>
      <trkpt lat="42.89106" lon="1.15449">
        <ele>872</ele>
        <time>2025-06-22T09:08:57Z</time>
      </trkpt>
      <trkpt lat="42.89103" lon="1.15451">
        <ele>872.4</ele>
        <time>2025-06-22T09:08:58Z</time>
      </trkpt>
      <trkpt lat="42.891" lon="1.15452">
        <ele>872.8</ele>
        <time>2025-06-22T09:08:59Z</time>
      </trkpt>
      <trkpt lat="42.89096" lon="1.15454">
        <ele>873.2</ele>
        <time>2025-06-22T09:09:00Z</time>
      </trkpt>
      <trkpt lat="42.89082" lon="1.15464">
        <ele>873.8</ele>
        <time>2025-06-22T09:09:05Z</time>
      </trkpt>
      <trkpt lat="42.89079" lon="1.15466">
        <ele>874.2</ele>
        <time>2025-06-22T09:09:06Z</time>
      </trkpt>
      <trkpt lat="42.89076" lon="1.15468">
        <ele>874.6</ele>
        <time>2025-06-22T09:09:07Z</time>
      </trkpt>
      <trkpt lat="42.89074" lon="1.15469">
        <ele>875</ele>
        <time>2025-06-22T09:09:08Z</time>
      </trkpt>
      <trkpt lat="42.89071" lon="1.15471">
        <ele>875.4</ele>
        <time>2025-06-22T09:09:09Z</time>
      </trkpt>
      <trkpt lat="42.89062" lon="1.15477">
        <ele>875.4</ele>
        <time>2025-06-22T09:09:12Z</time>
      </trkpt>
      <trkpt lat="42.89056" lon="1.15478">
        <ele>876</ele>
        <time>2025-06-22T09:09:14Z</time>
      </trkpt>
      <trkpt lat="42.89054" lon="1.1548">
        <ele>876.4</ele>
        <time>2025-06-22T09:09:15Z</time>
      </trkpt>
      <trkpt lat="42.89051" lon="1.15481">
        <ele>876.8</ele>
        <time>2025-06-22T09:09:16Z</time>
      </trkpt>
      <trkpt lat="42.89048" lon="1.15481">
        <ele>877.2</ele>
        <time>2025-06-22T09:09:17Z</time>
      </trkpt>
      <trkpt lat="42.89045" lon="1.15482">
        <ele>877.6</ele>
        <time>2025-06-22T09:09:18Z</time>
      </trkpt>
      <trkpt lat="42.89022" lon="1.15487">
        <ele>877.6</ele>
        <time>2025-06-22T09:09:25Z</time>
      </trkpt>
      <trkpt lat="42.89005" lon="1.15491">
        <ele>878.2</ele>
        <time>2025-06-22T09:09:30Z</time>
      </trkpt>
      <trkpt lat="42.89002" lon="1.15491">
        <ele>878.6</ele>
        <time>2025-06-22T09:09:31Z</time>
      </trkpt>
      <trkpt lat="42.88998" lon="1.15491">
        <ele>879</ele>
        <time>2025-06-22T09:09:32Z</time>
      </trkpt>
      <trkpt lat="42.88994" lon="1.15492">
        <ele>879.4</ele>
        <time>2025-06-22T09:09:33Z</time>
      </trkpt>
      <trkpt lat="42.8899" lon="1.15492">
        <ele>879.8</ele>
        <time>2025-06-22T09:09:34Z</time>
      </trkpt>
      <trkpt lat="42.88968" lon="1.15492">
        <ele>879.8</ele>
        <time>2025-06-22T09:09:40Z</time>
      </trkpt>
      <trkpt lat="42.88958" lon="1.15489">
        <ele>880.2</ele>
        <time>2025-06-22T09:09:43Z</time>
      </trkpt>
      <trkpt lat="42.88955" lon="1.15488">
        <ele>880.6</ele>
        <time>2025-06-22T09:09:44Z</time>
      </trkpt>
      <trkpt lat="42.88951" lon="1.15486">
        <ele>881</ele>
        <time>2025-06-22T09:09:45Z</time>
      </trkpt>
      <trkpt lat="42.88948" lon="1.15485">
        <ele>881.4</ele>
        <time>2025-06-22T09:09:46Z</time>
      </trkpt>
      <trkpt lat="42.88944" lon="1.15484">
        <ele>881.8</ele>
        <time>2025-06-22T09:09:47Z</time>
      </trkpt>
      <trkpt lat="42.88937" lon="1.15482">
        <ele>881.8</ele>
        <time>2025-06-22T09:09:49Z</time>
      </trkpt>
      <trkpt lat="42.88917" lon="1.15483">
        <ele>882.2</ele>
        <time>2025-06-22T09:09:55Z</time>
      </trkpt>
      <trkpt lat="42.88913" lon="1.15483">
        <ele>882.6</ele>
        <time>2025-06-22T09:09:56Z</time>
      </trkpt>
      <trkpt lat="42.8891" lon="1.15483">
        <ele>883</ele>
        <time>2025-06-22T09:09:57Z</time>
      </trkpt>
      <trkpt lat="42.88906" lon="1.15484">
        <ele>883.4</ele>
        <time>2025-06-22T09:09:58Z</time>
      </trkpt>
      <trkpt lat="42.88902" lon="1.15485">
        <ele>883.8</ele>
        <time>2025-06-22T09:09:59Z</time>
      </trkpt>
      <trkpt lat="42.88891" lon="1.15488">
        <ele>883.8</ele>
        <time>2025-06-22T09:10:02Z</time>
      </trkpt>
      <trkpt lat="42.88863" lon="1.15499">
        <ele>883.8</ele>
        <time>2025-06-22T09:10:10Z</time>
      </trkpt>
      <trkpt lat="42.88837" lon="1.15512">
        <ele>883.8</ele>
        <time>2025-06-22T09:10:18Z</time>
      </trkpt>
      <trkpt lat="42.88826" lon="1.15515">
        <ele>883.8</ele>
        <time>2025-06-22T09:10:23Z</time>
      </trkpt>
      <trkpt lat="42.88824" lon="1.15517">
        <ele>883.8</ele>
        <time>2025-06-22T09:10:24Z</time>
      </trkpt>
      <trkpt lat="42.88824" lon="1.15522">
        <ele>883.8</ele>
        <time>2025-06-22T09:10:27Z</time>
      </trkpt>
      <trkpt lat="42.88825" lon="1.15523">
        <ele>883.8</ele>
        <time>2025-06-22T09:10:28Z</time>
      </trkpt>
      <trkpt lat="42.88825" lon="1.15525">
        <ele>884.6</ele>
        <time>2025-06-22T09:10:29Z</time>
      </trkpt>
      <trkpt lat="42.88826" lon="1.15526">
        <ele>885</ele>
        <time>2025-06-22T09:10:30Z</time>
      </trkpt>
      <trkpt lat="42.88826" lon="1.15527">
        <ele>885.4</ele>
        <time>2025-06-22T09:10:31Z</time>
      </trkpt>
      <trkpt lat="42.88826" lon="1.15528">
        <ele>885.8</ele>
        <time>2025-06-22T09:10:32Z</time>
      </trkpt>
      <trkpt lat="42.88826" lon="1.15529">
        <ele>885.8</ele>
        <time>2025-06-22T09:10:35Z</time>
      </trkpt>
      <trkpt lat="42.88821" lon="1.1553">
        <ele>890</ele>
        <time>2025-06-22T09:22:48Z</time>
      </trkpt>
      <trkpt lat="42.8882" lon="1.15531">
        <ele>890</ele>
        <time>2025-06-22T09:22:49Z</time>
      </trkpt>
      <trkpt lat="42.88812" lon="1.1553">
        <ele>890</ele>
        <time>2025-06-22T09:22:56Z</time>
      </trkpt>
      <trkpt lat="42.88801" lon="1.15527">
        <ele>890</ele>
        <time>2025-06-22T09:23:01Z</time>
      </trkpt>
      <trkpt lat="42.88793" lon="1.1553">
        <ele>890</ele>
        <time>2025-06-22T09:23:07Z</time>
      </trkpt>
      <trkpt lat="42.88783" lon="1.15536">
        <ele>890</ele>
        <time>2025-06-22T09:23:13Z</time>
      </trkpt>
      <trkpt lat="42.88772" lon="1.15534">
        <ele>890</ele>
        <time>2025-06-22T09:23:17Z</time>
      </trkpt>
      <trkpt lat="42.88762" lon="1.15522">
        <ele>890</ele>
        <time>2025-06-22T09:23:22Z</time>
      </trkpt>
      <trkpt lat="42.88756" lon="1.15517">
        <ele>890.4</ele>
        <time>2025-06-22T09:23:25Z</time>
      </trkpt>
      <trkpt lat="42.88754" lon="1.15515">
        <ele>890.8</ele>
        <time>2025-06-22T09:23:26Z</time>
      </trkpt>
      <trkpt lat="42.88751" lon="1.15513">
        <ele>891.4</ele>
        <time>2025-06-22T09:23:27Z</time>
      </trkpt>
      <trkpt lat="42.88749" lon="1.15511">
        <ele>891.8</ele>
        <time>2025-06-22T09:23:28Z</time>
      </trkpt>
      <trkpt lat="42.88747" lon="1.15509">
        <ele>892.4</ele>
        <time>2025-06-22T09:23:29Z</time>
      </trkpt>
      <trkpt lat="42.8873" lon="1.15499">
        <ele>892.4</ele>
        <time>2025-06-22T09:23:34Z</time>
      </trkpt>
      <trkpt lat="42.88717" lon="1.15496">
        <ele>892.4</ele>
        <time>2025-06-22T09:23:37Z</time>
      </trkpt>
      <trkpt lat="42.88704" lon="1.15493">
        <ele>892.4</ele>
        <time>2025-06-22T09:23:40Z</time>
      </trkpt>
      <trkpt lat="42.88696" lon="1.15489">
        <ele>892.4</ele>
        <time>2025-06-22T09:23:42Z</time>
      </trkpt>
      <trkpt lat="42.88682" lon="1.15479">
        <ele>892.4</ele>
        <time>2025-06-22T09:23:46Z</time>
      </trkpt>
      <trkpt lat="42.88672" lon="1.15462">
        <ele>892.4</ele>
        <time>2025-06-22T09:23:51Z</time>
      </trkpt>
      <trkpt lat="42.88664" lon="1.15437">
        <ele>892.4</ele>
        <time>2025-06-22T09:23:57Z</time>
      </trkpt>
      <trkpt lat="42.88663" lon="1.15405">
        <ele>892.4</ele>
        <time>2025-06-22T09:24:04Z</time>
      </trkpt>
      <trkpt lat="42.88663" lon="1.154">
        <ele>892.8</ele>
        <time>2025-06-22T09:24:05Z</time>
      </trkpt>
      <trkpt lat="42.88662" lon="1.15396">
        <ele>893.2</ele>
        <time>2025-06-22T09:24:06Z</time>
      </trkpt>
      <trkpt lat="42.88661" lon="1.15391">
        <ele>893.6</ele>
        <time>2025-06-22T09:24:07Z</time>
      </trkpt>
      <trkpt lat="42.88661" lon="1.15387">
        <ele>894</ele>
        <time>2025-06-22T09:24:08Z</time>
      </trkpt>
      <trkpt lat="42.8866" lon="1.15382">
        <ele>894.4</ele>
        <time>2025-06-22T09:24:09Z</time>
      </trkpt>
      <trkpt lat="42.88658" lon="1.15374">
        <ele>894.4</ele>
        <time>2025-06-22T09:24:11Z</time>
      </trkpt>
      <trkpt lat="42.88657" lon="1.15358">
        <ele>894.8</ele>
        <time>2025-06-22T09:24:14Z</time>
      </trkpt>
      <trkpt lat="42.88657" lon="1.15353">
        <ele>895.2</ele>
        <time>2025-06-22T09:24:15Z</time>
      </trkpt>
      <trkpt lat="42.88657" lon="1.15348">
        <ele>895.8</ele>
        <time>2025-06-22T09:24:16Z</time>
      </trkpt>
      <trkpt lat="42.88658" lon="1.15343">
        <ele>896.2</ele>
        <time>2025-06-22T09:24:17Z</time>
      </trkpt>
      <trkpt lat="42.8866" lon="1.15339">
        <ele>896.6</ele>
        <time>2025-06-22T09:24:18Z</time>
      </trkpt>
      <trkpt lat="42.88666" lon="1.15331">
        <ele>896.6</ele>
        <time>2025-06-22T09:24:21Z</time>
      </trkpt>
      <trkpt lat="42.88668" lon="1.15329">
        <ele>897.4</ele>
        <time>2025-06-22T09:24:22Z</time>
      </trkpt>
      <trkpt lat="42.8867" lon="1.15327">
        <ele>897.8</ele>
        <time>2025-06-22T09:24:23Z</time>
      </trkpt>
      <trkpt lat="42.88672" lon="1.15324">
        <ele>898.2</ele>
        <time>2025-06-22T09:24:24Z</time>
      </trkpt>
      <trkpt lat="42.88674" lon="1.15322">
        <ele>898.6</ele>
        <time>2025-06-22T09:24:25Z</time>
      </trkpt>
      <trkpt lat="42.88677" lon="1.15318">
        <ele>898.6</ele>
        <time>2025-06-22T09:24:27Z</time>
      </trkpt>
      <trkpt lat="42.88681" lon="1.15309">
        <ele>899.2</ele>
        <time>2025-06-22T09:24:30Z</time>
      </trkpt>
      <trkpt lat="42.88682" lon="1.15306">
        <ele>899.6</ele>
        <time>2025-06-22T09:24:31Z</time>
      </trkpt>
      <trkpt lat="42.88684" lon="1.15304">
        <ele>900</ele>
        <time>2025-06-22T09:24:32Z</time>
      </trkpt>
      <trkpt lat="42.88685" lon="1.15301">
        <ele>900.4</ele>
        <time>2025-06-22T09:24:33Z</time>
      </trkpt>
      <trkpt lat="42.88686" lon="1.15299">
        <ele>900.8</ele>
        <time>2025-06-22T09:24:34Z</time>
      </trkpt>
      <trkpt lat="42.88693" lon="1.15276">
        <ele>901.2</ele>
        <time>2025-06-22T09:24:41Z</time>
      </trkpt>
      <trkpt lat="42.88695" lon="1.15273">
        <ele>901.6</ele>
        <time>2025-06-22T09:24:42Z</time>
      </trkpt>
      <trkpt lat="42.88696" lon="1.1527">
        <ele>902</ele>
        <time>2025-06-22T09:24:43Z</time>
      </trkpt>
      <trkpt lat="42.88696" lon="1.15267">
        <ele>902.4</ele>
        <time>2025-06-22T09:24:44Z</time>
      </trkpt>
      <trkpt lat="42.88697" lon="1.15265">
        <ele>903</ele>
        <time>2025-06-22T09:24:45Z</time>
      </trkpt>
      <trkpt lat="42.88699" lon="1.15251">
        <ele>903</ele>
        <time>2025-06-22T09:24:49Z</time>
      </trkpt>
      <trkpt lat="42.887" lon="1.15248">
        <ele>903.4</ele>
        <time>2025-06-22T09:24:50Z</time>
      </trkpt>
      <trkpt lat="42.88701" lon="1.15246">
        <ele>903.8</ele>
        <time>2025-06-22T09:24:51Z</time>
      </trkpt>
      <trkpt lat="42.88702" lon="1.15243">
        <ele>904.2</ele>
        <time>2025-06-22T09:24:52Z</time>
      </trkpt>
      <trkpt lat="42.88702" lon="1.1524">
        <ele>904.6</ele>
        <time>2025-06-22T09:24:53Z</time>
      </trkpt>
      <trkpt lat="42.88704" lon="1.15237">
        <ele>905</ele>
        <time>2025-06-22T09:24:54Z</time>
      </trkpt>
      <trkpt lat="42.88704" lon="1.15221">
        <ele>905.4</ele>
        <time>2025-06-22T09:24:59Z</time>
      </trkpt>
      <trkpt lat="42.88705" lon="1.15216">
        <ele>905.8</ele>
        <time>2025-06-22T09:25:00Z</time>
      </trkpt>
      <trkpt lat="42.88705" lon="1.15213">
        <ele>906.2</ele>
        <time>2025-06-22T09:25:01Z</time>
      </trkpt>
      <trkpt lat="42.88705" lon="1.15209">
        <ele>906.6</ele>
        <time>2025-06-22T09:25:02Z</time>
      </trkpt>
      <trkpt lat="42.88706" lon="1.15205">
        <ele>907</ele>
        <time>2025-06-22T09:25:03Z</time>
      </trkpt>
      <trkpt lat="42.88704" lon="1.15193">
        <ele>907</ele>
        <time>2025-06-22T09:25:06Z</time>
      </trkpt>
      <trkpt lat="42.88702" lon="1.15186">
        <ele>907.4</ele>
        <time>2025-06-22T09:25:08Z</time>
      </trkpt>
      <trkpt lat="42.88701" lon="1.15184">
        <ele>908</ele>
        <time>2025-06-22T09:25:09Z</time>
      </trkpt>
      <trkpt lat="42.887" lon="1.15181">
        <ele>908.4</ele>
        <time>2025-06-22T09:25:10Z</time>
      </trkpt>
      <trkpt lat="42.88698" lon="1.15178">
        <ele>908.8</ele>
        <time>2025-06-22T09:25:11Z</time>
      </trkpt>
      <trkpt lat="42.88697" lon="1.15174">
        <ele>909.2</ele>
        <time>2025-06-22T09:25:12Z</time>
      </trkpt>
      <trkpt lat="42.88687" lon="1.15158">
        <ele>909.6</ele>
        <time>2025-06-22T09:25:17Z</time>
      </trkpt>
      <trkpt lat="42.88686" lon="1.15155">
        <ele>910</ele>
        <time>2025-06-22T09:25:18Z</time>
      </trkpt>
      <trkpt lat="42.88684" lon="1.15153">
        <ele>910.4</ele>
        <time>2025-06-22T09:25:19Z</time>
      </trkpt>
      <trkpt lat="42.88682" lon="1.15151">
        <ele>911</ele>
        <time>2025-06-22T09:25:20Z</time>
      </trkpt>
      <trkpt lat="42.8868" lon="1.15149">
        <ele>911.4</ele>
        <time>2025-06-22T09:25:21Z</time>
      </trkpt>
      <trkpt lat="42.8867" lon="1.15131">
        <ele>911.8</ele>
        <time>2025-06-22T09:25:27Z</time>
      </trkpt>
      <trkpt lat="42.88668" lon="1.15129">
        <ele>912.2</ele>
        <time>2025-06-22T09:25:28Z</time>
      </trkpt>
      <trkpt lat="42.88666" lon="1.15127">
        <ele>912.8</ele>
        <time>2025-06-22T09:25:29Z</time>
      </trkpt>
      <trkpt lat="42.88664" lon="1.15124">
        <ele>913.2</ele>
        <time>2025-06-22T09:25:30Z</time>
      </trkpt>
      <trkpt lat="42.88662" lon="1.15122">
        <ele>913.6</ele>
        <time>2025-06-22T09:25:31Z</time>
      </trkpt>
      <trkpt lat="42.88654" lon="1.15114">
        <ele>913.6</ele>
        <time>2025-06-22T09:25:35Z</time>
      </trkpt>
      <trkpt lat="42.8865" lon="1.1511">
        <ele>914</ele>
        <time>2025-06-22T09:25:37Z</time>
      </trkpt>
      <trkpt lat="42.88648" lon="1.15107">
        <ele>914.6</ele>
        <time>2025-06-22T09:25:38Z</time>
      </trkpt>
      <trkpt lat="42.88646" lon="1.15105">
        <ele>915</ele>
        <time>2025-06-22T09:25:39Z</time>
      </trkpt>
      <trkpt lat="42.88644" lon="1.15103">
        <ele>915.4</ele>
        <time>2025-06-22T09:25:40Z</time>
      </trkpt>
      <trkpt lat="42.88643" lon="1.151">
        <ele>915.8</ele>
        <time>2025-06-22T09:25:41Z</time>
      </trkpt>
      <trkpt lat="42.88642" lon="1.1509">
        <ele>915.8</ele>
        <time>2025-06-22T09:25:45Z</time>
      </trkpt>
      <trkpt lat="42.88643" lon="1.15087">
        <ele>916.2</ele>
        <time>2025-06-22T09:25:46Z</time>
      </trkpt>
      <trkpt lat="42.88643" lon="1.15084">
        <ele>916.6</ele>
        <time>2025-06-22T09:25:47Z</time>
      </trkpt>
      <trkpt lat="42.88643" lon="1.15082">
        <ele>917.2</ele>
        <time>2025-06-22T09:25:48Z</time>
      </trkpt>
      <trkpt lat="42.88643" lon="1.15079">
        <ele>917.6</ele>
        <time>2025-06-22T09:25:49Z</time>
      </trkpt>
      <trkpt lat="42.88644" lon="1.15076">
        <ele>918</ele>
        <time>2025-06-22T09:25:50Z</time>
      </trkpt>
      <trkpt lat="42.88644" lon="1.15073">
        <ele>918</ele>
        <time>2025-06-22T09:25:51Z</time>
      </trkpt>
      <trkpt lat="42.88646" lon="1.15062">
        <ele>918.4</ele>
        <time>2025-06-22T09:25:54Z</time>
      </trkpt>
      <trkpt lat="42.88647" lon="1.15058">
        <ele>918.8</ele>
        <time>2025-06-22T09:25:55Z</time>
      </trkpt>
      <trkpt lat="42.88648" lon="1.15055">
        <ele>919.2</ele>
        <time>2025-06-22T09:25:56Z</time>
      </trkpt>
      <trkpt lat="42.88649" lon="1.15052">
        <ele>919.6</ele>
        <time>2025-06-22T09:25:57Z</time>
      </trkpt>
      <trkpt lat="42.88649" lon="1.15048">
        <ele>920</ele>
        <time>2025-06-22T09:25:58Z</time>
      </trkpt>
      <trkpt lat="42.8865" lon="1.15037">
        <ele>920.4</ele>
        <time>2025-06-22T09:26:02Z</time>
      </trkpt>
      <trkpt lat="42.8865" lon="1.15034">
        <ele>920.8</ele>
        <time>2025-06-22T09:26:03Z</time>
      </trkpt>
      <trkpt lat="42.88651" lon="1.15029">
        <ele>921.2</ele>
        <time>2025-06-22T09:26:04Z</time>
      </trkpt>
      <trkpt lat="42.88651" lon="1.15025">
        <ele>921.8</ele>
        <time>2025-06-22T09:26:05Z</time>
      </trkpt>
      <trkpt lat="42.88651" lon="1.15022">
        <ele>922.2</ele>
        <time>2025-06-22T09:26:06Z</time>
      </trkpt>
      <trkpt lat="42.88653" lon="1.15009">
        <ele>922.2</ele>
        <time>2025-06-22T09:26:10Z</time>
      </trkpt>
      <trkpt lat="42.88653" lon="1.15002">
        <ele>922.6</ele>
        <time>2025-06-22T09:26:12Z</time>
      </trkpt>
      <trkpt lat="42.88653" lon="1.15">
        <ele>923</ele>
        <time>2025-06-22T09:26:13Z</time>
      </trkpt>
      <trkpt lat="42.88653" lon="1.14996">
        <ele>923.4</ele>
        <time>2025-06-22T09:26:14Z</time>
      </trkpt>
      <trkpt lat="42.88654" lon="1.14992">
        <ele>923.8</ele>
        <time>2025-06-22T09:26:15Z</time>
      </trkpt>
      <trkpt lat="42.88655" lon="1.14988">
        <ele>924.2</ele>
        <time>2025-06-22T09:26:16Z</time>
      </trkpt>
      <trkpt lat="42.88656" lon="1.14969">
        <ele>924.2</ele>
        <time>2025-06-22T09:26:21Z</time>
      </trkpt>
      <trkpt lat="42.88656" lon="1.14957">
        <ele>925</ele>
        <time>2025-06-22T09:26:25Z</time>
      </trkpt>
      <trkpt lat="42.88656" lon="1.14955">
        <ele>925.4</ele>
        <time>2025-06-22T09:26:26Z</time>
      </trkpt>
      <trkpt lat="42.88655" lon="1.14953">
        <ele>925.8</ele>
        <time>2025-06-22T09:26:27Z</time>
      </trkpt>
      <trkpt lat="42.88655" lon="1.1495">
        <ele>926.4</ele>
        <time>2025-06-22T09:26:28Z</time>
      </trkpt>
      <trkpt lat="42.88654" lon="1.14934">
        <ele>926.8</ele>
        <time>2025-06-22T09:26:32Z</time>
      </trkpt>
      <trkpt lat="42.88654" lon="1.1493">
        <ele>927.2</ele>
        <time>2025-06-22T09:26:33Z</time>
      </trkpt>
      <trkpt lat="42.88654" lon="1.14925">
        <ele>927.6</ele>
        <time>2025-06-22T09:26:34Z</time>
      </trkpt>
      <trkpt lat="42.88654" lon="1.14921">
        <ele>928</ele>
        <time>2025-06-22T09:26:35Z</time>
      </trkpt>
      <trkpt lat="42.88654" lon="1.14917">
        <ele>928.4</ele>
        <time>2025-06-22T09:26:36Z</time>
      </trkpt>
      <trkpt lat="42.88654" lon="1.149">
        <ele>928.8</ele>
        <time>2025-06-22T09:26:40Z</time>
      </trkpt>
      <trkpt lat="42.88653" lon="1.14897">
        <ele>929.2</ele>
        <time>2025-06-22T09:26:41Z</time>
      </trkpt>
      <trkpt lat="42.88652" lon="1.14894">
        <ele>929.6</ele>
        <time>2025-06-22T09:26:42Z</time>
      </trkpt>
      <trkpt lat="42.88651" lon="1.14889">
        <ele>930</ele>
        <time>2025-06-22T09:26:43Z</time>
      </trkpt>
      <trkpt lat="42.88651" lon="1.14886">
        <ele>930.4</ele>
        <time>2025-06-22T09:26:44Z</time>
      </trkpt>
      <trkpt lat="42.88651" lon="1.14883">
        <ele>930.4</ele>
        <time>2025-06-22T09:26:45Z</time>
      </trkpt>
      <trkpt lat="42.88649" lon="1.14866">
        <ele>931</ele>
        <time>2025-06-22T09:26:50Z</time>
      </trkpt>
      <trkpt lat="42.8865" lon="1.14862">
        <ele>931.4</ele>
        <time>2025-06-22T09:26:51Z</time>
      </trkpt>
      <trkpt lat="42.8865" lon="1.14859">
        <ele>931.8</ele>
        <time>2025-06-22T09:26:52Z</time>
      </trkpt>
      <trkpt lat="42.8865" lon="1.14855">
        <ele>932.2</ele>
        <time>2025-06-22T09:26:53Z</time>
      </trkpt>
      <trkpt lat="42.88651" lon="1.14851">
        <ele>932.8</ele>
        <time>2025-06-22T09:26:54Z</time>
      </trkpt>
      <trkpt lat="42.8865" lon="1.14833">
        <ele>933.2</ele>
        <time>2025-06-22T09:26:59Z</time>
      </trkpt>
      <trkpt lat="42.88649" lon="1.14831">
        <ele>933.6</ele>
        <time>2025-06-22T09:27:00Z</time>
      </trkpt>
      <trkpt lat="42.88648" lon="1.14827">
        <ele>934</ele>
        <time>2025-06-22T09:27:01Z</time>
      </trkpt>
      <trkpt lat="42.88648" lon="1.14823">
        <ele>934.6</ele>
        <time>2025-06-22T09:27:02Z</time>
      </trkpt>
      <trkpt lat="42.88648" lon="1.14818">
        <ele>935</ele>
        <time>2025-06-22T09:27:03Z</time>
      </trkpt>
      <trkpt lat="42.88647" lon="1.14807">
        <ele>935</ele>
        <time>2025-06-22T09:27:07Z</time>
      </trkpt>
      <trkpt lat="42.88647" lon="1.14805">
        <ele>935.4</ele>
        <time>2025-06-22T09:27:08Z</time>
      </trkpt>
      <trkpt lat="42.88646" lon="1.14802">
        <ele>935.8</ele>
        <time>2025-06-22T09:27:09Z</time>
      </trkpt>
      <trkpt lat="42.88646" lon="1.14799">
        <ele>936.2</ele>
        <time>2025-06-22T09:27:10Z</time>
      </trkpt>
      <trkpt lat="42.88646" lon="1.14797">
        <ele>936.8</ele>
        <time>2025-06-22T09:27:11Z</time>
      </trkpt>
      <trkpt lat="42.88646" lon="1.14794">
        <ele>937.2</ele>
        <time>2025-06-22T09:27:12Z</time>
      </trkpt>
      <trkpt lat="42.88647" lon="1.14789">
        <ele>937.2</ele>
        <time>2025-06-22T09:27:14Z</time>
      </trkpt>
      <trkpt lat="42.88647" lon="1.1478">
        <ele>937.6</ele>
        <time>2025-06-22T09:27:18Z</time>
      </trkpt>
      <trkpt lat="42.88646" lon="1.14776">
        <ele>938</ele>
        <time>2025-06-22T09:27:19Z</time>
      </trkpt>
      <trkpt lat="42.88646" lon="1.14772">
        <ele>938.4</ele>
        <time>2025-06-22T09:27:20Z</time>
      </trkpt>
      <trkpt lat="42.88646" lon="1.14769">
        <ele>938.8</ele>
        <time>2025-06-22T09:27:21Z</time>
      </trkpt>
      <trkpt lat="42.88646" lon="1.14766">
        <ele>939.2</ele>
        <time>2025-06-22T09:27:22Z</time>
      </trkpt>
      <trkpt lat="42.88645" lon="1.14755">
        <ele>939.2</ele>
        <time>2025-06-22T09:27:26Z</time>
      </trkpt>
      <trkpt lat="42.88648" lon="1.14749">
        <ele>939.6</ele>
        <time>2025-06-22T09:27:29Z</time>
      </trkpt>
      <trkpt lat="42.8865" lon="1.14746">
        <ele>940.2</ele>
        <time>2025-06-22T09:27:30Z</time>
      </trkpt>
      <trkpt lat="42.88649" lon="1.14742">
        <ele>940.6</ele>
        <time>2025-06-22T09:27:31Z</time>
      </trkpt>
      <trkpt lat="42.88649" lon="1.1474">
        <ele>941</ele>
        <time>2025-06-22T09:27:32Z</time>
      </trkpt>
      <trkpt lat="42.8865" lon="1.14736">
        <ele>941.4</ele>
        <time>2025-06-22T09:27:33Z</time>
      </trkpt>
      <trkpt lat="42.8865" lon="1.14719">
        <ele>941.4</ele>
        <time>2025-06-22T09:27:37Z</time>
      </trkpt>
      <trkpt lat="42.88648" lon="1.14709">
        <ele>942.2</ele>
        <time>2025-06-22T09:27:39Z</time>
      </trkpt>
      <trkpt lat="42.88647" lon="1.14702">
        <ele>942.6</ele>
        <time>2025-06-22T09:27:40Z</time>
      </trkpt>
      <trkpt lat="42.88648" lon="1.14697">
        <ele>943</ele>
        <time>2025-06-22T09:27:41Z</time>
      </trkpt>
      <trkpt lat="42.88647" lon="1.1469">
        <ele>943.4</ele>
        <time>2025-06-22T09:27:42Z</time>
      </trkpt>
      <trkpt lat="42.88647" lon="1.14664">
        <ele>944</ele>
        <time>2025-06-22T09:27:48Z</time>
      </trkpt>
      <trkpt lat="42.88646" lon="1.14661">
        <ele>944.4</ele>
        <time>2025-06-22T09:27:49Z</time>
      </trkpt>
      <trkpt lat="42.88647" lon="1.14657">
        <ele>944.8</ele>
        <time>2025-06-22T09:27:50Z</time>
      </trkpt>
      <trkpt lat="42.88647" lon="1.14653">
        <ele>945.2</ele>
        <time>2025-06-22T09:27:51Z</time>
      </trkpt>
      <trkpt lat="42.88648" lon="1.14649">
        <ele>945.6</ele>
        <time>2025-06-22T09:27:52Z</time>
      </trkpt>
      <trkpt lat="42.8865" lon="1.14643">
        <ele>945.6</ele>
        <time>2025-06-22T09:27:54Z</time>
      </trkpt>
      <trkpt lat="42.88653" lon="1.14627">
        <ele>946</ele>
        <time>2025-06-22T09:27:58Z</time>
      </trkpt>
      <trkpt lat="42.88655" lon="1.14624">
        <ele>946.4</ele>
        <time>2025-06-22T09:27:59Z</time>
      </trkpt>
      <trkpt lat="42.88657" lon="1.14621">
        <ele>946.8</ele>
        <time>2025-06-22T09:28:00Z</time>
      </trkpt>
      <trkpt lat="42.88657" lon="1.14616">
        <ele>947.2</ele>
        <time>2025-06-22T09:28:01Z</time>
      </trkpt>
      <trkpt lat="42.88658" lon="1.1461">
        <ele>947.6</ele>
        <time>2025-06-22T09:28:02Z</time>
      </trkpt>
      <trkpt lat="42.88658" lon="1.14597">
        <ele>947.6</ele>
        <time>2025-06-22T09:28:05Z</time>
      </trkpt>
      <trkpt lat="42.88657" lon="1.14593">
        <ele>948</ele>
        <time>2025-06-22T09:28:06Z</time>
      </trkpt>
      <trkpt lat="42.88656" lon="1.1459">
        <ele>948.4</ele>
        <time>2025-06-22T09:28:07Z</time>
      </trkpt>
      <trkpt lat="42.88655" lon="1.14587">
        <ele>949</ele>
        <time>2025-06-22T09:28:08Z</time>
      </trkpt>
      <trkpt lat="42.88653" lon="1.14584">
        <ele>949.4</ele>
        <time>2025-06-22T09:28:09Z</time>
      </trkpt>
      <trkpt lat="42.88652" lon="1.14581">
        <ele>949.8</ele>
        <time>2025-06-22T09:28:10Z</time>
      </trkpt>
      <trkpt lat="42.8865" lon="1.14569">
        <ele>949.8</ele>
        <time>2025-06-22T09:28:13Z</time>
      </trkpt>
      <trkpt lat="42.88651" lon="1.14562">
        <ele>950.2</ele>
        <time>2025-06-22T09:28:15Z</time>
      </trkpt>
      <trkpt lat="42.88651" lon="1.14559">
        <ele>950.6</ele>
        <time>2025-06-22T09:28:16Z</time>
      </trkpt>
      <trkpt lat="42.88651" lon="1.14556">
        <ele>951</ele>
        <time>2025-06-22T09:28:17Z</time>
      </trkpt>
      <trkpt lat="42.8865" lon="1.14553">
        <ele>951.4</ele>
        <time>2025-06-22T09:28:18Z</time>
      </trkpt>
      <trkpt lat="42.88649" lon="1.14551">
        <ele>951.8</ele>
        <time>2025-06-22T09:28:19Z</time>
      </trkpt>
      <trkpt lat="42.88648" lon="1.14548">
        <ele>951.8</ele>
        <time>2025-06-22T09:28:20Z</time>
      </trkpt>
      <trkpt lat="42.88642" lon="1.14536">
        <ele>952.2</ele>
        <time>2025-06-22T09:28:23Z</time>
      </trkpt>
      <trkpt lat="42.88641" lon="1.14533">
        <ele>952.6</ele>
        <time>2025-06-22T09:28:24Z</time>
      </trkpt>
      <trkpt lat="42.88641" lon="1.14531">
        <ele>953.2</ele>
        <time>2025-06-22T09:28:25Z</time>
      </trkpt>
      <trkpt lat="42.8864" lon="1.14527">
        <ele>953.6</ele>
        <time>2025-06-22T09:28:26Z</time>
      </trkpt>
      <trkpt lat="42.8864" lon="1.14524">
        <ele>954</ele>
        <time>2025-06-22T09:28:27Z</time>
      </trkpt>
      <trkpt lat="42.8864" lon="1.14508">
        <ele>954.4</ele>
        <time>2025-06-22T09:28:32Z</time>
      </trkpt>
      <trkpt lat="42.8864" lon="1.14506">
        <ele>954.8</ele>
        <time>2025-06-22T09:28:33Z</time>
      </trkpt>
      <trkpt lat="42.88639" lon="1.14503">
        <ele>955.2</ele>
        <time>2025-06-22T09:28:34Z</time>
      </trkpt>
      <trkpt lat="42.88638" lon="1.145">
        <ele>955.6</ele>
        <time>2025-06-22T09:28:35Z</time>
      </trkpt>
      <trkpt lat="42.88637" lon="1.14498">
        <ele>956</ele>
        <time>2025-06-22T09:28:36Z</time>
      </trkpt>
      <trkpt lat="42.88635" lon="1.1449">
        <ele>956</ele>
        <time>2025-06-22T09:28:38Z</time>
      </trkpt>
      <trkpt lat="42.88633" lon="1.14481">
        <ele>956.6</ele>
        <time>2025-06-22T09:28:41Z</time>
      </trkpt>
      <trkpt lat="42.88632" lon="1.14478">
        <ele>957</ele>
        <time>2025-06-22T09:28:42Z</time>
      </trkpt>
      <trkpt lat="42.8863" lon="1.14474">
        <ele>957.4</ele>
        <time>2025-06-22T09:28:43Z</time>
      </trkpt>
      <trkpt lat="42.88629" lon="1.14472">
        <ele>957.8</ele>
        <time>2025-06-22T09:28:44Z</time>
      </trkpt>
      <trkpt lat="42.88627" lon="1.14471">
        <ele>958.2</ele>
        <time>2025-06-22T09:28:45Z</time>
      </trkpt>
      <trkpt lat="42.88625" lon="1.14464">
        <ele>958.2</ele>
        <time>2025-06-22T09:28:49Z</time>
      </trkpt>
      <trkpt lat="42.88623" lon="1.1446">
        <ele>958.2</ele>
        <time>2025-06-22T09:28:50Z</time>
      </trkpt>
      <trkpt lat="42.88621" lon="1.14454">
        <ele>959</ele>
        <time>2025-06-22T09:28:53Z</time>
      </trkpt>
      <trkpt lat="42.88621" lon="1.14453">
        <ele>959.4</ele>
        <time>2025-06-22T09:28:54Z</time>
      </trkpt>
      <trkpt lat="42.8862" lon="1.14451">
        <ele>959.8</ele>
        <time>2025-06-22T09:28:55Z</time>
      </trkpt>
      <trkpt lat="42.88618" lon="1.14447">
        <ele>960.4</ele>
        <time>2025-06-22T09:28:58Z</time>
      </trkpt>
      <trkpt lat="42.88616" lon="1.14441">
        <ele>960.8</ele>
        <time>2025-06-22T09:29:01Z</time>
      </trkpt>
      <trkpt lat="42.88615" lon="1.1444">
        <ele>961.2</ele>
        <time>2025-06-22T09:29:02Z</time>
      </trkpt>
      <trkpt lat="42.88614" lon="1.14439">
        <ele>961.6</ele>
        <time>2025-06-22T09:29:03Z</time>
      </trkpt>
      <trkpt lat="42.88612" lon="1.14436">
        <ele>962</ele>
        <time>2025-06-22T09:29:04Z</time>
      </trkpt>
      <trkpt lat="42.8861" lon="1.1443">
        <ele>962.4</ele>
        <time>2025-06-22T09:29:05Z</time>
      </trkpt>
      <trkpt lat="42.88604" lon="1.14418">
        <ele>962.4</ele>
        <time>2025-06-22T09:29:06Z</time>
      </trkpt>
      <trkpt lat="42.88602" lon="1.1441">
        <ele>962.8</ele>
        <time>2025-06-22T09:29:08Z</time>
      </trkpt>
      <trkpt lat="42.88601" lon="1.14406">
        <ele>963.2</ele>
        <time>2025-06-22T09:29:09Z</time>
      </trkpt>
      <trkpt lat="42.88601" lon="1.14401">
        <ele>963.6</ele>
        <time>2025-06-22T09:29:10Z</time>
      </trkpt>
      <trkpt lat="42.886" lon="1.14396">
        <ele>964</ele>
        <time>2025-06-22T09:29:11Z</time>
      </trkpt>
      <trkpt lat="42.88599" lon="1.14392">
        <ele>964.4</ele>
        <time>2025-06-22T09:29:12Z</time>
      </trkpt>
      <trkpt lat="42.88599" lon="1.14373">
        <ele>965</ele>
        <time>2025-06-22T09:29:17Z</time>
      </trkpt>
      <trkpt lat="42.886" lon="1.14371">
        <ele>965.8</ele>
        <time>2025-06-22T09:29:18Z</time>
      </trkpt>
      <trkpt lat="42.88601" lon="1.14367">
        <ele>966.2</ele>
        <time>2025-06-22T09:29:19Z</time>
      </trkpt>
      <trkpt lat="42.88602" lon="1.14363">
        <ele>966.6</ele>
        <time>2025-06-22T09:29:20Z</time>
      </trkpt>
      <trkpt lat="42.88606" lon="1.14353">
        <ele>967</ele>
        <time>2025-06-22T09:29:23Z</time>
      </trkpt>
      <trkpt lat="42.88607" lon="1.14349">
        <ele>967.4</ele>
        <time>2025-06-22T09:29:24Z</time>
      </trkpt>
      <trkpt lat="42.88608" lon="1.14347">
        <ele>968</ele>
        <time>2025-06-22T09:29:25Z</time>
      </trkpt>
      <trkpt lat="42.88609" lon="1.14344">
        <ele>968.4</ele>
        <time>2025-06-22T09:29:26Z</time>
      </trkpt>
      <trkpt lat="42.8861" lon="1.14341">
        <ele>968.8</ele>
        <time>2025-06-22T09:29:27Z</time>
      </trkpt>
      <trkpt lat="42.8861" lon="1.14326">
        <ele>969.2</ele>
        <time>2025-06-22T09:29:30Z</time>
      </trkpt>
      <trkpt lat="42.88611" lon="1.14322">
        <ele>969.6</ele>
        <time>2025-06-22T09:29:31Z</time>
      </trkpt>
      <trkpt lat="42.88613" lon="1.14318">
        <ele>970</ele>
        <time>2025-06-22T09:29:32Z</time>
      </trkpt>
      <trkpt lat="42.88615" lon="1.14316">
        <ele>970.4</ele>
        <time>2025-06-22T09:29:33Z</time>
      </trkpt>
      <trkpt lat="42.88616" lon="1.14313">
        <ele>970.8</ele>
        <time>2025-06-22T09:29:34Z</time>
      </trkpt>
      <trkpt lat="42.8862" lon="1.14298">
        <ele>970.8</ele>
        <time>2025-06-22T09:29:38Z</time>
      </trkpt>
      <trkpt lat="42.88619" lon="1.14294">
        <ele>971.2</ele>
        <time>2025-06-22T09:29:39Z</time>
      </trkpt>
      <trkpt lat="42.8862" lon="1.14291">
        <ele>971.6</ele>
        <time>2025-06-22T09:29:40Z</time>
      </trkpt>
      <trkpt lat="42.88621" lon="1.14287">
        <ele>972</ele>
        <time>2025-06-22T09:29:41Z</time>
      </trkpt>
      <trkpt lat="42.88624" lon="1.14285">
        <ele>972.4</ele>
        <time>2025-06-22T09:29:42Z</time>
      </trkpt>
      <trkpt lat="42.88626" lon="1.14282">
        <ele>973</ele>
        <time>2025-06-22T09:29:43Z</time>
      </trkpt>
      <trkpt lat="42.88628" lon="1.14277">
        <ele>973</ele>
        <time>2025-06-22T09:29:44Z</time>
      </trkpt>
      <trkpt lat="42.88637" lon="1.14261">
        <ele>973.4</ele>
        <time>2025-06-22T09:29:48Z</time>
      </trkpt>
      <trkpt lat="42.88641" lon="1.14256">
        <ele>973.8</ele>
        <time>2025-06-22T09:29:49Z</time>
      </trkpt>
      <trkpt lat="42.88643" lon="1.14253">
        <ele>974.2</ele>
        <time>2025-06-22T09:29:50Z</time>
      </trkpt>
      <trkpt lat="42.88646" lon="1.14249">
        <ele>974.6</ele>
        <time>2025-06-22T09:29:51Z</time>
      </trkpt>
      <trkpt lat="42.88647" lon="1.14245">
        <ele>975.2</ele>
        <time>2025-06-22T09:29:52Z</time>
      </trkpt>
      <trkpt lat="42.88653" lon="1.14227">
        <ele>975.6</ele>
        <time>2025-06-22T09:29:57Z</time>
      </trkpt>
      <trkpt lat="42.88655" lon="1.14224">
        <ele>976</ele>
        <time>2025-06-22T09:29:58Z</time>
      </trkpt>
      <trkpt lat="42.88656" lon="1.1422">
        <ele>976.4</ele>
        <time>2025-06-22T09:29:59Z</time>
      </trkpt>
      <trkpt lat="42.88657" lon="1.14216">
        <ele>976.8</ele>
        <time>2025-06-22T09:30:00Z</time>
      </trkpt>
      <trkpt lat="42.88659" lon="1.14213">
        <ele>977.2</ele>
        <time>2025-06-22T09:30:01Z</time>
      </trkpt>
      <trkpt lat="42.88662" lon="1.14198">
        <ele>977.8</ele>
        <time>2025-06-22T09:30:05Z</time>
      </trkpt>
      <trkpt lat="42.88661" lon="1.14194">
        <ele>978.2</ele>
        <time>2025-06-22T09:30:06Z</time>
      </trkpt>
      <trkpt lat="42.88662" lon="1.14191">
        <ele>979</ele>
        <time>2025-06-22T09:30:07Z</time>
      </trkpt>
      <trkpt lat="42.88661" lon="1.14187">
        <ele>979.6</ele>
        <time>2025-06-22T09:30:08Z</time>
      </trkpt>
      <trkpt lat="42.88662" lon="1.14171">
        <ele>979.6</ele>
        <time>2025-06-22T09:30:12Z</time>
      </trkpt>
      <trkpt lat="42.88662" lon="1.14167">
        <ele>980</ele>
        <time>2025-06-22T09:30:13Z</time>
      </trkpt>
      <trkpt lat="42.88664" lon="1.14164">
        <ele>980.4</ele>
        <time>2025-06-22T09:30:14Z</time>
      </trkpt>
      <trkpt lat="42.88665" lon="1.1416">
        <ele>980.8</ele>
        <time>2025-06-22T09:30:15Z</time>
      </trkpt>
      <trkpt lat="42.88667" lon="1.14156">
        <ele>981.2</ele>
        <time>2025-06-22T09:30:16Z</time>
      </trkpt>
      <trkpt lat="42.8867" lon="1.14153">
        <ele>981.6</ele>
        <time>2025-06-22T09:30:17Z</time>
      </trkpt>
      <trkpt lat="42.88682" lon="1.1414">
        <ele>982</ele>
        <time>2025-06-22T09:30:22Z</time>
      </trkpt>
      <trkpt lat="42.88684" lon="1.14138">
        <ele>982.4</ele>
        <time>2025-06-22T09:30:23Z</time>
      </trkpt>
      <trkpt lat="42.88686" lon="1.14135">
        <ele>983</ele>
        <time>2025-06-22T09:30:24Z</time>
      </trkpt>
      <trkpt lat="42.88689" lon="1.14133">
        <ele>983.4</ele>
        <time>2025-06-22T09:30:25Z</time>
      </trkpt>
      <trkpt lat="42.88692" lon="1.1413">
        <ele>983.8</ele>
        <time>2025-06-22T09:30:26Z</time>
      </trkpt>
      <trkpt lat="42.88701" lon="1.14121">
        <ele>984.2</ele>
        <time>2025-06-22T09:30:30Z</time>
      </trkpt>
      <trkpt lat="42.88703" lon="1.14118">
        <ele>984.6</ele>
        <time>2025-06-22T09:30:31Z</time>
      </trkpt>
      <trkpt lat="42.88704" lon="1.14115">
        <ele>985.6</ele>
        <time>2025-06-22T09:30:32Z</time>
      </trkpt>
      <trkpt lat="42.88705" lon="1.14112">
        <ele>986</ele>
        <time>2025-06-22T09:30:33Z</time>
      </trkpt>
      <trkpt lat="42.88707" lon="1.14104">
        <ele>986</ele>
        <time>2025-06-22T09:30:35Z</time>
      </trkpt>
      <trkpt lat="42.88708" lon="1.141">
        <ele>986.6</ele>
        <time>2025-06-22T09:30:36Z</time>
      </trkpt>
      <trkpt lat="42.8871" lon="1.14097">
        <ele>987</ele>
        <time>2025-06-22T09:30:37Z</time>
      </trkpt>
      <trkpt lat="42.88711" lon="1.14094">
        <ele>987.4</ele>
        <time>2025-06-22T09:30:38Z</time>
      </trkpt>
      <trkpt lat="42.88712" lon="1.14091">
        <ele>988</ele>
        <time>2025-06-22T09:30:39Z</time>
      </trkpt>
      <trkpt lat="42.88714" lon="1.14089">
        <ele>988.4</ele>
        <time>2025-06-22T09:30:40Z</time>
      </trkpt>
      <trkpt lat="42.88717" lon="1.14086">
        <ele>988.4</ele>
        <time>2025-06-22T09:30:41Z</time>
      </trkpt>
      <trkpt lat="42.88723" lon="1.14078">
        <ele>988.8</ele>
        <time>2025-06-22T09:30:44Z</time>
      </trkpt>
      <trkpt lat="42.88725" lon="1.14075">
        <ele>989.2</ele>
        <time>2025-06-22T09:30:45Z</time>
      </trkpt>
      <trkpt lat="42.88726" lon="1.14072">
        <ele>989.8</ele>
        <time>2025-06-22T09:30:46Z</time>
      </trkpt>
      <trkpt lat="42.88726" lon="1.14068">
        <ele>990.2</ele>
        <time>2025-06-22T09:30:47Z</time>
      </trkpt>
      <trkpt lat="42.88727" lon="1.14065">
        <ele>990.6</ele>
        <time>2025-06-22T09:30:48Z</time>
      </trkpt>
      <trkpt lat="42.8873" lon="1.14055">
        <ele>991</ele>
        <time>2025-06-22T09:30:51Z</time>
      </trkpt>
      <trkpt lat="42.88731" lon="1.14052">
        <ele>991.4</ele>
        <time>2025-06-22T09:30:52Z</time>
      </trkpt>
      <trkpt lat="42.88732" lon="1.1405">
        <ele>992</ele>
        <time>2025-06-22T09:30:53Z</time>
      </trkpt>
      <trkpt lat="42.88735" lon="1.14048">
        <ele>992.4</ele>
        <time>2025-06-22T09:30:54Z</time>
      </trkpt>
      <trkpt lat="42.88736" lon="1.14046">
        <ele>992.8</ele>
        <time>2025-06-22T09:30:55Z</time>
      </trkpt>
      <trkpt lat="42.88743" lon="1.14039">
        <ele>993.2</ele>
        <time>2025-06-22T09:30:58Z</time>
      </trkpt>
      <trkpt lat="42.88745" lon="1.14038">
        <ele>993.6</ele>
        <time>2025-06-22T09:30:59Z</time>
      </trkpt>
      <trkpt lat="42.88747" lon="1.14037">
        <ele>994</ele>
        <time>2025-06-22T09:31:00Z</time>
      </trkpt>
      <trkpt lat="42.88749" lon="1.14036">
        <ele>994.6</ele>
        <time>2025-06-22T09:31:01Z</time>
      </trkpt>
      <trkpt lat="42.88752" lon="1.14035">
        <ele>995</ele>
        <time>2025-06-22T09:31:02Z</time>
      </trkpt>
      <trkpt lat="42.88759" lon="1.14028">
        <ele>995.4</ele>
        <time>2025-06-22T09:31:06Z</time>
      </trkpt>
      <trkpt lat="42.88762" lon="1.14026">
        <ele>995.8</ele>
        <time>2025-06-22T09:31:07Z</time>
      </trkpt>
      <trkpt lat="42.88765" lon="1.14022">
        <ele>996.2</ele>
        <time>2025-06-22T09:31:08Z</time>
      </trkpt>
      <trkpt lat="42.88768" lon="1.1402">
        <ele>996.6</ele>
        <time>2025-06-22T09:31:09Z</time>
      </trkpt>
      <trkpt lat="42.88771" lon="1.14017">
        <ele>997.2</ele>
        <time>2025-06-22T09:31:10Z</time>
      </trkpt>
      <trkpt lat="42.88778" lon="1.14011">
        <ele>997.2</ele>
        <time>2025-06-22T09:31:12Z</time>
      </trkpt>
      <trkpt lat="42.8879" lon="1.13991">
        <ele>997.6</ele>
        <time>2025-06-22T09:31:18Z</time>
      </trkpt>
      <trkpt lat="42.88791" lon="1.13988">
        <ele>998</ele>
        <time>2025-06-22T09:31:19Z</time>
      </trkpt>
      <trkpt lat="42.88793" lon="1.13984">
        <ele>998.4</ele>
        <time>2025-06-22T09:31:20Z</time>
      </trkpt>
      <trkpt lat="42.88794" lon="1.13982">
        <ele>999.2</ele>
        <time>2025-06-22T09:31:21Z</time>
      </trkpt>
      <trkpt lat="42.888" lon="1.13964">
        <ele>999.2</ele>
        <time>2025-06-22T09:31:26Z</time>
      </trkpt>
      <trkpt lat="42.888" lon="1.13952">
        <ele>999.6</ele>
        <time>2025-06-22T09:31:29Z</time>
      </trkpt>
      <trkpt lat="42.88799" lon="1.13948">
        <ele>1000</ele>
        <time>2025-06-22T09:31:30Z</time>
      </trkpt>
      <trkpt lat="42.88798" lon="1.13945">
        <ele>1000.4</ele>
        <time>2025-06-22T09:31:31Z</time>
      </trkpt>
      <trkpt lat="42.88797" lon="1.13941">
        <ele>1000.8</ele>
        <time>2025-06-22T09:31:32Z</time>
      </trkpt>
      <trkpt lat="42.88797" lon="1.13937">
        <ele>1001.4</ele>
        <time>2025-06-22T09:31:33Z</time>
      </trkpt>
      <trkpt lat="42.88795" lon="1.13924">
        <ele>1001.4</ele>
        <time>2025-06-22T09:31:37Z</time>
      </trkpt>
      <trkpt lat="42.88794" lon="1.13908">
        <ele>1001.8</ele>
        <time>2025-06-22T09:31:41Z</time>
      </trkpt>
      <trkpt lat="42.88793" lon="1.13904">
        <ele>1002.2</ele>
        <time>2025-06-22T09:31:42Z</time>
      </trkpt>
      <trkpt lat="42.88793" lon="1.139">
        <ele>1002.6</ele>
        <time>2025-06-22T09:31:43Z</time>
      </trkpt>
      <trkpt lat="42.88793" lon="1.13896">
        <ele>1003</ele>
        <time>2025-06-22T09:31:44Z</time>
      </trkpt>
      <trkpt lat="42.88793" lon="1.13892">
        <ele>1003.4</ele>
        <time>2025-06-22T09:31:45Z</time>
      </trkpt>
      <trkpt lat="42.88792" lon="1.13881">
        <ele>1003.4</ele>
        <time>2025-06-22T09:31:48Z</time>
      </trkpt>
      <trkpt lat="42.88791" lon="1.13869">
        <ele>1004</ele>
        <time>2025-06-22T09:31:51Z</time>
      </trkpt>
      <trkpt lat="42.88791" lon="1.13865">
        <ele>1004.4</ele>
        <time>2025-06-22T09:31:52Z</time>
      </trkpt>
      <trkpt lat="42.8879" lon="1.13861">
        <ele>1004.8</ele>
        <time>2025-06-22T09:31:53Z</time>
      </trkpt>
      <trkpt lat="42.8879" lon="1.13857">
        <ele>1005.2</ele>
        <time>2025-06-22T09:31:54Z</time>
      </trkpt>
      <trkpt lat="42.8879" lon="1.13853">
        <ele>1005.6</ele>
        <time>2025-06-22T09:31:55Z</time>
      </trkpt>
      <trkpt lat="42.88787" lon="1.1383">
        <ele>1006</ele>
        <time>2025-06-22T09:32:01Z</time>
      </trkpt>
      <trkpt lat="42.88787" lon="1.13826">
        <ele>1006.6</ele>
        <time>2025-06-22T09:32:02Z</time>
      </trkpt>
      <trkpt lat="42.88787" lon="1.13822">
        <ele>1007</ele>
        <time>2025-06-22T09:32:03Z</time>
      </trkpt>
      <trkpt lat="42.88786" lon="1.13818">
        <ele>1007.4</ele>
        <time>2025-06-22T09:32:04Z</time>
      </trkpt>
      <trkpt lat="42.88787" lon="1.13814">
        <ele>1007.8</ele>
        <time>2025-06-22T09:32:05Z</time>
      </trkpt>
      <trkpt lat="42.88787" lon="1.13801">
        <ele>1007.8</ele>
        <time>2025-06-22T09:32:08Z</time>
      </trkpt>
      <trkpt lat="42.88786" lon="1.13789">
        <ele>1008.6</ele>
        <time>2025-06-22T09:32:11Z</time>
      </trkpt>
      <trkpt lat="42.88786" lon="1.13785">
        <ele>1009.2</ele>
        <time>2025-06-22T09:32:12Z</time>
      </trkpt>
      <trkpt lat="42.88785" lon="1.13781">
        <ele>1009.6</ele>
        <time>2025-06-22T09:32:13Z</time>
      </trkpt>
      <trkpt lat="42.88785" lon="1.13778">
        <ele>1010</ele>
        <time>2025-06-22T09:32:14Z</time>
      </trkpt>
      <trkpt lat="42.88785" lon="1.13774">
        <ele>1010</ele>
        <time>2025-06-22T09:32:15Z</time>
      </trkpt>
      <trkpt lat="42.88784" lon="1.1375">
        <ele>1010.4</ele>
        <time>2025-06-22T09:32:21Z</time>
      </trkpt>
      <trkpt lat="42.88784" lon="1.13745">
        <ele>1010.8</ele>
        <time>2025-06-22T09:32:22Z</time>
      </trkpt>
      <trkpt lat="42.88783" lon="1.13741">
        <ele>1011.2</ele>
        <time>2025-06-22T09:32:23Z</time>
      </trkpt>
      <trkpt lat="42.88783" lon="1.13737">
        <ele>1011.6</ele>
        <time>2025-06-22T09:32:24Z</time>
      </trkpt>
      <trkpt lat="42.88783" lon="1.13732">
        <ele>1012.2</ele>
        <time>2025-06-22T09:32:25Z</time>
      </trkpt>
      <trkpt lat="42.8878" lon="1.13721">
        <ele>1012.2</ele>
        <time>2025-06-22T09:32:27Z</time>
      </trkpt>
      <trkpt lat="42.88776" lon="1.13699">
        <ele>1012.6</ele>
        <time>2025-06-22T09:32:31Z</time>
      </trkpt>
      <trkpt lat="42.88775" lon="1.13694">
        <ele>1013</ele>
        <time>2025-06-22T09:32:32Z</time>
      </trkpt>
      <trkpt lat="42.88775" lon="1.13689">
        <ele>1013.4</ele>
        <time>2025-06-22T09:32:33Z</time>
      </trkpt>
      <trkpt lat="42.88773" lon="1.13685">
        <ele>1013.8</ele>
        <time>2025-06-22T09:32:34Z</time>
      </trkpt>
      <trkpt lat="42.88773" lon="1.1368">
        <ele>1014.2</ele>
        <time>2025-06-22T09:32:35Z</time>
      </trkpt>
      <trkpt lat="42.88772" lon="1.13668">
        <ele>1014.2</ele>
        <time>2025-06-22T09:32:38Z</time>
      </trkpt>
      <trkpt lat="42.88774" lon="1.13649">
        <ele>1014.2</ele>
        <time>2025-06-22T09:32:43Z</time>
      </trkpt>
      <trkpt lat="42.88777" lon="1.13629">
        <ele>1014.2</ele>
        <time>2025-06-22T09:32:47Z</time>
      </trkpt>
      <trkpt lat="42.88782" lon="1.13606">
        <ele>1013.8</ele>
        <time>2025-06-22T09:32:50Z</time>
      </trkpt>
      <trkpt lat="42.88785" lon="1.13596">
        <ele>1013.2</ele>
        <time>2025-06-22T09:32:51Z</time>
      </trkpt>
      <trkpt lat="42.88787" lon="1.13587">
        <ele>1012.8</ele>
        <time>2025-06-22T09:32:52Z</time>
      </trkpt>
      <trkpt lat="42.8879" lon="1.13578">
        <ele>1012.2</ele>
        <time>2025-06-22T09:32:53Z</time>
      </trkpt>
      <trkpt lat="42.88792" lon="1.1357">
        <ele>1011.6</ele>
        <time>2025-06-22T09:32:54Z</time>
      </trkpt>
      <trkpt lat="42.88794" lon="1.13563">
        <ele>1011</ele>
        <time>2025-06-22T09:32:55Z</time>
      </trkpt>
      <trkpt lat="42.88796" lon="1.13557">
        <ele>1010.2</ele>
        <time>2025-06-22T09:32:56Z</time>
      </trkpt>
      <trkpt lat="42.88798" lon="1.13551">
        <ele>1009.4</ele>
        <time>2025-06-22T09:32:57Z</time>
      </trkpt>
      <trkpt lat="42.888" lon="1.13544">
        <ele>1008.8</ele>
        <time>2025-06-22T09:32:58Z</time>
      </trkpt>
      <trkpt lat="42.88802" lon="1.13537">
        <ele>1008</ele>
        <time>2025-06-22T09:32:59Z</time>
      </trkpt>
      <trkpt lat="42.88803" lon="1.1353">
        <ele>1006.8</ele>
        <time>2025-06-22T09:33:00Z</time>
      </trkpt>
      <trkpt lat="42.88804" lon="1.13522">
        <ele>1006.4</ele>
        <time>2025-06-22T09:33:01Z</time>
      </trkpt>
      <trkpt lat="42.88804" lon="1.13514">
        <ele>1006</ele>
        <time>2025-06-22T09:33:02Z</time>
      </trkpt>
      <trkpt lat="42.88804" lon="1.13506">
        <ele>1005.4</ele>
        <time>2025-06-22T09:33:03Z</time>
      </trkpt>
      <trkpt lat="42.88805" lon="1.13498">
        <ele>1004.8</ele>
        <time>2025-06-22T09:33:04Z</time>
      </trkpt>
      <trkpt lat="42.88805" lon="1.13489">
        <ele>1004.2</ele>
        <time>2025-06-22T09:33:05Z</time>
      </trkpt>
      <trkpt lat="42.88806" lon="1.1348">
        <ele>1003.4</ele>
        <time>2025-06-22T09:33:06Z</time>
      </trkpt>
      <trkpt lat="42.88806" lon="1.13472">
        <ele>1002.6</ele>
        <time>2025-06-22T09:33:07Z</time>
      </trkpt>
      <trkpt lat="42.88806" lon="1.13466">
        <ele>1002</ele>
        <time>2025-06-22T09:33:08Z</time>
      </trkpt>
      <trkpt lat="42.88806" lon="1.13462">
        <ele>1001.2</ele>
        <time>2025-06-22T09:33:09Z</time>
      </trkpt>
      <trkpt lat="42.88804" lon="1.13457">
        <ele>1000.4</ele>
        <time>2025-06-22T09:33:10Z</time>
      </trkpt>
      <trkpt lat="42.88803" lon="1.13452">
        <ele>999.8</ele>
        <time>2025-06-22T09:33:11Z</time>
      </trkpt>
      <trkpt lat="42.88802" lon="1.13449">
        <ele>999</ele>
        <time>2025-06-22T09:33:12Z</time>
      </trkpt>
      <trkpt lat="42.88802" lon="1.13445">
        <ele>998.2</ele>
        <time>2025-06-22T09:33:13Z</time>
      </trkpt>
      <trkpt lat="42.888" lon="1.1344">
        <ele>997.6</ele>
        <time>2025-06-22T09:33:14Z</time>
      </trkpt>
      <trkpt lat="42.88798" lon="1.13435">
        <ele>997.6</ele>
        <time>2025-06-22T09:33:15Z</time>
      </trkpt>
      <trkpt lat="42.88796" lon="1.13429">
        <ele>997</ele>
        <time>2025-06-22T09:33:16Z</time>
      </trkpt>
      <trkpt lat="42.88795" lon="1.13421">
        <ele>996.6</ele>
        <time>2025-06-22T09:33:17Z</time>
      </trkpt>
      <trkpt lat="42.88792" lon="1.13413">
        <ele>996</ele>
        <time>2025-06-22T09:33:18Z</time>
      </trkpt>
      <trkpt lat="42.88795" lon="1.13403">
        <ele>995.6</ele>
        <time>2025-06-22T09:33:19Z</time>
      </trkpt>
      <trkpt lat="42.88794" lon="1.13394">
        <ele>995</ele>
        <time>2025-06-22T09:33:20Z</time>
      </trkpt>
      <trkpt lat="42.88795" lon="1.13385">
        <ele>994.4</ele>
        <time>2025-06-22T09:33:21Z</time>
      </trkpt>
      <trkpt lat="42.88794" lon="1.13378">
        <ele>993.8</ele>
        <time>2025-06-22T09:33:22Z</time>
      </trkpt>
      <trkpt lat="42.88792" lon="1.13368">
        <ele>993.4</ele>
        <time>2025-06-22T09:33:23Z</time>
      </trkpt>
      <trkpt lat="42.88792" lon="1.13361">
        <ele>992.8</ele>
        <time>2025-06-22T09:33:24Z</time>
      </trkpt>
      <trkpt lat="42.88792" lon="1.13356">
        <ele>991.4</ele>
        <time>2025-06-22T09:33:25Z</time>
      </trkpt>
      <trkpt lat="42.8879" lon="1.13351">
        <ele>990.8</ele>
        <time>2025-06-22T09:33:26Z</time>
      </trkpt>
      <trkpt lat="42.88789" lon="1.13348">
        <ele>990.2</ele>
        <time>2025-06-22T09:33:27Z</time>
      </trkpt>
      <trkpt lat="42.88787" lon="1.13344">
        <ele>989.8</ele>
        <time>2025-06-22T09:33:28Z</time>
      </trkpt>
      <trkpt lat="42.88786" lon="1.1334">
        <ele>989.2</ele>
        <time>2025-06-22T09:33:29Z</time>
      </trkpt>
      <trkpt lat="42.88785" lon="1.13336">
        <ele>988.6</ele>
        <time>2025-06-22T09:33:30Z</time>
      </trkpt>
      <trkpt lat="42.88784" lon="1.13331">
        <ele>988.2</ele>
        <time>2025-06-22T09:33:31Z</time>
      </trkpt>
      <trkpt lat="42.88782" lon="1.13324">
        <ele>988.2</ele>
        <time>2025-06-22T09:33:32Z</time>
      </trkpt>
      <trkpt lat="42.88781" lon="1.13317">
        <ele>987.6</ele>
        <time>2025-06-22T09:33:33Z</time>
      </trkpt>
      <trkpt lat="42.88779" lon="1.13309">
        <ele>987.2</ele>
        <time>2025-06-22T09:33:34Z</time>
      </trkpt>
      <trkpt lat="42.88777" lon="1.133">
        <ele>986.8</ele>
        <time>2025-06-22T09:33:35Z</time>
      </trkpt>
      <trkpt lat="42.88775" lon="1.1329">
        <ele>986.4</ele>
        <time>2025-06-22T09:33:36Z</time>
      </trkpt>
      <trkpt lat="42.88773" lon="1.13282">
        <ele>985.8</ele>
        <time>2025-06-22T09:33:37Z</time>
      </trkpt>
      <trkpt lat="42.88771" lon="1.13276">
        <ele>985.2</ele>
        <time>2025-06-22T09:33:38Z</time>
      </trkpt>
      <trkpt lat="42.88769" lon="1.1327">
        <ele>984.6</ele>
        <time>2025-06-22T09:33:39Z</time>
      </trkpt>
      <trkpt lat="42.88766" lon="1.13264">
        <ele>984.2</ele>
        <time>2025-06-22T09:33:40Z</time>
      </trkpt>
      <trkpt lat="42.88766" lon="1.13264">
        <ele>983.4</ele>
        <time>2025-06-22T09:33:41Z</time>
      </trkpt>
      <trkpt lat="42.88767" lon="1.13265">
        <ele>982.8</ele>
        <time>2025-06-22T09:33:42Z</time>
      </trkpt>
      <trkpt lat="42.88769" lon="1.13269">
        <ele>982.2</ele>
        <time>2025-06-22T09:33:43Z</time>
      </trkpt>
      <trkpt lat="42.88772" lon="1.13274">
        <ele>981.6</ele>
        <time>2025-06-22T09:33:44Z</time>
      </trkpt>
      <trkpt lat="42.88774" lon="1.1328">
        <ele>981</ele>
        <time>2025-06-22T09:33:45Z</time>
      </trkpt>
      <trkpt lat="42.88777" lon="1.13284">
        <ele>980.4</ele>
        <time>2025-06-22T09:33:46Z</time>
      </trkpt>
      <trkpt lat="42.88779" lon="1.13287">
        <ele>979.8</ele>
        <time>2025-06-22T09:33:47Z</time>
      </trkpt>
      <trkpt lat="42.88781" lon="1.13288">
        <ele>979.4</ele>
        <time>2025-06-22T09:33:48Z</time>
      </trkpt>
      <trkpt lat="42.88784" lon="1.1329">
        <ele>978.8</ele>
        <time>2025-06-22T09:33:49Z</time>
      </trkpt>
      <trkpt lat="42.88786" lon="1.13292">
        <ele>978.4</ele>
        <time>2025-06-22T09:33:50Z</time>
      </trkpt>
      <trkpt lat="42.88789" lon="1.13295">
        <ele>978</ele>
        <time>2025-06-22T09:33:51Z</time>
      </trkpt>
      <trkpt lat="42.88793" lon="1.13298">
        <ele>977.6</ele>
        <time>2025-06-22T09:33:52Z</time>
      </trkpt>
      <trkpt lat="42.88797" lon="1.133">
        <ele>977.2</ele>
        <time>2025-06-22T09:33:53Z</time>
      </trkpt>
      <trkpt lat="42.88801" lon="1.13302">
        <ele>976.8</ele>
        <time>2025-06-22T09:33:54Z</time>
      </trkpt>
      <trkpt lat="42.88808" lon="1.13302">
        <ele>976.2</ele>
        <time>2025-06-22T09:33:56Z</time>
      </trkpt>
      <trkpt lat="42.88813" lon="1.13301">
        <ele>975.8</ele>
        <time>2025-06-22T09:33:57Z</time>
      </trkpt>
      <trkpt lat="42.88817" lon="1.13301">
        <ele>975.2</ele>
        <time>2025-06-22T09:33:58Z</time>
      </trkpt>
      <trkpt lat="42.88821" lon="1.13301">
        <ele>974.6</ele>
        <time>2025-06-22T09:33:59Z</time>
      </trkpt>
      <trkpt lat="42.88825" lon="1.13302">
        <ele>974</ele>
        <time>2025-06-22T09:34:00Z</time>
      </trkpt>
      <trkpt lat="42.8883" lon="1.13304">
        <ele>973.2</ele>
        <time>2025-06-22T09:34:01Z</time>
      </trkpt>
      <trkpt lat="42.88835" lon="1.13308">
        <ele>972.4</ele>
        <time>2025-06-22T09:34:02Z</time>
      </trkpt>
      <trkpt lat="42.8884" lon="1.13311">
        <ele>971.6</ele>
        <time>2025-06-22T09:34:03Z</time>
      </trkpt>
      <trkpt lat="42.88845" lon="1.13315">
        <ele>970.8</ele>
        <time>2025-06-22T09:34:04Z</time>
      </trkpt>
      <trkpt lat="42.88849" lon="1.13317">
        <ele>970</ele>
        <time>2025-06-22T09:34:05Z</time>
      </trkpt>
      <trkpt lat="42.88852" lon="1.13317">
        <ele>969.2</ele>
        <time>2025-06-22T09:34:06Z</time>
      </trkpt>
      <trkpt lat="42.88855" lon="1.13317">
        <ele>968.2</ele>
        <time>2025-06-22T09:34:07Z</time>
      </trkpt>
      <trkpt lat="42.88856" lon="1.13317">
        <ele>967.4</ele>
        <time>2025-06-22T09:34:08Z</time>
      </trkpt>
      <trkpt lat="42.88858" lon="1.13317">
        <ele>967.4</ele>
        <time>2025-06-22T09:34:09Z</time>
      </trkpt>
      <trkpt lat="42.88861" lon="1.1332">
        <ele>967.4</ele>
        <time>2025-06-22T09:34:15Z</time>
      </trkpt>
      <trkpt lat="42.88863" lon="1.13325">
        <ele>967.4</ele>
        <time>2025-06-22T09:34:17Z</time>
      </trkpt>
      <trkpt lat="42.88866" lon="1.13332">
        <ele>967.4</ele>
        <time>2025-06-22T09:34:19Z</time>
      </trkpt>
      <trkpt lat="42.88867" lon="1.13341">
        <ele>967.4</ele>
        <time>2025-06-22T09:34:21Z</time>
      </trkpt>
      <trkpt lat="42.88862" lon="1.13364">
        <ele>967.4</ele>
        <time>2025-06-22T09:34:26Z</time>
      </trkpt>
      <trkpt lat="42.88862" lon="1.13386">
        <ele>967.4</ele>
        <time>2025-06-22T09:34:31Z</time>
      </trkpt>
      <trkpt lat="42.88862" lon="1.13393">
        <ele>967.8</ele>
        <time>2025-06-22T09:34:33Z</time>
      </trkpt>
      <trkpt lat="42.88861" lon="1.13397">
        <ele>968.2</ele>
        <time>2025-06-22T09:34:34Z</time>
      </trkpt>
      <trkpt lat="42.88862" lon="1.13402">
        <ele>968.8</ele>
        <time>2025-06-22T09:34:35Z</time>
      </trkpt>
      <trkpt lat="42.88862" lon="1.13405">
        <ele>969.2</ele>
        <time>2025-06-22T09:34:36Z</time>
      </trkpt>
      <trkpt lat="42.88861" lon="1.1341">
        <ele>969.6</ele>
        <time>2025-06-22T09:34:37Z</time>
      </trkpt>
      <trkpt lat="42.88861" lon="1.13413">
        <ele>969.6</ele>
        <time>2025-06-22T09:34:38Z</time>
      </trkpt>
      <trkpt lat="42.88865" lon="1.1343">
        <ele>969.6</ele>
        <time>2025-06-22T09:34:43Z</time>
      </trkpt>
      <trkpt lat="42.88865" lon="1.13446">
        <ele>969.2</ele>
        <time>2025-06-22T09:34:47Z</time>
      </trkpt>
      <trkpt lat="42.88865" lon="1.13451">
        <ele>968.8</ele>
        <time>2025-06-22T09:34:48Z</time>
      </trkpt>
      <trkpt lat="42.88866" lon="1.13455">
        <ele>968.4</ele>
        <time>2025-06-22T09:34:49Z</time>
      </trkpt>
      <trkpt lat="42.88866" lon="1.13459">
        <ele>968</ele>
        <time>2025-06-22T09:34:50Z</time>
      </trkpt>
      <trkpt lat="42.88867" lon="1.13465">
        <ele>967.4</ele>
        <time>2025-06-22T09:34:51Z</time>
      </trkpt>
      <trkpt lat="42.88867" lon="1.13471">
        <ele>967.4</ele>
        <time>2025-06-22T09:34:52Z</time>
      </trkpt>
      <trkpt lat="42.88871" lon="1.13497">
        <ele>967.4</ele>
        <time>2025-06-22T09:34:56Z</time>
      </trkpt>
      <trkpt lat="42.88873" lon="1.13501">
        <ele>967</ele>
        <time>2025-06-22T09:34:57Z</time>
      </trkpt>
      <trkpt lat="42.88873" lon="1.13505">
        <ele>966.6</ele>
        <time>2025-06-22T09:34:58Z</time>
      </trkpt>
      <trkpt lat="42.88875" lon="1.13509">
        <ele>966.2</ele>
        <time>2025-06-22T09:34:59Z</time>
      </trkpt>
      <trkpt lat="42.88876" lon="1.13514">
        <ele>965.8</ele>
        <time>2025-06-22T09:35:00Z</time>
      </trkpt>
      <trkpt lat="42.88877" lon="1.13518">
        <ele>965.2</ele>
        <time>2025-06-22T09:35:01Z</time>
      </trkpt>
      <trkpt lat="42.88879" lon="1.13522">
        <ele>965.2</ele>
        <time>2025-06-22T09:35:02Z</time>
      </trkpt>
      <trkpt lat="42.88881" lon="1.13531">
        <ele>964.4</ele>
        <time>2025-06-22T09:35:04Z</time>
      </trkpt>
      <trkpt lat="42.88883" lon="1.13536">
        <ele>964</ele>
        <time>2025-06-22T09:35:05Z</time>
      </trkpt>
      <trkpt lat="42.88885" lon="1.13541">
        <ele>963.6</ele>
        <time>2025-06-22T09:35:06Z</time>
      </trkpt>
      <trkpt lat="42.88887" lon="1.13546">
        <ele>963.2</ele>
        <time>2025-06-22T09:35:07Z</time>
      </trkpt>
      <trkpt lat="42.88889" lon="1.13554">
        <ele>962.6</ele>
        <time>2025-06-22T09:35:08Z</time>
      </trkpt>
      <trkpt lat="42.88891" lon="1.13562">
        <ele>962.2</ele>
        <time>2025-06-22T09:35:09Z</time>
      </trkpt>
      <trkpt lat="42.88893" lon="1.13568">
        <ele>961.8</ele>
        <time>2025-06-22T09:35:10Z</time>
      </trkpt>
      <trkpt lat="42.88893" lon="1.13573">
        <ele>961.4</ele>
        <time>2025-06-22T09:35:11Z</time>
      </trkpt>
      <trkpt lat="42.88895" lon="1.13578">
        <ele>960.8</ele>
        <time>2025-06-22T09:35:12Z</time>
      </trkpt>
      <trkpt lat="42.88896" lon="1.13583">
        <ele>960.4</ele>
        <time>2025-06-22T09:35:13Z</time>
      </trkpt>
      <trkpt lat="42.88897" lon="1.13587">
        <ele>959.8</ele>
        <time>2025-06-22T09:35:14Z</time>
      </trkpt>
      <trkpt lat="42.88898" lon="1.13591">
        <ele>959.4</ele>
        <time>2025-06-22T09:35:15Z</time>
      </trkpt>
      <trkpt lat="42.88899" lon="1.13596">
        <ele>958.8</ele>
        <time>2025-06-22T09:35:16Z</time>
      </trkpt>
      <trkpt lat="42.889" lon="1.13601">
        <ele>958.2</ele>
        <time>2025-06-22T09:35:17Z</time>
      </trkpt>
      <trkpt lat="42.88902" lon="1.13604">
        <ele>957.8</ele>
        <time>2025-06-22T09:35:18Z</time>
      </trkpt>
      <trkpt lat="42.88903" lon="1.13608">
        <ele>957.2</ele>
        <time>2025-06-22T09:35:19Z</time>
      </trkpt>
      <trkpt lat="42.88905" lon="1.13612">
        <ele>956.8</ele>
        <time>2025-06-22T09:35:20Z</time>
      </trkpt>
      <trkpt lat="42.88913" lon="1.13619">
        <ele>956.8</ele>
        <time>2025-06-22T09:35:23Z</time>
      </trkpt>
      <trkpt lat="42.88918" lon="1.13629">
        <ele>956.2</ele>
        <time>2025-06-22T09:35:27Z</time>
      </trkpt>
      <trkpt lat="42.8892" lon="1.13632">
        <ele>955.8</ele>
        <time>2025-06-22T09:35:28Z</time>
      </trkpt>
      <trkpt lat="42.88922" lon="1.13636">
        <ele>954.6</ele>
        <time>2025-06-22T09:35:29Z</time>
      </trkpt>
      <trkpt lat="42.88926" lon="1.13641">
        <ele>953.8</ele>
        <time>2025-06-22T09:35:30Z</time>
      </trkpt>
      <trkpt lat="42.88929" lon="1.13647">
        <ele>953</ele>
        <time>2025-06-22T09:35:31Z</time>
      </trkpt>
      <trkpt lat="42.88932" lon="1.13652">
        <ele>952.2</ele>
        <time>2025-06-22T09:35:32Z</time>
      </trkpt>
      <trkpt lat="42.88935" lon="1.13657">
        <ele>951.4</ele>
        <time>2025-06-22T09:35:33Z</time>
      </trkpt>
      <trkpt lat="42.88937" lon="1.13662">
        <ele>950.6</ele>
        <time>2025-06-22T09:35:34Z</time>
      </trkpt>
      <trkpt lat="42.88939" lon="1.13666">
        <ele>949.8</ele>
        <time>2025-06-22T09:35:35Z</time>
      </trkpt>
      <trkpt lat="42.88941" lon="1.1367">
        <ele>949</ele>
        <time>2025-06-22T09:35:36Z</time>
      </trkpt>
      <trkpt lat="42.88943" lon="1.13673">
        <ele>948.2</ele>
        <time>2025-06-22T09:35:37Z</time>
      </trkpt>
      <trkpt lat="42.88945" lon="1.13677">
        <ele>947.2</ele>
        <time>2025-06-22T09:35:38Z</time>
      </trkpt>
      <trkpt lat="42.88947" lon="1.13681">
        <ele>946.6</ele>
        <time>2025-06-22T09:35:39Z</time>
      </trkpt>
      <trkpt lat="42.88948" lon="1.13685">
        <ele>946</ele>
        <time>2025-06-22T09:35:40Z</time>
      </trkpt>
      <trkpt lat="42.88949" lon="1.1369">
        <ele>945.4</ele>
        <time>2025-06-22T09:35:41Z</time>
      </trkpt>
      <trkpt lat="42.8895" lon="1.13695">
        <ele>944.8</ele>
        <time>2025-06-22T09:35:42Z</time>
      </trkpt>
      <trkpt lat="42.88951" lon="1.13699">
        <ele>944.2</ele>
        <time>2025-06-22T09:35:43Z</time>
      </trkpt>
      <trkpt lat="42.88954" lon="1.1371">
        <ele>943.8</ele>
        <time>2025-06-22T09:35:46Z</time>
      </trkpt>
      <trkpt lat="42.88956" lon="1.13714">
        <ele>943.4</ele>
        <time>2025-06-22T09:35:47Z</time>
      </trkpt>
      <trkpt lat="42.88957" lon="1.13718">
        <ele>943</ele>
        <time>2025-06-22T09:35:48Z</time>
      </trkpt>
      <trkpt lat="42.88959" lon="1.13722">
        <ele>942.6</ele>
        <time>2025-06-22T09:35:49Z</time>
      </trkpt>
      <trkpt lat="42.8896" lon="1.13726">
        <ele>942.2</ele>
        <time>2025-06-22T09:35:50Z</time>
      </trkpt>
      <trkpt lat="42.88965" lon="1.13735">
        <ele>942.2</ele>
        <time>2025-06-22T09:35:53Z</time>
      </trkpt>
      <trkpt lat="42.88968" lon="1.13743">
        <ele>942.2</ele>
        <time>2025-06-22T09:35:55Z</time>
      </trkpt>
      <trkpt lat="42.88971" lon="1.13755">
        <ele>941.6</ele>
        <time>2025-06-22T09:35:58Z</time>
      </trkpt>
      <trkpt lat="42.88971" lon="1.13758">
        <ele>941.2</ele>
        <time>2025-06-22T09:35:59Z</time>
      </trkpt>
      <trkpt lat="42.88971" lon="1.13761">
        <ele>940.8</ele>
        <time>2025-06-22T09:36:00Z</time>
      </trkpt>
      <trkpt lat="42.88972" lon="1.13764">
        <ele>940.4</ele>
        <time>2025-06-22T09:36:01Z</time>
      </trkpt>
      <trkpt lat="42.88973" lon="1.13766">
        <ele>939.8</ele>
        <time>2025-06-22T09:36:02Z</time>
      </trkpt>
      <trkpt lat="42.88974" lon="1.13768">
        <ele>939.8</ele>
        <time>2025-06-22T09:36:03Z</time>
      </trkpt>
      <trkpt lat="42.88982" lon="1.13779">
        <ele>939.8</ele>
        <time>2025-06-22T09:36:09Z</time>
      </trkpt>
      <trkpt lat="42.88981" lon="1.13791">
        <ele>939.8</ele>
        <time>2025-06-22T09:36:21Z</time>
      </trkpt>
      <trkpt lat="42.8898" lon="1.13793">
        <ele>940.4</ele>
        <time>2025-06-22T09:36:23Z</time>
      </trkpt>
      <trkpt lat="42.8898" lon="1.13795">
        <ele>940.8</ele>
        <time>2025-06-22T09:36:24Z</time>
      </trkpt>
      <trkpt lat="42.88979" lon="1.13796">
        <ele>941.2</ele>
        <time>2025-06-22T09:36:25Z</time>
      </trkpt>
      <trkpt lat="42.88996" lon="1.13814">
        <ele>943.6</ele>
        <time>2025-06-22T09:38:27Z</time>
      </trkpt>
      <trkpt lat="42.88998" lon="1.13814">
        <ele>943.2</ele>
        <time>2025-06-22T09:38:28Z</time>
      </trkpt>
      <trkpt lat="42.89" lon="1.13814">
        <ele>942.6</ele>
        <time>2025-06-22T09:38:29Z</time>
      </trkpt>
      <trkpt lat="42.89002" lon="1.13814">
        <ele>941.8</ele>
        <time>2025-06-22T09:38:30Z</time>
      </trkpt>
      <trkpt lat="42.89004" lon="1.13814">
        <ele>941.2</ele>
        <time>2025-06-22T09:38:31Z</time>
      </trkpt>
      <trkpt lat="42.89007" lon="1.13814">
        <ele>940.4</ele>
        <time>2025-06-22T09:38:32Z</time>
      </trkpt>
      <trkpt lat="42.89009" lon="1.13815">
        <ele>939.6</ele>
        <time>2025-06-22T09:38:33Z</time>
      </trkpt>
      <trkpt lat="42.8901" lon="1.13816">
        <ele>938.6</ele>
        <time>2025-06-22T09:38:34Z</time>
      </trkpt>
      <trkpt lat="42.89013" lon="1.13819">
        <ele>937.8</ele>
        <time>2025-06-22T09:38:35Z</time>
      </trkpt>
      <trkpt lat="42.89015" lon="1.13822">
        <ele>937</ele>
        <time>2025-06-22T09:38:36Z</time>
      </trkpt>
      <trkpt lat="42.89019" lon="1.13828">
        <ele>937</ele>
        <time>2025-06-22T09:38:38Z</time>
      </trkpt>
      <trkpt lat="42.8902" lon="1.13834">
        <ele>937</ele>
        <time>2025-06-22T09:38:40Z</time>
      </trkpt>
      <trkpt lat="42.89024" lon="1.13839">
        <ele>936.6</ele>
        <time>2025-06-22T09:38:41Z</time>
      </trkpt>
      <trkpt lat="42.89027" lon="1.13846">
        <ele>936.2</ele>
        <time>2025-06-22T09:38:42Z</time>
      </trkpt>
      <trkpt lat="42.8903" lon="1.13852">
        <ele>935.8</ele>
        <time>2025-06-22T09:38:43Z</time>
      </trkpt>
      <trkpt lat="42.89034" lon="1.13859">
        <ele>935.4</ele>
        <time>2025-06-22T09:38:44Z</time>
      </trkpt>
      <trkpt lat="42.89038" lon="1.13867">
        <ele>935</ele>
        <time>2025-06-22T09:38:45Z</time>
      </trkpt>
      <trkpt lat="42.8905" lon="1.13889">
        <ele>935</ele>
        <time>2025-06-22T09:38:48Z</time>
      </trkpt>
      <trkpt lat="42.8906" lon="1.13909">
        <ele>934.6</ele>
        <time>2025-06-22T09:38:51Z</time>
      </trkpt>
      <trkpt lat="42.89062" lon="1.13915">
        <ele>934.2</ele>
        <time>2025-06-22T09:38:52Z</time>
      </trkpt>
      <trkpt lat="42.89065" lon="1.13922">
        <ele>933.6</ele>
        <time>2025-06-22T09:38:53Z</time>
      </trkpt>
      <trkpt lat="42.89069" lon="1.1393">
        <ele>933.2</ele>
        <time>2025-06-22T09:38:54Z</time>
      </trkpt>
      <trkpt lat="42.89072" lon="1.13936">
        <ele>932.8</ele>
        <time>2025-06-22T09:38:55Z</time>
      </trkpt>
      <trkpt lat="42.89077" lon="1.13943">
        <ele>932.4</ele>
        <time>2025-06-22T09:38:56Z</time>
      </trkpt>
      <trkpt lat="42.89082" lon="1.13951">
        <ele>931.8</ele>
        <time>2025-06-22T09:38:57Z</time>
      </trkpt>
      <trkpt lat="42.89086" lon="1.13959">
        <ele>931.4</ele>
        <time>2025-06-22T09:38:58Z</time>
      </trkpt>
      <trkpt lat="42.89091" lon="1.13967">
        <ele>930.8</ele>
        <time>2025-06-22T09:38:59Z</time>
      </trkpt>
      <trkpt lat="42.89096" lon="1.13974">
        <ele>930.4</ele>
        <time>2025-06-22T09:39:00Z</time>
      </trkpt>
      <trkpt lat="42.891" lon="1.13983">
        <ele>929.8</ele>
        <time>2025-06-22T09:39:01Z</time>
      </trkpt>
      <trkpt lat="42.89104" lon="1.13993">
        <ele>929.2</ele>
        <time>2025-06-22T09:39:02Z</time>
      </trkpt>
      <trkpt lat="42.89107" lon="1.14001">
        <ele>928.6</ele>
        <time>2025-06-22T09:39:03Z</time>
      </trkpt>
      <trkpt lat="42.89111" lon="1.1401">
        <ele>928</ele>
        <time>2025-06-22T09:39:04Z</time>
      </trkpt>
      <trkpt lat="42.89114" lon="1.14019">
        <ele>927.2</ele>
        <time>2025-06-22T09:39:05Z</time>
      </trkpt>
      <trkpt lat="42.89115" lon="1.14027">
        <ele>926.4</ele>
        <time>2025-06-22T09:39:06Z</time>
      </trkpt>
      <trkpt lat="42.89117" lon="1.14036">
        <ele>925.6</ele>
        <time>2025-06-22T09:39:07Z</time>
      </trkpt>
      <trkpt lat="42.89119" lon="1.14044">
        <ele>924.6</ele>
        <time>2025-06-22T09:39:08Z</time>
      </trkpt>
      <trkpt lat="42.89119" lon="1.14054">
        <ele>923.8</ele>
        <time>2025-06-22T09:39:09Z</time>
      </trkpt>
      <trkpt lat="42.89119" lon="1.14064">
        <ele>922.8</ele>
        <time>2025-06-22T09:39:10Z</time>
      </trkpt>
      <trkpt lat="42.89119" lon="1.14073">
        <ele>921.8</ele>
        <time>2025-06-22T09:39:11Z</time>
      </trkpt>
      <trkpt lat="42.89119" lon="1.14082">
        <ele>920</ele>
        <time>2025-06-22T09:39:12Z</time>
      </trkpt>
      <trkpt lat="42.89119" lon="1.14091">
        <ele>919.2</ele>
        <time>2025-06-22T09:39:13Z</time>
      </trkpt>
      <trkpt lat="42.89119" lon="1.14099">
        <ele>918.2</ele>
        <time>2025-06-22T09:39:14Z</time>
      </trkpt>
      <trkpt lat="42.89119" lon="1.14107">
        <ele>917.4</ele>
        <time>2025-06-22T09:39:15Z</time>
      </trkpt>
      <trkpt lat="42.8912" lon="1.14115">
        <ele>916.2</ele>
        <time>2025-06-22T09:39:16Z</time>
      </trkpt>
      <trkpt lat="42.89122" lon="1.14125">
        <ele>915.2</ele>
        <time>2025-06-22T09:39:17Z</time>
      </trkpt>
      <trkpt lat="42.89125" lon="1.14135">
        <ele>913.8</ele>
        <time>2025-06-22T09:39:18Z</time>
      </trkpt>
      <trkpt lat="42.89128" lon="1.14146">
        <ele>912.6</ele>
        <time>2025-06-22T09:39:19Z</time>
      </trkpt>
      <trkpt lat="42.89131" lon="1.14156">
        <ele>911</ele>
        <time>2025-06-22T09:39:20Z</time>
      </trkpt>
      <trkpt lat="42.89133" lon="1.14166">
        <ele>909.4</ele>
        <time>2025-06-22T09:39:21Z</time>
      </trkpt>
      <trkpt lat="42.89135" lon="1.14175">
        <ele>908</ele>
        <time>2025-06-22T09:39:22Z</time>
      </trkpt>
      <trkpt lat="42.89137" lon="1.14184">
        <ele>906.4</ele>
        <time>2025-06-22T09:39:23Z</time>
      </trkpt>
      <trkpt lat="42.89139" lon="1.14193">
        <ele>904.8</ele>
        <time>2025-06-22T09:39:24Z</time>
      </trkpt>
      <trkpt lat="42.8914" lon="1.14201">
        <ele>903.8</ele>
        <time>2025-06-22T09:39:25Z</time>
      </trkpt>
      <trkpt lat="42.89141" lon="1.14209">
        <ele>902.8</ele>
        <time>2025-06-22T09:39:26Z</time>
      </trkpt>
      <trkpt lat="42.89143" lon="1.14218">
        <ele>901.6</ele>
        <time>2025-06-22T09:39:27Z</time>
      </trkpt>
      <trkpt lat="42.89144" lon="1.14226">
        <ele>900.8</ele>
        <time>2025-06-22T09:39:28Z</time>
      </trkpt>
      <trkpt lat="42.89145" lon="1.14235">
        <ele>899.8</ele>
        <time>2025-06-22T09:39:29Z</time>
      </trkpt>
      <trkpt lat="42.89146" lon="1.14243">
        <ele>899</ele>
        <time>2025-06-22T09:39:30Z</time>
      </trkpt>
      <trkpt lat="42.89146" lon="1.14252">
        <ele>898</ele>
        <time>2025-06-22T09:39:31Z</time>
      </trkpt>
      <trkpt lat="42.89145" lon="1.1426">
        <ele>897.2</ele>
        <time>2025-06-22T09:39:32Z</time>
      </trkpt>
      <trkpt lat="42.89145" lon="1.14269">
        <ele>896.4</ele>
        <time>2025-06-22T09:39:33Z</time>
      </trkpt>
      <trkpt lat="42.89145" lon="1.14277">
        <ele>895.4</ele>
        <time>2025-06-22T09:39:34Z</time>
      </trkpt>
      <trkpt lat="42.89144" lon="1.14283">
        <ele>894.6</ele>
        <time>2025-06-22T09:39:35Z</time>
      </trkpt>
      <trkpt lat="42.89143" lon="1.14289">
        <ele>893.8</ele>
        <time>2025-06-22T09:39:36Z</time>
      </trkpt>
      <trkpt lat="42.89143" lon="1.14295">
        <ele>892</ele>
        <time>2025-06-22T09:39:37Z</time>
      </trkpt>
      <trkpt lat="42.89143" lon="1.14301">
        <ele>891.2</ele>
        <time>2025-06-22T09:39:38Z</time>
      </trkpt>
      <trkpt lat="42.89144" lon="1.14307">
        <ele>890.2</ele>
        <time>2025-06-22T09:39:39Z</time>
      </trkpt>
      <trkpt lat="42.89146" lon="1.14312">
        <ele>889.4</ele>
        <time>2025-06-22T09:39:40Z</time>
      </trkpt>
      <trkpt lat="42.89147" lon="1.14318">
        <ele>888.2</ele>
        <time>2025-06-22T09:39:41Z</time>
      </trkpt>
      <trkpt lat="42.89149" lon="1.14323">
        <ele>887.2</ele>
        <time>2025-06-22T09:39:42Z</time>
      </trkpt>
      <trkpt lat="42.8915" lon="1.14327">
        <ele>886</ele>
        <time>2025-06-22T09:39:43Z</time>
      </trkpt>
      <trkpt lat="42.89152" lon="1.14332">
        <ele>885.2</ele>
        <time>2025-06-22T09:39:44Z</time>
      </trkpt>
      <trkpt lat="42.89154" lon="1.14337">
        <ele>884.2</ele>
        <time>2025-06-22T09:39:45Z</time>
      </trkpt>
      <trkpt lat="42.89156" lon="1.14342">
        <ele>883.2</ele>
        <time>2025-06-22T09:39:46Z</time>
      </trkpt>
      <trkpt lat="42.89158" lon="1.14348">
        <ele>882.2</ele>
        <time>2025-06-22T09:39:47Z</time>
      </trkpt>
      <trkpt lat="42.8916" lon="1.14353">
        <ele>881.4</ele>
        <time>2025-06-22T09:39:48Z</time>
      </trkpt>
      <trkpt lat="42.89165" lon="1.14365">
        <ele>881.4</ele>
        <time>2025-06-22T09:39:50Z</time>
      </trkpt>
      <trkpt lat="42.89181" lon="1.14393">
        <ele>880.8</ele>
        <time>2025-06-22T09:39:55Z</time>
      </trkpt>
      <trkpt lat="42.89183" lon="1.14401">
        <ele>880.4</ele>
        <time>2025-06-22T09:39:56Z</time>
      </trkpt>
      <trkpt lat="42.89187" lon="1.14409">
        <ele>879.8</ele>
        <time>2025-06-22T09:39:57Z</time>
      </trkpt>
      <trkpt lat="42.8919" lon="1.14416">
        <ele>879.4</ele>
        <time>2025-06-22T09:39:58Z</time>
      </trkpt>
      <trkpt lat="42.89192" lon="1.14422">
        <ele>878.8</ele>
        <time>2025-06-22T09:39:59Z</time>
      </trkpt>
      <trkpt lat="42.89193" lon="1.14428">
        <ele>878.2</ele>
        <time>2025-06-22T09:40:00Z</time>
      </trkpt>
      <trkpt lat="42.89195" lon="1.14432">
        <ele>877.8</ele>
        <time>2025-06-22T09:40:01Z</time>
      </trkpt>
      <trkpt lat="42.89196" lon="1.14437">
        <ele>876.4</ele>
        <time>2025-06-22T09:40:02Z</time>
      </trkpt>
      <trkpt lat="42.89198" lon="1.1444">
        <ele>875.8</ele>
        <time>2025-06-22T09:40:03Z</time>
      </trkpt>
      <trkpt lat="42.89199" lon="1.14441">
        <ele>875</ele>
        <time>2025-06-22T09:40:04Z</time>
      </trkpt>
      <trkpt lat="42.89201" lon="1.14442">
        <ele>874.2</ele>
        <time>2025-06-22T09:40:05Z</time>
      </trkpt>
      <trkpt lat="42.89203" lon="1.14443">
        <ele>873.4</ele>
        <time>2025-06-22T09:40:06Z</time>
      </trkpt>
      <trkpt lat="42.89205" lon="1.14442">
        <ele>872.6</ele>
        <time>2025-06-22T09:40:07Z</time>
      </trkpt>
      <trkpt lat="42.89207" lon="1.14439">
        <ele>871.6</ele>
        <time>2025-06-22T09:40:08Z</time>
      </trkpt>
      <trkpt lat="42.89209" lon="1.14436">
        <ele>870.8</ele>
        <time>2025-06-22T09:40:09Z</time>
      </trkpt>
      <trkpt lat="42.89211" lon="1.14433">
        <ele>870</ele>
        <time>2025-06-22T09:40:10Z</time>
      </trkpt>
      <trkpt lat="42.89212" lon="1.1443">
        <ele>869.4</ele>
        <time>2025-06-22T09:40:11Z</time>
      </trkpt>
      <trkpt lat="42.89213" lon="1.14427">
        <ele>868.6</ele>
        <time>2025-06-22T09:40:12Z</time>
      </trkpt>
      <trkpt lat="42.89214" lon="1.14426">
        <ele>867.8</ele>
        <time>2025-06-22T09:40:13Z</time>
      </trkpt>
      <trkpt lat="42.89215" lon="1.14425">
        <ele>867.2</ele>
        <time>2025-06-22T09:40:14Z</time>
      </trkpt>
      <trkpt lat="42.89217" lon="1.14427">
        <ele>865.8</ele>
        <time>2025-06-22T09:40:16Z</time>
      </trkpt>
      <trkpt lat="42.8922" lon="1.14432">
        <ele>865</ele>
        <time>2025-06-22T09:40:17Z</time>
      </trkpt>
      <trkpt lat="42.89223" lon="1.14438">
        <ele>864.4</ele>
        <time>2025-06-22T09:40:18Z</time>
      </trkpt>
      <trkpt lat="42.89226" lon="1.14443">
        <ele>863.6</ele>
        <time>2025-06-22T09:40:19Z</time>
      </trkpt>
      <trkpt lat="42.89229" lon="1.14449">
        <ele>862.8</ele>
        <time>2025-06-22T09:40:20Z</time>
      </trkpt>
      <trkpt lat="42.89231" lon="1.14456">
        <ele>862.2</ele>
        <time>2025-06-22T09:40:21Z</time>
      </trkpt>
      <trkpt lat="42.89233" lon="1.14462">
        <ele>861.4</ele>
        <time>2025-06-22T09:40:22Z</time>
      </trkpt>
      <trkpt lat="42.89234" lon="1.14469">
        <ele>860.4</ele>
        <time>2025-06-22T09:40:23Z</time>
      </trkpt>
      <trkpt lat="42.89236" lon="1.14475">
        <ele>859.6</ele>
        <time>2025-06-22T09:40:24Z</time>
      </trkpt>
      <trkpt lat="42.89238" lon="1.1448">
        <ele>858.6</ele>
        <time>2025-06-22T09:40:25Z</time>
      </trkpt>
      <trkpt lat="42.8924" lon="1.14485">
        <ele>856.6</ele>
        <time>2025-06-22T09:40:26Z</time>
      </trkpt>
      <trkpt lat="42.89243" lon="1.14491">
        <ele>855.6</ele>
        <time>2025-06-22T09:40:27Z</time>
      </trkpt>
      <trkpt lat="42.89245" lon="1.14497">
        <ele>854.4</ele>
        <time>2025-06-22T09:40:28Z</time>
      </trkpt>
      <trkpt lat="42.89247" lon="1.14502">
        <ele>853.2</ele>
        <time>2025-06-22T09:40:29Z</time>
      </trkpt>
      <trkpt lat="42.89248" lon="1.14507">
        <ele>851.8</ele>
        <time>2025-06-22T09:40:30Z</time>
      </trkpt>
      <trkpt lat="42.8925" lon="1.14515">
        <ele>850.6</ele>
        <time>2025-06-22T09:40:31Z</time>
      </trkpt>
      <trkpt lat="42.89251" lon="1.14519">
        <ele>849.2</ele>
        <time>2025-06-22T09:40:32Z</time>
      </trkpt>
      <trkpt lat="42.89252" lon="1.14523">
        <ele>848.2</ele>
        <time>2025-06-22T09:40:33Z</time>
      </trkpt>
      <trkpt lat="42.8925" lon="1.14524">
        <ele>847</ele>
        <time>2025-06-22T09:40:34Z</time>
      </trkpt>
      <trkpt lat="42.89252" lon="1.14535">
        <ele>843.4</ele>
        <time>2025-06-22T09:40:53Z</time>
      </trkpt>
      <trkpt lat="42.89262" lon="1.14548">
        <ele>843</ele>
        <time>2025-06-22T09:40:56Z</time>
      </trkpt>
      <trkpt lat="42.89268" lon="1.14553">
        <ele>842.6</ele>
        <time>2025-06-22T09:40:57Z</time>
      </trkpt>
      <trkpt lat="42.89272" lon="1.14557">
        <ele>842</ele>
        <time>2025-06-22T09:40:58Z</time>
      </trkpt>
      <trkpt lat="42.89276" lon="1.14561">
        <ele>841.6</ele>
        <time>2025-06-22T09:40:59Z</time>
      </trkpt>
      <trkpt lat="42.89281" lon="1.14565">
        <ele>841.2</ele>
        <time>2025-06-22T09:41:00Z</time>
      </trkpt>
      <trkpt lat="42.89286" lon="1.14568">
        <ele>841.2</ele>
        <time>2025-06-22T09:41:01Z</time>
      </trkpt>
      <trkpt lat="42.8932" lon="1.14578">
        <ele>841.2</ele>
        <time>2025-06-22T09:41:08Z</time>
      </trkpt>
      <trkpt lat="42.89329" lon="1.14581">
        <ele>840.6</ele>
        <time>2025-06-22T09:41:10Z</time>
      </trkpt>
      <trkpt lat="42.89334" lon="1.14583">
        <ele>840.2</ele>
        <time>2025-06-22T09:41:11Z</time>
      </trkpt>
      <trkpt lat="42.89337" lon="1.14585">
        <ele>839.8</ele>
        <time>2025-06-22T09:41:12Z</time>
      </trkpt>
      <trkpt lat="42.89342" lon="1.14587">
        <ele>839.4</ele>
        <time>2025-06-22T09:41:13Z</time>
      </trkpt>
      <trkpt lat="42.89346" lon="1.14589">
        <ele>839</ele>
        <time>2025-06-22T09:41:14Z</time>
      </trkpt>
      <trkpt lat="42.89354" lon="1.14592">
        <ele>837.8</ele>
        <time>2025-06-22T09:41:16Z</time>
      </trkpt>
      <trkpt lat="42.89358" lon="1.14594">
        <ele>836.8</ele>
        <time>2025-06-22T09:41:17Z</time>
      </trkpt>
      <trkpt lat="42.89361" lon="1.14595">
        <ele>836</ele>
        <time>2025-06-22T09:41:18Z</time>
      </trkpt>
      <trkpt lat="42.89365" lon="1.14596">
        <ele>835</ele>
        <time>2025-06-22T09:41:19Z</time>
      </trkpt>
      <trkpt lat="42.89369" lon="1.14596">
        <ele>834</ele>
        <time>2025-06-22T09:41:20Z</time>
      </trkpt>
      <trkpt lat="42.89372" lon="1.14598">
        <ele>832.8</ele>
        <time>2025-06-22T09:41:21Z</time>
      </trkpt>
      <trkpt lat="42.89375" lon="1.14599">
        <ele>831.8</ele>
        <time>2025-06-22T09:41:22Z</time>
      </trkpt>
      <trkpt lat="42.89377" lon="1.146">
        <ele>830.6</ele>
        <time>2025-06-22T09:41:23Z</time>
      </trkpt>
      <trkpt lat="42.89381" lon="1.14601">
        <ele>829.4</ele>
        <time>2025-06-22T09:41:24Z</time>
      </trkpt>
      <trkpt lat="42.89383" lon="1.14602">
        <ele>828.2</ele>
        <time>2025-06-22T09:41:25Z</time>
      </trkpt>
      <trkpt lat="42.89386" lon="1.14605">
        <ele>827</ele>
        <time>2025-06-22T09:41:26Z</time>
      </trkpt>
      <trkpt lat="42.8939" lon="1.14608">
        <ele>825.6</ele>
        <time>2025-06-22T09:41:27Z</time>
      </trkpt>
      <trkpt lat="42.89392" lon="1.14609">
        <ele>824.2</ele>
        <time>2025-06-22T09:41:28Z</time>
      </trkpt>
      <trkpt lat="42.89397" lon="1.14611">
        <ele>822.8</ele>
        <time>2025-06-22T09:41:29Z</time>
      </trkpt>
      <trkpt lat="42.894" lon="1.14612">
        <ele>821.4</ele>
        <time>2025-06-22T09:41:30Z</time>
      </trkpt>
      <trkpt lat="42.89404" lon="1.14616">
        <ele>820.2</ele>
        <time>2025-06-22T09:41:31Z</time>
      </trkpt>
      <trkpt lat="42.89406" lon="1.14617">
        <ele>819</ele>
        <time>2025-06-22T09:41:32Z</time>
      </trkpt>
      <trkpt lat="42.89408" lon="1.14619">
        <ele>817.6</ele>
        <time>2025-06-22T09:41:33Z</time>
      </trkpt>
      <trkpt lat="42.8941" lon="1.14619">
        <ele>816.6</ele>
        <time>2025-06-22T09:41:34Z</time>
      </trkpt>
      <trkpt lat="42.89411" lon="1.14619">
        <ele>815.4</ele>
        <time>2025-06-22T09:41:35Z</time>
      </trkpt>
      <trkpt lat="42.89414" lon="1.14618">
        <ele>814.2</ele>
        <time>2025-06-22T09:41:36Z</time>
      </trkpt>
      <trkpt lat="42.89415" lon="1.14617">
        <ele>813</ele>
        <time>2025-06-22T09:41:37Z</time>
      </trkpt>
      <trkpt lat="42.89418" lon="1.14617">
        <ele>811.8</ele>
        <time>2025-06-22T09:41:38Z</time>
      </trkpt>
      <trkpt lat="42.8942" lon="1.14615">
        <ele>810.6</ele>
        <time>2025-06-22T09:41:39Z</time>
      </trkpt>
      <trkpt lat="42.8942" lon="1.14613">
        <ele>808</ele>
        <time>2025-06-22T09:41:40Z</time>
      </trkpt>
      <trkpt lat="42.89422" lon="1.14611">
        <ele>806.6</ele>
        <time>2025-06-22T09:41:41Z</time>
      </trkpt>
      <trkpt lat="42.89426" lon="1.14612">
        <ele>805.2</ele>
        <time>2025-06-22T09:41:42Z</time>
      </trkpt>
      <trkpt lat="42.89429" lon="1.14613">
        <ele>804</ele>
        <time>2025-06-22T09:41:43Z</time>
      </trkpt>
      <trkpt lat="42.89432" lon="1.14612">
        <ele>802.8</ele>
        <time>2025-06-22T09:41:44Z</time>
      </trkpt>
      <trkpt lat="42.89434" lon="1.14612">
        <ele>801.6</ele>
        <time>2025-06-22T09:41:45Z</time>
      </trkpt>
      <trkpt lat="42.89437" lon="1.14611">
        <ele>800.6</ele>
        <time>2025-06-22T09:41:46Z</time>
      </trkpt>
      <trkpt lat="42.8944" lon="1.1461">
        <ele>799.4</ele>
        <time>2025-06-22T09:41:47Z</time>
      </trkpt>
      <trkpt lat="42.89443" lon="1.1461">
        <ele>798.4</ele>
        <time>2025-06-22T09:41:48Z</time>
      </trkpt>
      <trkpt lat="42.89448" lon="1.14609">
        <ele>797.4</ele>
        <time>2025-06-22T09:41:49Z</time>
      </trkpt>
      <trkpt lat="42.89451" lon="1.14608">
        <ele>796.4</ele>
        <time>2025-06-22T09:41:50Z</time>
      </trkpt>
      <trkpt lat="42.89454" lon="1.14605">
        <ele>795.2</ele>
        <time>2025-06-22T09:41:51Z</time>
      </trkpt>
      <trkpt lat="42.89463" lon="1.146">
        <ele>794.2</ele>
        <time>2025-06-22T09:41:52Z</time>
      </trkpt>
      <trkpt lat="42.89467" lon="1.146">
        <ele>793.2</ele>
        <time>2025-06-22T09:41:53Z</time>
      </trkpt>
      <trkpt lat="42.8947" lon="1.146">
        <ele>792.2</ele>
        <time>2025-06-22T09:41:54Z</time>
      </trkpt>
      <trkpt lat="42.8948" lon="1.14598">
        <ele>791.2</ele>
        <time>2025-06-22T09:41:55Z</time>
      </trkpt>
      <trkpt lat="42.89481" lon="1.146">
        <ele>790.4</ele>
        <time>2025-06-22T09:41:56Z</time>
      </trkpt>
      <trkpt lat="42.89482" lon="1.14602">
        <ele>789.6</ele>
        <time>2025-06-22T09:41:57Z</time>
      </trkpt>
      <trkpt lat="42.89482" lon="1.14603">
        <ele>788.6</ele>
        <time>2025-06-22T09:41:58Z</time>
      </trkpt>
      <trkpt lat="42.89482" lon="1.14603">
        <ele>787.8</ele>
        <time>2025-06-22T09:41:59Z</time>
      </trkpt>
      <trkpt lat="42.89482" lon="1.14603">
        <ele>787</ele>
        <time>2025-06-22T09:42:00Z</time>
      </trkpt>
      <trkpt lat="42.89493" lon="1.14597">
        <ele>786</ele>
        <time>2025-06-22T09:42:01Z</time>
      </trkpt>
      <trkpt lat="42.89494" lon="1.14597">
        <ele>785.2</ele>
        <time>2025-06-22T09:42:02Z</time>
      </trkpt>
      <trkpt lat="42.89494" lon="1.14594">
        <ele>783</ele>
        <time>2025-06-22T09:42:04Z</time>
      </trkpt>
      <trkpt lat="42.89495" lon="1.14593">
        <ele>781</ele>
        <time>2025-06-22T09:42:05Z</time>
      </trkpt>
      <trkpt lat="42.89496" lon="1.14593">
        <ele>780</ele>
        <time>2025-06-22T09:42:06Z</time>
      </trkpt>
      <trkpt lat="42.89496" lon="1.14594">
        <ele>779</ele>
        <time>2025-06-22T09:42:07Z</time>
      </trkpt>
      <trkpt lat="42.89497" lon="1.14595">
        <ele>778.2</ele>
        <time>2025-06-22T09:42:08Z</time>
      </trkpt>
      <trkpt lat="42.89499" lon="1.14596">
        <ele>777.4</ele>
        <time>2025-06-22T09:42:09Z</time>
      </trkpt>
      <trkpt lat="42.89513" lon="1.14592">
        <ele>776.6</ele>
        <time>2025-06-22T09:42:10Z</time>
      </trkpt>
      <trkpt lat="42.89515" lon="1.14594">
        <ele>775.8</ele>
        <time>2025-06-22T09:42:11Z</time>
      </trkpt>
      <trkpt lat="42.89518" lon="1.14595">
        <ele>775.2</ele>
        <time>2025-06-22T09:42:12Z</time>
      </trkpt>
      <trkpt lat="42.89521" lon="1.14596">
        <ele>774.4</ele>
        <time>2025-06-22T09:42:13Z</time>
      </trkpt>
      <trkpt lat="42.89523" lon="1.14598">
        <ele>773.6</ele>
        <time>2025-06-22T09:42:14Z</time>
      </trkpt>
      <trkpt lat="42.89525" lon="1.14598">
        <ele>772.8</ele>
        <time>2025-06-22T09:42:15Z</time>
      </trkpt>
      <trkpt lat="42.89527" lon="1.14598">
        <ele>772.2</ele>
        <time>2025-06-22T09:42:16Z</time>
      </trkpt>
      <trkpt lat="42.89558" lon="1.14597">
        <ele>765.6</ele>
        <time>2025-06-22T09:42:24Z</time>
      </trkpt>
      <trkpt lat="42.89561" lon="1.14598">
        <ele>764.6</ele>
        <time>2025-06-22T09:42:25Z</time>
      </trkpt>
      <trkpt lat="42.89563" lon="1.14599">
        <ele>763.6</ele>
        <time>2025-06-22T09:42:26Z</time>
      </trkpt>
      <trkpt lat="42.89576" lon="1.14595">
        <ele>762.8</ele>
        <time>2025-06-22T09:42:27Z</time>
      </trkpt>
      <trkpt lat="42.8958" lon="1.14595">
        <ele>761.8</ele>
        <time>2025-06-22T09:42:28Z</time>
      </trkpt>
      <trkpt lat="42.89582" lon="1.14595">
        <ele>760.8</ele>
        <time>2025-06-22T09:42:29Z</time>
      </trkpt>
      <trkpt lat="42.89593" lon="1.14591">
        <ele>758.6</ele>
        <time>2025-06-22T09:42:30Z</time>
      </trkpt>
      <trkpt lat="42.89595" lon="1.14589">
        <ele>757.8</ele>
        <time>2025-06-22T09:42:31Z</time>
      </trkpt>
      <trkpt lat="42.89597" lon="1.14588">
        <ele>756.8</ele>
        <time>2025-06-22T09:42:32Z</time>
      </trkpt>
      <trkpt lat="42.896" lon="1.14587">
        <ele>755.8</ele>
        <time>2025-06-22T09:42:33Z</time>
      </trkpt>
      <trkpt lat="42.89611" lon="1.14582">
        <ele>754.8</ele>
        <time>2025-06-22T09:42:34Z</time>
      </trkpt>
      <trkpt lat="42.89614" lon="1.14581">
        <ele>754</ele>
        <time>2025-06-22T09:42:35Z</time>
      </trkpt>
      <trkpt lat="42.89625" lon="1.14576">
        <ele>753</ele>
        <time>2025-06-22T09:42:36Z</time>
      </trkpt>
      <trkpt lat="42.8963" lon="1.14573">
        <ele>752</ele>
        <time>2025-06-22T09:42:37Z</time>
      </trkpt>
      <trkpt lat="42.89635" lon="1.1457">
        <ele>751</ele>
        <time>2025-06-22T09:42:38Z</time>
      </trkpt>
      <trkpt lat="42.89645" lon="1.14566">
        <ele>750</ele>
        <time>2025-06-22T09:42:39Z</time>
      </trkpt>
      <trkpt lat="42.8965" lon="1.14562">
        <ele>749</ele>
        <time>2025-06-22T09:42:40Z</time>
      </trkpt>
      <trkpt lat="42.89652" lon="1.14558">
        <ele>748</ele>
        <time>2025-06-22T09:42:41Z</time>
      </trkpt>
      <trkpt lat="42.89657" lon="1.14554">
        <ele>747</ele>
        <time>2025-06-22T09:42:42Z</time>
      </trkpt>
      <trkpt lat="42.89666" lon="1.14547">
        <ele>746</ele>
        <time>2025-06-22T09:42:43Z</time>
      </trkpt>
      <trkpt lat="42.89668" lon="1.14539">
        <ele>745</ele>
        <time>2025-06-22T09:42:44Z</time>
      </trkpt>
      <trkpt lat="42.89669" lon="1.14537">
        <ele>744</ele>
        <time>2025-06-22T09:42:45Z</time>
      </trkpt>
      <trkpt lat="42.89673" lon="1.14535">
        <ele>743</ele>
        <time>2025-06-22T09:42:46Z</time>
      </trkpt>
      <trkpt lat="42.89677" lon="1.14534">
        <ele>742</ele>
        <time>2025-06-22T09:42:47Z</time>
      </trkpt>
      <trkpt lat="42.89679" lon="1.14534">
        <ele>741.2</ele>
        <time>2025-06-22T09:42:48Z</time>
      </trkpt>
      <trkpt lat="42.89679" lon="1.14533">
        <ele>740.2</ele>
        <time>2025-06-22T09:42:49Z</time>
      </trkpt>
      <trkpt lat="42.89687" lon="1.14536">
        <ele>739.4</ele>
        <time>2025-06-22T09:43:20Z</time>
      </trkpt>
      <trkpt lat="42.89693" lon="1.14544">
        <ele>739.4</ele>
        <time>2025-06-22T09:43:22Z</time>
      </trkpt>
      <trkpt lat="42.89704" lon="1.14554">
        <ele>739.4</ele>
        <time>2025-06-22T09:43:25Z</time>
      </trkpt>
      <trkpt lat="42.89709" lon="1.14556">
        <ele>739.4</ele>
        <time>2025-06-22T09:43:26Z</time>
      </trkpt>
      <trkpt lat="42.89715" lon="1.14558">
        <ele>738.8</ele>
        <time>2025-06-22T09:43:27Z</time>
      </trkpt>
      <trkpt lat="42.89722" lon="1.1456">
        <ele>738.4</ele>
        <time>2025-06-22T09:43:28Z</time>
      </trkpt>
      <trkpt lat="42.89729" lon="1.14562">
        <ele>738</ele>
        <time>2025-06-22T09:43:29Z</time>
      </trkpt>
      <trkpt lat="42.89735" lon="1.14563">
        <ele>737.4</ele>
        <time>2025-06-22T09:43:30Z</time>
      </trkpt>
      <trkpt lat="42.89742" lon="1.14563">
        <ele>737</ele>
        <time>2025-06-22T09:43:31Z</time>
      </trkpt>
      <trkpt lat="42.89755" lon="1.14561">
        <ele>737</ele>
        <time>2025-06-22T09:43:33Z</time>
      </trkpt>
      <trkpt lat="42.89762" lon="1.1456">
        <ele>736.6</ele>
        <time>2025-06-22T09:43:34Z</time>
      </trkpt>
      <trkpt lat="42.89778" lon="1.14555">
        <ele>736.2</ele>
        <time>2025-06-22T09:43:35Z</time>
      </trkpt>
      <trkpt lat="42.8979" lon="1.14549">
        <ele>735.8</ele>
        <time>2025-06-22T09:43:36Z</time>
      </trkpt>
      <trkpt lat="42.89797" lon="1.14544">
        <ele>735.4</ele>
        <time>2025-06-22T09:43:37Z</time>
      </trkpt>
      <trkpt lat="42.89805" lon="1.14539">
        <ele>735</ele>
        <time>2025-06-22T09:43:38Z</time>
      </trkpt>
      <trkpt lat="42.89819" lon="1.14531">
        <ele>735</ele>
        <time>2025-06-22T09:43:40Z</time>
      </trkpt>
      <trkpt lat="42.89826" lon="1.1453">
        <ele>735</ele>
        <time>2025-06-22T09:43:41Z</time>
      </trkpt>
      <trkpt lat="42.89857" lon="1.14533">
        <ele>735</ele>
        <time>2025-06-22T09:43:44Z</time>
      </trkpt>
      <trkpt lat="42.89865" lon="1.14535">
        <ele>735</ele>
        <time>2025-06-22T09:43:45Z</time>
      </trkpt>
      <trkpt lat="42.89887" lon="1.1454">
        <ele>735</ele>
        <time>2025-06-22T09:43:48Z</time>
      </trkpt>
      <trkpt lat="42.89901" lon="1.1454">
        <ele>734.6</ele>
        <time>2025-06-22T09:43:50Z</time>
      </trkpt>
      <trkpt lat="42.89908" lon="1.14539">
        <ele>734</ele>
        <time>2025-06-22T09:43:51Z</time>
      </trkpt>
      <trkpt lat="42.89915" lon="1.14538">
        <ele>733.6</ele>
        <time>2025-06-22T09:43:52Z</time>
      </trkpt>
      <trkpt lat="42.89921" lon="1.14536">
        <ele>733.2</ele>
        <time>2025-06-22T09:43:53Z</time>
      </trkpt>
      <trkpt lat="42.89927" lon="1.14533">
        <ele>732.8</ele>
        <time>2025-06-22T09:43:54Z</time>
      </trkpt>
      <trkpt lat="42.89933" lon="1.1453">
        <ele>732.8</ele>
        <time>2025-06-22T09:43:55Z</time>
      </trkpt>
      <trkpt lat="42.89955" lon="1.14516">
        <ele>732.4</ele>
        <time>2025-06-22T09:43:59Z</time>
      </trkpt>
      <trkpt lat="42.8996" lon="1.14512">
        <ele>732</ele>
        <time>2025-06-22T09:44:00Z</time>
      </trkpt>
      <trkpt lat="42.89965" lon="1.14507">
        <ele>731.6</ele>
        <time>2025-06-22T09:44:01Z</time>
      </trkpt>
      <trkpt lat="42.8997" lon="1.14502">
        <ele>731</ele>
        <time>2025-06-22T09:44:02Z</time>
      </trkpt>
      <trkpt lat="42.89975" lon="1.14497">
        <ele>730.6</ele>
        <time>2025-06-22T09:44:03Z</time>
      </trkpt>
      <trkpt lat="42.89981" lon="1.14492">
        <ele>730</ele>
        <time>2025-06-22T09:44:04Z</time>
      </trkpt>
      <trkpt lat="42.89988" lon="1.1449">
        <ele>729.2</ele>
        <time>2025-06-22T09:44:05Z</time>
      </trkpt>
      <trkpt lat="42.89994" lon="1.14489">
        <ele>728.2</ele>
        <time>2025-06-22T09:44:06Z</time>
      </trkpt>
      <trkpt lat="42.9" lon="1.1449">
        <ele>727.2</ele>
        <time>2025-06-22T09:44:07Z</time>
      </trkpt>
      <trkpt lat="42.90009" lon="1.1449">
        <ele>725</ele>
        <time>2025-06-22T09:44:08Z</time>
      </trkpt>
      <trkpt lat="42.9002" lon="1.1449">
        <ele>724</ele>
        <time>2025-06-22T09:44:09Z</time>
      </trkpt>
      <trkpt lat="42.90031" lon="1.14491">
        <ele>722.8</ele>
        <time>2025-06-22T09:44:10Z</time>
      </trkpt>
      <trkpt lat="42.9004" lon="1.14492">
        <ele>721.6</ele>
        <time>2025-06-22T09:44:11Z</time>
      </trkpt>
      <trkpt lat="42.90048" lon="1.14496">
        <ele>720.6</ele>
        <time>2025-06-22T09:44:12Z</time>
      </trkpt>
      <trkpt lat="42.90055" lon="1.14498">
        <ele>719.4</ele>
        <time>2025-06-22T09:44:13Z</time>
      </trkpt>
      <trkpt lat="42.90064" lon="1.14498">
        <ele>718.4</ele>
        <time>2025-06-22T09:44:14Z</time>
      </trkpt>
      <trkpt lat="42.90073" lon="1.14496">
        <ele>717.4</ele>
        <time>2025-06-22T09:44:15Z</time>
      </trkpt>
      <trkpt lat="42.90082" lon="1.14492">
        <ele>716.6</ele>
        <time>2025-06-22T09:44:16Z</time>
      </trkpt>
      <trkpt lat="42.9009" lon="1.14489">
        <ele>715.8</ele>
        <time>2025-06-22T09:44:17Z</time>
      </trkpt>
      <trkpt lat="42.90099" lon="1.14484">
        <ele>715</ele>
        <time>2025-06-22T09:44:18Z</time>
      </trkpt>
      <trkpt lat="42.90108" lon="1.14478">
        <ele>714</ele>
        <time>2025-06-22T09:44:19Z</time>
      </trkpt>
      <trkpt lat="42.90117" lon="1.14471">
        <ele>712.6</ele>
        <time>2025-06-22T09:44:20Z</time>
      </trkpt>
      <trkpt lat="42.90126" lon="1.14465">
        <ele>711.2</ele>
        <time>2025-06-22T09:44:21Z</time>
      </trkpt>
      <trkpt lat="42.90135" lon="1.14461">
        <ele>709.8</ele>
        <time>2025-06-22T09:44:22Z</time>
      </trkpt>
      <trkpt lat="42.90145" lon="1.14457">
        <ele>708.4</ele>
        <time>2025-06-22T09:44:23Z</time>
      </trkpt>
      <trkpt lat="42.90156" lon="1.14454">
        <ele>707</ele>
        <time>2025-06-22T09:44:24Z</time>
      </trkpt>
      <trkpt lat="42.90167" lon="1.14453">
        <ele>705.8</ele>
        <time>2025-06-22T09:44:25Z</time>
      </trkpt>
      <trkpt lat="42.90177" lon="1.14451">
        <ele>704.4</ele>
        <time>2025-06-22T09:44:26Z</time>
      </trkpt>
      <trkpt lat="42.90188" lon="1.14451">
        <ele>703.2</ele>
        <time>2025-06-22T09:44:27Z</time>
      </trkpt>
      <trkpt lat="42.90199" lon="1.14451">
        <ele>702</ele>
        <time>2025-06-22T09:44:28Z</time>
      </trkpt>
      <trkpt lat="42.9021" lon="1.14452">
        <ele>700.8</ele>
        <time>2025-06-22T09:44:29Z</time>
      </trkpt>
      <trkpt lat="42.9022" lon="1.14454">
        <ele>699.8</ele>
        <time>2025-06-22T09:44:30Z</time>
      </trkpt>
      <trkpt lat="42.9023" lon="1.14456">
        <ele>698.8</ele>
        <time>2025-06-22T09:44:31Z</time>
      </trkpt>
      <trkpt lat="42.9024" lon="1.14458">
        <ele>697.8</ele>
        <time>2025-06-22T09:44:32Z</time>
      </trkpt>
      <trkpt lat="42.90247" lon="1.14458">
        <ele>696</ele>
        <time>2025-06-22T09:44:33Z</time>
      </trkpt>
      <trkpt lat="42.90253" lon="1.14458">
        <ele>695.2</ele>
        <time>2025-06-22T09:44:34Z</time>
      </trkpt>
      <trkpt lat="42.9026" lon="1.14457">
        <ele>694.4</ele>
        <time>2025-06-22T09:44:35Z</time>
      </trkpt>
      <trkpt lat="42.90265" lon="1.14454">
        <ele>693.4</ele>
        <time>2025-06-22T09:44:36Z</time>
      </trkpt>
      <trkpt lat="42.90271" lon="1.14451">
        <ele>692.6</ele>
        <time>2025-06-22T09:44:37Z</time>
      </trkpt>
      <trkpt lat="42.90277" lon="1.1445">
        <ele>691.8</ele>
        <time>2025-06-22T09:44:38Z</time>
      </trkpt>
      <trkpt lat="42.90281" lon="1.1445">
        <ele>691.2</ele>
        <time>2025-06-22T09:44:39Z</time>
      </trkpt>
      <trkpt lat="42.90286" lon="1.14449">
        <ele>690.4</ele>
        <time>2025-06-22T09:44:40Z</time>
      </trkpt>
      <trkpt lat="42.90293" lon="1.14447">
        <ele>689.8</ele>
        <time>2025-06-22T09:44:41Z</time>
      </trkpt>
      <trkpt lat="42.90298" lon="1.14445">
        <ele>689.2</ele>
        <time>2025-06-22T09:44:42Z</time>
      </trkpt>
      <trkpt lat="42.90302" lon="1.14443">
        <ele>688.4</ele>
        <time>2025-06-22T09:44:43Z</time>
      </trkpt>
      <trkpt lat="42.90311" lon="1.14442">
        <ele>688.4</ele>
        <time>2025-06-22T09:44:45Z</time>
      </trkpt>
      <trkpt lat="42.9033" lon="1.14444">
        <ele>688.4</ele>
        <time>2025-06-22T09:44:50Z</time>
      </trkpt>
      <trkpt lat="42.90334" lon="1.14445">
        <ele>689</ele>
        <time>2025-06-22T09:44:51Z</time>
      </trkpt>
      <trkpt lat="42.90338" lon="1.14446">
        <ele>689.4</ele>
        <time>2025-06-22T09:44:52Z</time>
      </trkpt>
      <trkpt lat="42.90342" lon="1.14445">
        <ele>689.8</ele>
        <time>2025-06-22T09:44:53Z</time>
      </trkpt>
      <trkpt lat="42.90345" lon="1.14445">
        <ele>690.2</ele>
        <time>2025-06-22T09:44:54Z</time>
      </trkpt>
      <trkpt lat="42.90349" lon="1.14445">
        <ele>690.6</ele>
        <time>2025-06-22T09:44:55Z</time>
      </trkpt>
      <trkpt lat="42.90357" lon="1.14444">
        <ele>690.6</ele>
        <time>2025-06-22T09:44:57Z</time>
      </trkpt>
      <trkpt lat="42.9037" lon="1.14439">
        <ele>690.6</ele>
        <time>2025-06-22T09:45:00Z</time>
      </trkpt>
      <trkpt lat="42.90376" lon="1.14435">
        <ele>690.6</ele>
        <time>2025-06-22T09:45:02Z</time>
      </trkpt>
      <trkpt lat="42.90381" lon="1.14434">
        <ele>690.6</ele>
        <time>2025-06-22T09:45:05Z</time>
      </trkpt>
      <trkpt lat="42.90384" lon="1.14433">
        <ele>691</ele>
        <time>2025-06-22T09:45:07Z</time>
      </trkpt>
      <trkpt lat="42.90387" lon="1.14432">
        <ele>691.4</ele>
        <time>2025-06-22T09:45:08Z</time>
      </trkpt>
      <trkpt lat="42.90389" lon="1.14432">
        <ele>691.8</ele>
        <time>2025-06-22T09:45:09Z</time>
      </trkpt>
      <trkpt lat="42.90391" lon="1.14432">
        <ele>692.2</ele>
        <time>2025-06-22T09:45:10Z</time>
      </trkpt>
      <trkpt lat="42.90394" lon="1.14432">
        <ele>692.6</ele>
        <time>2025-06-22T09:45:11Z</time>
      </trkpt>
      <trkpt lat="42.90406" lon="1.14432">
        <ele>692.6</ele>
        <time>2025-06-22T09:45:14Z</time>
      </trkpt>
      <trkpt lat="42.9043" lon="1.14433">
        <ele>693</ele>
        <time>2025-06-22T09:45:19Z</time>
      </trkpt>
      <trkpt lat="42.90435" lon="1.14432">
        <ele>693.6</ele>
        <time>2025-06-22T09:45:20Z</time>
      </trkpt>
      <trkpt lat="42.90439" lon="1.14432">
        <ele>694</ele>
        <time>2025-06-22T09:45:21Z</time>
      </trkpt>
      <trkpt lat="42.90443" lon="1.14432">
        <ele>694.8</ele>
        <time>2025-06-22T09:45:22Z</time>
      </trkpt>
      <trkpt lat="42.90471" lon="1.1443">
        <ele>694.8</ele>
        <time>2025-06-22T09:45:29Z</time>
      </trkpt>
      <trkpt lat="42.90494" lon="1.14436">
        <ele>694.8</ele>
        <time>2025-06-22T09:45:35Z</time>
      </trkpt>
      <trkpt lat="42.90513" lon="1.14451">
        <ele>694.8</ele>
        <time>2025-06-22T09:45:41Z</time>
      </trkpt>
      <trkpt lat="42.90537" lon="1.14473">
        <ele>694.8</ele>
        <time>2025-06-22T09:45:48Z</time>
      </trkpt>
      <trkpt lat="42.90553" lon="1.14486">
        <ele>694.8</ele>
        <time>2025-06-22T09:45:53Z</time>
      </trkpt>
      <trkpt lat="42.9057" lon="1.145">
        <ele>694.8</ele>
        <time>2025-06-22T09:45:58Z</time>
      </trkpt>
      <trkpt lat="42.90577" lon="1.14507">
        <ele>695.2</ele>
        <time>2025-06-22T09:46:00Z</time>
      </trkpt>
      <trkpt lat="42.9058" lon="1.14511">
        <ele>695.8</ele>
        <time>2025-06-22T09:46:01Z</time>
      </trkpt>
      <trkpt lat="42.90582" lon="1.14514">
        <ele>696.2</ele>
        <time>2025-06-22T09:46:02Z</time>
      </trkpt>
      <trkpt lat="42.90585" lon="1.14518">
        <ele>696.6</ele>
        <time>2025-06-22T09:46:03Z</time>
      </trkpt>
      <trkpt lat="42.90586" lon="1.1452">
        <ele>697</ele>
        <time>2025-06-22T09:46:04Z</time>
      </trkpt>
      <trkpt lat="42.90593" lon="1.14525">
        <ele>697</ele>
        <time>2025-06-22T09:46:07Z</time>
      </trkpt>
      <trkpt lat="42.90596" lon="1.14523">
        <ele>697</ele>
        <time>2025-06-22T09:46:08Z</time>
      </trkpt>
      <trkpt lat="42.90608" lon="1.14504">
        <ele>697</ele>
        <time>2025-06-22T09:46:13Z</time>
      </trkpt>
      <trkpt lat="42.9063" lon="1.14487">
        <ele>697</ele>
        <time>2025-06-22T09:46:19Z</time>
      </trkpt>
      <trkpt lat="42.90652" lon="1.14474">
        <ele>697</ele>
        <time>2025-06-22T09:46:25Z</time>
      </trkpt>
      <trkpt lat="42.9067" lon="1.14473">
        <ele>697</ele>
        <time>2025-06-22T09:46:30Z</time>
      </trkpt>
      <trkpt lat="42.90677" lon="1.14476">
        <ele>697.4</ele>
        <time>2025-06-22T09:46:32Z</time>
      </trkpt>
      <trkpt lat="42.90681" lon="1.14478">
        <ele>697.8</ele>
        <time>2025-06-22T09:46:33Z</time>
      </trkpt>
      <trkpt lat="42.90684" lon="1.1448">
        <ele>698.2</ele>
        <time>2025-06-22T09:46:34Z</time>
      </trkpt>
      <trkpt lat="42.90687" lon="1.14482">
        <ele>698.8</ele>
        <time>2025-06-22T09:46:35Z</time>
      </trkpt>
      <trkpt lat="42.9069" lon="1.14483">
        <ele>699.2</ele>
        <time>2025-06-22T09:46:36Z</time>
      </trkpt>
      <trkpt lat="42.90701" lon="1.14492">
        <ele>699.2</ele>
        <time>2025-06-22T09:46:42Z</time>
      </trkpt>
      <trkpt lat="42.90716" lon="1.145">
        <ele>699.2</ele>
        <time>2025-06-22T09:46:48Z</time>
      </trkpt>
      <trkpt lat="42.90734" lon="1.14506">
        <ele>699.2</ele>
        <time>2025-06-22T09:46:53Z</time>
      </trkpt>
      <trkpt lat="42.90752" lon="1.1451">
        <ele>699.2</ele>
        <time>2025-06-22T09:46:59Z</time>
      </trkpt>
      <trkpt lat="42.90767" lon="1.14513">
        <ele>699.6</ele>
        <time>2025-06-22T09:47:05Z</time>
      </trkpt>
      <trkpt lat="42.9077" lon="1.14512">
        <ele>700</ele>
        <time>2025-06-22T09:47:06Z</time>
      </trkpt>
      <trkpt lat="42.90773" lon="1.14511">
        <ele>700.4</ele>
        <time>2025-06-22T09:47:07Z</time>
      </trkpt>
      <trkpt lat="42.90776" lon="1.1451">
        <ele>700.8</ele>
        <time>2025-06-22T09:47:08Z</time>
      </trkpt>
      <trkpt lat="42.90778" lon="1.1451">
        <ele>701.2</ele>
        <time>2025-06-22T09:47:09Z</time>
      </trkpt>
      <trkpt lat="42.90782" lon="1.14507">
        <ele>701.2</ele>
        <time>2025-06-22T09:47:11Z</time>
      </trkpt>
      <trkpt lat="42.90797" lon="1.14497">
        <ele>701.2</ele>
        <time>2025-06-22T09:47:17Z</time>
      </trkpt>
      <trkpt lat="42.90809" lon="1.14491">
        <ele>701.6</ele>
        <time>2025-06-22T09:47:22Z</time>
      </trkpt>
      <trkpt lat="42.90812" lon="1.14493">
        <ele>702</ele>
        <time>2025-06-22T09:47:23Z</time>
      </trkpt>
      <trkpt lat="42.90814" lon="1.14496">
        <ele>702.4</ele>
        <time>2025-06-22T09:47:24Z</time>
      </trkpt>
      <trkpt lat="42.90816" lon="1.145">
        <ele>703.2</ele>
        <time>2025-06-22T09:47:25Z</time>
      </trkpt>
      <trkpt lat="42.90816" lon="1.14505">
        <ele>703.2</ele>
        <time>2025-06-22T09:47:26Z</time>
      </trkpt>
      <trkpt lat="42.90814" lon="1.14518">
        <ele>703.2</ele>
        <time>2025-06-22T09:47:30Z</time>
      </trkpt>
      <trkpt lat="42.90814" lon="1.14538">
        <ele>703.2</ele>
        <time>2025-06-22T09:47:35Z</time>
      </trkpt>
      <trkpt lat="42.90814" lon="1.14542">
        <ele>703.6</ele>
        <time>2025-06-22T09:47:36Z</time>
      </trkpt>
      <trkpt lat="42.90814" lon="1.14546">
        <ele>704</ele>
        <time>2025-06-22T09:47:37Z</time>
      </trkpt>
      <trkpt lat="42.90814" lon="1.1455">
        <ele>704.4</ele>
        <time>2025-06-22T09:47:38Z</time>
      </trkpt>
      <trkpt lat="42.90813" lon="1.14553">
        <ele>705</ele>
        <time>2025-06-22T09:47:39Z</time>
      </trkpt>
      <trkpt lat="42.90813" lon="1.14557">
        <ele>705.4</ele>
        <time>2025-06-22T09:47:40Z</time>
      </trkpt>
      <trkpt lat="42.90808" lon="1.14573">
        <ele>705.8</ele>
        <time>2025-06-22T09:47:45Z</time>
      </trkpt>
      <trkpt lat="42.90807" lon="1.14577">
        <ele>706.2</ele>
        <time>2025-06-22T09:47:46Z</time>
      </trkpt>
      <trkpt lat="42.90806" lon="1.14581">
        <ele>706.6</ele>
        <time>2025-06-22T09:47:47Z</time>
      </trkpt>
      <trkpt lat="42.90805" lon="1.14584">
        <ele>707</ele>
        <time>2025-06-22T09:47:48Z</time>
      </trkpt>
      <trkpt lat="42.90805" lon="1.14587">
        <ele>707.4</ele>
        <time>2025-06-22T09:47:49Z</time>
      </trkpt>
      <trkpt lat="42.90804" lon="1.14597">
        <ele>707.8</ele>
        <time>2025-06-22T09:47:52Z</time>
      </trkpt>
      <trkpt lat="42.90803" lon="1.146">
        <ele>708.2</ele>
        <time>2025-06-22T09:47:53Z</time>
      </trkpt>
      <trkpt lat="42.90803" lon="1.14603">
        <ele>708.6</ele>
        <time>2025-06-22T09:47:54Z</time>
      </trkpt>
      <trkpt lat="42.90803" lon="1.14607">
        <ele>709.2</ele>
        <time>2025-06-22T09:47:55Z</time>
      </trkpt>
      <trkpt lat="42.90803" lon="1.1461">
        <ele>709.6</ele>
        <time>2025-06-22T09:47:56Z</time>
      </trkpt>
      <trkpt lat="42.90803" lon="1.14616">
        <ele>709.6</ele>
        <time>2025-06-22T09:47:58Z</time>
      </trkpt>
      <trkpt lat="42.90802" lon="1.1462">
        <ele>710</ele>
        <time>2025-06-22T09:48:00Z</time>
      </trkpt>
      <trkpt lat="42.90802" lon="1.14624">
        <ele>710.4</ele>
        <time>2025-06-22T09:48:01Z</time>
      </trkpt>
      <trkpt lat="42.90802" lon="1.14627">
        <ele>710.8</ele>
        <time>2025-06-22T09:48:02Z</time>
      </trkpt>
      <trkpt lat="42.90802" lon="1.1463">
        <ele>711.2</ele>
        <time>2025-06-22T09:48:03Z</time>
      </trkpt>
      <trkpt lat="42.90802" lon="1.14634">
        <ele>711.8</ele>
        <time>2025-06-22T09:48:04Z</time>
      </trkpt>
      <trkpt lat="42.90802" lon="1.1464">
        <ele>712.2</ele>
        <time>2025-06-22T09:48:06Z</time>
      </trkpt>
      <trkpt lat="42.90802" lon="1.14643">
        <ele>712.6</ele>
        <time>2025-06-22T09:48:07Z</time>
      </trkpt>
      <trkpt lat="42.90802" lon="1.14646">
        <ele>713</ele>
        <time>2025-06-22T09:48:08Z</time>
      </trkpt>
      <trkpt lat="42.90802" lon="1.14649">
        <ele>713.4</ele>
        <time>2025-06-22T09:48:09Z</time>
      </trkpt>
      <trkpt lat="42.90801" lon="1.14652">
        <ele>713.8</ele>
        <time>2025-06-22T09:48:10Z</time>
      </trkpt>
      <trkpt lat="42.908" lon="1.14657">
        <ele>713.8</ele>
        <time>2025-06-22T09:48:12Z</time>
      </trkpt>
      <trkpt lat="42.90799" lon="1.1466">
        <ele>714.2</ele>
        <time>2025-06-22T09:48:13Z</time>
      </trkpt>
      <trkpt lat="42.90798" lon="1.14662">
        <ele>714.8</ele>
        <time>2025-06-22T09:48:14Z</time>
      </trkpt>
      <trkpt lat="42.90798" lon="1.14664">
        <ele>715.6</ele>
        <time>2025-06-22T09:48:15Z</time>
      </trkpt>
      <trkpt lat="42.90798" lon="1.14666">
        <ele>716.2</ele>
        <time>2025-06-22T09:48:16Z</time>
      </trkpt>
      <trkpt lat="42.90798" lon="1.14669">
        <ele>716.6</ele>
        <time>2025-06-22T09:48:17Z</time>
      </trkpt>
      <trkpt lat="42.90798" lon="1.14671">
        <ele>717</ele>
        <time>2025-06-22T09:48:18Z</time>
      </trkpt>
      <trkpt lat="42.90797" lon="1.14673">
        <ele>717.4</ele>
        <time>2025-06-22T09:48:19Z</time>
      </trkpt>
      <trkpt lat="42.90797" lon="1.14676">
        <ele>717.8</ele>
        <time>2025-06-22T09:48:20Z</time>
      </trkpt>
      <trkpt lat="42.90796" lon="1.14679">
        <ele>718.4</ele>
        <time>2025-06-22T09:48:21Z</time>
      </trkpt>
      <trkpt lat="42.90796" lon="1.14681">
        <ele>718.8</ele>
        <time>2025-06-22T09:48:22Z</time>
      </trkpt>
      <trkpt lat="42.90796" lon="1.14684">
        <ele>719.4</ele>
        <time>2025-06-22T09:48:23Z</time>
      </trkpt>
      <trkpt lat="42.90796" lon="1.14687">
        <ele>719.8</ele>
        <time>2025-06-22T09:48:24Z</time>
      </trkpt>
      <trkpt lat="42.90795" lon="1.1469">
        <ele>720.4</ele>
        <time>2025-06-22T09:48:25Z</time>
      </trkpt>
      <trkpt lat="42.90795" lon="1.14693">
        <ele>720.8</ele>
        <time>2025-06-22T09:48:26Z</time>
      </trkpt>
      <trkpt lat="42.90794" lon="1.14696">
        <ele>721.2</ele>
        <time>2025-06-22T09:48:27Z</time>
      </trkpt>
      <trkpt lat="42.90794" lon="1.14699">
        <ele>721.8</ele>
        <time>2025-06-22T09:48:28Z</time>
      </trkpt>
      <trkpt lat="42.90793" lon="1.14701">
        <ele>722.2</ele>
        <time>2025-06-22T09:48:29Z</time>
      </trkpt>
      <trkpt lat="42.90792" lon="1.14703">
        <ele>722.6</ele>
        <time>2025-06-22T09:48:30Z</time>
      </trkpt>
      <trkpt lat="42.90791" lon="1.14705">
        <ele>723</ele>
        <time>2025-06-22T09:48:31Z</time>
      </trkpt>
      <trkpt lat="42.90791" lon="1.14707">
        <ele>723.4</ele>
        <time>2025-06-22T09:48:32Z</time>
      </trkpt>
      <trkpt lat="42.9079" lon="1.14709">
        <ele>723.8</ele>
        <time>2025-06-22T09:48:33Z</time>
      </trkpt>
      <trkpt lat="42.9079" lon="1.14711">
        <ele>724.2</ele>
        <time>2025-06-22T09:48:34Z</time>
      </trkpt>
      <trkpt lat="42.90789" lon="1.14713">
        <ele>724.6</ele>
        <time>2025-06-22T09:48:35Z</time>
      </trkpt>
      <trkpt lat="42.90789" lon="1.14715">
        <ele>724.6</ele>
        <time>2025-06-22T09:48:36Z</time>
      </trkpt>
      <trkpt lat="42.90789" lon="1.1472">
        <ele>725.2</ele>
        <time>2025-06-22T09:48:39Z</time>
      </trkpt>
      <trkpt lat="42.90789" lon="1.14721">
        <ele>726</ele>
        <time>2025-06-22T09:48:40Z</time>
      </trkpt>
      <trkpt lat="42.90788" lon="1.14723">
        <ele>726.6</ele>
        <time>2025-06-22T09:48:41Z</time>
      </trkpt>
      <trkpt lat="42.90788" lon="1.14724">
        <ele>727</ele>
        <time>2025-06-22T09:48:42Z</time>
      </trkpt>
      <trkpt lat="42.90787" lon="1.14727">
        <ele>727</ele>
        <time>2025-06-22T09:48:44Z</time>
      </trkpt>
      <trkpt lat="42.90786" lon="1.14729">
        <ele>727.4</ele>
        <time>2025-06-22T09:48:45Z</time>
      </trkpt>
      <trkpt lat="42.90786" lon="1.1473">
        <ele>727.8</ele>
        <time>2025-06-22T09:48:46Z</time>
      </trkpt>
      <trkpt lat="42.90786" lon="1.14731">
        <ele>728.2</ele>
        <time>2025-06-22T09:48:47Z</time>
      </trkpt>
      <trkpt lat="42.90786" lon="1.14732">
        <ele>728.6</ele>
        <time>2025-06-22T09:48:48Z</time>
      </trkpt>
      <trkpt lat="42.90786" lon="1.14734">
        <ele>729.2</ele>
        <time>2025-06-22T09:48:49Z</time>
      </trkpt>
      <trkpt lat="42.90786" lon="1.14738">
        <ele>729.6</ele>
        <time>2025-06-22T09:48:51Z</time>
      </trkpt>
      <trkpt lat="42.90787" lon="1.1474">
        <ele>730</ele>
        <time>2025-06-22T09:48:52Z</time>
      </trkpt>
      <trkpt lat="42.90786" lon="1.14741">
        <ele>730.4</ele>
        <time>2025-06-22T09:48:53Z</time>
      </trkpt>
      <trkpt lat="42.90786" lon="1.14743">
        <ele>730.8</ele>
        <time>2025-06-22T09:48:54Z</time>
      </trkpt>
      <trkpt lat="42.90786" lon="1.14745">
        <ele>731.2</ele>
        <time>2025-06-22T09:48:55Z</time>
      </trkpt>
      <trkpt lat="42.90785" lon="1.1475">
        <ele>731.6</ele>
        <time>2025-06-22T09:48:57Z</time>
      </trkpt>
      <trkpt lat="42.90785" lon="1.14752">
        <ele>732</ele>
        <time>2025-06-22T09:48:58Z</time>
      </trkpt>
      <trkpt lat="42.90784" lon="1.14754">
        <ele>732.6</ele>
        <time>2025-06-22T09:48:59Z</time>
      </trkpt>
      <trkpt lat="42.90783" lon="1.14756">
        <ele>733</ele>
        <time>2025-06-22T09:49:00Z</time>
      </trkpt>
      <trkpt lat="42.90782" lon="1.14757">
        <ele>733.4</ele>
        <time>2025-06-22T09:49:01Z</time>
      </trkpt>
      <trkpt lat="42.90779" lon="1.14757">
        <ele>733.4</ele>
        <time>2025-06-22T09:49:03Z</time>
      </trkpt>
      <trkpt lat="42.90775" lon="1.1475">
        <ele>735.8</ele>
        <time>2025-06-22T09:49:08Z</time>
      </trkpt>
      <trkpt lat="42.90774" lon="1.14748">
        <ele>736.2</ele>
        <time>2025-06-22T09:49:09Z</time>
      </trkpt>
      <trkpt lat="42.90773" lon="1.14747">
        <ele>736.6</ele>
        <time>2025-06-22T09:49:10Z</time>
      </trkpt>
      <trkpt lat="42.90771" lon="1.14746">
        <ele>737</ele>
        <time>2025-06-22T09:49:11Z</time>
      </trkpt>
      <trkpt lat="42.90769" lon="1.14744">
        <ele>737.6</ele>
        <time>2025-06-22T09:49:12Z</time>
      </trkpt>
      <trkpt lat="42.90768" lon="1.14743">
        <ele>738</ele>
        <time>2025-06-22T09:49:13Z</time>
      </trkpt>
      <trkpt lat="42.90765" lon="1.14739">
        <ele>738.4</ele>
        <time>2025-06-22T09:49:15Z</time>
      </trkpt>
      <trkpt lat="42.90763" lon="1.14738">
        <ele>738.8</ele>
        <time>2025-06-22T09:49:16Z</time>
      </trkpt>
      <trkpt lat="42.90762" lon="1.14736">
        <ele>739.2</ele>
        <time>2025-06-22T09:49:17Z</time>
      </trkpt>
      <trkpt lat="42.9076" lon="1.14735">
        <ele>739.8</ele>
        <time>2025-06-22T09:49:18Z</time>
      </trkpt>
      <trkpt lat="42.90759" lon="1.14733">
        <ele>740.2</ele>
        <time>2025-06-22T09:49:19Z</time>
      </trkpt>
      <trkpt lat="42.90757" lon="1.14732">
        <ele>740.6</ele>
        <time>2025-06-22T09:49:20Z</time>
      </trkpt>
      <trkpt lat="42.90755" lon="1.14731">
        <ele>741</ele>
        <time>2025-06-22T09:49:21Z</time>
      </trkpt>
      <trkpt lat="42.90753" lon="1.1473">
        <ele>741.4</ele>
        <time>2025-06-22T09:49:22Z</time>
      </trkpt>
      <trkpt lat="42.90752" lon="1.1473">
        <ele>741.8</ele>
        <time>2025-06-22T09:49:23Z</time>
      </trkpt>
      <trkpt lat="42.90749" lon="1.14729">
        <ele>742.2</ele>
        <time>2025-06-22T09:49:24Z</time>
      </trkpt>
      <trkpt lat="42.90747" lon="1.14729">
        <ele>742.6</ele>
        <time>2025-06-22T09:49:25Z</time>
      </trkpt>
      <trkpt lat="42.90744" lon="1.14728">
        <ele>743.2</ele>
        <time>2025-06-22T09:49:26Z</time>
      </trkpt>
      <trkpt lat="42.90742" lon="1.14727">
        <ele>743.6</ele>
        <time>2025-06-22T09:49:27Z</time>
      </trkpt>
      <trkpt lat="42.90741" lon="1.14727">
        <ele>744</ele>
        <time>2025-06-22T09:49:28Z</time>
      </trkpt>
      <trkpt lat="42.90738" lon="1.14726">
        <ele>744.6</ele>
        <time>2025-06-22T09:49:29Z</time>
      </trkpt>
      <trkpt lat="42.90737" lon="1.14727">
        <ele>745</ele>
        <time>2025-06-22T09:49:30Z</time>
      </trkpt>
      <trkpt lat="42.90736" lon="1.14728">
        <ele>745.4</ele>
        <time>2025-06-22T09:49:31Z</time>
      </trkpt>
      <trkpt lat="42.90734" lon="1.14729">
        <ele>745.8</ele>
        <time>2025-06-22T09:49:32Z</time>
      </trkpt>
      <trkpt lat="42.90734" lon="1.14729">
        <ele>746.4</ele>
        <time>2025-06-22T09:49:33Z</time>
      </trkpt>
      <trkpt lat="42.90733" lon="1.1473">
        <ele>746.8</ele>
        <time>2025-06-22T09:49:34Z</time>
      </trkpt>
      <trkpt lat="42.90732" lon="1.14731">
        <ele>747.2</ele>
        <time>2025-06-22T09:49:35Z</time>
      </trkpt>
      <trkpt lat="42.90732" lon="1.14731">
        <ele>747.8</ele>
        <time>2025-06-22T09:49:36Z</time>
      </trkpt>
      <trkpt lat="42.90731" lon="1.14731">
        <ele>748.2</ele>
        <time>2025-06-22T09:49:37Z</time>
      </trkpt>
      <trkpt lat="42.90731" lon="1.14732">
        <ele>748.8</ele>
        <time>2025-06-22T09:49:38Z</time>
      </trkpt>
      <trkpt lat="42.9073" lon="1.14732">
        <ele>749.2</ele>
        <time>2025-06-22T09:49:39Z</time>
      </trkpt>
      <trkpt lat="42.9069" lon="1.14775">
        <ele>761.8</ele>
        <time>2025-06-22T09:50:15Z</time>
      </trkpt>
      <trkpt lat="42.90687" lon="1.14777">
        <ele>762.4</ele>
        <time>2025-06-22T09:50:16Z</time>
      </trkpt>
      <trkpt lat="42.90685" lon="1.14779">
        <ele>762.8</ele>
        <time>2025-06-22T09:50:17Z</time>
      </trkpt>
      <trkpt lat="42.90683" lon="1.14781">
        <ele>763.2</ele>
        <time>2025-06-22T09:50:18Z</time>
      </trkpt>
      <trkpt lat="42.90682" lon="1.14783">
        <ele>764.2</ele>
        <time>2025-06-22T09:50:19Z</time>
      </trkpt>
      <trkpt lat="42.90681" lon="1.14784">
        <ele>764.2</ele>
        <time>2025-06-22T09:50:21Z</time>
      </trkpt>
      <trkpt lat="42.90662" lon="1.14805">
        <ele>767.6</ele>
        <time>2025-06-22T09:50:35Z</time>
      </trkpt>
      <trkpt lat="42.9066" lon="1.14807">
        <ele>768</ele>
        <time>2025-06-22T09:50:36Z</time>
      </trkpt>
      <trkpt lat="42.90658" lon="1.14809">
        <ele>768.4</ele>
        <time>2025-06-22T09:50:37Z</time>
      </trkpt>
      <trkpt lat="42.90652" lon="1.14815">
        <ele>768.8</ele>
        <time>2025-06-22T09:50:42Z</time>
      </trkpt>
      <trkpt lat="42.90651" lon="1.14816">
        <ele>769.2</ele>
        <time>2025-06-22T09:50:43Z</time>
      </trkpt>
      <trkpt lat="42.9065" lon="1.14817">
        <ele>770</ele>
        <time>2025-06-22T09:50:44Z</time>
      </trkpt>
      <trkpt lat="42.90649" lon="1.14818">
        <ele>770.4</ele>
        <time>2025-06-22T09:50:45Z</time>
      </trkpt>
      <trkpt lat="42.90643" lon="1.14822">
        <ele>770.8</ele>
        <time>2025-06-22T09:50:51Z</time>
      </trkpt>
      <trkpt lat="42.90642" lon="1.14823">
        <ele>771.2</ele>
        <time>2025-06-22T09:50:52Z</time>
      </trkpt>
      <trkpt lat="42.90641" lon="1.14824">
        <ele>771.8</ele>
        <time>2025-06-22T09:50:53Z</time>
      </trkpt>
      <trkpt lat="42.90638" lon="1.14827">
        <ele>772.2</ele>
        <time>2025-06-22T09:50:54Z</time>
      </trkpt>
      <trkpt lat="42.90637" lon="1.14828">
        <ele>772.6</ele>
        <time>2025-06-22T09:50:55Z</time>
      </trkpt>
      <trkpt lat="42.90633" lon="1.14832">
        <ele>772.6</ele>
        <time>2025-06-22T09:50:57Z</time>
      </trkpt>
      <trkpt lat="42.90628" lon="1.14837">
        <ele>773</ele>
        <time>2025-06-22T09:51:00Z</time>
      </trkpt>
      <trkpt lat="42.90627" lon="1.14838">
        <ele>773.4</ele>
        <time>2025-06-22T09:51:01Z</time>
      </trkpt>
      <trkpt lat="42.90627" lon="1.14839">
        <ele>773.8</ele>
        <time>2025-06-22T09:51:02Z</time>
      </trkpt>
      <trkpt lat="42.90626" lon="1.14841">
        <ele>774.2</ele>
        <time>2025-06-22T09:51:03Z</time>
      </trkpt>
      <trkpt lat="42.90626" lon="1.14842">
        <ele>774.6</ele>
        <time>2025-06-22T09:51:04Z</time>
      </trkpt>
      <trkpt lat="42.90624" lon="1.14846">
        <ele>775</ele>
        <time>2025-06-22T09:51:07Z</time>
      </trkpt>
      <trkpt lat="42.90623" lon="1.14848">
        <ele>775.8</ele>
        <time>2025-06-22T09:51:08Z</time>
      </trkpt>
      <trkpt lat="42.90622" lon="1.1485">
        <ele>776.4</ele>
        <time>2025-06-22T09:51:09Z</time>
      </trkpt>
      <trkpt lat="42.90621" lon="1.14853">
        <ele>776.8</ele>
        <time>2025-06-22T09:51:10Z</time>
      </trkpt>
      <trkpt lat="42.90618" lon="1.14859">
        <ele>776.8</ele>
        <time>2025-06-22T09:51:12Z</time>
      </trkpt>
      <trkpt lat="42.90617" lon="1.14861">
        <ele>777.2</ele>
        <time>2025-06-22T09:51:13Z</time>
      </trkpt>
      <trkpt lat="42.90616" lon="1.14863">
        <ele>777.6</ele>
        <time>2025-06-22T09:51:14Z</time>
      </trkpt>
      <trkpt lat="42.90615" lon="1.14866">
        <ele>778</ele>
        <time>2025-06-22T09:51:15Z</time>
      </trkpt>
      <trkpt lat="42.90614" lon="1.14869">
        <ele>778.4</ele>
        <time>2025-06-22T09:51:16Z</time>
      </trkpt>
      <trkpt lat="42.90613" lon="1.14871">
        <ele>779</ele>
        <time>2025-06-22T09:51:17Z</time>
      </trkpt>
      <trkpt lat="42.9061" lon="1.14878">
        <ele>779.4</ele>
        <time>2025-06-22T09:51:20Z</time>
      </trkpt>
      <trkpt lat="42.9061" lon="1.1488">
        <ele>779.8</ele>
        <time>2025-06-22T09:51:21Z</time>
      </trkpt>
      <trkpt lat="42.90609" lon="1.14882">
        <ele>780.2</ele>
        <time>2025-06-22T09:51:22Z</time>
      </trkpt>
      <trkpt lat="42.90609" lon="1.14884">
        <ele>780.6</ele>
        <time>2025-06-22T09:51:23Z</time>
      </trkpt>
      <trkpt lat="42.90608" lon="1.14886">
        <ele>781</ele>
        <time>2025-06-22T09:51:24Z</time>
      </trkpt>
      <trkpt lat="42.90606" lon="1.1489">
        <ele>781.6</ele>
        <time>2025-06-22T09:51:26Z</time>
      </trkpt>
      <trkpt lat="42.90606" lon="1.14892">
        <ele>782</ele>
        <time>2025-06-22T09:51:27Z</time>
      </trkpt>
      <trkpt lat="42.90605" lon="1.14894">
        <ele>782.4</ele>
        <time>2025-06-22T09:51:28Z</time>
      </trkpt>
      <trkpt lat="42.90606" lon="1.14896">
        <ele>782.8</ele>
        <time>2025-06-22T09:51:29Z</time>
      </trkpt>
      <trkpt lat="42.90606" lon="1.14898">
        <ele>783.2</ele>
        <time>2025-06-22T09:51:30Z</time>
      </trkpt>
      <trkpt lat="42.90608" lon="1.14907">
        <ele>783.8</ele>
        <time>2025-06-22T09:51:34Z</time>
      </trkpt>
      <trkpt lat="42.90608" lon="1.14908">
        <ele>784.2</ele>
        <time>2025-06-22T09:51:35Z</time>
      </trkpt>
      <trkpt lat="42.90608" lon="1.1491">
        <ele>784.6</ele>
        <time>2025-06-22T09:51:36Z</time>
      </trkpt>
      <trkpt lat="42.90608" lon="1.14912">
        <ele>785</ele>
        <time>2025-06-22T09:51:37Z</time>
      </trkpt>
      <trkpt lat="42.90609" lon="1.14914">
        <ele>785.4</ele>
        <time>2025-06-22T09:51:38Z</time>
      </trkpt>
      <trkpt lat="42.90609" lon="1.14918">
        <ele>785.8</ele>
        <time>2025-06-22T09:51:40Z</time>
      </trkpt>
      <trkpt lat="42.9061" lon="1.14919">
        <ele>786.2</ele>
        <time>2025-06-22T09:51:41Z</time>
      </trkpt>
      <trkpt lat="42.90565" lon="1.14897">
        <ele>794.2</ele>
        <time>2025-06-22T09:52:25Z</time>
      </trkpt>
      <trkpt lat="42.90563" lon="1.14896">
        <ele>794.8</ele>
        <time>2025-06-22T09:52:26Z</time>
      </trkpt>
      <trkpt lat="42.90561" lon="1.14895">
        <ele>795.2</ele>
        <time>2025-06-22T09:52:27Z</time>
      </trkpt>
      <trkpt lat="42.90559" lon="1.14894">
        <ele>795.6</ele>
        <time>2025-06-22T09:52:28Z</time>
      </trkpt>
      <trkpt lat="42.90557" lon="1.14893">
        <ele>796</ele>
        <time>2025-06-22T09:52:29Z</time>
      </trkpt>
      <trkpt lat="42.90546" lon="1.14892">
        <ele>796</ele>
        <time>2025-06-22T09:52:32Z</time>
      </trkpt>
      <trkpt lat="42.90543" lon="1.14892">
        <ele>796.4</ele>
        <time>2025-06-22T09:52:33Z</time>
      </trkpt>
      <trkpt lat="42.9054" lon="1.14892">
        <ele>796.8</ele>
        <time>2025-06-22T09:52:34Z</time>
      </trkpt>
      <trkpt lat="42.90537" lon="1.14892">
        <ele>797.2</ele>
        <time>2025-06-22T09:52:35Z</time>
      </trkpt>
      <trkpt lat="42.90534" lon="1.14892">
        <ele>797.6</ele>
        <time>2025-06-22T09:52:36Z</time>
      </trkpt>
      <trkpt lat="42.90531" lon="1.14892">
        <ele>798</ele>
        <time>2025-06-22T09:52:37Z</time>
      </trkpt>
      <trkpt lat="42.90527" lon="1.14891">
        <ele>798</ele>
        <time>2025-06-22T09:52:39Z</time>
      </trkpt>
      <trkpt lat="42.90523" lon="1.14891">
        <ele>798.6</ele>
        <time>2025-06-22T09:52:41Z</time>
      </trkpt>
      <trkpt lat="42.90521" lon="1.14891">
        <ele>799</ele>
        <time>2025-06-22T09:52:42Z</time>
      </trkpt>
      <trkpt lat="42.90519" lon="1.14892">
        <ele>799.4</ele>
        <time>2025-06-22T09:52:43Z</time>
      </trkpt>
      <trkpt lat="42.90517" lon="1.14892">
        <ele>799.8</ele>
        <time>2025-06-22T09:52:44Z</time>
      </trkpt>
      <trkpt lat="42.90514" lon="1.14892">
        <ele>800.2</ele>
        <time>2025-06-22T09:52:45Z</time>
      </trkpt>
      <trkpt lat="42.90509" lon="1.14892">
        <ele>800.2</ele>
        <time>2025-06-22T09:52:47Z</time>
      </trkpt>
      <trkpt lat="42.90505" lon="1.14893">
        <ele>800.6</ele>
        <time>2025-06-22T09:52:49Z</time>
      </trkpt>
      <trkpt lat="42.90503" lon="1.14893">
        <ele>801</ele>
        <time>2025-06-22T09:52:50Z</time>
      </trkpt>
      <trkpt lat="42.905" lon="1.14894">
        <ele>801.4</ele>
        <time>2025-06-22T09:52:51Z</time>
      </trkpt>
      <trkpt lat="42.90497" lon="1.14895">
        <ele>801.8</ele>
        <time>2025-06-22T09:52:52Z</time>
      </trkpt>
      <trkpt lat="42.90495" lon="1.14896">
        <ele>802.4</ele>
        <time>2025-06-22T09:52:53Z</time>
      </trkpt>
      <trkpt lat="42.90475" lon="1.14898">
        <ele>802.8</ele>
        <time>2025-06-22T09:53:00Z</time>
      </trkpt>
      <trkpt lat="42.90472" lon="1.14898">
        <ele>803.2</ele>
        <time>2025-06-22T09:53:01Z</time>
      </trkpt>
      <trkpt lat="42.9047" lon="1.14899">
        <ele>803.6</ele>
        <time>2025-06-22T09:53:02Z</time>
      </trkpt>
      <trkpt lat="42.90467" lon="1.14898">
        <ele>804</ele>
        <time>2025-06-22T09:53:03Z</time>
      </trkpt>
      <trkpt lat="42.90464" lon="1.14898">
        <ele>804.4</ele>
        <time>2025-06-22T09:53:04Z</time>
      </trkpt>
      <trkpt lat="42.90457" lon="1.14899">
        <ele>804.4</ele>
        <time>2025-06-22T09:53:07Z</time>
      </trkpt>
      <trkpt lat="42.90445" lon="1.14899">
        <ele>805.4</ele>
        <time>2025-06-22T09:53:12Z</time>
      </trkpt>
      <trkpt lat="42.90442" lon="1.14899">
        <ele>805.8</ele>
        <time>2025-06-22T09:53:13Z</time>
      </trkpt>
      <trkpt lat="42.9044" lon="1.14899">
        <ele>806.2</ele>
        <time>2025-06-22T09:53:14Z</time>
      </trkpt>
      <trkpt lat="42.90438" lon="1.14899">
        <ele>806.6</ele>
        <time>2025-06-22T09:53:15Z</time>
      </trkpt>
      <trkpt lat="42.90425" lon="1.14901">
        <ele>806.6</ele>
        <time>2025-06-22T09:53:21Z</time>
      </trkpt>
      <trkpt lat="42.9042" lon="1.14901">
        <ele>807</ele>
        <time>2025-06-22T09:53:24Z</time>
      </trkpt>
      <trkpt lat="42.90418" lon="1.14901">
        <ele>807.4</ele>
        <time>2025-06-22T09:53:25Z</time>
      </trkpt>
      <trkpt lat="42.90416" lon="1.14902">
        <ele>808</ele>
        <time>2025-06-22T09:53:26Z</time>
      </trkpt>
      <trkpt lat="42.90414" lon="1.14903">
        <ele>808.4</ele>
        <time>2025-06-22T09:53:27Z</time>
      </trkpt>
      <trkpt lat="42.90412" lon="1.14904">
        <ele>808.8</ele>
        <time>2025-06-22T09:53:28Z</time>
      </trkpt>
      <trkpt lat="42.90402" lon="1.14908">
        <ele>808.8</ele>
        <time>2025-06-22T09:53:33Z</time>
      </trkpt>
      <trkpt lat="42.90399" lon="1.14909">
        <ele>809.2</ele>
        <time>2025-06-22T09:53:34Z</time>
      </trkpt>
      <trkpt lat="42.90397" lon="1.14909">
        <ele>809.6</ele>
        <time>2025-06-22T09:53:35Z</time>
      </trkpt>
      <trkpt lat="42.90395" lon="1.1491">
        <ele>810</ele>
        <time>2025-06-22T09:53:36Z</time>
      </trkpt>
      <trkpt lat="42.90393" lon="1.14911">
        <ele>811</ele>
        <time>2025-06-22T09:53:37Z</time>
      </trkpt>
      <trkpt lat="42.90388" lon="1.14914">
        <ele>811</ele>
        <time>2025-06-22T09:53:40Z</time>
      </trkpt>
      <trkpt lat="42.90385" lon="1.14915">
        <ele>811.4</ele>
        <time>2025-06-22T09:53:41Z</time>
      </trkpt>
      <trkpt lat="42.90383" lon="1.14915">
        <ele>811.8</ele>
        <time>2025-06-22T09:53:42Z</time>
      </trkpt>
      <trkpt lat="42.90381" lon="1.14915">
        <ele>812.2</ele>
        <time>2025-06-22T09:53:43Z</time>
      </trkpt>
      <trkpt lat="42.90378" lon="1.14916">
        <ele>812.6</ele>
        <time>2025-06-22T09:53:44Z</time>
      </trkpt>
      <trkpt lat="42.90375" lon="1.14917">
        <ele>813</ele>
        <time>2025-06-22T09:53:45Z</time>
      </trkpt>
      <trkpt lat="42.9037" lon="1.14921">
        <ele>813</ele>
        <time>2025-06-22T09:53:47Z</time>
      </trkpt>
      <trkpt lat="42.90364" lon="1.14925">
        <ele>813.4</ele>
        <time>2025-06-22T09:53:50Z</time>
      </trkpt>
      <trkpt lat="42.90363" lon="1.14926">
        <ele>813.8</ele>
        <time>2025-06-22T09:53:51Z</time>
      </trkpt>
      <trkpt lat="42.90361" lon="1.14928">
        <ele>814.2</ele>
        <time>2025-06-22T09:53:52Z</time>
      </trkpt>
      <trkpt lat="42.90358" lon="1.1493">
        <ele>814.8</ele>
        <time>2025-06-22T09:53:53Z</time>
      </trkpt>
      <trkpt lat="42.90356" lon="1.14932">
        <ele>815.2</ele>
        <time>2025-06-22T09:53:54Z</time>
      </trkpt>
      <trkpt lat="42.90338" lon="1.14946">
        <ele>815.6</ele>
        <time>2025-06-22T09:54:00Z</time>
      </trkpt>
      <trkpt lat="42.90336" lon="1.14947">
        <ele>816</ele>
        <time>2025-06-22T09:54:01Z</time>
      </trkpt>
      <trkpt lat="42.90334" lon="1.14949">
        <ele>817</ele>
        <time>2025-06-22T09:54:02Z</time>
      </trkpt>
      <trkpt lat="42.90331" lon="1.14951">
        <ele>817.4</ele>
        <time>2025-06-22T09:54:03Z</time>
      </trkpt>
      <trkpt lat="42.9032" lon="1.1496">
        <ele>817.8</ele>
        <time>2025-06-22T09:54:08Z</time>
      </trkpt>
      <trkpt lat="42.90317" lon="1.14962">
        <ele>818.2</ele>
        <time>2025-06-22T09:54:09Z</time>
      </trkpt>
      <trkpt lat="42.90315" lon="1.14964">
        <ele>818.6</ele>
        <time>2025-06-22T09:54:10Z</time>
      </trkpt>
      <trkpt lat="42.90313" lon="1.14965">
        <ele>819</ele>
        <time>2025-06-22T09:54:11Z</time>
      </trkpt>
      <trkpt lat="42.90312" lon="1.14967">
        <ele>819.4</ele>
        <time>2025-06-22T09:54:12Z</time>
      </trkpt>
      <trkpt lat="42.90309" lon="1.14972">
        <ele>819.4</ele>
        <time>2025-06-22T09:54:14Z</time>
      </trkpt>
      <trkpt lat="42.90304" lon="1.1498">
        <ele>819.8</ele>
        <time>2025-06-22T09:54:18Z</time>
      </trkpt>
      <trkpt lat="42.90302" lon="1.14981">
        <ele>820.2</ele>
        <time>2025-06-22T09:54:19Z</time>
      </trkpt>
      <trkpt lat="42.90298" lon="1.14982">
        <ele>820.6</ele>
        <time>2025-06-22T09:54:20Z</time>
      </trkpt>
      <trkpt lat="42.90296" lon="1.14984">
        <ele>821</ele>
        <time>2025-06-22T09:54:21Z</time>
      </trkpt>
      <trkpt lat="42.90295" lon="1.14985">
        <ele>821.4</ele>
        <time>2025-06-22T09:54:22Z</time>
      </trkpt>
      <trkpt lat="42.90287" lon="1.14991">
        <ele>821.4</ele>
        <time>2025-06-22T09:54:26Z</time>
      </trkpt>
      <trkpt lat="42.90277" lon="1.14996">
        <ele>822</ele>
        <time>2025-06-22T09:54:31Z</time>
      </trkpt>
      <trkpt lat="42.90274" lon="1.14997">
        <ele>822.4</ele>
        <time>2025-06-22T09:54:32Z</time>
      </trkpt>
      <trkpt lat="42.90272" lon="1.14998">
        <ele>822.8</ele>
        <time>2025-06-22T09:54:33Z</time>
      </trkpt>
      <trkpt lat="42.90269" lon="1.14999">
        <ele>823.2</ele>
        <time>2025-06-22T09:54:34Z</time>
      </trkpt>
      <trkpt lat="42.90266" lon="1.14999">
        <ele>823.6</ele>
        <time>2025-06-22T09:54:35Z</time>
      </trkpt>
      <trkpt lat="42.9026" lon="1.15">
        <ele>823.6</ele>
        <time>2025-06-22T09:54:37Z</time>
      </trkpt>
      <trkpt lat="42.90238" lon="1.15007">
        <ele>823.6</ele>
        <time>2025-06-22T09:54:45Z</time>
      </trkpt>
      <trkpt lat="42.90235" lon="1.15007">
        <ele>824</ele>
        <time>2025-06-22T09:54:46Z</time>
      </trkpt>
      <trkpt lat="42.90232" lon="1.15007">
        <ele>824.4</ele>
        <time>2025-06-22T09:54:47Z</time>
      </trkpt>
      <trkpt lat="42.90229" lon="1.15008">
        <ele>824.8</ele>
        <time>2025-06-22T09:54:48Z</time>
      </trkpt>
      <trkpt lat="42.90226" lon="1.15008">
        <ele>825.2</ele>
        <time>2025-06-22T09:54:49Z</time>
      </trkpt>
      <trkpt lat="42.90224" lon="1.15009">
        <ele>825.6</ele>
        <time>2025-06-22T09:54:50Z</time>
      </trkpt>
      <trkpt lat="42.90218" lon="1.1501">
        <ele>825.6</ele>
        <time>2025-06-22T09:54:52Z</time>
      </trkpt>
      <trkpt lat="42.90199" lon="1.15013">
        <ele>825.6</ele>
        <time>2025-06-22T09:54:59Z</time>
      </trkpt>
      <trkpt lat="42.9019" lon="1.15013">
        <ele>826</ele>
        <time>2025-06-22T09:55:02Z</time>
      </trkpt>
      <trkpt lat="42.90188" lon="1.15013">
        <ele>826.4</ele>
        <time>2025-06-22T09:55:03Z</time>
      </trkpt>
      <trkpt lat="42.90185" lon="1.15013">
        <ele>826.8</ele>
        <time>2025-06-22T09:55:04Z</time>
      </trkpt>
      <trkpt lat="42.90182" lon="1.15013">
        <ele>827.2</ele>
        <time>2025-06-22T09:55:05Z</time>
      </trkpt>
      <trkpt lat="42.90179" lon="1.15013">
        <ele>827.6</ele>
        <time>2025-06-22T09:55:06Z</time>
      </trkpt>
      <trkpt lat="42.9016" lon="1.15016">
        <ele>827.6</ele>
        <time>2025-06-22T09:55:13Z</time>
      </trkpt>
      <trkpt lat="42.90144" lon="1.15016">
        <ele>827.6</ele>
        <time>2025-06-22T09:55:19Z</time>
      </trkpt>
      <trkpt lat="42.90129" lon="1.15018">
        <ele>828</ele>
        <time>2025-06-22T09:55:24Z</time>
      </trkpt>
      <trkpt lat="42.90126" lon="1.15019">
        <ele>828.4</ele>
        <time>2025-06-22T09:55:25Z</time>
      </trkpt>
      <trkpt lat="42.90122" lon="1.15019">
        <ele>828.8</ele>
        <time>2025-06-22T09:55:26Z</time>
      </trkpt>
      <trkpt lat="42.90119" lon="1.15019">
        <ele>829.2</ele>
        <time>2025-06-22T09:55:27Z</time>
      </trkpt>
      <trkpt lat="42.90116" lon="1.15019">
        <ele>829.6</ele>
        <time>2025-06-22T09:55:28Z</time>
      </trkpt>
      <trkpt lat="42.90099" lon="1.15021">
        <ele>829.6</ele>
        <time>2025-06-22T09:55:33Z</time>
      </trkpt>
      <trkpt lat="42.90084" lon="1.15023">
        <ele>829.6</ele>
        <time>2025-06-22T09:55:39Z</time>
      </trkpt>
      <trkpt lat="42.90074" lon="1.15024">
        <ele>830</ele>
        <time>2025-06-22T09:55:44Z</time>
      </trkpt>
      <trkpt lat="42.90073" lon="1.15024">
        <ele>830.6</ele>
        <time>2025-06-22T09:55:45Z</time>
      </trkpt>
      <trkpt lat="42.90071" lon="1.15025">
        <ele>831</ele>
        <time>2025-06-22T09:55:46Z</time>
      </trkpt>
      <trkpt lat="42.90069" lon="1.15025">
        <ele>831.4</ele>
        <time>2025-06-22T09:55:47Z</time>
      </trkpt>
      <trkpt lat="42.90067" lon="1.15025">
        <ele>831.8</ele>
        <time>2025-06-22T09:55:48Z</time>
      </trkpt>
      <trkpt lat="42.90064" lon="1.15025">
        <ele>831.8</ele>
        <time>2025-06-22T09:55:49Z</time>
      </trkpt>
      <trkpt lat="42.90041" lon="1.15027">
        <ele>831.8</ele>
        <time>2025-06-22T09:55:57Z</time>
      </trkpt>
      <trkpt lat="42.9003" lon="1.15025">
        <ele>832.2</ele>
        <time>2025-06-22T09:56:01Z</time>
      </trkpt>
      <trkpt lat="42.90027" lon="1.15025">
        <ele>832.6</ele>
        <time>2025-06-22T09:56:02Z</time>
      </trkpt>
      <trkpt lat="42.90022" lon="1.15024">
        <ele>833</ele>
        <time>2025-06-22T09:56:03Z</time>
      </trkpt>
      <trkpt lat="42.90017" lon="1.15023">
        <ele>833.4</ele>
        <time>2025-06-22T09:56:04Z</time>
      </trkpt>
      <trkpt lat="42.90014" lon="1.15022">
        <ele>833.8</ele>
        <time>2025-06-22T09:56:05Z</time>
      </trkpt>
      <trkpt lat="42.89994" lon="1.15018">
        <ele>833.8</ele>
        <time>2025-06-22T09:56:10Z</time>
      </trkpt>
      <trkpt lat="42.89975" lon="1.15022">
        <ele>834.4</ele>
        <time>2025-06-22T09:56:16Z</time>
      </trkpt>
      <trkpt lat="42.89973" lon="1.15022">
        <ele>834.8</ele>
        <time>2025-06-22T09:56:17Z</time>
      </trkpt>
      <trkpt lat="42.8997" lon="1.15023">
        <ele>835.2</ele>
        <time>2025-06-22T09:56:18Z</time>
      </trkpt>
      <trkpt lat="42.89967" lon="1.15023">
        <ele>835.6</ele>
        <time>2025-06-22T09:56:19Z</time>
      </trkpt>
      <trkpt lat="42.89963" lon="1.15024">
        <ele>836</ele>
        <time>2025-06-22T09:56:20Z</time>
      </trkpt>
      <trkpt lat="42.89958" lon="1.15027">
        <ele>836</ele>
        <time>2025-06-22T09:56:22Z</time>
      </trkpt>
      <trkpt lat="42.89946" lon="1.15031">
        <ele>836.4</ele>
        <time>2025-06-22T09:56:26Z</time>
      </trkpt>
      <trkpt lat="42.89943" lon="1.15033">
        <ele>836.8</ele>
        <time>2025-06-22T09:56:27Z</time>
      </trkpt>
      <trkpt lat="42.89941" lon="1.15034">
        <ele>837.2</ele>
        <time>2025-06-22T09:56:28Z</time>
      </trkpt>
      <trkpt lat="42.89939" lon="1.15036">
        <ele>837.6</ele>
        <time>2025-06-22T09:56:29Z</time>
      </trkpt>
      <trkpt lat="42.89936" lon="1.15036">
        <ele>838</ele>
        <time>2025-06-22T09:56:30Z</time>
      </trkpt>
      <trkpt lat="42.89922" lon="1.15038">
        <ele>838.6</ele>
        <time>2025-06-22T09:56:34Z</time>
      </trkpt>
      <trkpt lat="42.89919" lon="1.15039">
        <ele>839</ele>
        <time>2025-06-22T09:56:35Z</time>
      </trkpt>
      <trkpt lat="42.89917" lon="1.15041">
        <ele>839.4</ele>
        <time>2025-06-22T09:56:36Z</time>
      </trkpt>
      <trkpt lat="42.89914" lon="1.15044">
        <ele>839.8</ele>
        <time>2025-06-22T09:56:37Z</time>
      </trkpt>
      <trkpt lat="42.89911" lon="1.15045">
        <ele>840.2</ele>
        <time>2025-06-22T09:56:38Z</time>
      </trkpt>
      <trkpt lat="42.89908" lon="1.15049">
        <ele>840.2</ele>
        <time>2025-06-22T09:56:40Z</time>
      </trkpt>
      <trkpt lat="42.89904" lon="1.15054">
        <ele>840.8</ele>
        <time>2025-06-22T09:56:42Z</time>
      </trkpt>
      <trkpt lat="42.89901" lon="1.15057">
        <ele>841.2</ele>
        <time>2025-06-22T09:56:43Z</time>
      </trkpt>
      <trkpt lat="42.89897" lon="1.1506">
        <ele>841.6</ele>
        <time>2025-06-22T09:56:44Z</time>
      </trkpt>
      <trkpt lat="42.89894" lon="1.15063">
        <ele>842</ele>
        <time>2025-06-22T09:56:45Z</time>
      </trkpt>
      <trkpt lat="42.8989" lon="1.15066">
        <ele>842.6</ele>
        <time>2025-06-22T09:56:46Z</time>
      </trkpt>
      <trkpt lat="42.89879" lon="1.15073">
        <ele>843</ele>
        <time>2025-06-22T09:56:49Z</time>
      </trkpt>
      <trkpt lat="42.89876" lon="1.15075">
        <ele>843.4</ele>
        <time>2025-06-22T09:56:50Z</time>
      </trkpt>
      <trkpt lat="42.89872" lon="1.15076">
        <ele>843.8</ele>
        <time>2025-06-22T09:56:51Z</time>
      </trkpt>
      <trkpt lat="42.89869" lon="1.15078">
        <ele>844.2</ele>
        <time>2025-06-22T09:56:52Z</time>
      </trkpt>
      <trkpt lat="42.89866" lon="1.1508">
        <ele>844.6</ele>
        <time>2025-06-22T09:56:53Z</time>
      </trkpt>
      <trkpt lat="42.8986" lon="1.15085">
        <ele>845</ele>
        <time>2025-06-22T09:56:55Z</time>
      </trkpt>
      <trkpt lat="42.89856" lon="1.15087">
        <ele>845.4</ele>
        <time>2025-06-22T09:56:56Z</time>
      </trkpt>
      <trkpt lat="42.89853" lon="1.1509">
        <ele>845.8</ele>
        <time>2025-06-22T09:56:57Z</time>
      </trkpt>
      <trkpt lat="42.8985" lon="1.15092">
        <ele>846.2</ele>
        <time>2025-06-22T09:56:58Z</time>
      </trkpt>
      <trkpt lat="42.89848" lon="1.15094">
        <ele>846.8</ele>
        <time>2025-06-22T09:56:59Z</time>
      </trkpt>
      <trkpt lat="42.89839" lon="1.151">
        <ele>847.2</ele>
        <time>2025-06-22T09:57:02Z</time>
      </trkpt>
      <trkpt lat="42.89836" lon="1.15102">
        <ele>847.6</ele>
        <time>2025-06-22T09:57:03Z</time>
      </trkpt>
      <trkpt lat="42.89834" lon="1.15104">
        <ele>848</ele>
        <time>2025-06-22T09:57:04Z</time>
      </trkpt>
      <trkpt lat="42.89831" lon="1.15105">
        <ele>848.4</ele>
        <time>2025-06-22T09:57:05Z</time>
      </trkpt>
      <trkpt lat="42.89828" lon="1.15107">
        <ele>849</ele>
        <time>2025-06-22T09:57:06Z</time>
      </trkpt>
      <trkpt lat="42.8982" lon="1.15113">
        <ele>849.4</ele>
        <time>2025-06-22T09:57:09Z</time>
      </trkpt>
      <trkpt lat="42.89817" lon="1.15115">
        <ele>849.8</ele>
        <time>2025-06-22T09:57:10Z</time>
      </trkpt>
      <trkpt lat="42.89815" lon="1.15118">
        <ele>850.2</ele>
        <time>2025-06-22T09:57:11Z</time>
      </trkpt>
      <trkpt lat="42.89813" lon="1.1512">
        <ele>850.8</ele>
        <time>2025-06-22T09:57:12Z</time>
      </trkpt>
      <trkpt lat="42.89811" lon="1.15123">
        <ele>851.2</ele>
        <time>2025-06-22T09:57:13Z</time>
      </trkpt>
      <trkpt lat="42.89804" lon="1.1513">
        <ele>851.6</ele>
        <time>2025-06-22T09:57:16Z</time>
      </trkpt>
      <trkpt lat="42.89802" lon="1.15133">
        <ele>852</ele>
        <time>2025-06-22T09:57:17Z</time>
      </trkpt>
      <trkpt lat="42.89799" lon="1.15135">
        <ele>852.4</ele>
        <time>2025-06-22T09:57:18Z</time>
      </trkpt>
      <trkpt lat="42.89797" lon="1.15137">
        <ele>853.4</ele>
        <time>2025-06-22T09:57:19Z</time>
      </trkpt>
      <trkpt lat="42.89792" lon="1.15142">
        <ele>853.8</ele>
        <time>2025-06-22T09:57:22Z</time>
      </trkpt>
      <trkpt lat="42.8979" lon="1.15143">
        <ele>854.4</ele>
        <time>2025-06-22T09:57:23Z</time>
      </trkpt>
      <trkpt lat="42.89787" lon="1.15143">
        <ele>854.8</ele>
        <time>2025-06-22T09:57:24Z</time>
      </trkpt>
      <trkpt lat="42.89786" lon="1.15147">
        <ele>855.2</ele>
        <time>2025-06-22T09:57:25Z</time>
      </trkpt>
      <trkpt lat="42.89784" lon="1.15149">
        <ele>855.6</ele>
        <time>2025-06-22T09:57:26Z</time>
      </trkpt>
      <trkpt lat="42.89779" lon="1.15157">
        <ele>856</ele>
        <time>2025-06-22T09:57:30Z</time>
      </trkpt>
      <trkpt lat="42.89778" lon="1.15159">
        <ele>856.4</ele>
        <time>2025-06-22T09:57:31Z</time>
      </trkpt>
      <trkpt lat="42.89777" lon="1.1516">
        <ele>856.8</ele>
        <time>2025-06-22T09:57:32Z</time>
      </trkpt>
      <trkpt lat="42.89775" lon="1.15162">
        <ele>857.2</ele>
        <time>2025-06-22T09:57:33Z</time>
      </trkpt>
      <trkpt lat="42.89772" lon="1.15163">
        <ele>857.8</ele>
        <time>2025-06-22T09:57:34Z</time>
      </trkpt>
      <trkpt lat="42.89768" lon="1.15166">
        <ele>857.8</ele>
        <time>2025-06-22T09:57:36Z</time>
      </trkpt>
      <trkpt lat="42.89753" lon="1.15168">
        <ele>858.2</ele>
        <time>2025-06-22T09:57:42Z</time>
      </trkpt>
      <trkpt lat="42.89751" lon="1.15168">
        <ele>858.6</ele>
        <time>2025-06-22T09:57:43Z</time>
      </trkpt>
      <trkpt lat="42.89748" lon="1.15168">
        <ele>859.6</ele>
        <time>2025-06-22T09:57:44Z</time>
      </trkpt>
      <trkpt lat="42.89744" lon="1.15168">
        <ele>860</ele>
        <time>2025-06-22T09:57:45Z</time>
      </trkpt>
      <trkpt lat="42.89731" lon="1.15162">
        <ele>860</ele>
        <time>2025-06-22T09:57:49Z</time>
      </trkpt>
      <trkpt lat="42.89725" lon="1.1516">
        <ele>860.4</ele>
        <time>2025-06-22T09:57:51Z</time>
      </trkpt>
      <trkpt lat="42.89721" lon="1.15159">
        <ele>860.8</ele>
        <time>2025-06-22T09:57:52Z</time>
      </trkpt>
      <trkpt lat="42.89718" lon="1.15158">
        <ele>861.2</ele>
        <time>2025-06-22T09:57:53Z</time>
      </trkpt>
      <trkpt lat="42.89715" lon="1.15157">
        <ele>861.6</ele>
        <time>2025-06-22T09:57:54Z</time>
      </trkpt>
      <trkpt lat="42.89712" lon="1.15155">
        <ele>862</ele>
        <time>2025-06-22T09:57:55Z</time>
      </trkpt>
      <trkpt lat="42.89698" lon="1.15151">
        <ele>862.4</ele>
        <time>2025-06-22T09:57:59Z</time>
      </trkpt>
      <trkpt lat="42.89695" lon="1.1515">
        <ele>862.8</ele>
        <time>2025-06-22T09:58:00Z</time>
      </trkpt>
      <trkpt lat="42.89692" lon="1.15149">
        <ele>863.2</ele>
        <time>2025-06-22T09:58:01Z</time>
      </trkpt>
      <trkpt lat="42.89688" lon="1.15148">
        <ele>863.6</ele>
        <time>2025-06-22T09:58:02Z</time>
      </trkpt>
      <trkpt lat="42.89685" lon="1.15146">
        <ele>864</ele>
        <time>2025-06-22T09:58:03Z</time>
      </trkpt>
      <trkpt lat="42.89669" lon="1.15141">
        <ele>864.6</ele>
        <time>2025-06-22T09:58:08Z</time>
      </trkpt>
      <trkpt lat="42.89666" lon="1.15141">
        <ele>865.4</ele>
        <time>2025-06-22T09:58:09Z</time>
      </trkpt>
      <trkpt lat="42.89663" lon="1.1514">
        <ele>865.8</ele>
        <time>2025-06-22T09:58:10Z</time>
      </trkpt>
      <trkpt lat="42.8966" lon="1.1514">
        <ele>866.2</ele>
        <time>2025-06-22T09:58:11Z</time>
      </trkpt>
      <trkpt lat="42.89642" lon="1.15137">
        <ele>866.6</ele>
        <time>2025-06-22T09:58:17Z</time>
      </trkpt>
      <trkpt lat="42.89639" lon="1.15137">
        <ele>867</ele>
        <time>2025-06-22T09:58:18Z</time>
      </trkpt>
      <trkpt lat="42.89636" lon="1.15138">
        <ele>867.4</ele>
        <time>2025-06-22T09:58:19Z</time>
      </trkpt>
      <trkpt lat="42.89634" lon="1.15138">
        <ele>867.8</ele>
        <time>2025-06-22T09:58:20Z</time>
      </trkpt>
      <trkpt lat="42.89631" lon="1.15139">
        <ele>868.2</ele>
        <time>2025-06-22T09:58:21Z</time>
      </trkpt>
      <trkpt lat="42.89624" lon="1.15147">
        <ele>868.2</ele>
        <time>2025-06-22T09:58:24Z</time>
      </trkpt>
      <trkpt lat="42.89614" lon="1.15169">
        <ele>868.2</ele>
        <time>2025-06-22T09:58:29Z</time>
      </trkpt>
      <trkpt lat="42.89608" lon="1.15185">
        <ele>868.2</ele>
        <time>2025-06-22T09:58:32Z</time>
      </trkpt>
      <trkpt lat="42.896" lon="1.152">
        <ele>868.2</ele>
        <time>2025-06-22T09:58:35Z</time>
      </trkpt>
      <trkpt lat="42.89596" lon="1.15205">
        <ele>867.8</ele>
        <time>2025-06-22T09:58:36Z</time>
      </trkpt>
      <trkpt lat="42.89593" lon="1.1521">
        <ele>867.4</ele>
        <time>2025-06-22T09:58:37Z</time>
      </trkpt>
      <trkpt lat="42.89589" lon="1.15216">
        <ele>867</ele>
        <time>2025-06-22T09:58:38Z</time>
      </trkpt>
      <trkpt lat="42.89586" lon="1.15222">
        <ele>866.6</ele>
        <time>2025-06-22T09:58:39Z</time>
      </trkpt>
      <trkpt lat="42.89582" lon="1.15226">
        <ele>866.2</ele>
        <time>2025-06-22T09:58:40Z</time>
      </trkpt>
      <trkpt lat="42.89571" lon="1.15243">
        <ele>866.2</ele>
        <time>2025-06-22T09:58:43Z</time>
      </trkpt>
      <trkpt lat="42.89568" lon="1.15257">
        <ele>866.2</ele>
        <time>2025-06-22T09:58:45Z</time>
      </trkpt>
      <trkpt lat="42.89569" lon="1.15279">
        <ele>866.2</ele>
        <time>2025-06-22T09:58:48Z</time>
      </trkpt>
      <trkpt lat="42.89569" lon="1.15286">
        <ele>866.2</ele>
        <time>2025-06-22T09:58:49Z</time>
      </trkpt>
      <trkpt lat="42.89569" lon="1.15298">
        <ele>866.2</ele>
        <time>2025-06-22T09:58:51Z</time>
      </trkpt>
      <trkpt lat="42.89566" lon="1.15315">
        <ele>866.2</ele>
        <time>2025-06-22T09:58:54Z</time>
      </trkpt>
      <trkpt lat="42.89556" lon="1.15326">
        <ele>866.2</ele>
        <time>2025-06-22T09:58:58Z</time>
      </trkpt>
      <trkpt lat="42.89545" lon="1.15322">
        <ele>866.2</ele>
        <time>2025-06-22T09:59:01Z</time>
      </trkpt>
      <trkpt lat="42.89534" lon="1.15307">
        <ele>866.2</ele>
        <time>2025-06-22T09:59:05Z</time>
      </trkpt>
      <trkpt lat="42.8952" lon="1.15286">
        <ele>866.2</ele>
        <time>2025-06-22T09:59:11Z</time>
      </trkpt>
      <trkpt lat="42.89511" lon="1.15273">
        <ele>866.2</ele>
        <time>2025-06-22T09:59:15Z</time>
      </trkpt>
      <trkpt lat="42.89497" lon="1.15267">
        <ele>866.2</ele>
        <time>2025-06-22T09:59:18Z</time>
      </trkpt>
      <trkpt lat="42.89492" lon="1.15267">
        <ele>866.2</ele>
        <time>2025-06-22T09:59:19Z</time>
      </trkpt>
      <trkpt lat="42.89479" lon="1.1527">
        <ele>866.2</ele>
        <time>2025-06-22T09:59:23Z</time>
      </trkpt>
      <trkpt lat="42.89466" lon="1.15274">
        <ele>866.6</ele>
        <time>2025-06-22T09:59:27Z</time>
      </trkpt>
      <trkpt lat="42.89463" lon="1.15275">
        <ele>867</ele>
        <time>2025-06-22T09:59:28Z</time>
      </trkpt>
      <trkpt lat="42.8946" lon="1.15276">
        <ele>867.4</ele>
        <time>2025-06-22T09:59:29Z</time>
      </trkpt>
      <trkpt lat="42.89457" lon="1.15277">
        <ele>867.8</ele>
        <time>2025-06-22T09:59:30Z</time>
      </trkpt>
      <trkpt lat="42.89454" lon="1.15277">
        <ele>868.2</ele>
        <time>2025-06-22T09:59:31Z</time>
      </trkpt>
      <trkpt lat="42.89434" lon="1.15278">
        <ele>868.2</ele>
        <time>2025-06-22T09:59:36Z</time>
      </trkpt>
      <trkpt lat="42.89415" lon="1.15269">
        <ele>868.2</ele>
        <time>2025-06-22T09:59:42Z</time>
      </trkpt>
      <trkpt lat="42.89411" lon="1.15267">
        <ele>868.8</ele>
        <time>2025-06-22T09:59:43Z</time>
      </trkpt>
      <trkpt lat="42.89408" lon="1.15265">
        <ele>869.2</ele>
        <time>2025-06-22T09:59:44Z</time>
      </trkpt>
      <trkpt lat="42.89404" lon="1.15263">
        <ele>869.6</ele>
        <time>2025-06-22T09:59:45Z</time>
      </trkpt>
      <trkpt lat="42.89401" lon="1.15261">
        <ele>870.2</ele>
        <time>2025-06-22T09:59:46Z</time>
      </trkpt>
      <trkpt lat="42.89398" lon="1.15259">
        <ele>870.6</ele>
        <time>2025-06-22T09:59:47Z</time>
      </trkpt>
      <trkpt lat="42.89392" lon="1.15254">
        <ele>870.6</ele>
        <time>2025-06-22T09:59:49Z</time>
      </trkpt>
      <trkpt lat="42.89388" lon="1.15251">
        <ele>871</ele>
        <time>2025-06-22T09:59:50Z</time>
      </trkpt>
      <trkpt lat="42.89385" lon="1.15249">
        <ele>871.4</ele>
        <time>2025-06-22T09:59:51Z</time>
      </trkpt>
      <trkpt lat="42.89382" lon="1.15246">
        <ele>872</ele>
        <time>2025-06-22T09:59:52Z</time>
      </trkpt>
      <trkpt lat="42.89379" lon="1.15245">
        <ele>872.4</ele>
        <time>2025-06-22T09:59:53Z</time>
      </trkpt>
      <trkpt lat="42.89375" lon="1.15245">
        <ele>872.8</ele>
        <time>2025-06-22T09:59:54Z</time>
      </trkpt>
      <trkpt lat="42.8936" lon="1.15246">
        <ele>873.2</ele>
        <time>2025-06-22T09:59:58Z</time>
      </trkpt>
      <trkpt lat="42.89356" lon="1.15247">
        <ele>873.8</ele>
        <time>2025-06-22T09:59:59Z</time>
      </trkpt>
      <trkpt lat="42.89352" lon="1.15249">
        <ele>874.2</ele>
        <time>2025-06-22T10:00:00Z</time>
      </trkpt>
      <trkpt lat="42.89348" lon="1.15252">
        <ele>874.6</ele>
        <time>2025-06-22T10:00:01Z</time>
      </trkpt>
      <trkpt lat="42.89344" lon="1.15255">
        <ele>875.2</ele>
        <time>2025-06-22T10:00:02Z</time>
      </trkpt>
      <trkpt lat="42.89322" lon="1.15272">
        <ele>875.2</ele>
        <time>2025-06-22T10:00:07Z</time>
      </trkpt>
      <trkpt lat="42.89293" lon="1.15299">
        <ele>875.2</ele>
        <time>2025-06-22T10:00:14Z</time>
      </trkpt>
      <trkpt lat="42.8929" lon="1.15304">
        <ele>875.2</ele>
        <time>2025-06-22T10:00:15Z</time>
      </trkpt>
      <trkpt lat="42.89283" lon="1.1533">
        <ele>875.2</ele>
        <time>2025-06-22T10:00:19Z</time>
      </trkpt>
      <trkpt lat="42.89283" lon="1.1535">
        <ele>875.2</ele>
        <time>2025-06-22T10:00:22Z</time>
      </trkpt>
      <trkpt lat="42.89283" lon="1.15363">
        <ele>875.2</ele>
        <time>2025-06-22T10:00:24Z</time>
      </trkpt>
      <trkpt lat="42.89282" lon="1.15413">
        <ele>875.2</ele>
        <time>2025-06-22T10:00:31Z</time>
      </trkpt>
      <trkpt lat="42.89276" lon="1.15458">
        <ele>875.2</ele>
        <time>2025-06-22T10:00:37Z</time>
      </trkpt>
      <trkpt lat="42.89273" lon="1.15465">
        <ele>875.2</ele>
        <time>2025-06-22T10:00:38Z</time>
      </trkpt>
      <trkpt lat="42.8926" lon="1.15477">
        <ele>875.2</ele>
        <time>2025-06-22T10:00:41Z</time>
      </trkpt>
      <trkpt lat="42.89246" lon="1.1547">
        <ele>875.2</ele>
        <time>2025-06-22T10:00:44Z</time>
      </trkpt>
      <trkpt lat="42.89236" lon="1.15463">
        <ele>875.2</ele>
        <time>2025-06-22T10:00:46Z</time>
      </trkpt>
      <trkpt lat="42.89214" lon="1.15446">
        <ele>875.2</ele>
        <time>2025-06-22T10:00:51Z</time>
      </trkpt>
      <trkpt lat="42.89195" lon="1.15445">
        <ele>875.2</ele>
        <time>2025-06-22T10:00:55Z</time>
      </trkpt>
      <trkpt lat="42.89175" lon="1.15445">
        <ele>875.2</ele>
        <time>2025-06-22T10:00:59Z</time>
      </trkpt>
      <trkpt lat="42.89167" lon="1.15441">
        <ele>875.2</ele>
        <time>2025-06-22T10:01:01Z</time>
      </trkpt>
      <trkpt lat="42.89162" lon="1.1544">
        <ele>875.6</ele>
        <time>2025-06-22T10:01:02Z</time>
      </trkpt>
      <trkpt lat="42.89158" lon="1.15439">
        <ele>876</ele>
        <time>2025-06-22T10:01:03Z</time>
      </trkpt>
      <trkpt lat="42.89154" lon="1.15437">
        <ele>876.4</ele>
        <time>2025-06-22T10:01:04Z</time>
      </trkpt>
      <trkpt lat="42.89149" lon="1.15436">
        <ele>876.8</ele>
        <time>2025-06-22T10:01:05Z</time>
      </trkpt>
      <trkpt lat="42.89144" lon="1.15436">
        <ele>877.2</ele>
        <time>2025-06-22T10:01:06Z</time>
      </trkpt>
      <trkpt lat="42.89139" lon="1.15436">
        <ele>877.6</ele>
        <time>2025-06-22T10:01:07Z</time>
      </trkpt>
      <trkpt lat="42.89134" lon="1.15437">
        <ele>878</ele>
        <time>2025-06-22T10:01:08Z</time>
      </trkpt>
      <trkpt lat="42.89129" lon="1.15439">
        <ele>878.4</ele>
        <time>2025-06-22T10:01:09Z</time>
      </trkpt>
      <trkpt lat="42.89124" lon="1.1544">
        <ele>878.8</ele>
        <time>2025-06-22T10:01:10Z</time>
      </trkpt>
      <trkpt lat="42.89119" lon="1.15442">
        <ele>879.4</ele>
        <time>2025-06-22T10:01:11Z</time>
      </trkpt>
      <trkpt lat="42.8911" lon="1.15446">
        <ele>879.8</ele>
        <time>2025-06-22T10:01:13Z</time>
      </trkpt>
      <trkpt lat="42.89106" lon="1.15449">
        <ele>880.2</ele>
        <time>2025-06-22T10:01:14Z</time>
      </trkpt>
      <trkpt lat="42.89102" lon="1.15451">
        <ele>880.6</ele>
        <time>2025-06-22T10:01:15Z</time>
      </trkpt>
      <trkpt lat="42.89098" lon="1.15453">
        <ele>881</ele>
        <time>2025-06-22T10:01:16Z</time>
      </trkpt>
      <trkpt lat="42.89093" lon="1.15456">
        <ele>881.4</ele>
        <time>2025-06-22T10:01:17Z</time>
      </trkpt>
      <trkpt lat="42.8908" lon="1.15464">
        <ele>882</ele>
        <time>2025-06-22T10:01:20Z</time>
      </trkpt>
      <trkpt lat="42.89075" lon="1.15466">
        <ele>882.4</ele>
        <time>2025-06-22T10:01:21Z</time>
      </trkpt>
      <trkpt lat="42.89071" lon="1.15469">
        <ele>882.8</ele>
        <time>2025-06-22T10:01:22Z</time>
      </trkpt>
      <trkpt lat="42.89067" lon="1.15472">
        <ele>883.4</ele>
        <time>2025-06-22T10:01:23Z</time>
      </trkpt>
      <trkpt lat="42.89063" lon="1.15474">
        <ele>883.8</ele>
        <time>2025-06-22T10:01:24Z</time>
      </trkpt>
      <trkpt lat="42.8905" lon="1.15479">
        <ele>884.2</ele>
        <time>2025-06-22T10:01:27Z</time>
      </trkpt>
      <trkpt lat="42.89046" lon="1.15481">
        <ele>884.6</ele>
        <time>2025-06-22T10:01:28Z</time>
      </trkpt>
      <trkpt lat="42.89041" lon="1.15482">
        <ele>885</ele>
        <time>2025-06-22T10:01:29Z</time>
      </trkpt>
      <trkpt lat="42.89037" lon="1.15483">
        <ele>885.4</ele>
        <time>2025-06-22T10:01:30Z</time>
      </trkpt>
      <trkpt lat="42.89033" lon="1.15484">
        <ele>885.8</ele>
        <time>2025-06-22T10:01:31Z</time>
      </trkpt>
      <trkpt lat="42.8902" lon="1.15487">
        <ele>885.8</ele>
        <time>2025-06-22T10:01:34Z</time>
      </trkpt>
      <trkpt lat="42.89002" lon="1.15491">
        <ele>886.2</ele>
        <time>2025-06-22T10:01:38Z</time>
      </trkpt>
      <trkpt lat="42.88997" lon="1.15491">
        <ele>886.8</ele>
        <time>2025-06-22T10:01:39Z</time>
      </trkpt>
      <trkpt lat="42.88994" lon="1.15492">
        <ele>887.2</ele>
        <time>2025-06-22T10:01:40Z</time>
      </trkpt>
      <trkpt lat="42.88989" lon="1.15493">
        <ele>887.6</ele>
        <time>2025-06-22T10:01:41Z</time>
      </trkpt>
      <trkpt lat="42.88985" lon="1.15493">
        <ele>888</ele>
        <time>2025-06-22T10:01:42Z</time>
      </trkpt>
      <trkpt lat="42.88973" lon="1.15494">
        <ele>888</ele>
        <time>2025-06-22T10:01:45Z</time>
      </trkpt>
      <trkpt lat="42.88965" lon="1.15491">
        <ele>888</ele>
        <time>2025-06-22T10:01:47Z</time>
      </trkpt>
      <trkpt lat="42.88953" lon="1.15487">
        <ele>888.4</ele>
        <time>2025-06-22T10:01:50Z</time>
      </trkpt>
      <trkpt lat="42.88949" lon="1.15486">
        <ele>889.2</ele>
        <time>2025-06-22T10:01:51Z</time>
      </trkpt>
      <trkpt lat="42.88945" lon="1.15485">
        <ele>889.6</ele>
        <time>2025-06-22T10:01:52Z</time>
      </trkpt>
      <trkpt lat="42.88941" lon="1.15483">
        <ele>890</ele>
        <time>2025-06-22T10:01:53Z</time>
      </trkpt>
      <trkpt lat="42.88937" lon="1.15483">
        <ele>890</ele>
        <time>2025-06-22T10:01:54Z</time>
      </trkpt>
      <trkpt lat="42.88913" lon="1.15483">
        <ele>890</ele>
        <time>2025-06-22T10:02:00Z</time>
      </trkpt>
      <trkpt lat="42.88897" lon="1.15488">
        <ele>890.4</ele>
        <time>2025-06-22T10:02:04Z</time>
      </trkpt>
      <trkpt lat="42.88893" lon="1.15489">
        <ele>891</ele>
        <time>2025-06-22T10:02:05Z</time>
      </trkpt>
      <trkpt lat="42.88889" lon="1.1549">
        <ele>891.4</ele>
        <time>2025-06-22T10:02:06Z</time>
      </trkpt>
      <trkpt lat="42.88885" lon="1.15491">
        <ele>891.8</ele>
        <time>2025-06-22T10:02:07Z</time>
      </trkpt>
      <trkpt lat="42.88882" lon="1.15492">
        <ele>892.2</ele>
        <time>2025-06-22T10:02:08Z</time>
      </trkpt>
      <trkpt lat="42.88867" lon="1.15499">
        <ele>892.2</ele>
        <time>2025-06-22T10:02:12Z</time>
      </trkpt>
      <trkpt lat="42.88829" lon="1.15517">
        <ele>892.2</ele>
        <time>2025-06-22T10:02:22Z</time>
      </trkpt>
      <trkpt lat="42.88827" lon="1.15523">
        <ele>892.2</ele>
        <time>2025-06-22T10:02:24Z</time>
      </trkpt>
      <trkpt lat="42.88828" lon="1.15526">
        <ele>892.2</ele>
        <time>2025-06-22T10:02:25Z</time>
      </trkpt>
      <trkpt lat="42.8883" lon="1.1553">
        <ele>892.6</ele>
        <time>2025-06-22T10:02:30Z</time>
      </trkpt>
      <trkpt lat="42.88829" lon="1.15525">
        <ele>894.2</ele>
        <time>2025-06-22T10:03:39Z</time>
      </trkpt>
      <trkpt lat="42.88834" lon="1.15522">
        <ele>894.2</ele>
        <time>2025-06-22T10:03:41Z</time>
      </trkpt>
      <trkpt lat="42.88841" lon="1.15526">
        <ele>894.2</ele>
        <time>2025-06-22T10:03:44Z</time>
      </trkpt>
      <trkpt lat="42.88844" lon="1.15527">
        <ele>894.2</ele>
        <time>2025-06-22T10:03:45Z</time>
      </trkpt>
      <trkpt lat="42.88862" lon="1.15531">
        <ele>894.6</ele>
        <time>2025-06-22T10:03:50Z</time>
      </trkpt>
      <trkpt lat="42.88866" lon="1.15534">
        <ele>895</ele>
        <time>2025-06-22T10:03:51Z</time>
      </trkpt>
      <trkpt lat="42.88869" lon="1.15535">
        <ele>895.6</ele>
        <time>2025-06-22T10:03:52Z</time>
      </trkpt>
      <trkpt lat="42.88873" lon="1.15537">
        <ele>896</ele>
        <time>2025-06-22T10:03:53Z</time>
      </trkpt>
      <trkpt lat="42.88876" lon="1.15538">
        <ele>896.6</ele>
        <time>2025-06-22T10:03:54Z</time>
      </trkpt>
      <trkpt lat="42.88879" lon="1.15539">
        <ele>897.6</ele>
        <time>2025-06-22T10:03:55Z</time>
      </trkpt>
      <trkpt lat="42.88882" lon="1.1554">
        <ele>898.2</ele>
        <time>2025-06-22T10:03:56Z</time>
      </trkpt>
      <trkpt lat="42.88884" lon="1.15542">
        <ele>898.8</ele>
        <time>2025-06-22T10:03:57Z</time>
      </trkpt>
      <trkpt lat="42.88887" lon="1.15542">
        <ele>899.4</ele>
        <time>2025-06-22T10:03:58Z</time>
      </trkpt>
      <trkpt lat="42.8889" lon="1.15543">
        <ele>900</ele>
        <time>2025-06-22T10:03:59Z</time>
      </trkpt>
      <trkpt lat="42.88892" lon="1.15544">
        <ele>900.6</ele>
        <time>2025-06-22T10:04:00Z</time>
      </trkpt>
      <trkpt lat="42.88894" lon="1.15545">
        <ele>901.2</ele>
        <time>2025-06-22T10:04:01Z</time>
      </trkpt>
      <trkpt lat="42.88897" lon="1.15545">
        <ele>901.6</ele>
        <time>2025-06-22T10:04:02Z</time>
      </trkpt>
      <trkpt lat="42.88899" lon="1.15547">
        <ele>902</ele>
        <time>2025-06-22T10:04:03Z</time>
      </trkpt>
      <trkpt lat="42.88902" lon="1.15548">
        <ele>902.4</ele>
        <time>2025-06-22T10:04:04Z</time>
      </trkpt>
      <trkpt lat="42.88905" lon="1.15549">
        <ele>902.8</ele>
        <time>2025-06-22T10:04:05Z</time>
      </trkpt>
      <trkpt lat="42.88907" lon="1.15551">
        <ele>903.2</ele>
        <time>2025-06-22T10:04:06Z</time>
      </trkpt>
      <trkpt lat="42.8891" lon="1.15553">
        <ele>903.2</ele>
        <time>2025-06-22T10:04:07Z</time>
      </trkpt>
      <trkpt lat="42.88913" lon="1.15556">
        <ele>903.6</ele>
        <time>2025-06-22T10:04:08Z</time>
      </trkpt>
      <trkpt lat="42.88916" lon="1.15559">
        <ele>904</ele>
        <time>2025-06-22T10:04:09Z</time>
      </trkpt>
      <trkpt lat="42.88917" lon="1.1556">
        <ele>904.4</ele>
        <time>2025-06-22T10:04:10Z</time>
      </trkpt>
      <trkpt lat="42.8892" lon="1.15562">
        <ele>904.8</ele>
        <time>2025-06-22T10:04:11Z</time>
      </trkpt>
      <trkpt lat="42.88921" lon="1.15563">
        <ele>905.2</ele>
        <time>2025-06-22T10:04:12Z</time>
      </trkpt>
      <trkpt lat="42.88923" lon="1.15564">
        <ele>905.8</ele>
        <time>2025-06-22T10:04:13Z</time>
      </trkpt>
      <trkpt lat="42.88924" lon="1.15565">
        <ele>906.2</ele>
        <time>2025-06-22T10:04:14Z</time>
      </trkpt>
      <trkpt lat="42.88925" lon="1.15565">
        <ele>906.6</ele>
        <time>2025-06-22T10:04:15Z</time>
      </trkpt>
      <trkpt lat="42.88926" lon="1.15566">
        <ele>907.2</ele>
        <time>2025-06-22T10:04:16Z</time>
      </trkpt>
      <trkpt lat="42.88927" lon="1.15567">
        <ele>907.6</ele>
        <time>2025-06-22T10:04:17Z</time>
      </trkpt>
      <trkpt lat="42.88928" lon="1.15568">
        <ele>907.6</ele>
        <time>2025-06-22T10:04:18Z</time>
      </trkpt>
      <trkpt lat="42.88929" lon="1.15569">
        <ele>908.4</ele>
        <time>2025-06-22T10:04:19Z</time>
      </trkpt>
      <trkpt lat="42.8893" lon="1.1557">
        <ele>908.8</ele>
        <time>2025-06-22T10:04:20Z</time>
      </trkpt>
      <trkpt lat="42.88931" lon="1.15571">
        <ele>909.4</ele>
        <time>2025-06-22T10:04:21Z</time>
      </trkpt>
      <trkpt lat="42.88932" lon="1.15572">
        <ele>909.8</ele>
        <time>2025-06-22T10:04:22Z</time>
      </trkpt>
      <trkpt lat="42.88937" lon="1.15576">
        <ele>910.2</ele>
        <time>2025-06-22T10:04:25Z</time>
      </trkpt>
      <trkpt lat="42.88937" lon="1.15577">
        <ele>910.6</ele>
        <time>2025-06-22T10:04:26Z</time>
      </trkpt>
      <trkpt lat="42.88939" lon="1.15579">
        <ele>911</ele>
        <time>2025-06-22T10:04:27Z</time>
      </trkpt>
      <trkpt lat="42.88941" lon="1.15581">
        <ele>911.6</ele>
        <time>2025-06-22T10:04:28Z</time>
      </trkpt>
      <trkpt lat="42.88942" lon="1.15583">
        <ele>912</ele>
        <time>2025-06-22T10:04:29Z</time>
      </trkpt>
      <trkpt lat="42.88943" lon="1.15584">
        <ele>912.4</ele>
        <time>2025-06-22T10:04:30Z</time>
      </trkpt>
      <trkpt lat="42.88945" lon="1.15586">
        <ele>912.8</ele>
        <time>2025-06-22T10:04:31Z</time>
      </trkpt>
      <trkpt lat="42.88947" lon="1.15588">
        <ele>913.2</ele>
        <time>2025-06-22T10:04:32Z</time>
      </trkpt>
      <trkpt lat="42.8895" lon="1.15589">
        <ele>913.6</ele>
        <time>2025-06-22T10:04:33Z</time>
      </trkpt>
      <trkpt lat="42.88952" lon="1.1559">
        <ele>914</ele>
        <time>2025-06-22T10:04:34Z</time>
      </trkpt>
      <trkpt lat="42.88955" lon="1.15591">
        <ele>914.6</ele>
        <time>2025-06-22T10:04:36Z</time>
      </trkpt>
      <trkpt lat="42.88956" lon="1.15592">
        <ele>915</ele>
        <time>2025-06-22T10:04:37Z</time>
      </trkpt>
      <trkpt lat="42.88958" lon="1.15593">
        <ele>915.6</ele>
        <time>2025-06-22T10:04:38Z</time>
      </trkpt>
      <trkpt lat="42.88959" lon="1.15592">
        <ele>916</ele>
        <time>2025-06-22T10:04:39Z</time>
      </trkpt>
      <trkpt lat="42.88961" lon="1.15593">
        <ele>916.4</ele>
        <time>2025-06-22T10:04:40Z</time>
      </trkpt>
      <trkpt lat="42.88962" lon="1.15593">
        <ele>917</ele>
        <time>2025-06-22T10:04:41Z</time>
      </trkpt>
      <trkpt lat="42.88964" lon="1.15594">
        <ele>917.4</ele>
        <time>2025-06-22T10:04:42Z</time>
      </trkpt>
      <trkpt lat="42.88965" lon="1.15594">
        <ele>917.8</ele>
        <time>2025-06-22T10:04:43Z</time>
      </trkpt>
      <trkpt lat="42.88967" lon="1.15595">
        <ele>918.6</ele>
        <time>2025-06-22T10:04:44Z</time>
      </trkpt>
      <trkpt lat="42.8897" lon="1.15595">
        <ele>919.2</ele>
        <time>2025-06-22T10:04:46Z</time>
      </trkpt>
      <trkpt lat="42.88971" lon="1.15596">
        <ele>919.6</ele>
        <time>2025-06-22T10:04:47Z</time>
      </trkpt>
      <trkpt lat="42.88973" lon="1.15596">
        <ele>920</ele>
        <time>2025-06-22T10:04:48Z</time>
      </trkpt>
      <trkpt lat="42.88975" lon="1.15597">
        <ele>920.6</ele>
        <time>2025-06-22T10:04:49Z</time>
      </trkpt>
      <trkpt lat="42.88977" lon="1.15596">
        <ele>921</ele>
        <time>2025-06-22T10:04:50Z</time>
      </trkpt>
      <trkpt lat="42.88983" lon="1.15597">
        <ele>921.4</ele>
        <time>2025-06-22T10:04:53Z</time>
      </trkpt>
      <trkpt lat="42.88985" lon="1.15598">
        <ele>921.8</ele>
        <time>2025-06-22T10:04:54Z</time>
      </trkpt>
      <trkpt lat="42.88986" lon="1.15598">
        <ele>922.4</ele>
        <time>2025-06-22T10:04:55Z</time>
      </trkpt>
      <trkpt lat="42.88988" lon="1.15599">
        <ele>922.8</ele>
        <time>2025-06-22T10:04:56Z</time>
      </trkpt>
      <trkpt lat="42.88989" lon="1.15599">
        <ele>923.2</ele>
        <time>2025-06-22T10:04:57Z</time>
      </trkpt>
      <trkpt lat="42.88996" lon="1.15602">
        <ele>923.6</ele>
        <time>2025-06-22T10:05:01Z</time>
      </trkpt>
      <trkpt lat="42.88998" lon="1.15603">
        <ele>924.2</ele>
        <time>2025-06-22T10:05:02Z</time>
      </trkpt>
      <trkpt lat="42.88999" lon="1.15603">
        <ele>924.6</ele>
        <time>2025-06-22T10:05:03Z</time>
      </trkpt>
      <trkpt lat="42.89001" lon="1.15604">
        <ele>925</ele>
        <time>2025-06-22T10:05:04Z</time>
      </trkpt>
      <trkpt lat="42.89002" lon="1.15605">
        <ele>925.6</ele>
        <time>2025-06-22T10:05:05Z</time>
      </trkpt>
      <trkpt lat="42.89007" lon="1.15608">
        <ele>926.4</ele>
        <time>2025-06-22T10:05:08Z</time>
      </trkpt>
      <trkpt lat="42.89008" lon="1.15608">
        <ele>926.8</ele>
        <time>2025-06-22T10:05:09Z</time>
      </trkpt>
      <trkpt lat="42.8901" lon="1.15609">
        <ele>927.2</ele>
        <time>2025-06-22T10:05:10Z</time>
      </trkpt>
      <trkpt lat="42.89011" lon="1.15609">
        <ele>927.6</ele>
        <time>2025-06-22T10:05:11Z</time>
      </trkpt>
      <trkpt lat="42.89017" lon="1.15614">
        <ele>928</ele>
        <time>2025-06-22T10:05:16Z</time>
      </trkpt>
      <trkpt lat="42.89018" lon="1.15614">
        <ele>928.4</ele>
        <time>2025-06-22T10:05:17Z</time>
      </trkpt>
      <trkpt lat="42.89019" lon="1.15615">
        <ele>928.8</ele>
        <time>2025-06-22T10:05:18Z</time>
      </trkpt>
      <trkpt lat="42.8902" lon="1.15617">
        <ele>929.2</ele>
        <time>2025-06-22T10:05:19Z</time>
      </trkpt>
      <trkpt lat="42.89021" lon="1.15618">
        <ele>929.6</ele>
        <time>2025-06-22T10:05:20Z</time>
      </trkpt>
      <trkpt lat="42.89023" lon="1.15619">
        <ele>929.6</ele>
        <time>2025-06-22T10:05:22Z</time>
      </trkpt>
      <trkpt lat="42.89029" lon="1.15623">
        <ele>930</ele>
        <time>2025-06-22T10:05:27Z</time>
      </trkpt>
      <trkpt lat="42.8903" lon="1.15624">
        <ele>930.4</ele>
        <time>2025-06-22T10:05:28Z</time>
      </trkpt>
      <trkpt lat="42.8903" lon="1.15624">
        <ele>931</ele>
        <time>2025-06-22T10:05:29Z</time>
      </trkpt>
      <trkpt lat="42.89031" lon="1.15626">
        <ele>931.4</ele>
        <time>2025-06-22T10:05:30Z</time>
      </trkpt>
      <trkpt lat="42.8903" lon="1.15626">
        <ele>931.8</ele>
        <time>2025-06-22T10:05:31Z</time>
      </trkpt>
      <trkpt lat="42.89042" lon="1.15638">
        <ele>935.8</ele>
        <time>2025-06-22T10:13:11Z</time>
      </trkpt>
      <trkpt lat="42.89043" lon="1.1564">
        <ele>935.8</ele>
        <time>2025-06-22T10:13:13Z</time>
      </trkpt>
      <trkpt lat="42.89053" lon="1.15647">
        <ele>935.8</ele>
        <time>2025-06-22T10:13:19Z</time>
      </trkpt>
      <trkpt lat="42.89064" lon="1.15657">
        <ele>935.8</ele>
        <time>2025-06-22T10:13:23Z</time>
      </trkpt>
      <trkpt lat="42.89071" lon="1.15664">
        <ele>936.2</ele>
        <time>2025-06-22T10:13:25Z</time>
      </trkpt>
      <trkpt lat="42.89075" lon="1.15669">
        <ele>936.6</ele>
        <time>2025-06-22T10:13:26Z</time>
      </trkpt>
      <trkpt lat="42.89079" lon="1.15673">
        <ele>937</ele>
        <time>2025-06-22T10:13:27Z</time>
      </trkpt>
      <trkpt lat="42.89083" lon="1.15676">
        <ele>937.6</ele>
        <time>2025-06-22T10:13:28Z</time>
      </trkpt>
      <trkpt lat="42.89087" lon="1.15679">
        <ele>938</ele>
        <time>2025-06-22T10:13:29Z</time>
      </trkpt>
      <trkpt lat="42.89108" lon="1.15691">
        <ele>938</ele>
        <time>2025-06-22T10:13:34Z</time>
      </trkpt>
      <trkpt lat="42.89115" lon="1.15694">
        <ele>938.4</ele>
        <time>2025-06-22T10:13:36Z</time>
      </trkpt>
      <trkpt lat="42.89118" lon="1.15694">
        <ele>938.8</ele>
        <time>2025-06-22T10:13:37Z</time>
      </trkpt>
      <trkpt lat="42.89121" lon="1.15696">
        <ele>939.4</ele>
        <time>2025-06-22T10:13:38Z</time>
      </trkpt>
      <trkpt lat="42.89123" lon="1.15697">
        <ele>939.8</ele>
        <time>2025-06-22T10:13:39Z</time>
      </trkpt>
      <trkpt lat="42.89127" lon="1.15698">
        <ele>940.2</ele>
        <time>2025-06-22T10:13:40Z</time>
      </trkpt>
      <trkpt lat="42.89136" lon="1.15704">
        <ele>940.2</ele>
        <time>2025-06-22T10:13:43Z</time>
      </trkpt>
      <trkpt lat="42.89155" lon="1.15718">
        <ele>940.2</ele>
        <time>2025-06-22T10:13:48Z</time>
      </trkpt>
      <trkpt lat="42.89159" lon="1.1572">
        <ele>940.2</ele>
        <time>2025-06-22T10:13:49Z</time>
      </trkpt>
      <trkpt lat="42.89172" lon="1.15726">
        <ele>940.2</ele>
        <time>2025-06-22T10:13:52Z</time>
      </trkpt>
      <trkpt lat="42.89178" lon="1.1573">
        <ele>939.8</ele>
        <time>2025-06-22T10:13:54Z</time>
      </trkpt>
      <trkpt lat="42.89182" lon="1.15732">
        <ele>939.4</ele>
        <time>2025-06-22T10:13:55Z</time>
      </trkpt>
      <trkpt lat="42.89185" lon="1.15734">
        <ele>938.8</ele>
        <time>2025-06-22T10:13:56Z</time>
      </trkpt>
      <trkpt lat="42.89188" lon="1.15735">
        <ele>938.4</ele>
        <time>2025-06-22T10:13:57Z</time>
      </trkpt>
      <trkpt lat="42.8919" lon="1.15737">
        <ele>938</ele>
        <time>2025-06-22T10:13:58Z</time>
      </trkpt>
      <trkpt lat="42.89193" lon="1.15738">
        <ele>938</ele>
        <time>2025-06-22T10:14:00Z</time>
      </trkpt>
      <trkpt lat="42.89195" lon="1.1574">
        <ele>936</ele>
        <time>2025-06-22T10:14:49Z</time>
      </trkpt>
      <trkpt lat="42.89209" lon="1.1576">
        <ele>936</ele>
        <time>2025-06-22T10:14:53Z</time>
      </trkpt>
      <trkpt lat="42.89213" lon="1.15767">
        <ele>936</ele>
        <time>2025-06-22T10:14:54Z</time>
      </trkpt>
      <trkpt lat="42.89224" lon="1.15783">
        <ele>936</ele>
        <time>2025-06-22T10:14:57Z</time>
      </trkpt>
      <trkpt lat="42.8923" lon="1.15794">
        <ele>936</ele>
        <time>2025-06-22T10:15:01Z</time>
      </trkpt>
      <trkpt lat="42.8923" lon="1.15794">
        <ele>936</ele>
        <time>2025-06-22T10:15:02Z</time>
      </trkpt>
      <trkpt lat="42.89232" lon="1.15796">
        <ele>936</ele>
        <time>2025-06-22T10:15:09Z</time>
      </trkpt>
      <trkpt lat="42.89233" lon="1.15798">
        <ele>936</ele>
        <time>2025-06-22T10:15:10Z</time>
      </trkpt>
      <trkpt lat="42.89236" lon="1.15805">
        <ele>935.6</ele>
        <time>2025-06-22T10:15:12Z</time>
      </trkpt>
      <trkpt lat="42.89238" lon="1.15809">
        <ele>935</ele>
        <time>2025-06-22T10:15:13Z</time>
      </trkpt>
      <trkpt lat="42.89241" lon="1.15814">
        <ele>934.6</ele>
        <time>2025-06-22T10:15:14Z</time>
      </trkpt>
      <trkpt lat="42.89245" lon="1.15819">
        <ele>934.2</ele>
        <time>2025-06-22T10:15:15Z</time>
      </trkpt>
      <trkpt lat="42.89249" lon="1.15824">
        <ele>933.6</ele>
        <time>2025-06-22T10:15:16Z</time>
      </trkpt>
      <trkpt lat="42.89254" lon="1.15828">
        <ele>933</ele>
        <time>2025-06-22T10:15:17Z</time>
      </trkpt>
      <trkpt lat="42.89259" lon="1.15834">
        <ele>932.4</ele>
        <time>2025-06-22T10:15:18Z</time>
      </trkpt>
      <trkpt lat="42.89263" lon="1.15839">
        <ele>931.6</ele>
        <time>2025-06-22T10:15:19Z</time>
      </trkpt>
      <trkpt lat="42.89269" lon="1.15845">
        <ele>931</ele>
        <time>2025-06-22T10:15:20Z</time>
      </trkpt>
      <trkpt lat="42.89274" lon="1.15849">
        <ele>930.2</ele>
        <time>2025-06-22T10:15:21Z</time>
      </trkpt>
      <trkpt lat="42.8928" lon="1.15851">
        <ele>929.4</ele>
        <time>2025-06-22T10:15:22Z</time>
      </trkpt>
      <trkpt lat="42.89285" lon="1.15853">
        <ele>928.6</ele>
        <time>2025-06-22T10:15:23Z</time>
      </trkpt>
      <trkpt lat="42.89289" lon="1.15856">
        <ele>927.8</ele>
        <time>2025-06-22T10:15:24Z</time>
      </trkpt>
      <trkpt lat="42.89293" lon="1.15857">
        <ele>926.8</ele>
        <time>2025-06-22T10:15:25Z</time>
      </trkpt>
      <trkpt lat="42.89298" lon="1.15858">
        <ele>926</ele>
        <time>2025-06-22T10:15:26Z</time>
      </trkpt>
      <trkpt lat="42.89303" lon="1.1586">
        <ele>926</ele>
        <time>2025-06-22T10:15:27Z</time>
      </trkpt>
      <trkpt lat="42.89317" lon="1.15875">
        <ele>925.6</ele>
        <time>2025-06-22T10:15:30Z</time>
      </trkpt>
      <trkpt lat="42.8932" lon="1.15879">
        <ele>925.2</ele>
        <time>2025-06-22T10:15:31Z</time>
      </trkpt>
      <trkpt lat="42.89321" lon="1.15884">
        <ele>924.8</ele>
        <time>2025-06-22T10:15:32Z</time>
      </trkpt>
      <trkpt lat="42.89323" lon="1.15887">
        <ele>924.4</ele>
        <time>2025-06-22T10:15:33Z</time>
      </trkpt>
      <trkpt lat="42.89324" lon="1.15892">
        <ele>924</ele>
        <time>2025-06-22T10:15:34Z</time>
      </trkpt>
      <trkpt lat="42.89328" lon="1.15911">
        <ele>924</ele>
        <time>2025-06-22T10:15:38Z</time>
      </trkpt>
      <trkpt lat="42.89331" lon="1.15928">
        <ele>924.4</ele>
        <time>2025-06-22T10:15:43Z</time>
      </trkpt>
      <trkpt lat="42.89331" lon="1.15931">
        <ele>924.8</ele>
        <time>2025-06-22T10:15:44Z</time>
      </trkpt>
      <trkpt lat="42.89332" lon="1.15934">
        <ele>925.2</ele>
        <time>2025-06-22T10:15:45Z</time>
      </trkpt>
      <trkpt lat="42.89333" lon="1.15937">
        <ele>925.8</ele>
        <time>2025-06-22T10:15:46Z</time>
      </trkpt>
      <trkpt lat="42.89334" lon="1.1594">
        <ele>926.4</ele>
        <time>2025-06-22T10:15:47Z</time>
      </trkpt>
      <trkpt lat="42.89335" lon="1.15944">
        <ele>927</ele>
        <time>2025-06-22T10:15:48Z</time>
      </trkpt>
      <trkpt lat="42.89336" lon="1.15946">
        <ele>927.4</ele>
        <time>2025-06-22T10:15:49Z</time>
      </trkpt>
      <trkpt lat="42.89338" lon="1.1595">
        <ele>928</ele>
        <time>2025-06-22T10:15:50Z</time>
      </trkpt>
      <trkpt lat="42.89338" lon="1.15952">
        <ele>929</ele>
        <time>2025-06-22T10:15:51Z</time>
      </trkpt>
      <trkpt lat="42.89339" lon="1.15955">
        <ele>929.6</ele>
        <time>2025-06-22T10:15:52Z</time>
      </trkpt>
      <trkpt lat="42.89339" lon="1.15958">
        <ele>930</ele>
        <time>2025-06-22T10:15:53Z</time>
      </trkpt>
      <trkpt lat="42.89339" lon="1.15961">
        <ele>930.6</ele>
        <time>2025-06-22T10:15:54Z</time>
      </trkpt>
      <trkpt lat="42.89339" lon="1.15964">
        <ele>931</ele>
        <time>2025-06-22T10:15:55Z</time>
      </trkpt>
      <trkpt lat="42.89339" lon="1.15967">
        <ele>931.4</ele>
        <time>2025-06-22T10:15:56Z</time>
      </trkpt>
      <trkpt lat="42.89339" lon="1.15969">
        <ele>931.8</ele>
        <time>2025-06-22T10:15:57Z</time>
      </trkpt>
      <trkpt lat="42.8934" lon="1.15972">
        <ele>932.4</ele>
        <time>2025-06-22T10:15:58Z</time>
      </trkpt>
      <trkpt lat="42.8934" lon="1.15975">
        <ele>932.8</ele>
        <time>2025-06-22T10:15:59Z</time>
      </trkpt>
      <trkpt lat="42.8934" lon="1.1598">
        <ele>933.2</ele>
        <time>2025-06-22T10:16:01Z</time>
      </trkpt>
      <trkpt lat="42.8934" lon="1.15983">
        <ele>933.8</ele>
        <time>2025-06-22T10:16:02Z</time>
      </trkpt>
      <trkpt lat="42.8934" lon="1.15986">
        <ele>934.2</ele>
        <time>2025-06-22T10:16:03Z</time>
      </trkpt>
      <trkpt lat="42.8934" lon="1.1599">
        <ele>934.6</ele>
        <time>2025-06-22T10:16:04Z</time>
      </trkpt>
      <trkpt lat="42.89339" lon="1.15993">
        <ele>935.2</ele>
        <time>2025-06-22T10:16:05Z</time>
      </trkpt>
      <trkpt lat="42.89338" lon="1.16">
        <ele>935.6</ele>
        <time>2025-06-22T10:16:07Z</time>
      </trkpt>
      <trkpt lat="42.89337" lon="1.16003">
        <ele>936</ele>
        <time>2025-06-22T10:16:08Z</time>
      </trkpt>
      <trkpt lat="42.89338" lon="1.16011">
        <ele>936.4</ele>
        <time>2025-06-22T10:16:09Z</time>
      </trkpt>
      <trkpt lat="42.89338" lon="1.16018">
        <ele>936.8</ele>
        <time>2025-06-22T10:16:10Z</time>
      </trkpt>
      <trkpt lat="42.89338" lon="1.16024">
        <ele>937.4</ele>
        <time>2025-06-22T10:16:11Z</time>
      </trkpt>
      <trkpt lat="42.89338" lon="1.16029">
        <ele>937.8</ele>
        <time>2025-06-22T10:16:12Z</time>
      </trkpt>
      <trkpt lat="42.89338" lon="1.16033">
        <ele>938.2</ele>
        <time>2025-06-22T10:16:13Z</time>
      </trkpt>
      <trkpt lat="42.89338" lon="1.16037">
        <ele>938.6</ele>
        <time>2025-06-22T10:16:14Z</time>
      </trkpt>
      <trkpt lat="42.89338" lon="1.16042">
        <ele>939.2</ele>
        <time>2025-06-22T10:16:15Z</time>
      </trkpt>
      <trkpt lat="42.89338" lon="1.16046">
        <ele>940</ele>
        <time>2025-06-22T10:16:16Z</time>
      </trkpt>
      <trkpt lat="42.89337" lon="1.1605">
        <ele>940.4</ele>
        <time>2025-06-22T10:16:17Z</time>
      </trkpt>
      <trkpt lat="42.89337" lon="1.16055">
        <ele>941</ele>
        <time>2025-06-22T10:16:18Z</time>
      </trkpt>
      <trkpt lat="42.89336" lon="1.16059">
        <ele>941.4</ele>
        <time>2025-06-22T10:16:19Z</time>
      </trkpt>
      <trkpt lat="42.89336" lon="1.16064">
        <ele>941.8</ele>
        <time>2025-06-22T10:16:20Z</time>
      </trkpt>
      <trkpt lat="42.89336" lon="1.16072">
        <ele>942.2</ele>
        <time>2025-06-22T10:16:22Z</time>
      </trkpt>
      <trkpt lat="42.89336" lon="1.16077">
        <ele>942.6</ele>
        <time>2025-06-22T10:16:23Z</time>
      </trkpt>
      <trkpt lat="42.89336" lon="1.16081">
        <ele>943</ele>
        <time>2025-06-22T10:16:24Z</time>
      </trkpt>
      <trkpt lat="42.89336" lon="1.16085">
        <ele>943.4</ele>
        <time>2025-06-22T10:16:25Z</time>
      </trkpt>
      <trkpt lat="42.89336" lon="1.16089">
        <ele>944</ele>
        <time>2025-06-22T10:16:26Z</time>
      </trkpt>
      <trkpt lat="42.89335" lon="1.16097">
        <ele>944.4</ele>
        <time>2025-06-22T10:16:28Z</time>
      </trkpt>
      <trkpt lat="42.89335" lon="1.16101">
        <ele>944.8</ele>
        <time>2025-06-22T10:16:29Z</time>
      </trkpt>
      <trkpt lat="42.89335" lon="1.16105">
        <ele>945.2</ele>
        <time>2025-06-22T10:16:30Z</time>
      </trkpt>
      <trkpt lat="42.89334" lon="1.16109">
        <ele>945.8</ele>
        <time>2025-06-22T10:16:31Z</time>
      </trkpt>
      <trkpt lat="42.89334" lon="1.16112">
        <ele>946.2</ele>
        <time>2025-06-22T10:16:32Z</time>
      </trkpt>
      <trkpt lat="42.89333" lon="1.16115">
        <ele>946.2</ele>
        <time>2025-06-22T10:16:33Z</time>
      </trkpt>
      <trkpt lat="42.89332" lon="1.16118">
        <ele>946.6</ele>
        <time>2025-06-22T10:16:34Z</time>
      </trkpt>
      <trkpt lat="42.89332" lon="1.16121">
        <ele>947.2</ele>
        <time>2025-06-22T10:16:35Z</time>
      </trkpt>
      <trkpt lat="42.89331" lon="1.16125">
        <ele>947.6</ele>
        <time>2025-06-22T10:16:36Z</time>
      </trkpt>
      <trkpt lat="42.8933" lon="1.16128">
        <ele>948.2</ele>
        <time>2025-06-22T10:16:37Z</time>
      </trkpt>
      <trkpt lat="42.89329" lon="1.16132">
        <ele>948.6</ele>
        <time>2025-06-22T10:16:38Z</time>
      </trkpt>
      <trkpt lat="42.89328" lon="1.16135">
        <ele>948.6</ele>
        <time>2025-06-22T10:16:39Z</time>
      </trkpt>
      <trkpt lat="42.89325" lon="1.16143">
        <ele>949.4</ele>
        <time>2025-06-22T10:16:41Z</time>
      </trkpt>
      <trkpt lat="42.89324" lon="1.16148">
        <ele>950</ele>
        <time>2025-06-22T10:16:42Z</time>
      </trkpt>
      <trkpt lat="42.89323" lon="1.16152">
        <ele>950.4</ele>
        <time>2025-06-22T10:16:43Z</time>
      </trkpt>
      <trkpt lat="42.89321" lon="1.16157">
        <ele>950.8</ele>
        <time>2025-06-22T10:16:44Z</time>
      </trkpt>
      <trkpt lat="42.8932" lon="1.16161">
        <ele>950.8</ele>
        <time>2025-06-22T10:16:45Z</time>
      </trkpt>
      <trkpt lat="42.89315" lon="1.16186">
        <ele>951.2</ele>
        <time>2025-06-22T10:16:50Z</time>
      </trkpt>
      <trkpt lat="42.89313" lon="1.16191">
        <ele>951.6</ele>
        <time>2025-06-22T10:16:51Z</time>
      </trkpt>
      <trkpt lat="42.89312" lon="1.16196">
        <ele>952.2</ele>
        <time>2025-06-22T10:16:52Z</time>
      </trkpt>
      <trkpt lat="42.89311" lon="1.162">
        <ele>952.6</ele>
        <time>2025-06-22T10:16:53Z</time>
      </trkpt>
      <trkpt lat="42.8931" lon="1.16204">
        <ele>953</ele>
        <time>2025-06-22T10:16:54Z</time>
      </trkpt>
      <trkpt lat="42.89305" lon="1.16216">
        <ele>953</ele>
        <time>2025-06-22T10:16:57Z</time>
      </trkpt>
      <trkpt lat="42.89297" lon="1.16238">
        <ele>953.4</ele>
        <time>2025-06-22T10:17:02Z</time>
      </trkpt>
      <trkpt lat="42.89296" lon="1.16243">
        <ele>953.8</ele>
        <time>2025-06-22T10:17:03Z</time>
      </trkpt>
      <trkpt lat="42.89294" lon="1.16247">
        <ele>954.6</ele>
        <time>2025-06-22T10:17:04Z</time>
      </trkpt>
      <trkpt lat="42.89293" lon="1.16252">
        <ele>955</ele>
        <time>2025-06-22T10:17:05Z</time>
      </trkpt>
      <trkpt lat="42.89288" lon="1.16271">
        <ele>955.6</ele>
        <time>2025-06-22T10:17:09Z</time>
      </trkpt>
      <trkpt lat="42.89287" lon="1.16276">
        <ele>956</ele>
        <time>2025-06-22T10:17:10Z</time>
      </trkpt>
      <trkpt lat="42.89285" lon="1.1628">
        <ele>956.4</ele>
        <time>2025-06-22T10:17:11Z</time>
      </trkpt>
      <trkpt lat="42.89283" lon="1.16284">
        <ele>956.8</ele>
        <time>2025-06-22T10:17:12Z</time>
      </trkpt>
      <trkpt lat="42.89281" lon="1.16289">
        <ele>957.2</ele>
        <time>2025-06-22T10:17:13Z</time>
      </trkpt>
      <trkpt lat="42.89273" lon="1.16308">
        <ele>957.6</ele>
        <time>2025-06-22T10:17:17Z</time>
      </trkpt>
      <trkpt lat="42.89271" lon="1.16314">
        <ele>958</ele>
        <time>2025-06-22T10:17:18Z</time>
      </trkpt>
      <trkpt lat="42.89269" lon="1.1632">
        <ele>958.4</ele>
        <time>2025-06-22T10:17:19Z</time>
      </trkpt>
      <trkpt lat="42.89267" lon="1.16326">
        <ele>958.8</ele>
        <time>2025-06-22T10:17:20Z</time>
      </trkpt>
      <trkpt lat="42.89265" lon="1.16332">
        <ele>959.4</ele>
        <time>2025-06-22T10:17:21Z</time>
      </trkpt>
      <trkpt lat="42.89259" lon="1.16356">
        <ele>959.4</ele>
        <time>2025-06-22T10:17:25Z</time>
      </trkpt>
      <trkpt lat="42.89258" lon="1.16363">
        <ele>959.4</ele>
        <time>2025-06-22T10:17:26Z</time>
      </trkpt>
      <trkpt lat="42.89256" lon="1.16393">
        <ele>959.8</ele>
        <time>2025-06-22T10:17:31Z</time>
      </trkpt>
      <trkpt lat="42.89256" lon="1.16399">
        <ele>960.2</ele>
        <time>2025-06-22T10:17:32Z</time>
      </trkpt>
      <trkpt lat="42.89258" lon="1.16404">
        <ele>960.6</ele>
        <time>2025-06-22T10:17:33Z</time>
      </trkpt>
      <trkpt lat="42.8926" lon="1.16409">
        <ele>961</ele>
        <time>2025-06-22T10:17:34Z</time>
      </trkpt>
      <trkpt lat="42.89262" lon="1.16414">
        <ele>961.6</ele>
        <time>2025-06-22T10:17:35Z</time>
      </trkpt>
      <trkpt lat="42.89266" lon="1.16419">
        <ele>961.6</ele>
        <time>2025-06-22T10:17:36Z</time>
      </trkpt>
      <trkpt lat="42.89274" lon="1.16431">
        <ele>961.2</ele>
        <time>2025-06-22T10:17:38Z</time>
      </trkpt>
      <trkpt lat="42.89279" lon="1.16436">
        <ele>960.8</ele>
        <time>2025-06-22T10:17:39Z</time>
      </trkpt>
      <trkpt lat="42.89284" lon="1.16443">
        <ele>960</ele>
        <time>2025-06-22T10:17:40Z</time>
      </trkpt>
      <trkpt lat="42.89289" lon="1.16449">
        <ele>959.4</ele>
        <time>2025-06-22T10:17:41Z</time>
      </trkpt>
      <trkpt lat="42.89293" lon="1.16454">
        <ele>958.4</ele>
        <time>2025-06-22T10:17:42Z</time>
      </trkpt>
      <trkpt lat="42.89298" lon="1.1646">
        <ele>957.6</ele>
        <time>2025-06-22T10:17:43Z</time>
      </trkpt>
      <trkpt lat="42.89301" lon="1.16465">
        <ele>956.6</ele>
        <time>2025-06-22T10:17:44Z</time>
      </trkpt>
      <trkpt lat="42.89306" lon="1.16471">
        <ele>955.6</ele>
        <time>2025-06-22T10:17:45Z</time>
      </trkpt>
      <trkpt lat="42.8931" lon="1.16477">
        <ele>954.6</ele>
        <time>2025-06-22T10:17:46Z</time>
      </trkpt>
      <trkpt lat="42.89314" lon="1.16483">
        <ele>953.4</ele>
        <time>2025-06-22T10:17:47Z</time>
      </trkpt>
      <trkpt lat="42.89319" lon="1.16489">
        <ele>952.2</ele>
        <time>2025-06-22T10:17:48Z</time>
      </trkpt>
      <trkpt lat="42.89323" lon="1.16495">
        <ele>951</ele>
        <time>2025-06-22T10:17:49Z</time>
      </trkpt>
      <trkpt lat="42.89326" lon="1.16501">
        <ele>949.8</ele>
        <time>2025-06-22T10:17:50Z</time>
      </trkpt>
      <trkpt lat="42.8933" lon="1.16507">
        <ele>948.6</ele>
        <time>2025-06-22T10:17:51Z</time>
      </trkpt>
      <trkpt lat="42.89334" lon="1.16512">
        <ele>947.2</ele>
        <time>2025-06-22T10:17:52Z</time>
      </trkpt>
      <trkpt lat="42.89338" lon="1.16518">
        <ele>946</ele>
        <time>2025-06-22T10:17:53Z</time>
      </trkpt>
      <trkpt lat="42.89341" lon="1.16524">
        <ele>943.2</ele>
        <time>2025-06-22T10:17:54Z</time>
      </trkpt>
      <trkpt lat="42.89344" lon="1.16531">
        <ele>941.6</ele>
        <time>2025-06-22T10:17:55Z</time>
      </trkpt>
      <trkpt lat="42.89346" lon="1.16538">
        <ele>940.2</ele>
        <time>2025-06-22T10:17:56Z</time>
      </trkpt>
      <trkpt lat="42.89348" lon="1.16545">
        <ele>938.8</ele>
        <time>2025-06-22T10:17:57Z</time>
      </trkpt>
      <trkpt lat="42.89351" lon="1.16552">
        <ele>937.2</ele>
        <time>2025-06-22T10:17:58Z</time>
      </trkpt>
      <trkpt lat="42.89353" lon="1.16559">
        <ele>935.8</ele>
        <time>2025-06-22T10:17:59Z</time>
      </trkpt>
      <trkpt lat="42.89356" lon="1.16567">
        <ele>934.2</ele>
        <time>2025-06-22T10:18:00Z</time>
      </trkpt>
      <trkpt lat="42.89359" lon="1.16575">
        <ele>932.6</ele>
        <time>2025-06-22T10:18:01Z</time>
      </trkpt>
      <trkpt lat="42.89363" lon="1.16581">
        <ele>931.2</ele>
        <time>2025-06-22T10:18:02Z</time>
      </trkpt>
      <trkpt lat="42.89368" lon="1.16585">
        <ele>929.6</ele>
        <time>2025-06-22T10:18:03Z</time>
      </trkpt>
      <trkpt lat="42.89373" lon="1.16588">
        <ele>928</ele>
        <time>2025-06-22T10:18:04Z</time>
      </trkpt>
      <trkpt lat="42.89377" lon="1.16592">
        <ele>926.6</ele>
        <time>2025-06-22T10:18:05Z</time>
      </trkpt>
      <trkpt lat="42.8938" lon="1.16597">
        <ele>925.2</ele>
        <time>2025-06-22T10:18:06Z</time>
      </trkpt>
      <trkpt lat="42.89383" lon="1.16603">
        <ele>924</ele>
        <time>2025-06-22T10:18:07Z</time>
      </trkpt>
      <trkpt lat="42.89387" lon="1.16609">
        <ele>923</ele>
        <time>2025-06-22T10:18:08Z</time>
      </trkpt>
      <trkpt lat="42.8939" lon="1.16615">
        <ele>922</ele>
        <time>2025-06-22T10:18:09Z</time>
      </trkpt>
      <trkpt lat="42.89395" lon="1.1662">
        <ele>921</ele>
        <time>2025-06-22T10:18:10Z</time>
      </trkpt>
      <trkpt lat="42.89398" lon="1.16626">
        <ele>920</ele>
        <time>2025-06-22T10:18:11Z</time>
      </trkpt>
      <trkpt lat="42.89401" lon="1.16632">
        <ele>918.8</ele>
        <time>2025-06-22T10:18:12Z</time>
      </trkpt>
      <trkpt lat="42.89402" lon="1.16638">
        <ele>917.8</ele>
        <time>2025-06-22T10:18:13Z</time>
      </trkpt>
      <trkpt lat="42.89404" lon="1.16644">
        <ele>916.8</ele>
        <time>2025-06-22T10:18:14Z</time>
      </trkpt>
      <trkpt lat="42.89405" lon="1.16649">
        <ele>915.8</ele>
        <time>2025-06-22T10:18:15Z</time>
      </trkpt>
      <trkpt lat="42.89406" lon="1.16654">
        <ele>915</ele>
        <time>2025-06-22T10:18:16Z</time>
      </trkpt>
      <trkpt lat="42.89405" lon="1.16659">
        <ele>914</ele>
        <time>2025-06-22T10:18:17Z</time>
      </trkpt>
      <trkpt lat="42.89404" lon="1.16664">
        <ele>912</ele>
        <time>2025-06-22T10:18:18Z</time>
      </trkpt>
      <trkpt lat="42.89404" lon="1.16669">
        <ele>911</ele>
        <time>2025-06-22T10:18:19Z</time>
      </trkpt>
      <trkpt lat="42.89404" lon="1.16675">
        <ele>910</ele>
        <time>2025-06-22T10:18:20Z</time>
      </trkpt>
      <trkpt lat="42.89404" lon="1.16681">
        <ele>908.8</ele>
        <time>2025-06-22T10:18:21Z</time>
      </trkpt>
      <trkpt lat="42.89404" lon="1.16686">
        <ele>907.8</ele>
        <time>2025-06-22T10:18:22Z</time>
      </trkpt>
      <trkpt lat="42.89403" lon="1.16692">
        <ele>906.8</ele>
        <time>2025-06-22T10:18:23Z</time>
      </trkpt>
      <trkpt lat="42.89404" lon="1.16698">
        <ele>906</ele>
        <time>2025-06-22T10:18:24Z</time>
      </trkpt>
      <trkpt lat="42.89404" lon="1.16705">
        <ele>905</ele>
        <time>2025-06-22T10:18:25Z</time>
      </trkpt>
      <trkpt lat="42.89406" lon="1.16713">
        <ele>904</ele>
        <time>2025-06-22T10:18:26Z</time>
      </trkpt>
      <trkpt lat="42.89407" lon="1.1672">
        <ele>903.2</ele>
        <time>2025-06-22T10:18:27Z</time>
      </trkpt>
      <trkpt lat="42.89408" lon="1.16728">
        <ele>902.2</ele>
        <time>2025-06-22T10:18:28Z</time>
      </trkpt>
      <trkpt lat="42.89408" lon="1.16736">
        <ele>901.4</ele>
        <time>2025-06-22T10:18:29Z</time>
      </trkpt>
      <trkpt lat="42.89408" lon="1.16744">
        <ele>900.6</ele>
        <time>2025-06-22T10:18:30Z</time>
      </trkpt>
      <trkpt lat="42.89409" lon="1.16753">
        <ele>899.8</ele>
        <time>2025-06-22T10:18:31Z</time>
      </trkpt>
      <trkpt lat="42.8941" lon="1.1676">
        <ele>899</ele>
        <time>2025-06-22T10:18:32Z</time>
      </trkpt>
      <trkpt lat="42.89411" lon="1.16767">
        <ele>898.2</ele>
        <time>2025-06-22T10:18:33Z</time>
      </trkpt>
      <trkpt lat="42.89411" lon="1.16773">
        <ele>897.6</ele>
        <time>2025-06-22T10:18:34Z</time>
      </trkpt>
      <trkpt lat="42.89412" lon="1.16779">
        <ele>896.8</ele>
        <time>2025-06-22T10:18:35Z</time>
      </trkpt>
      <trkpt lat="42.89412" lon="1.16785">
        <ele>896.2</ele>
        <time>2025-06-22T10:18:36Z</time>
      </trkpt>
      <trkpt lat="42.89413" lon="1.16792">
        <ele>895.6</ele>
        <time>2025-06-22T10:18:37Z</time>
      </trkpt>
      <trkpt lat="42.89414" lon="1.16797">
        <ele>895</ele>
        <time>2025-06-22T10:18:38Z</time>
      </trkpt>
      <trkpt lat="42.89416" lon="1.16801">
        <ele>894.2</ele>
        <time>2025-06-22T10:18:39Z</time>
      </trkpt>
      <trkpt lat="42.89417" lon="1.16804">
        <ele>893.6</ele>
        <time>2025-06-22T10:18:40Z</time>
      </trkpt>
      <trkpt lat="42.89417" lon="1.16806">
        <ele>892.8</ele>
        <time>2025-06-22T10:18:41Z</time>
      </trkpt>
      <trkpt lat="42.89417" lon="1.16808">
        <ele>892.2</ele>
        <time>2025-06-22T10:18:42Z</time>
      </trkpt>
      <trkpt lat="42.89417" lon="1.16814">
        <ele>889.4</ele>
        <time>2025-06-22T10:21:18Z</time>
      </trkpt>
      <trkpt lat="42.89418" lon="1.16827">
        <ele>889.4</ele>
        <time>2025-06-22T10:21:22Z</time>
      </trkpt>
      <trkpt lat="42.89424" lon="1.16854">
        <ele>889.4</ele>
        <time>2025-06-22T10:21:28Z</time>
      </trkpt>
      <trkpt lat="42.89427" lon="1.16862">
        <ele>889</ele>
        <time>2025-06-22T10:21:30Z</time>
      </trkpt>
      <trkpt lat="42.89429" lon="1.16867">
        <ele>888.6</ele>
        <time>2025-06-22T10:21:31Z</time>
      </trkpt>
      <trkpt lat="42.8943" lon="1.16873">
        <ele>888.2</ele>
        <time>2025-06-22T10:21:32Z</time>
      </trkpt>
      <trkpt lat="42.89431" lon="1.16879">
        <ele>887.8</ele>
        <time>2025-06-22T10:21:33Z</time>
      </trkpt>
      <trkpt lat="42.89431" lon="1.16886">
        <ele>887.4</ele>
        <time>2025-06-22T10:21:34Z</time>
      </trkpt>
      <trkpt lat="42.8944" lon="1.16924">
        <ele>887</ele>
        <time>2025-06-22T10:21:39Z</time>
      </trkpt>
      <trkpt lat="42.89442" lon="1.16932">
        <ele>886.6</ele>
        <time>2025-06-22T10:21:40Z</time>
      </trkpt>
      <trkpt lat="42.89444" lon="1.1694">
        <ele>886.2</ele>
        <time>2025-06-22T10:21:41Z</time>
      </trkpt>
      <trkpt lat="42.89446" lon="1.16949">
        <ele>885.8</ele>
        <time>2025-06-22T10:21:42Z</time>
      </trkpt>
      <trkpt lat="42.89449" lon="1.16958">
        <ele>885.4</ele>
        <time>2025-06-22T10:21:43Z</time>
      </trkpt>
      <trkpt lat="42.8946" lon="1.16993">
        <ele>885.4</ele>
        <time>2025-06-22T10:21:47Z</time>
      </trkpt>
      <trkpt lat="42.89469" lon="1.17018">
        <ele>884.8</ele>
        <time>2025-06-22T10:21:50Z</time>
      </trkpt>
      <trkpt lat="42.89472" lon="1.17027">
        <ele>884.4</ele>
        <time>2025-06-22T10:21:51Z</time>
      </trkpt>
      <trkpt lat="42.89476" lon="1.17035">
        <ele>884</ele>
        <time>2025-06-22T10:21:52Z</time>
      </trkpt>
      <trkpt lat="42.89479" lon="1.17044">
        <ele>883.6</ele>
        <time>2025-06-22T10:21:53Z</time>
      </trkpt>
      <trkpt lat="42.89483" lon="1.17052">
        <ele>883.2</ele>
        <time>2025-06-22T10:21:54Z</time>
      </trkpt>
      <trkpt lat="42.89506" lon="1.17093">
        <ele>883.2</ele>
        <time>2025-06-22T10:21:59Z</time>
      </trkpt>
      <trkpt lat="42.8951" lon="1.17101">
        <ele>882.8</ele>
        <time>2025-06-22T10:22:00Z</time>
      </trkpt>
      <trkpt lat="42.89515" lon="1.17108">
        <ele>882.4</ele>
        <time>2025-06-22T10:22:01Z</time>
      </trkpt>
      <trkpt lat="42.89519" lon="1.17117">
        <ele>882</ele>
        <time>2025-06-22T10:22:02Z</time>
      </trkpt>
      <trkpt lat="42.89524" lon="1.17126">
        <ele>881.4</ele>
        <time>2025-06-22T10:22:03Z</time>
      </trkpt>
      <trkpt lat="42.89528" lon="1.17134">
        <ele>881</ele>
        <time>2025-06-22T10:22:04Z</time>
      </trkpt>
      <trkpt lat="42.89538" lon="1.17152">
        <ele>881</ele>
        <time>2025-06-22T10:22:06Z</time>
      </trkpt>
      <trkpt lat="42.89543" lon="1.17162">
        <ele>880.6</ele>
        <time>2025-06-22T10:22:07Z</time>
      </trkpt>
      <trkpt lat="42.89549" lon="1.17171">
        <ele>880.2</ele>
        <time>2025-06-22T10:22:08Z</time>
      </trkpt>
      <trkpt lat="42.89554" lon="1.1718">
        <ele>879.8</ele>
        <time>2025-06-22T10:22:09Z</time>
      </trkpt>
      <trkpt lat="42.89558" lon="1.17191">
        <ele>879.4</ele>
        <time>2025-06-22T10:22:10Z</time>
      </trkpt>
      <trkpt lat="42.89562" lon="1.17201">
        <ele>879</ele>
        <time>2025-06-22T10:22:11Z</time>
      </trkpt>
      <trkpt lat="42.89566" lon="1.17212">
        <ele>878.6</ele>
        <time>2025-06-22T10:22:12Z</time>
      </trkpt>
      <trkpt lat="42.89569" lon="1.17223">
        <ele>878.2</ele>
        <time>2025-06-22T10:22:13Z</time>
      </trkpt>
      <trkpt lat="42.89572" lon="1.17234">
        <ele>877.8</ele>
        <time>2025-06-22T10:22:14Z</time>
      </trkpt>
      <trkpt lat="42.89575" lon="1.17246">
        <ele>877.2</ele>
        <time>2025-06-22T10:22:15Z</time>
      </trkpt>
      <trkpt lat="42.89577" lon="1.17257">
        <ele>876.8</ele>
        <time>2025-06-22T10:22:16Z</time>
      </trkpt>
      <trkpt lat="42.89579" lon="1.17268">
        <ele>876.2</ele>
        <time>2025-06-22T10:22:17Z</time>
      </trkpt>
      <trkpt lat="42.8958" lon="1.1728">
        <ele>875.6</ele>
        <time>2025-06-22T10:22:18Z</time>
      </trkpt>
      <trkpt lat="42.89581" lon="1.17292">
        <ele>875</ele>
        <time>2025-06-22T10:22:19Z</time>
      </trkpt>
      <trkpt lat="42.89582" lon="1.17304">
        <ele>874.4</ele>
        <time>2025-06-22T10:22:20Z</time>
      </trkpt>
      <trkpt lat="42.89582" lon="1.17316">
        <ele>874</ele>
        <time>2025-06-22T10:22:21Z</time>
      </trkpt>
      <trkpt lat="42.89582" lon="1.17327">
        <ele>873.6</ele>
        <time>2025-06-22T10:22:22Z</time>
      </trkpt>
      <trkpt lat="42.89581" lon="1.17338">
        <ele>873</ele>
        <time>2025-06-22T10:22:23Z</time>
      </trkpt>
      <trkpt lat="42.89579" lon="1.17348">
        <ele>872</ele>
        <time>2025-06-22T10:22:24Z</time>
      </trkpt>
      <trkpt lat="42.89577" lon="1.17358">
        <ele>871.6</ele>
        <time>2025-06-22T10:22:25Z</time>
      </trkpt>
      <trkpt lat="42.89575" lon="1.17369">
        <ele>871</ele>
        <time>2025-06-22T10:22:26Z</time>
      </trkpt>
      <trkpt lat="42.89573" lon="1.1738">
        <ele>870.6</ele>
        <time>2025-06-22T10:22:27Z</time>
      </trkpt>
      <trkpt lat="42.89572" lon="1.17391">
        <ele>870</ele>
        <time>2025-06-22T10:22:28Z</time>
      </trkpt>
      <trkpt lat="42.89567" lon="1.17414">
        <ele>869.6</ele>
        <time>2025-06-22T10:22:30Z</time>
      </trkpt>
      <trkpt lat="42.89565" lon="1.17426">
        <ele>869.2</ele>
        <time>2025-06-22T10:22:31Z</time>
      </trkpt>
      <trkpt lat="42.89562" lon="1.17438">
        <ele>868.6</ele>
        <time>2025-06-22T10:22:32Z</time>
      </trkpt>
      <trkpt lat="42.89558" lon="1.17449">
        <ele>868.2</ele>
        <time>2025-06-22T10:22:33Z</time>
      </trkpt>
      <trkpt lat="42.89555" lon="1.1746">
        <ele>867.8</ele>
        <time>2025-06-22T10:22:34Z</time>
      </trkpt>
      <trkpt lat="42.89552" lon="1.17472">
        <ele>867.2</ele>
        <time>2025-06-22T10:22:35Z</time>
      </trkpt>
      <trkpt lat="42.8955" lon="1.17484">
        <ele>866.8</ele>
        <time>2025-06-22T10:22:36Z</time>
      </trkpt>
      <trkpt lat="42.89548" lon="1.17495">
        <ele>866.2</ele>
        <time>2025-06-22T10:22:37Z</time>
      </trkpt>
      <trkpt lat="42.89547" lon="1.17506">
        <ele>865.8</ele>
        <time>2025-06-22T10:22:38Z</time>
      </trkpt>
      <trkpt lat="42.89546" lon="1.17528">
        <ele>865.8</ele>
        <time>2025-06-22T10:22:40Z</time>
      </trkpt>
      <trkpt lat="42.89547" lon="1.17539">
        <ele>865.2</ele>
        <time>2025-06-22T10:22:41Z</time>
      </trkpt>
      <trkpt lat="42.89548" lon="1.17551">
        <ele>864.8</ele>
        <time>2025-06-22T10:22:42Z</time>
      </trkpt>
      <trkpt lat="42.89549" lon="1.17564">
        <ele>864.4</ele>
        <time>2025-06-22T10:22:43Z</time>
      </trkpt>
      <trkpt lat="42.89549" lon="1.17576">
        <ele>864</ele>
        <time>2025-06-22T10:22:44Z</time>
      </trkpt>
      <trkpt lat="42.8955" lon="1.17588">
        <ele>863.6</ele>
        <time>2025-06-22T10:22:45Z</time>
      </trkpt>
      <trkpt lat="42.89551" lon="1.17601">
        <ele>863.2</ele>
        <time>2025-06-22T10:22:46Z</time>
      </trkpt>
      <trkpt lat="42.89552" lon="1.17612">
        <ele>862.8</ele>
        <time>2025-06-22T10:22:47Z</time>
      </trkpt>
      <trkpt lat="42.89554" lon="1.17624">
        <ele>862.2</ele>
        <time>2025-06-22T10:22:48Z</time>
      </trkpt>
      <trkpt lat="42.89555" lon="1.17635">
        <ele>861.4</ele>
        <time>2025-06-22T10:22:49Z</time>
      </trkpt>
      <trkpt lat="42.89563" lon="1.17676">
        <ele>861</ele>
        <time>2025-06-22T10:22:53Z</time>
      </trkpt>
      <trkpt lat="42.89564" lon="1.17686">
        <ele>860.6</ele>
        <time>2025-06-22T10:22:54Z</time>
      </trkpt>
      <trkpt lat="42.89566" lon="1.17696">
        <ele>860.2</ele>
        <time>2025-06-22T10:22:55Z</time>
      </trkpt>
      <trkpt lat="42.89567" lon="1.17707">
        <ele>859.6</ele>
        <time>2025-06-22T10:22:56Z</time>
      </trkpt>
      <trkpt lat="42.89567" lon="1.17717">
        <ele>859.2</ele>
        <time>2025-06-22T10:22:57Z</time>
      </trkpt>
      <trkpt lat="42.89569" lon="1.17748">
        <ele>859.2</ele>
        <time>2025-06-22T10:23:00Z</time>
      </trkpt>
      <trkpt lat="42.89569" lon="1.17777">
        <ele>858.8</ele>
        <time>2025-06-22T10:23:03Z</time>
      </trkpt>
      <trkpt lat="42.89568" lon="1.17786">
        <ele>858.4</ele>
        <time>2025-06-22T10:23:04Z</time>
      </trkpt>
      <trkpt lat="42.89567" lon="1.17795">
        <ele>857.8</ele>
        <time>2025-06-22T10:23:05Z</time>
      </trkpt>
      <trkpt lat="42.89566" lon="1.17804">
        <ele>857.4</ele>
        <time>2025-06-22T10:23:06Z</time>
      </trkpt>
      <trkpt lat="42.89565" lon="1.17813">
        <ele>857</ele>
        <time>2025-06-22T10:23:07Z</time>
      </trkpt>
      <trkpt lat="42.8956" lon="1.17829">
        <ele>856.6</ele>
        <time>2025-06-22T10:23:09Z</time>
      </trkpt>
      <trkpt lat="42.89557" lon="1.17837">
        <ele>856</ele>
        <time>2025-06-22T10:23:10Z</time>
      </trkpt>
      <trkpt lat="42.89553" lon="1.17845">
        <ele>855.6</ele>
        <time>2025-06-22T10:23:11Z</time>
      </trkpt>
      <trkpt lat="42.8955" lon="1.17852">
        <ele>855</ele>
        <time>2025-06-22T10:23:12Z</time>
      </trkpt>
      <trkpt lat="42.89547" lon="1.1786">
        <ele>853.4</ele>
        <time>2025-06-22T10:23:13Z</time>
      </trkpt>
      <trkpt lat="42.89544" lon="1.17866">
        <ele>852.6</ele>
        <time>2025-06-22T10:23:14Z</time>
      </trkpt>
      <trkpt lat="42.89542" lon="1.17871">
        <ele>851.8</ele>
        <time>2025-06-22T10:23:15Z</time>
      </trkpt>
      <trkpt lat="42.8954" lon="1.17877">
        <ele>850.8</ele>
        <time>2025-06-22T10:23:16Z</time>
      </trkpt>
      <trkpt lat="42.89536" lon="1.17882">
        <ele>849.8</ele>
        <time>2025-06-22T10:23:17Z</time>
      </trkpt>
      <trkpt lat="42.89533" lon="1.17888">
        <ele>849</ele>
        <time>2025-06-22T10:23:18Z</time>
      </trkpt>
      <trkpt lat="42.89529" lon="1.17891">
        <ele>847.8</ele>
        <time>2025-06-22T10:23:19Z</time>
      </trkpt>
      <trkpt lat="42.89526" lon="1.17893">
        <ele>846.8</ele>
        <time>2025-06-22T10:23:20Z</time>
      </trkpt>
      <trkpt lat="42.89523" lon="1.17892">
        <ele>845.8</ele>
        <time>2025-06-22T10:23:21Z</time>
      </trkpt>
      <trkpt lat="42.8952" lon="1.1789">
        <ele>844.8</ele>
        <time>2025-06-22T10:23:22Z</time>
      </trkpt>
      <trkpt lat="42.89517" lon="1.17887">
        <ele>843.8</ele>
        <time>2025-06-22T10:23:23Z</time>
      </trkpt>
      <trkpt lat="42.8951" lon="1.17881">
        <ele>843.8</ele>
        <time>2025-06-22T10:23:25Z</time>
      </trkpt>
      <trkpt lat="42.89498" lon="1.17873">
        <ele>843.8</ele>
        <time>2025-06-22T10:23:28Z</time>
      </trkpt>
      <trkpt lat="42.89493" lon="1.17871">
        <ele>843.8</ele>
        <time>2025-06-22T10:23:29Z</time>
      </trkpt>
      <trkpt lat="42.89488" lon="1.17868">
        <ele>843.2</ele>
        <time>2025-06-22T10:23:30Z</time>
      </trkpt>
      <trkpt lat="42.89482" lon="1.17865">
        <ele>842.8</ele>
        <time>2025-06-22T10:23:31Z</time>
      </trkpt>
      <trkpt lat="42.89474" lon="1.17862">
        <ele>842.2</ele>
        <time>2025-06-22T10:23:32Z</time>
      </trkpt>
      <trkpt lat="42.89467" lon="1.17859">
        <ele>841.6</ele>
        <time>2025-06-22T10:23:33Z</time>
      </trkpt>
      <trkpt lat="42.8946" lon="1.17856">
        <ele>841.2</ele>
        <time>2025-06-22T10:23:34Z</time>
      </trkpt>
      <trkpt lat="42.89449" lon="1.17848">
        <ele>840.8</ele>
        <time>2025-06-22T10:23:36Z</time>
      </trkpt>
      <trkpt lat="42.89444" lon="1.17845">
        <ele>840.4</ele>
        <time>2025-06-22T10:23:37Z</time>
      </trkpt>
      <trkpt lat="42.8944" lon="1.17842">
        <ele>839.4</ele>
        <time>2025-06-22T10:23:38Z</time>
      </trkpt>
      <trkpt lat="42.89435" lon="1.1784">
        <ele>839</ele>
        <time>2025-06-22T10:23:39Z</time>
      </trkpt>
      <trkpt lat="42.8942" lon="1.17832">
        <ele>839</ele>
        <time>2025-06-22T10:23:42Z</time>
      </trkpt>
      <trkpt lat="42.89404" lon="1.17815">
        <ele>838.6</ele>
        <time>2025-06-22T10:23:45Z</time>
      </trkpt>
      <trkpt lat="42.89401" lon="1.17811">
        <ele>838.2</ele>
        <time>2025-06-22T10:23:46Z</time>
      </trkpt>
      <trkpt lat="42.89398" lon="1.17808">
        <ele>837.6</ele>
        <time>2025-06-22T10:23:47Z</time>
      </trkpt>
      <trkpt lat="42.89395" lon="1.17805">
        <ele>837.2</ele>
        <time>2025-06-22T10:23:48Z</time>
      </trkpt>
      <trkpt lat="42.89392" lon="1.17802">
        <ele>836.6</ele>
        <time>2025-06-22T10:23:49Z</time>
      </trkpt>
      <trkpt lat="42.89389" lon="1.17798">
        <ele>836</ele>
        <time>2025-06-22T10:23:50Z</time>
      </trkpt>
      <trkpt lat="42.89385" lon="1.17796">
        <ele>835.4</ele>
        <time>2025-06-22T10:23:51Z</time>
      </trkpt>
      <trkpt lat="42.89381" lon="1.17793">
        <ele>834.8</ele>
        <time>2025-06-22T10:23:52Z</time>
      </trkpt>
      <trkpt lat="42.89377" lon="1.17791">
        <ele>834.4</ele>
        <time>2025-06-22T10:23:53Z</time>
      </trkpt>
      <trkpt lat="42.89374" lon="1.17788">
        <ele>833.8</ele>
        <time>2025-06-22T10:23:54Z</time>
      </trkpt>
      <trkpt lat="42.89371" lon="1.17786">
        <ele>833.2</ele>
        <time>2025-06-22T10:23:55Z</time>
      </trkpt>
      <trkpt lat="42.89368" lon="1.17783">
        <ele>832.8</ele>
        <time>2025-06-22T10:23:56Z</time>
      </trkpt>
      <trkpt lat="42.89364" lon="1.17781">
        <ele>832.2</ele>
        <time>2025-06-22T10:23:57Z</time>
      </trkpt>
      <trkpt lat="42.89359" lon="1.1778">
        <ele>831.6</ele>
        <time>2025-06-22T10:23:58Z</time>
      </trkpt>
      <trkpt lat="42.89354" lon="1.1778">
        <ele>831</ele>
        <time>2025-06-22T10:23:59Z</time>
      </trkpt>
      <trkpt lat="42.89349" lon="1.17781">
        <ele>830.4</ele>
        <time>2025-06-22T10:24:00Z</time>
      </trkpt>
      <trkpt lat="42.89344" lon="1.17782">
        <ele>829.8</ele>
        <time>2025-06-22T10:24:01Z</time>
      </trkpt>
      <trkpt lat="42.89339" lon="1.17782">
        <ele>829.4</ele>
        <time>2025-06-22T10:24:02Z</time>
      </trkpt>
      <trkpt lat="42.89335" lon="1.17781">
        <ele>828.2</ele>
        <time>2025-06-22T10:24:03Z</time>
      </trkpt>
      <trkpt lat="42.89333" lon="1.17779">
        <ele>827.6</ele>
        <time>2025-06-22T10:24:04Z</time>
      </trkpt>
      <trkpt lat="42.89331" lon="1.17776">
        <ele>827</ele>
        <time>2025-06-22T10:24:05Z</time>
      </trkpt>
      <trkpt lat="42.89328" lon="1.17773">
        <ele>826.2</ele>
        <time>2025-06-22T10:24:06Z</time>
      </trkpt>
      <trkpt lat="42.89324" lon="1.1777">
        <ele>825.6</ele>
        <time>2025-06-22T10:24:07Z</time>
      </trkpt>
      <trkpt lat="42.89321" lon="1.17767">
        <ele>825</ele>
        <time>2025-06-22T10:24:08Z</time>
      </trkpt>
      <trkpt lat="42.89317" lon="1.17764">
        <ele>824.4</ele>
        <time>2025-06-22T10:24:09Z</time>
      </trkpt>
      <trkpt lat="42.89314" lon="1.17762">
        <ele>823.8</ele>
        <time>2025-06-22T10:24:10Z</time>
      </trkpt>
      <trkpt lat="42.8931" lon="1.17761">
        <ele>823.2</ele>
        <time>2025-06-22T10:24:11Z</time>
      </trkpt>
      <trkpt lat="42.89296" lon="1.17758">
        <ele>823.2</ele>
        <time>2025-06-22T10:24:14Z</time>
      </trkpt>
      <trkpt lat="42.8927" lon="1.1776">
        <ele>823.2</ele>
        <time>2025-06-22T10:24:19Z</time>
      </trkpt>
      <trkpt lat="42.89245" lon="1.17762">
        <ele>823.2</ele>
        <time>2025-06-22T10:24:25Z</time>
      </trkpt>
      <trkpt lat="42.8923" lon="1.17762">
        <ele>823.2</ele>
        <time>2025-06-22T10:24:29Z</time>
      </trkpt>
      <trkpt lat="42.89227" lon="1.17762">
        <ele>823.6</ele>
        <time>2025-06-22T10:24:30Z</time>
      </trkpt>
      <trkpt lat="42.89225" lon="1.17763">
        <ele>824</ele>
        <time>2025-06-22T10:24:31Z</time>
      </trkpt>
      <trkpt lat="42.89224" lon="1.17766">
        <ele>824.6</ele>
        <time>2025-06-22T10:24:32Z</time>
      </trkpt>
      <trkpt lat="42.89223" lon="1.17767">
        <ele>825</ele>
        <time>2025-06-22T10:24:33Z</time>
      </trkpt>
      <trkpt lat="42.89222" lon="1.17769">
        <ele>825.4</ele>
        <time>2025-06-22T10:24:34Z</time>
      </trkpt>
      <trkpt lat="42.89216" lon="1.17778">
        <ele>825.4</ele>
        <time>2025-06-22T10:24:38Z</time>
      </trkpt>
      <trkpt lat="42.89208" lon="1.17798">
        <ele>825.4</ele>
        <time>2025-06-22T10:24:44Z</time>
      </trkpt>
      <trkpt lat="42.89197" lon="1.17819">
        <ele>825.8</ele>
        <time>2025-06-22T10:24:49Z</time>
      </trkpt>
      <trkpt lat="42.89194" lon="1.17826">
        <ele>826.2</ele>
        <time>2025-06-22T10:24:50Z</time>
      </trkpt>
      <trkpt lat="42.89191" lon="1.17832">
        <ele>826.6</ele>
        <time>2025-06-22T10:24:51Z</time>
      </trkpt>
      <trkpt lat="42.89187" lon="1.17838">
        <ele>827.4</ele>
        <time>2025-06-22T10:24:52Z</time>
      </trkpt>
      <trkpt lat="42.89174" lon="1.17855">
        <ele>827.4</ele>
        <time>2025-06-22T10:24:56Z</time>
      </trkpt>
      <trkpt lat="42.89167" lon="1.17867">
        <ele>827.8</ele>
        <time>2025-06-22T10:24:59Z</time>
      </trkpt>
      <trkpt lat="42.89164" lon="1.17872">
        <ele>828.2</ele>
        <time>2025-06-22T10:25:00Z</time>
      </trkpt>
      <trkpt lat="42.89162" lon="1.17876">
        <ele>828.8</ele>
        <time>2025-06-22T10:25:01Z</time>
      </trkpt>
      <trkpt lat="42.89158" lon="1.17881">
        <ele>829.2</ele>
        <time>2025-06-22T10:25:02Z</time>
      </trkpt>
      <trkpt lat="42.89155" lon="1.17886">
        <ele>829.6</ele>
        <time>2025-06-22T10:25:03Z</time>
      </trkpt>
      <trkpt lat="42.8914" lon="1.17906">
        <ele>829.6</ele>
        <time>2025-06-22T10:25:07Z</time>
      </trkpt>
      <trkpt lat="42.89132" lon="1.17919">
        <ele>829.6</ele>
        <time>2025-06-22T10:25:10Z</time>
      </trkpt>
      <trkpt lat="42.89127" lon="1.17923">
        <ele>829.6</ele>
        <time>2025-06-22T10:25:11Z</time>
      </trkpt>
      <trkpt lat="42.89115" lon="1.17935">
        <ele>829.2</ele>
        <time>2025-06-22T10:25:14Z</time>
      </trkpt>
      <trkpt lat="42.89113" lon="1.1794">
        <ele>828.8</ele>
        <time>2025-06-22T10:25:15Z</time>
      </trkpt>
      <trkpt lat="42.89111" lon="1.17944">
        <ele>828.4</ele>
        <time>2025-06-22T10:25:16Z</time>
      </trkpt>
      <trkpt lat="42.89107" lon="1.17947">
        <ele>826.8</ele>
        <time>2025-06-22T10:25:17Z</time>
      </trkpt>
      <trkpt lat="42.89104" lon="1.17948">
        <ele>826.2</ele>
        <time>2025-06-22T10:25:18Z</time>
      </trkpt>
      <trkpt lat="42.891" lon="1.17948">
        <ele>825.4</ele>
        <time>2025-06-22T10:25:19Z</time>
      </trkpt>
      <trkpt lat="42.89096" lon="1.17946">
        <ele>824.6</ele>
        <time>2025-06-22T10:25:20Z</time>
      </trkpt>
      <trkpt lat="42.89092" lon="1.17944">
        <ele>823.6</ele>
        <time>2025-06-22T10:25:21Z</time>
      </trkpt>
      <trkpt lat="42.89087" lon="1.17942">
        <ele>822.8</ele>
        <time>2025-06-22T10:25:22Z</time>
      </trkpt>
      <trkpt lat="42.89083" lon="1.17939">
        <ele>822.2</ele>
        <time>2025-06-22T10:25:23Z</time>
      </trkpt>
      <trkpt lat="42.89077" lon="1.17936">
        <ele>821.6</ele>
        <time>2025-06-22T10:25:24Z</time>
      </trkpt>
      <trkpt lat="42.89072" lon="1.17933">
        <ele>821</ele>
        <time>2025-06-22T10:25:25Z</time>
      </trkpt>
      <trkpt lat="42.89066" lon="1.17931">
        <ele>820.4</ele>
        <time>2025-06-22T10:25:26Z</time>
      </trkpt>
      <trkpt lat="42.8906" lon="1.17931">
        <ele>819.8</ele>
        <time>2025-06-22T10:25:27Z</time>
      </trkpt>
      <trkpt lat="42.89054" lon="1.17931">
        <ele>819.2</ele>
        <time>2025-06-22T10:25:28Z</time>
      </trkpt>
      <trkpt lat="42.89049" lon="1.1793">
        <ele>818.8</ele>
        <time>2025-06-22T10:25:29Z</time>
      </trkpt>
      <trkpt lat="42.89043" lon="1.1793">
        <ele>818</ele>
        <time>2025-06-22T10:25:30Z</time>
      </trkpt>
      <trkpt lat="42.89037" lon="1.1793">
        <ele>817.4</ele>
        <time>2025-06-22T10:25:31Z</time>
      </trkpt>
      <trkpt lat="42.8903" lon="1.17931">
        <ele>816.6</ele>
        <time>2025-06-22T10:25:32Z</time>
      </trkpt>
      <trkpt lat="42.89024" lon="1.17934">
        <ele>816</ele>
        <time>2025-06-22T10:25:33Z</time>
      </trkpt>
      <trkpt lat="42.89017" lon="1.17937">
        <ele>815.4</ele>
        <time>2025-06-22T10:25:34Z</time>
      </trkpt>
      <trkpt lat="42.89011" lon="1.17941">
        <ele>814.6</ele>
        <time>2025-06-22T10:25:35Z</time>
      </trkpt>
      <trkpt lat="42.89005" lon="1.17944">
        <ele>814</ele>
        <time>2025-06-22T10:25:36Z</time>
      </trkpt>
      <trkpt lat="42.88999" lon="1.17949">
        <ele>813.2</ele>
        <time>2025-06-22T10:25:37Z</time>
      </trkpt>
      <trkpt lat="42.88986" lon="1.17962">
        <ele>813.2</ele>
        <time>2025-06-22T10:25:39Z</time>
      </trkpt>
      <trkpt lat="42.88979" lon="1.17968">
        <ele>812.8</ele>
        <time>2025-06-22T10:25:40Z</time>
      </trkpt>
      <trkpt lat="42.88972" lon="1.17974">
        <ele>811.8</ele>
        <time>2025-06-22T10:25:41Z</time>
      </trkpt>
      <trkpt lat="42.88964" lon="1.1798">
        <ele>811.2</ele>
        <time>2025-06-22T10:25:42Z</time>
      </trkpt>
      <trkpt lat="42.88957" lon="1.17986">
        <ele>810.8</ele>
        <time>2025-06-22T10:25:43Z</time>
      </trkpt>
      <trkpt lat="42.88949" lon="1.1799">
        <ele>810.4</ele>
        <time>2025-06-22T10:25:44Z</time>
      </trkpt>
      <trkpt lat="42.88942" lon="1.17995">
        <ele>809.8</ele>
        <time>2025-06-22T10:25:45Z</time>
      </trkpt>
      <trkpt lat="42.88935" lon="1.17997">
        <ele>809.4</ele>
        <time>2025-06-22T10:25:46Z</time>
      </trkpt>
      <trkpt lat="42.88929" lon="1.18">
        <ele>809</ele>
        <time>2025-06-22T10:25:47Z</time>
      </trkpt>
      <trkpt lat="42.88924" lon="1.18002">
        <ele>808.6</ele>
        <time>2025-06-22T10:25:48Z</time>
      </trkpt>
      <trkpt lat="42.88919" lon="1.18003">
        <ele>808.6</ele>
        <time>2025-06-22T10:25:49Z</time>
      </trkpt>
      <trkpt lat="42.88914" lon="1.18004">
        <ele>808</ele>
        <time>2025-06-22T10:25:50Z</time>
      </trkpt>
      <trkpt lat="42.88908" lon="1.18004">
        <ele>807.6</ele>
        <time>2025-06-22T10:25:51Z</time>
      </trkpt>
      <trkpt lat="42.88902" lon="1.18005">
        <ele>807</ele>
        <time>2025-06-22T10:25:52Z</time>
      </trkpt>
      <trkpt lat="42.88897" lon="1.18006">
        <ele>806.2</ele>
        <time>2025-06-22T10:25:53Z</time>
      </trkpt>
      <trkpt lat="42.88891" lon="1.18009">
        <ele>805.6</ele>
        <time>2025-06-22T10:25:54Z</time>
      </trkpt>
      <trkpt lat="42.88885" lon="1.18013">
        <ele>804.8</ele>
        <time>2025-06-22T10:25:55Z</time>
      </trkpt>
      <trkpt lat="42.8888" lon="1.18017">
        <ele>804.2</ele>
        <time>2025-06-22T10:25:56Z</time>
      </trkpt>
      <trkpt lat="42.88874" lon="1.18022">
        <ele>803.4</ele>
        <time>2025-06-22T10:25:57Z</time>
      </trkpt>
      <trkpt lat="42.88868" lon="1.18028">
        <ele>802.8</ele>
        <time>2025-06-22T10:25:58Z</time>
      </trkpt>
      <trkpt lat="42.88861" lon="1.18032">
        <ele>802</ele>
        <time>2025-06-22T10:25:59Z</time>
      </trkpt>
      <trkpt lat="42.88854" lon="1.18037">
        <ele>801.4</ele>
        <time>2025-06-22T10:26:00Z</time>
      </trkpt>
      <trkpt lat="42.88847" lon="1.18041">
        <ele>800.8</ele>
        <time>2025-06-22T10:26:01Z</time>
      </trkpt>
      <trkpt lat="42.88841" lon="1.18046">
        <ele>800.2</ele>
        <time>2025-06-22T10:26:02Z</time>
      </trkpt>
      <trkpt lat="42.88835" lon="1.18052">
        <ele>799.6</ele>
        <time>2025-06-22T10:26:03Z</time>
      </trkpt>
      <trkpt lat="42.8883" lon="1.18058">
        <ele>799</ele>
        <time>2025-06-22T10:26:04Z</time>
      </trkpt>
      <trkpt lat="42.88825" lon="1.18065">
        <ele>799</ele>
        <time>2025-06-22T10:26:05Z</time>
      </trkpt>
      <trkpt lat="42.8881" lon="1.18085">
        <ele>798.6</ele>
        <time>2025-06-22T10:26:08Z</time>
      </trkpt>
      <trkpt lat="42.88805" lon="1.18091">
        <ele>798.2</ele>
        <time>2025-06-22T10:26:09Z</time>
      </trkpt>
      <trkpt lat="42.888" lon="1.18097">
        <ele>797.6</ele>
        <time>2025-06-22T10:26:10Z</time>
      </trkpt>
      <trkpt lat="42.88796" lon="1.18101">
        <ele>797</ele>
        <time>2025-06-22T10:26:11Z</time>
      </trkpt>
      <trkpt lat="42.88792" lon="1.18103">
        <ele>796.2</ele>
        <time>2025-06-22T10:26:12Z</time>
      </trkpt>
      <trkpt lat="42.88789" lon="1.18104">
        <ele>795.4</ele>
        <time>2025-06-22T10:26:13Z</time>
      </trkpt>
      <trkpt lat="42.88785" lon="1.18106">
        <ele>794.6</ele>
        <time>2025-06-22T10:26:14Z</time>
      </trkpt>
      <trkpt lat="42.88781" lon="1.18105">
        <ele>794</ele>
        <time>2025-06-22T10:26:15Z</time>
      </trkpt>
      <trkpt lat="42.88777" lon="1.18104">
        <ele>793.2</ele>
        <time>2025-06-22T10:26:16Z</time>
      </trkpt>
      <trkpt lat="42.88774" lon="1.18104">
        <ele>792.6</ele>
        <time>2025-06-22T10:26:17Z</time>
      </trkpt>
      <trkpt lat="42.8877" lon="1.18104">
        <ele>791.6</ele>
        <time>2025-06-22T10:26:18Z</time>
      </trkpt>
      <trkpt lat="42.88765" lon="1.18104">
        <ele>790.8</ele>
        <time>2025-06-22T10:26:19Z</time>
      </trkpt>
      <trkpt lat="42.8876" lon="1.18103">
        <ele>789.6</ele>
        <time>2025-06-22T10:26:20Z</time>
      </trkpt>
      <trkpt lat="42.88756" lon="1.18102">
        <ele>788.6</ele>
        <time>2025-06-22T10:26:21Z</time>
      </trkpt>
      <trkpt lat="42.88752" lon="1.18103">
        <ele>787.4</ele>
        <time>2025-06-22T10:26:22Z</time>
      </trkpt>
      <trkpt lat="42.88747" lon="1.18103">
        <ele>786.2</ele>
        <time>2025-06-22T10:26:23Z</time>
      </trkpt>
      <trkpt lat="42.88742" lon="1.18102">
        <ele>784.8</ele>
        <time>2025-06-22T10:26:24Z</time>
      </trkpt>
      <trkpt lat="42.88736" lon="1.18103">
        <ele>783.6</ele>
        <time>2025-06-22T10:26:25Z</time>
      </trkpt>
      <trkpt lat="42.88731" lon="1.18104">
        <ele>782.2</ele>
        <time>2025-06-22T10:26:26Z</time>
      </trkpt>
      <trkpt lat="42.88725" lon="1.18105">
        <ele>781</ele>
        <time>2025-06-22T10:26:27Z</time>
      </trkpt>
      <trkpt lat="42.88719" lon="1.18107">
        <ele>779.6</ele>
        <time>2025-06-22T10:26:28Z</time>
      </trkpt>
      <trkpt lat="42.88702" lon="1.18111">
        <ele>778.8</ele>
        <time>2025-06-22T10:26:31Z</time>
      </trkpt>
      <trkpt lat="42.88695" lon="1.18114">
        <ele>778.4</ele>
        <time>2025-06-22T10:26:32Z</time>
      </trkpt>
      <trkpt lat="42.88689" lon="1.18116">
        <ele>777.8</ele>
        <time>2025-06-22T10:26:33Z</time>
      </trkpt>
      <trkpt lat="42.88683" lon="1.18118">
        <ele>777.4</ele>
        <time>2025-06-22T10:26:34Z</time>
      </trkpt>
      <trkpt lat="42.88674" lon="1.18127">
        <ele>777.4</ele>
        <time>2025-06-22T10:26:37Z</time>
      </trkpt>
      <trkpt lat="42.88667" lon="1.18138">
        <ele>777.4</ele>
        <time>2025-06-22T10:26:39Z</time>
      </trkpt>
      <trkpt lat="42.88661" lon="1.18142">
        <ele>777</ele>
        <time>2025-06-22T10:26:40Z</time>
      </trkpt>
      <trkpt lat="42.88656" lon="1.18145">
        <ele>776.6</ele>
        <time>2025-06-22T10:26:41Z</time>
      </trkpt>
      <trkpt lat="42.88652" lon="1.18149">
        <ele>776.2</ele>
        <time>2025-06-22T10:26:42Z</time>
      </trkpt>
      <trkpt lat="42.88648" lon="1.18153">
        <ele>775.8</ele>
        <time>2025-06-22T10:26:43Z</time>
      </trkpt>
      <trkpt lat="42.88643" lon="1.18157">
        <ele>775.4</ele>
        <time>2025-06-22T10:26:44Z</time>
      </trkpt>
      <trkpt lat="42.88637" lon="1.18161">
        <ele>775.4</ele>
        <time>2025-06-22T10:26:45Z</time>
      </trkpt>
      <trkpt lat="42.88623" lon="1.18173">
        <ele>775.4</ele>
        <time>2025-06-22T10:26:49Z</time>
      </trkpt>
      <trkpt lat="42.88622" lon="1.18174">
        <ele>775.4</ele>
        <time>2025-06-22T10:26:50Z</time>
      </trkpt>
      <trkpt lat="42.88618" lon="1.18181">
        <ele>775.4</ele>
        <time>2025-06-22T10:26:58Z</time>
      </trkpt>
      <trkpt lat="42.88618" lon="1.18187">
        <ele>774.8</ele>
        <time>2025-06-22T10:27:00Z</time>
      </trkpt>
      <trkpt lat="42.88618" lon="1.18189">
        <ele>774.2</ele>
        <time>2025-06-22T10:27:01Z</time>
      </trkpt>
      <trkpt lat="42.88617" lon="1.18191">
        <ele>773.6</ele>
        <time>2025-06-22T10:27:02Z</time>
      </trkpt>
      <trkpt lat="42.88616" lon="1.18194">
        <ele>773.2</ele>
        <time>2025-06-22T10:27:03Z</time>
      </trkpt>
      <trkpt lat="42.88615" lon="1.18196">
        <ele>772.6</ele>
        <time>2025-06-22T10:27:04Z</time>
      </trkpt>
      <trkpt lat="42.88612" lon="1.18199">
        <ele>772.2</ele>
        <time>2025-06-22T10:27:06Z</time>
      </trkpt>
      <trkpt lat="42.88612" lon="1.18199">
        <ele>771.6</ele>
        <time>2025-06-22T10:27:07Z</time>
      </trkpt>
      <trkpt lat="42.88608" lon="1.18202">
        <ele>770.4</ele>
        <time>2025-06-22T10:29:16Z</time>
      </trkpt>
      <trkpt lat="42.88606" lon="1.18202">
        <ele>770.4</ele>
        <time>2025-06-22T10:29:17Z</time>
      </trkpt>
      <trkpt lat="42.88599" lon="1.18197">
        <ele>770.4</ele>
        <time>2025-06-22T10:29:21Z</time>
      </trkpt>
      <trkpt lat="42.88593" lon="1.1819">
        <ele>770</ele>
        <time>2025-06-22T10:29:23Z</time>
      </trkpt>
      <trkpt lat="42.88589" lon="1.18186">
        <ele>769.6</ele>
        <time>2025-06-22T10:29:24Z</time>
      </trkpt>
      <trkpt lat="42.88585" lon="1.18182">
        <ele>769</ele>
        <time>2025-06-22T10:29:25Z</time>
      </trkpt>
      <trkpt lat="42.88581" lon="1.18179">
        <ele>768.2</ele>
        <time>2025-06-22T10:29:26Z</time>
      </trkpt>
      <trkpt lat="42.88578" lon="1.18175">
        <ele>767.6</ele>
        <time>2025-06-22T10:29:27Z</time>
      </trkpt>
      <trkpt lat="42.88573" lon="1.18172">
        <ele>766.6</ele>
        <time>2025-06-22T10:29:28Z</time>
      </trkpt>
      <trkpt lat="42.88567" lon="1.1817">
        <ele>765.6</ele>
        <time>2025-06-22T10:29:29Z</time>
      </trkpt>
      <trkpt lat="42.88561" lon="1.18172">
        <ele>764.6</ele>
        <time>2025-06-22T10:29:30Z</time>
      </trkpt>
      <trkpt lat="42.88553" lon="1.18173">
        <ele>763.6</ele>
        <time>2025-06-22T10:29:31Z</time>
      </trkpt>
      <trkpt lat="42.88545" lon="1.18175">
        <ele>762.6</ele>
        <time>2025-06-22T10:29:32Z</time>
      </trkpt>
      <trkpt lat="42.88538" lon="1.18177">
        <ele>761.4</ele>
        <time>2025-06-22T10:29:33Z</time>
      </trkpt>
      <trkpt lat="42.88529" lon="1.18181">
        <ele>760.4</ele>
        <time>2025-06-22T10:29:34Z</time>
      </trkpt>
      <trkpt lat="42.88518" lon="1.18185">
        <ele>759.2</ele>
        <time>2025-06-22T10:29:35Z</time>
      </trkpt>
      <trkpt lat="42.88506" lon="1.1819">
        <ele>758</ele>
        <time>2025-06-22T10:29:36Z</time>
      </trkpt>
      <trkpt lat="42.88495" lon="1.18194">
        <ele>756.8</ele>
        <time>2025-06-22T10:29:37Z</time>
      </trkpt>
      <trkpt lat="42.88484" lon="1.18197">
        <ele>755.6</ele>
        <time>2025-06-22T10:29:38Z</time>
      </trkpt>
      <trkpt lat="42.88473" lon="1.18201">
        <ele>754.2</ele>
        <time>2025-06-22T10:29:39Z</time>
      </trkpt>
      <trkpt lat="42.88463" lon="1.18207">
        <ele>752.8</ele>
        <time>2025-06-22T10:29:40Z</time>
      </trkpt>
      <trkpt lat="42.88454" lon="1.18215">
        <ele>751.6</ele>
        <time>2025-06-22T10:29:41Z</time>
      </trkpt>
      <trkpt lat="42.88443" lon="1.18221">
        <ele>750.2</ele>
        <time>2025-06-22T10:29:42Z</time>
      </trkpt>
      <trkpt lat="42.8843" lon="1.18228">
        <ele>748.8</ele>
        <time>2025-06-22T10:29:43Z</time>
      </trkpt>
      <trkpt lat="42.8842" lon="1.18235">
        <ele>747.6</ele>
        <time>2025-06-22T10:29:44Z</time>
      </trkpt>
      <trkpt lat="42.8841" lon="1.18241">
        <ele>746.4</ele>
        <time>2025-06-22T10:29:45Z</time>
      </trkpt>
      <trkpt lat="42.88399" lon="1.18246">
        <ele>745.2</ele>
        <time>2025-06-22T10:29:46Z</time>
      </trkpt>
      <trkpt lat="42.88389" lon="1.18251">
        <ele>744</ele>
        <time>2025-06-22T10:29:47Z</time>
      </trkpt>
      <trkpt lat="42.88379" lon="1.18256">
        <ele>742.6</ele>
        <time>2025-06-22T10:29:48Z</time>
      </trkpt>
      <trkpt lat="42.88371" lon="1.18261">
        <ele>741.8</ele>
        <time>2025-06-22T10:29:49Z</time>
      </trkpt>
      <trkpt lat="42.88363" lon="1.18266">
        <ele>741.2</ele>
        <time>2025-06-22T10:29:50Z</time>
      </trkpt>
      <trkpt lat="42.88355" lon="1.18271">
        <ele>740.4</ele>
        <time>2025-06-22T10:29:51Z</time>
      </trkpt>
      <trkpt lat="42.88342" lon="1.18281">
        <ele>740.4</ele>
        <time>2025-06-22T10:29:53Z</time>
      </trkpt>
      <trkpt lat="42.88328" lon="1.18288">
        <ele>740.4</ele>
        <time>2025-06-22T10:29:56Z</time>
      </trkpt>
      <trkpt lat="42.88313" lon="1.18297">
        <ele>740.4</ele>
        <time>2025-06-22T10:30:00Z</time>
      </trkpt>
      <trkpt lat="42.8831" lon="1.183">
        <ele>740.8</ele>
        <time>2025-06-22T10:30:01Z</time>
      </trkpt>
      <trkpt lat="42.88307" lon="1.18303">
        <ele>741.2</ele>
        <time>2025-06-22T10:30:02Z</time>
      </trkpt>
      <trkpt lat="42.88303" lon="1.18305">
        <ele>741.6</ele>
        <time>2025-06-22T10:30:03Z</time>
      </trkpt>
      <trkpt lat="42.88301" lon="1.18307">
        <ele>742</ele>
        <time>2025-06-22T10:30:04Z</time>
      </trkpt>
      <trkpt lat="42.88297" lon="1.1831">
        <ele>742.4</ele>
        <time>2025-06-22T10:30:05Z</time>
      </trkpt>
      <trkpt lat="42.88294" lon="1.18313">
        <ele>742.4</ele>
        <time>2025-06-22T10:30:06Z</time>
      </trkpt>
      <trkpt lat="42.88287" lon="1.1832">
        <ele>743</ele>
        <time>2025-06-22T10:30:08Z</time>
      </trkpt>
      <trkpt lat="42.88284" lon="1.18323">
        <ele>743.4</ele>
        <time>2025-06-22T10:30:09Z</time>
      </trkpt>
      <trkpt lat="42.8828" lon="1.18326">
        <ele>743.8</ele>
        <time>2025-06-22T10:30:10Z</time>
      </trkpt>
      <trkpt lat="42.88277" lon="1.18329">
        <ele>744.2</ele>
        <time>2025-06-22T10:30:11Z</time>
      </trkpt>
      <trkpt lat="42.88274" lon="1.18333">
        <ele>744.6</ele>
        <time>2025-06-22T10:30:12Z</time>
      </trkpt>
      <trkpt lat="42.88269" lon="1.1834">
        <ele>744.6</ele>
        <time>2025-06-22T10:30:14Z</time>
      </trkpt>
      <trkpt lat="42.88259" lon="1.18365">
        <ele>744.6</ele>
        <time>2025-06-22T10:30:20Z</time>
      </trkpt>
      <trkpt lat="42.88244" lon="1.18393">
        <ele>744.6</ele>
        <time>2025-06-22T10:30:26Z</time>
      </trkpt>
      <trkpt lat="42.88235" lon="1.18408">
        <ele>744.2</ele>
        <time>2025-06-22T10:30:28Z</time>
      </trkpt>
      <trkpt lat="42.88229" lon="1.18418">
        <ele>743.8</ele>
        <time>2025-06-22T10:30:29Z</time>
      </trkpt>
      <trkpt lat="42.88223" lon="1.18426">
        <ele>743.4</ele>
        <time>2025-06-22T10:30:30Z</time>
      </trkpt>
      <trkpt lat="42.88218" lon="1.18436">
        <ele>742.6</ele>
        <time>2025-06-22T10:30:31Z</time>
      </trkpt>
      <trkpt lat="42.88213" lon="1.18445">
        <ele>741.8</ele>
        <time>2025-06-22T10:30:32Z</time>
      </trkpt>
      <trkpt lat="42.88209" lon="1.18454">
        <ele>741.2</ele>
        <time>2025-06-22T10:30:33Z</time>
      </trkpt>
      <trkpt lat="42.88206" lon="1.18464">
        <ele>740.4</ele>
        <time>2025-06-22T10:30:34Z</time>
      </trkpt>
      <trkpt lat="42.88204" lon="1.18473">
        <ele>739.8</ele>
        <time>2025-06-22T10:30:35Z</time>
      </trkpt>
      <trkpt lat="42.88203" lon="1.18479">
        <ele>739</ele>
        <time>2025-06-22T10:30:36Z</time>
      </trkpt>
      <trkpt lat="42.88202" lon="1.18484">
        <ele>738.4</ele>
        <time>2025-06-22T10:30:37Z</time>
      </trkpt>
      <trkpt lat="42.88202" lon="1.18487">
        <ele>737.6</ele>
        <time>2025-06-22T10:30:38Z</time>
      </trkpt>
      <trkpt lat="42.882" lon="1.18489">
        <ele>737.6</ele>
        <time>2025-06-22T10:30:40Z</time>
      </trkpt>
      <trkpt lat="42.882" lon="1.18496">
        <ele>737.6</ele>
        <time>2025-06-22T10:32:41Z</time>
      </trkpt>
      <trkpt lat="42.882" lon="1.18498">
        <ele>737.6</ele>
        <time>2025-06-22T10:32:42Z</time>
      </trkpt>
      <trkpt lat="42.88202" lon="1.185">
        <ele>737.6</ele>
        <time>2025-06-22T10:32:44Z</time>
      </trkpt>
      <trkpt lat="42.88205" lon="1.18503">
        <ele>737.6</ele>
        <time>2025-06-22T10:32:46Z</time>
      </trkpt>
      <trkpt lat="42.88211" lon="1.18507">
        <ele>737.6</ele>
        <time>2025-06-22T10:32:50Z</time>
      </trkpt>
      <trkpt lat="42.88213" lon="1.1851">
        <ele>737.6</ele>
        <time>2025-06-22T10:32:51Z</time>
      </trkpt>
      <trkpt lat="42.88218" lon="1.18517">
        <ele>737.6</ele>
        <time>2025-06-22T10:32:56Z</time>
      </trkpt>
      <trkpt lat="42.88219" lon="1.1852">
        <ele>737.6</ele>
        <time>2025-06-22T10:33:50Z</time>
      </trkpt>
      <trkpt lat="42.88221" lon="1.18524">
        <ele>737.6</ele>
        <time>2025-06-22T10:33:53Z</time>
      </trkpt>
      <trkpt lat="42.88223" lon="1.18531">
        <ele>737.2</ele>
        <time>2025-06-22T10:33:55Z</time>
      </trkpt>
      <trkpt lat="42.88225" lon="1.18534">
        <ele>736.8</ele>
        <time>2025-06-22T10:33:56Z</time>
      </trkpt>
      <trkpt lat="42.88226" lon="1.18537">
        <ele>736.4</ele>
        <time>2025-06-22T10:33:57Z</time>
      </trkpt>
      <trkpt lat="42.88226" lon="1.18539">
        <ele>735.8</ele>
        <time>2025-06-22T10:33:58Z</time>
      </trkpt>
      <trkpt lat="42.88227" lon="1.18542">
        <ele>735.4</ele>
        <time>2025-06-22T10:33:59Z</time>
      </trkpt>
      <trkpt lat="42.88228" lon="1.18544">
        <ele>735</ele>
        <time>2025-06-22T10:34:00Z</time>
      </trkpt>
      <trkpt lat="42.88228" lon="1.18547">
        <ele>734.6</ele>
        <time>2025-06-22T10:34:01Z</time>
      </trkpt>
      <trkpt lat="42.88229" lon="1.1855">
        <ele>734.2</ele>
        <time>2025-06-22T10:34:02Z</time>
      </trkpt>
      <trkpt lat="42.8823" lon="1.18553">
        <ele>733.8</ele>
        <time>2025-06-22T10:34:03Z</time>
      </trkpt>
      <trkpt lat="42.88232" lon="1.18556">
        <ele>733.2</ele>
        <time>2025-06-22T10:34:04Z</time>
      </trkpt>
      <trkpt lat="42.88233" lon="1.18558">
        <ele>732.6</ele>
        <time>2025-06-22T10:34:05Z</time>
      </trkpt>
      <trkpt lat="42.88234" lon="1.1856">
        <ele>732</ele>
        <time>2025-06-22T10:34:06Z</time>
      </trkpt>
      <trkpt lat="42.88236" lon="1.18565">
        <ele>731.6</ele>
        <time>2025-06-22T10:34:07Z</time>
      </trkpt>
      <trkpt lat="42.88237" lon="1.18568">
        <ele>731</ele>
        <time>2025-06-22T10:34:08Z</time>
      </trkpt>
      <trkpt lat="42.88237" lon="1.1857">
        <ele>730.4</ele>
        <time>2025-06-22T10:34:09Z</time>
      </trkpt>
      <trkpt lat="42.88238" lon="1.18573">
        <ele>730</ele>
        <time>2025-06-22T10:34:10Z</time>
      </trkpt>
      <trkpt lat="42.88238" lon="1.18576">
        <ele>729.4</ele>
        <time>2025-06-22T10:34:11Z</time>
      </trkpt>
      <trkpt lat="42.88239" lon="1.1858">
        <ele>729</ele>
        <time>2025-06-22T10:34:12Z</time>
      </trkpt>
      <trkpt lat="42.88245" lon="1.18596">
        <ele>729</ele>
        <time>2025-06-22T10:34:16Z</time>
      </trkpt>
      <trkpt lat="42.88251" lon="1.18615">
        <ele>729</ele>
        <time>2025-06-22T10:34:22Z</time>
      </trkpt>
      <trkpt lat="42.88253" lon="1.18627">
        <ele>729.4</ele>
        <time>2025-06-22T10:34:26Z</time>
      </trkpt>
      <trkpt lat="42.88254" lon="1.18629">
        <ele>729.8</ele>
        <time>2025-06-22T10:34:27Z</time>
      </trkpt>
      <trkpt lat="42.88254" lon="1.18631">
        <ele>730.2</ele>
        <time>2025-06-22T10:34:28Z</time>
      </trkpt>
      <trkpt lat="42.88256" lon="1.18636">
        <ele>730.6</ele>
        <time>2025-06-22T10:34:29Z</time>
      </trkpt>
      <trkpt lat="42.88258" lon="1.18643">
        <ele>731.2</ele>
        <time>2025-06-22T10:34:30Z</time>
      </trkpt>
      <trkpt lat="42.88263" lon="1.18653">
        <ele>731.2</ele>
        <time>2025-06-22T10:34:33Z</time>
      </trkpt>
      <trkpt lat="42.88264" lon="1.18667">
        <ele>731.2</ele>
        <time>2025-06-22T10:34:38Z</time>
      </trkpt>
      <trkpt lat="42.88267" lon="1.18676">
        <ele>731.2</ele>
        <time>2025-06-22T10:34:40Z</time>
      </trkpt>
      <trkpt lat="42.8827" lon="1.18685">
        <ele>731.6</ele>
        <time>2025-06-22T10:34:42Z</time>
      </trkpt>
      <trkpt lat="42.88271" lon="1.18689">
        <ele>732</ele>
        <time>2025-06-22T10:34:43Z</time>
      </trkpt>
      <trkpt lat="42.88272" lon="1.18693">
        <ele>732.4</ele>
        <time>2025-06-22T10:34:44Z</time>
      </trkpt>
      <trkpt lat="42.88274" lon="1.18696">
        <ele>733.4</ele>
        <time>2025-06-22T10:34:45Z</time>
      </trkpt>
      <trkpt lat="42.88279" lon="1.1871">
        <ele>733.8</ele>
        <time>2025-06-22T10:34:49Z</time>
      </trkpt>
      <trkpt lat="42.8828" lon="1.18714">
        <ele>734.2</ele>
        <time>2025-06-22T10:34:50Z</time>
      </trkpt>
      <trkpt lat="42.88281" lon="1.18718">
        <ele>734.6</ele>
        <time>2025-06-22T10:34:51Z</time>
      </trkpt>
      <trkpt lat="42.88281" lon="1.18722">
        <ele>735</ele>
        <time>2025-06-22T10:34:52Z</time>
      </trkpt>
      <trkpt lat="42.88281" lon="1.18725">
        <ele>735.4</ele>
        <time>2025-06-22T10:34:53Z</time>
      </trkpt>
      <trkpt lat="42.88282" lon="1.1873">
        <ele>735.4</ele>
        <time>2025-06-22T10:34:55Z</time>
      </trkpt>
      <trkpt lat="42.88282" lon="1.18737">
        <ele>735.4</ele>
        <time>2025-06-22T10:34:58Z</time>
      </trkpt>
      <trkpt lat="42.88284" lon="1.18744">
        <ele>735.4</ele>
        <time>2025-06-22T10:35:00Z</time>
      </trkpt>
      <trkpt lat="42.88281" lon="1.18758">
        <ele>735.4</ele>
        <time>2025-06-22T10:35:05Z</time>
      </trkpt>
      <trkpt lat="42.88279" lon="1.1877">
        <ele>735.4</ele>
        <time>2025-06-22T10:35:10Z</time>
      </trkpt>
      <trkpt lat="42.88278" lon="1.18773">
        <ele>735</ele>
        <time>2025-06-22T10:35:11Z</time>
      </trkpt>
      <trkpt lat="42.88276" lon="1.18776">
        <ele>734.6</ele>
        <time>2025-06-22T10:35:12Z</time>
      </trkpt>
      <trkpt lat="42.88275" lon="1.18778">
        <ele>734.2</ele>
        <time>2025-06-22T10:35:13Z</time>
      </trkpt>
      <trkpt lat="42.88274" lon="1.18779">
        <ele>733.8</ele>
        <time>2025-06-22T10:35:14Z</time>
      </trkpt>
      <trkpt lat="42.88273" lon="1.18783">
        <ele>733.2</ele>
        <time>2025-06-22T10:35:15Z</time>
      </trkpt>
      <trkpt lat="42.88272" lon="1.18788">
        <ele>732.8</ele>
        <time>2025-06-22T10:35:16Z</time>
      </trkpt>
      <trkpt lat="42.8827" lon="1.18792">
        <ele>732.2</ele>
        <time>2025-06-22T10:35:17Z</time>
      </trkpt>
      <trkpt lat="42.88268" lon="1.18797">
        <ele>731.6</ele>
        <time>2025-06-22T10:35:18Z</time>
      </trkpt>
      <trkpt lat="42.88267" lon="1.188">
        <ele>730.8</ele>
        <time>2025-06-22T10:35:19Z</time>
      </trkpt>
      <trkpt lat="42.88266" lon="1.18802">
        <ele>730.2</ele>
        <time>2025-06-22T10:35:20Z</time>
      </trkpt>
      <trkpt lat="42.88264" lon="1.18806">
        <ele>729.6</ele>
        <time>2025-06-22T10:35:21Z</time>
      </trkpt>
      <trkpt lat="42.88263" lon="1.1881">
        <ele>728.8</ele>
        <time>2025-06-22T10:35:22Z</time>
      </trkpt>
      <trkpt lat="42.8826" lon="1.1882">
        <ele>728.4</ele>
        <time>2025-06-22T10:35:24Z</time>
      </trkpt>
      <trkpt lat="42.8826" lon="1.18824">
        <ele>728</ele>
        <time>2025-06-22T10:35:25Z</time>
      </trkpt>
      <trkpt lat="42.88259" lon="1.1883">
        <ele>727.6</ele>
        <time>2025-06-22T10:35:26Z</time>
      </trkpt>
      <trkpt lat="42.88259" lon="1.18832">
        <ele>727.2</ele>
        <time>2025-06-22T10:35:27Z</time>
      </trkpt>
      <trkpt lat="42.8826" lon="1.18835">
        <ele>726.8</ele>
        <time>2025-06-22T10:35:28Z</time>
      </trkpt>
      <trkpt lat="42.88261" lon="1.18839">
        <ele>726.8</ele>
        <time>2025-06-22T10:35:29Z</time>
      </trkpt>
      <trkpt lat="42.88262" lon="1.18845">
        <ele>726.8</ele>
        <time>2025-06-22T10:35:31Z</time>
      </trkpt>
      <trkpt lat="42.88264" lon="1.18852">
        <ele>726.4</ele>
        <time>2025-06-22T10:35:33Z</time>
      </trkpt>
      <trkpt lat="42.88266" lon="1.18857">
        <ele>725.8</ele>
        <time>2025-06-22T10:35:34Z</time>
      </trkpt>
      <trkpt lat="42.88268" lon="1.18861">
        <ele>725.4</ele>
        <time>2025-06-22T10:35:35Z</time>
      </trkpt>
      <trkpt lat="42.8827" lon="1.18867">
        <ele>725</ele>
        <time>2025-06-22T10:35:36Z</time>
      </trkpt>
      <trkpt lat="42.88274" lon="1.18874">
        <ele>724.6</ele>
        <time>2025-06-22T10:35:37Z</time>
      </trkpt>
      <trkpt lat="42.88277" lon="1.18879">
        <ele>724.2</ele>
        <time>2025-06-22T10:35:38Z</time>
      </trkpt>
      <trkpt lat="42.8828" lon="1.18885">
        <ele>723.8</ele>
        <time>2025-06-22T10:35:39Z</time>
      </trkpt>
      <trkpt lat="42.88283" lon="1.1889">
        <ele>723.2</ele>
        <time>2025-06-22T10:35:40Z</time>
      </trkpt>
      <trkpt lat="42.88284" lon="1.18894">
        <ele>722.8</ele>
        <time>2025-06-22T10:35:41Z</time>
      </trkpt>
      <trkpt lat="42.88286" lon="1.18899">
        <ele>722.4</ele>
        <time>2025-06-22T10:35:42Z</time>
      </trkpt>
      <trkpt lat="42.88289" lon="1.18906">
        <ele>722</ele>
        <time>2025-06-22T10:35:44Z</time>
      </trkpt>
      <trkpt lat="42.88291" lon="1.1891">
        <ele>721.6</ele>
        <time>2025-06-22T10:35:45Z</time>
      </trkpt>
      <trkpt lat="42.88292" lon="1.18914">
        <ele>721.2</ele>
        <time>2025-06-22T10:35:46Z</time>
      </trkpt>
      <trkpt lat="42.88293" lon="1.18918">
        <ele>720.8</ele>
        <time>2025-06-22T10:35:47Z</time>
      </trkpt>
      <trkpt lat="42.88295" lon="1.18921">
        <ele>720.4</ele>
        <time>2025-06-22T10:35:48Z</time>
      </trkpt>
      <trkpt lat="42.88299" lon="1.1894">
        <ele>720.4</ele>
        <time>2025-06-22T10:35:53Z</time>
      </trkpt>
      <trkpt lat="42.88304" lon="1.18957">
        <ele>720</ele>
        <time>2025-06-22T10:35:59Z</time>
      </trkpt>
      <trkpt lat="42.88304" lon="1.18959">
        <ele>719.6</ele>
        <time>2025-06-22T10:36:00Z</time>
      </trkpt>
      <trkpt lat="42.88305" lon="1.18962">
        <ele>719.2</ele>
        <time>2025-06-22T10:36:01Z</time>
      </trkpt>
      <trkpt lat="42.88306" lon="1.18966">
        <ele>718.8</ele>
        <time>2025-06-22T10:36:02Z</time>
      </trkpt>
      <trkpt lat="42.88306" lon="1.18971">
        <ele>718.4</ele>
        <time>2025-06-22T10:36:03Z</time>
      </trkpt>
      <trkpt lat="42.88306" lon="1.18975">
        <ele>718.4</ele>
        <time>2025-06-22T10:36:04Z</time>
      </trkpt>
      <trkpt lat="42.88308" lon="1.18997">
        <ele>718.4</ele>
        <time>2025-06-22T10:36:12Z</time>
      </trkpt>
      <trkpt lat="42.88313" lon="1.19022">
        <ele>718.4</ele>
        <time>2025-06-22T10:36:18Z</time>
      </trkpt>
      <trkpt lat="42.88314" lon="1.19027">
        <ele>718</ele>
        <time>2025-06-22T10:36:20Z</time>
      </trkpt>
      <trkpt lat="42.88314" lon="1.19028">
        <ele>717.6</ele>
        <time>2025-06-22T10:36:21Z</time>
      </trkpt>
      <trkpt lat="42.88314" lon="1.19031">
        <ele>717.2</ele>
        <time>2025-06-22T10:36:22Z</time>
      </trkpt>
      <trkpt lat="42.88313" lon="1.19033">
        <ele>716.4</ele>
        <time>2025-06-22T10:36:23Z</time>
      </trkpt>
      <trkpt lat="42.88312" lon="1.19047">
        <ele>716.4</ele>
        <time>2025-06-22T10:36:27Z</time>
      </trkpt>
      <trkpt lat="42.88313" lon="1.19054">
        <ele>716.4</ele>
        <time>2025-06-22T10:36:29Z</time>
      </trkpt>
      <trkpt lat="42.88313" lon="1.19064">
        <ele>716.4</ele>
        <time>2025-06-22T10:36:34Z</time>
      </trkpt>
      <trkpt lat="42.88315" lon="1.19069">
        <ele>716.4</ele>
        <time>2025-06-22T10:36:35Z</time>
      </trkpt>
      <trkpt lat="42.88316" lon="1.1907">
        <ele>716</ele>
        <time>2025-06-22T10:36:36Z</time>
      </trkpt>
      <trkpt lat="42.88319" lon="1.19076">
        <ele>715.4</ele>
        <time>2025-06-22T10:36:37Z</time>
      </trkpt>
      <trkpt lat="42.8832" lon="1.19078">
        <ele>715</ele>
        <time>2025-06-22T10:36:38Z</time>
      </trkpt>
      <trkpt lat="42.88323" lon="1.19082">
        <ele>714.6</ele>
        <time>2025-06-22T10:36:39Z</time>
      </trkpt>
      <trkpt lat="42.88323" lon="1.19084">
        <ele>714.2</ele>
        <time>2025-06-22T10:36:40Z</time>
      </trkpt>
      <trkpt lat="42.88328" lon="1.191">
        <ele>714.2</ele>
        <time>2025-06-22T10:36:45Z</time>
      </trkpt>
      <trkpt lat="42.88341" lon="1.19134">
        <ele>703.6</ele>
        <time>2025-06-22T10:37:02Z</time>
      </trkpt>
      <trkpt lat="42.88341" lon="1.19139">
        <ele>702.8</ele>
        <time>2025-06-22T10:37:03Z</time>
      </trkpt>
      <trkpt lat="42.8834" lon="1.19144">
        <ele>702</ele>
        <time>2025-06-22T10:37:04Z</time>
      </trkpt>
      <trkpt lat="42.88338" lon="1.19145">
        <ele>701.4</ele>
        <time>2025-06-22T10:37:05Z</time>
      </trkpt>
      <trkpt lat="42.88337" lon="1.19149">
        <ele>700.6</ele>
        <time>2025-06-22T10:37:06Z</time>
      </trkpt>
      <trkpt lat="42.88337" lon="1.19152">
        <ele>699.8</ele>
        <time>2025-06-22T10:37:07Z</time>
      </trkpt>
      <trkpt lat="42.88336" lon="1.19158">
        <ele>699.4</ele>
        <time>2025-06-22T10:37:09Z</time>
      </trkpt>
      <trkpt lat="42.88336" lon="1.19162">
        <ele>699</ele>
        <time>2025-06-22T10:37:10Z</time>
      </trkpt>
      <trkpt lat="42.88337" lon="1.19165">
        <ele>698.6</ele>
        <time>2025-06-22T10:37:11Z</time>
      </trkpt>
      <trkpt lat="42.88337" lon="1.1917">
        <ele>697.8</ele>
        <time>2025-06-22T10:37:12Z</time>
      </trkpt>
      <trkpt lat="42.88349" lon="1.19198">
        <ele>697.8</ele>
        <time>2025-06-22T10:37:17Z</time>
      </trkpt>
      <trkpt lat="42.88389" lon="1.19272">
        <ele>697.8</ele>
        <time>2025-06-22T10:37:18Z</time>
      </trkpt>
      <trkpt lat="42.88391" lon="1.19283">
        <ele>697.8</ele>
        <time>2025-06-22T10:37:22Z</time>
      </trkpt>
      <trkpt lat="42.88391" lon="1.19289">
        <ele>697.8</ele>
        <time>2025-06-22T10:37:24Z</time>
      </trkpt>
      <trkpt lat="42.88391" lon="1.19294">
        <ele>698.2</ele>
        <time>2025-06-22T10:37:26Z</time>
      </trkpt>
      <trkpt lat="42.88391" lon="1.19296">
        <ele>698.6</ele>
        <time>2025-06-22T10:37:27Z</time>
      </trkpt>
      <trkpt lat="42.88392" lon="1.19298">
        <ele>699</ele>
        <time>2025-06-22T10:37:28Z</time>
      </trkpt>
      <trkpt lat="42.88393" lon="1.193">
        <ele>699.4</ele>
        <time>2025-06-22T10:37:29Z</time>
      </trkpt>
      <trkpt lat="42.88394" lon="1.19301">
        <ele>699.8</ele>
        <time>2025-06-22T10:37:30Z</time>
      </trkpt>
      <trkpt lat="42.88396" lon="1.19308">
        <ele>699.8</ele>
        <time>2025-06-22T10:37:33Z</time>
      </trkpt>
      <trkpt lat="42.88396" lon="1.19315">
        <ele>699.8</ele>
        <time>2025-06-22T10:37:35Z</time>
      </trkpt>
      <trkpt lat="42.88401" lon="1.19326">
        <ele>699.8</ele>
        <time>2025-06-22T10:37:40Z</time>
      </trkpt>
      <trkpt lat="42.88402" lon="1.19329">
        <ele>700.2</ele>
        <time>2025-06-22T10:37:41Z</time>
      </trkpt>
      <trkpt lat="42.88402" lon="1.1933">
        <ele>700.6</ele>
        <time>2025-06-22T10:37:42Z</time>
      </trkpt>
      <trkpt lat="42.88403" lon="1.19332">
        <ele>701.2</ele>
        <time>2025-06-22T10:37:43Z</time>
      </trkpt>
      <trkpt lat="42.88404" lon="1.19334">
        <ele>701.6</ele>
        <time>2025-06-22T10:37:44Z</time>
      </trkpt>
      <trkpt lat="42.88405" lon="1.19335">
        <ele>702</ele>
        <time>2025-06-22T10:37:45Z</time>
      </trkpt>
      <trkpt lat="42.88406" lon="1.1934">
        <ele>702</ele>
        <time>2025-06-22T10:37:47Z</time>
      </trkpt>
      <trkpt lat="42.88409" lon="1.1935">
        <ele>702</ele>
        <time>2025-06-22T10:37:53Z</time>
      </trkpt>
      <trkpt lat="42.88413" lon="1.19365">
        <ele>702</ele>
        <time>2025-06-22T10:37:59Z</time>
      </trkpt>
      <trkpt lat="42.88415" lon="1.19379">
        <ele>702</ele>
        <time>2025-06-22T10:38:04Z</time>
      </trkpt>
      <trkpt lat="42.88415" lon="1.1938">
        <ele>702</ele>
        <time>2025-06-22T10:38:05Z</time>
      </trkpt>
      <trkpt lat="42.88414" lon="1.19396">
        <ele>702</ele>
        <time>2025-06-22T10:38:11Z</time>
      </trkpt>
      <trkpt lat="42.88413" lon="1.19412">
        <ele>699.8</ele>
        <time>2025-06-22T10:40:52Z</time>
      </trkpt>
      <trkpt lat="42.88413" lon="1.19424">
        <ele>699</ele>
        <time>2025-06-22T10:40:54Z</time>
      </trkpt>
      <trkpt lat="42.88412" lon="1.19429">
        <ele>698.6</ele>
        <time>2025-06-22T10:40:55Z</time>
      </trkpt>
      <trkpt lat="42.88412" lon="1.19434">
        <ele>698.2</ele>
        <time>2025-06-22T10:40:56Z</time>
      </trkpt>
      <trkpt lat="42.88411" lon="1.19439">
        <ele>697.6</ele>
        <time>2025-06-22T10:40:57Z</time>
      </trkpt>
      <trkpt lat="42.88411" lon="1.19443">
        <ele>697.6</ele>
        <time>2025-06-22T10:41:00Z</time>
      </trkpt>
      <trkpt lat="42.88414" lon="1.19461">
        <ele>694.4</ele>
        <time>2025-06-22T10:42:21Z</time>
      </trkpt>
      <trkpt lat="42.88415" lon="1.19464">
        <ele>694</ele>
        <time>2025-06-22T10:42:22Z</time>
      </trkpt>
      <trkpt lat="42.88417" lon="1.19466">
        <ele>693.4</ele>
        <time>2025-06-22T10:42:23Z</time>
      </trkpt>
      <trkpt lat="42.88418" lon="1.19469">
        <ele>693</ele>
        <time>2025-06-22T10:42:25Z</time>
      </trkpt>
      <trkpt lat="42.88421" lon="1.19473">
        <ele>691.4</ele>
        <time>2025-06-22T10:43:23Z</time>
      </trkpt>
      <trkpt lat="42.88422" lon="1.19475">
        <ele>691</ele>
        <time>2025-06-22T10:43:24Z</time>
      </trkpt>
      <trkpt lat="42.88423" lon="1.19476">
        <ele>690.6</ele>
        <time>2025-06-22T10:43:25Z</time>
      </trkpt>
      <trkpt lat="42.88425" lon="1.19478">
        <ele>690.2</ele>
        <time>2025-06-22T10:43:26Z</time>
      </trkpt>
      <trkpt lat="42.88426" lon="1.19482">
        <ele>689.8</ele>
        <time>2025-06-22T10:43:27Z</time>
      </trkpt>
      <trkpt lat="42.88428" lon="1.19487">
        <ele>689.2</ele>
        <time>2025-06-22T10:43:28Z</time>
      </trkpt>
      <trkpt lat="42.8843" lon="1.19492">
        <ele>689.2</ele>
        <time>2025-06-22T10:43:29Z</time>
      </trkpt>
      <trkpt lat="42.88432" lon="1.19496">
        <ele>688.8</ele>
        <time>2025-06-22T10:43:30Z</time>
      </trkpt>
      <trkpt lat="42.88435" lon="1.195">
        <ele>688.4</ele>
        <time>2025-06-22T10:43:31Z</time>
      </trkpt>
      <trkpt lat="42.88437" lon="1.19503">
        <ele>688</ele>
        <time>2025-06-22T10:43:32Z</time>
      </trkpt>
      <trkpt lat="42.88438" lon="1.19505">
        <ele>687.6</ele>
        <time>2025-06-22T10:43:33Z</time>
      </trkpt>
      <trkpt lat="42.88439" lon="1.19509">
        <ele>687.2</ele>
        <time>2025-06-22T10:43:34Z</time>
      </trkpt>
      <trkpt lat="42.88441" lon="1.19512">
        <ele>687.2</ele>
        <time>2025-06-22T10:43:35Z</time>
      </trkpt>
      <trkpt lat="42.88442" lon="1.19515">
        <ele>687.2</ele>
        <time>2025-06-22T10:43:36Z</time>
      </trkpt>
      <trkpt lat="42.88441" lon="1.19517">
        <ele>687.2</ele>
        <time>2025-06-22T10:43:37Z</time>
      </trkpt>
      <trkpt lat="42.88442" lon="1.19521">
        <ele>687.2</ele>
        <time>2025-06-22T10:44:18Z</time>
      </trkpt>
      <trkpt lat="42.88448" lon="1.19528">
        <ele>687.2</ele>
        <time>2025-06-22T10:44:21Z</time>
      </trkpt>
      <trkpt lat="42.88453" lon="1.19535">
        <ele>687.2</ele>
        <time>2025-06-22T10:44:23Z</time>
      </trkpt>
      <trkpt lat="42.88457" lon="1.19544">
        <ele>687.2</ele>
        <time>2025-06-22T10:44:26Z</time>
      </trkpt>
      <trkpt lat="42.88465" lon="1.1957">
        <ele>687.2</ele>
        <time>2025-06-22T10:44:33Z</time>
      </trkpt>
      <trkpt lat="42.8847" lon="1.19592">
        <ele>687.2</ele>
        <time>2025-06-22T10:44:39Z</time>
      </trkpt>
      <trkpt lat="42.8847" lon="1.19596">
        <ele>687.6</ele>
        <time>2025-06-22T10:44:40Z</time>
      </trkpt>
      <trkpt lat="42.88471" lon="1.196">
        <ele>688</ele>
        <time>2025-06-22T10:44:41Z</time>
      </trkpt>
      <trkpt lat="42.88471" lon="1.19604">
        <ele>688.4</ele>
        <time>2025-06-22T10:44:42Z</time>
      </trkpt>
      <trkpt lat="42.88471" lon="1.19608">
        <ele>689</ele>
        <time>2025-06-22T10:44:43Z</time>
      </trkpt>
      <trkpt lat="42.88469" lon="1.19611">
        <ele>689.4</ele>
        <time>2025-06-22T10:44:44Z</time>
      </trkpt>
      <trkpt lat="42.88464" lon="1.19615">
        <ele>689.4</ele>
        <time>2025-06-22T10:44:47Z</time>
      </trkpt>
      <trkpt lat="42.88459" lon="1.19616">
        <ele>689.4</ele>
        <time>2025-06-22T10:44:51Z</time>
      </trkpt>
      <trkpt lat="42.88457" lon="1.19617">
        <ele>689.4</ele>
        <time>2025-06-22T10:44:57Z</time>
      </trkpt>
      <trkpt lat="42.88455" lon="1.19617">
        <ele>689.4</ele>
        <time>2025-06-22T10:44:58Z</time>
      </trkpt>
      <trkpt lat="42.88455" lon="1.19618">
        <ele>689.4</ele>
        <time>2025-06-22T10:44:59Z</time>
      </trkpt>
      <trkpt lat="42.88454" lon="1.19618">
        <ele>689.4</ele>
        <time>2025-06-22T10:45:00Z</time>
      </trkpt>
      <trkpt lat="42.88453" lon="1.19621">
        <ele>689.4</ele>
        <time>2025-06-22T10:45:01Z</time>
      </trkpt>
      <trkpt lat="42.88453" lon="1.19623">
        <ele>689</ele>
        <time>2025-06-22T10:45:02Z</time>
      </trkpt>
      <trkpt lat="42.88452" lon="1.19626">
        <ele>688.6</ele>
        <time>2025-06-22T10:45:03Z</time>
      </trkpt>
      <trkpt lat="42.88453" lon="1.1963">
        <ele>688.2</ele>
        <time>2025-06-22T10:45:04Z</time>
      </trkpt>
      <trkpt lat="42.88453" lon="1.19634">
        <ele>687.8</ele>
        <time>2025-06-22T10:45:05Z</time>
      </trkpt>
      <trkpt lat="42.88453" lon="1.19638">
        <ele>687.4</ele>
        <time>2025-06-22T10:45:06Z</time>
      </trkpt>
      <trkpt lat="42.88455" lon="1.19645">
        <ele>687.4</ele>
        <time>2025-06-22T10:45:08Z</time>
      </trkpt>
      <trkpt lat="42.88456" lon="1.1966">
        <ele>687.4</ele>
        <time>2025-06-22T10:45:12Z</time>
      </trkpt>
      <trkpt lat="42.88457" lon="1.19673">
        <ele>687.4</ele>
        <time>2025-06-22T10:45:16Z</time>
      </trkpt>
      <trkpt lat="42.88453" lon="1.19687">
        <ele>687.4</ele>
        <time>2025-06-22T10:45:20Z</time>
      </trkpt>
      <trkpt lat="42.88453" lon="1.19691">
        <ele>687.4</ele>
        <time>2025-06-22T10:45:21Z</time>
      </trkpt>
      <trkpt lat="42.8845" lon="1.19702">
        <ele>687.8</ele>
        <time>2025-06-22T10:45:24Z</time>
      </trkpt>
      <trkpt lat="42.88449" lon="1.19705">
        <ele>688.2</ele>
        <time>2025-06-22T10:45:25Z</time>
      </trkpt>
      <trkpt lat="42.88448" lon="1.19707">
        <ele>689</ele>
        <time>2025-06-22T10:45:26Z</time>
      </trkpt>
      <trkpt lat="42.88447" lon="1.1971">
        <ele>689.4</ele>
        <time>2025-06-22T10:45:27Z</time>
      </trkpt>
      <trkpt lat="42.88446" lon="1.19719">
        <ele>689.4</ele>
        <time>2025-06-22T10:45:31Z</time>
      </trkpt>
      <trkpt lat="42.88443" lon="1.19734">
        <ele>689.4</ele>
        <time>2025-06-22T10:45:36Z</time>
      </trkpt>
      <trkpt lat="42.8844" lon="1.19747">
        <ele>689.4</ele>
        <time>2025-06-22T10:45:42Z</time>
      </trkpt>
      <trkpt lat="42.88439" lon="1.1975">
        <ele>689.4</ele>
        <time>2025-06-22T10:46:03Z</time>
      </trkpt>
      <trkpt lat="42.88439" lon="1.19751">
        <ele>689.4</ele>
        <time>2025-06-22T10:46:04Z</time>
      </trkpt>
      <trkpt lat="42.88438" lon="1.19754">
        <ele>689.4</ele>
        <time>2025-06-22T10:46:12Z</time>
      </trkpt>
      <trkpt lat="42.88434" lon="1.19759">
        <ele>689.4</ele>
        <time>2025-06-22T10:46:14Z</time>
      </trkpt>
      <trkpt lat="42.88428" lon="1.19761">
        <ele>689.4</ele>
        <time>2025-06-22T10:46:16Z</time>
      </trkpt>
      <trkpt lat="42.88421" lon="1.19763">
        <ele>688.8</ele>
        <time>2025-06-22T10:46:18Z</time>
      </trkpt>
      <trkpt lat="42.88418" lon="1.19764">
        <ele>688.4</ele>
        <time>2025-06-22T10:46:19Z</time>
      </trkpt>
      <trkpt lat="42.88415" lon="1.19765">
        <ele>687.8</ele>
        <time>2025-06-22T10:46:20Z</time>
      </trkpt>
      <trkpt lat="42.88413" lon="1.19765">
        <ele>687.2</ele>
        <time>2025-06-22T10:46:21Z</time>
      </trkpt>
      <trkpt lat="42.8841" lon="1.19765">
        <ele>686.4</ele>
        <time>2025-06-22T10:46:22Z</time>
      </trkpt>
      <trkpt lat="42.88407" lon="1.19767">
        <ele>685.6</ele>
        <time>2025-06-22T10:46:23Z</time>
      </trkpt>
      <trkpt lat="42.88403" lon="1.19769">
        <ele>684.8</ele>
        <time>2025-06-22T10:46:24Z</time>
      </trkpt>
      <trkpt lat="42.88399" lon="1.19771">
        <ele>684</ele>
        <time>2025-06-22T10:46:25Z</time>
      </trkpt>
      <trkpt lat="42.88396" lon="1.19772">
        <ele>683.2</ele>
        <time>2025-06-22T10:46:26Z</time>
      </trkpt>
      <trkpt lat="42.88393" lon="1.19773">
        <ele>682.2</ele>
        <time>2025-06-22T10:46:27Z</time>
      </trkpt>
      <trkpt lat="42.88391" lon="1.19773">
        <ele>681.4</ele>
        <time>2025-06-22T10:46:28Z</time>
      </trkpt>
      <trkpt lat="42.88389" lon="1.19774">
        <ele>680.4</ele>
        <time>2025-06-22T10:46:29Z</time>
      </trkpt>
      <trkpt lat="42.88387" lon="1.19774">
        <ele>679.6</ele>
        <time>2025-06-22T10:46:30Z</time>
      </trkpt>
      <trkpt lat="42.88385" lon="1.19773">
        <ele>678.8</ele>
        <time>2025-06-22T10:46:31Z</time>
      </trkpt>
      <trkpt lat="42.88382" lon="1.19772">
        <ele>678</ele>
        <time>2025-06-22T10:46:32Z</time>
      </trkpt>
      <trkpt lat="42.88379" lon="1.19771">
        <ele>677.2</ele>
        <time>2025-06-22T10:46:33Z</time>
      </trkpt>
      <trkpt lat="42.88377" lon="1.1977">
        <ele>676.4</ele>
        <time>2025-06-22T10:46:34Z</time>
      </trkpt>
      <trkpt lat="42.88374" lon="1.19768">
        <ele>675.8</ele>
        <time>2025-06-22T10:46:35Z</time>
      </trkpt>
      <trkpt lat="42.88373" lon="1.19767">
        <ele>675</ele>
        <time>2025-06-22T10:46:36Z</time>
      </trkpt>
      <trkpt lat="42.88372" lon="1.19765">
        <ele>674.2</ele>
        <time>2025-06-22T10:46:37Z</time>
      </trkpt>
      <trkpt lat="42.8837" lon="1.19763">
        <ele>673.4</ele>
        <time>2025-06-22T10:46:38Z</time>
      </trkpt>
      <trkpt lat="42.88369" lon="1.19761">
        <ele>672.6</ele>
        <time>2025-06-22T10:46:39Z</time>
      </trkpt>
      <trkpt lat="42.88368" lon="1.1976">
        <ele>671.8</ele>
        <time>2025-06-22T10:46:40Z</time>
      </trkpt>
      <trkpt lat="42.88367" lon="1.19758">
        <ele>670.4</ele>
        <time>2025-06-22T10:46:41Z</time>
      </trkpt>
      <trkpt lat="42.88367" lon="1.19758">
        <ele>669.8</ele>
        <time>2025-06-22T10:46:42Z</time>
      </trkpt>
      <trkpt lat="42.88365" lon="1.19756">
        <ele>668.4</ele>
        <time>2025-06-22T10:46:45Z</time>
      </trkpt>
      <trkpt lat="42.88363" lon="1.19753">
        <ele>668.4</ele>
        <time>2025-06-22T10:46:46Z</time>
      </trkpt>
      <trkpt lat="42.8836" lon="1.19751">
        <ele>668</ele>
        <time>2025-06-22T10:46:47Z</time>
      </trkpt>
      <trkpt lat="42.88358" lon="1.19748">
        <ele>667.6</ele>
        <time>2025-06-22T10:46:48Z</time>
      </trkpt>
      <trkpt lat="42.88356" lon="1.19745">
        <ele>667</ele>
        <time>2025-06-22T10:46:49Z</time>
      </trkpt>
      <trkpt lat="42.88354" lon="1.19743">
        <ele>666.4</ele>
        <time>2025-06-22T10:46:50Z</time>
      </trkpt>
      <trkpt lat="42.88353" lon="1.19741">
        <ele>665.8</ele>
        <time>2025-06-22T10:46:51Z</time>
      </trkpt>
      <trkpt lat="42.88351" lon="1.19738">
        <ele>665.2</ele>
        <time>2025-06-22T10:46:52Z</time>
      </trkpt>
      <trkpt lat="42.88349" lon="1.19735">
        <ele>664.6</ele>
        <time>2025-06-22T10:46:53Z</time>
      </trkpt>
      <trkpt lat="42.88346" lon="1.19734">
        <ele>664</ele>
        <time>2025-06-22T10:46:54Z</time>
      </trkpt>
      <trkpt lat="42.88344" lon="1.19733">
        <ele>663.4</ele>
        <time>2025-06-22T10:46:55Z</time>
      </trkpt>
      <trkpt lat="42.88342" lon="1.19732">
        <ele>663</ele>
        <time>2025-06-22T10:46:56Z</time>
      </trkpt>
      <trkpt lat="42.88339" lon="1.19731">
        <ele>662.4</ele>
        <time>2025-06-22T10:46:57Z</time>
      </trkpt>
      <trkpt lat="42.88336" lon="1.19729">
        <ele>661.8</ele>
        <time>2025-06-22T10:46:58Z</time>
      </trkpt>
      <trkpt lat="42.88333" lon="1.19728">
        <ele>661.2</ele>
        <time>2025-06-22T10:46:59Z</time>
      </trkpt>
      <trkpt lat="42.88331" lon="1.19728">
        <ele>660.6</ele>
        <time>2025-06-22T10:47:00Z</time>
      </trkpt>
      <trkpt lat="42.8833" lon="1.19727">
        <ele>660</ele>
        <time>2025-06-22T10:47:01Z</time>
      </trkpt>
      <trkpt lat="42.8833" lon="1.19727">
        <ele>659.2</ele>
        <time>2025-06-22T10:47:02Z</time>
      </trkpt>
      <trkpt lat="42.88326" lon="1.19724">
        <ele>655.2</ele>
        <time>2025-06-22T10:49:14Z</time>
      </trkpt>
      <trkpt lat="42.88325" lon="1.19723">
        <ele>654.8</ele>
        <time>2025-06-22T10:49:15Z</time>
      </trkpt>
      <trkpt lat="42.88323" lon="1.19722">
        <ele>654.2</ele>
        <time>2025-06-22T10:49:16Z</time>
      </trkpt>
      <trkpt lat="42.88321" lon="1.19722">
        <ele>653.8</ele>
        <time>2025-06-22T10:49:17Z</time>
      </trkpt>
      <trkpt lat="42.88318" lon="1.19724">
        <ele>653.4</ele>
        <time>2025-06-22T10:49:18Z</time>
      </trkpt>
      <trkpt lat="42.88318" lon="1.19725">
        <ele>652.8</ele>
        <time>2025-06-22T10:49:19Z</time>
      </trkpt>
      <trkpt lat="42.88317" lon="1.19727">
        <ele>652.8</ele>
        <time>2025-06-22T10:49:20Z</time>
      </trkpt>
      <trkpt lat="42.88313" lon="1.19746">
        <ele>652.8</ele>
        <time>2025-06-22T10:49:26Z</time>
      </trkpt>
      <trkpt lat="42.88304" lon="1.19771">
        <ele>652.8</ele>
        <time>2025-06-22T10:49:33Z</time>
      </trkpt>
      <trkpt lat="42.88302" lon="1.19794">
        <ele>652.4</ele>
        <time>2025-06-22T10:49:38Z</time>
      </trkpt>
      <trkpt lat="42.88303" lon="1.198">
        <ele>652</ele>
        <time>2025-06-22T10:49:39Z</time>
      </trkpt>
      <trkpt lat="42.88304" lon="1.19805">
        <ele>651.6</ele>
        <time>2025-06-22T10:49:40Z</time>
      </trkpt>
      <trkpt lat="42.88305" lon="1.19808">
        <ele>651.2</ele>
        <time>2025-06-22T10:49:41Z</time>
      </trkpt>
      <trkpt lat="42.88307" lon="1.19812">
        <ele>650.8</ele>
        <time>2025-06-22T10:49:42Z</time>
      </trkpt>
      <trkpt lat="42.88308" lon="1.19816">
        <ele>650.8</ele>
        <time>2025-06-22T10:49:43Z</time>
      </trkpt>
      <trkpt lat="42.88312" lon="1.19829">
        <ele>650.4</ele>
        <time>2025-06-22T10:49:46Z</time>
      </trkpt>
      <trkpt lat="42.88314" lon="1.19833">
        <ele>650</ele>
        <time>2025-06-22T10:49:47Z</time>
      </trkpt>
      <trkpt lat="42.88315" lon="1.19836">
        <ele>649.4</ele>
        <time>2025-06-22T10:49:48Z</time>
      </trkpt>
      <trkpt lat="42.88317" lon="1.19839">
        <ele>649</ele>
        <time>2025-06-22T10:49:49Z</time>
      </trkpt>
      <trkpt lat="42.88317" lon="1.19842">
        <ele>648.4</ele>
        <time>2025-06-22T10:49:50Z</time>
      </trkpt>
      <trkpt lat="42.88318" lon="1.19845">
        <ele>648</ele>
        <time>2025-06-22T10:49:51Z</time>
      </trkpt>
      <trkpt lat="42.88321" lon="1.1985">
        <ele>647.4</ele>
        <time>2025-06-22T10:49:52Z</time>
      </trkpt>
      <trkpt lat="42.88322" lon="1.19852">
        <ele>647</ele>
        <time>2025-06-22T10:49:53Z</time>
      </trkpt>
      <trkpt lat="42.88325" lon="1.19856">
        <ele>646.4</ele>
        <time>2025-06-22T10:49:54Z</time>
      </trkpt>
      <trkpt lat="42.88328" lon="1.19861">
        <ele>645.6</ele>
        <time>2025-06-22T10:49:55Z</time>
      </trkpt>
      <trkpt lat="42.88331" lon="1.19866">
        <ele>645</ele>
        <time>2025-06-22T10:49:56Z</time>
      </trkpt>
      <trkpt lat="42.88333" lon="1.1987">
        <ele>644.4</ele>
        <time>2025-06-22T10:49:57Z</time>
      </trkpt>
      <trkpt lat="42.88335" lon="1.19873">
        <ele>643.6</ele>
        <time>2025-06-22T10:49:58Z</time>
      </trkpt>
      <trkpt lat="42.88337" lon="1.19881">
        <ele>643.6</ele>
        <time>2025-06-22T10:50:00Z</time>
      </trkpt>
      <trkpt lat="42.88338" lon="1.19889">
        <ele>643.6</ele>
        <time>2025-06-22T10:50:02Z</time>
      </trkpt>
      <trkpt lat="42.88338" lon="1.19898">
        <ele>643.6</ele>
        <time>2025-06-22T10:50:04Z</time>
      </trkpt>
      <trkpt lat="42.88337" lon="1.19912">
        <ele>643.6</ele>
        <time>2025-06-22T10:50:07Z</time>
      </trkpt>
      <trkpt lat="42.88337" lon="1.19924">
        <ele>643.6</ele>
        <time>2025-06-22T10:50:10Z</time>
      </trkpt>
      <trkpt lat="42.88333" lon="1.19943">
        <ele>643.2</ele>
        <time>2025-06-22T10:50:14Z</time>
      </trkpt>
      <trkpt lat="42.88331" lon="1.19947">
        <ele>642.8</ele>
        <time>2025-06-22T10:50:15Z</time>
      </trkpt>
      <trkpt lat="42.88331" lon="1.19953">
        <ele>642.4</ele>
        <time>2025-06-22T10:50:16Z</time>
      </trkpt>
      <trkpt lat="42.8833" lon="1.19958">
        <ele>642</ele>
        <time>2025-06-22T10:50:17Z</time>
      </trkpt>
      <trkpt lat="42.88328" lon="1.19963">
        <ele>641.6</ele>
        <time>2025-06-22T10:50:18Z</time>
      </trkpt>
      <trkpt lat="42.88324" lon="1.19981">
        <ele>641.6</ele>
        <time>2025-06-22T10:50:21Z</time>
      </trkpt>
      <trkpt lat="42.88319" lon="1.20011">
        <ele>641</ele>
        <time>2025-06-22T10:50:26Z</time>
      </trkpt>
      <trkpt lat="42.88319" lon="1.20016">
        <ele>640.6</ele>
        <time>2025-06-22T10:50:27Z</time>
      </trkpt>
      <trkpt lat="42.8832" lon="1.20021">
        <ele>640.2</ele>
        <time>2025-06-22T10:50:28Z</time>
      </trkpt>
      <trkpt lat="42.88322" lon="1.20024">
        <ele>639.6</ele>
        <time>2025-06-22T10:50:29Z</time>
      </trkpt>
      <trkpt lat="42.88323" lon="1.20027">
        <ele>639.2</ele>
        <time>2025-06-22T10:50:30Z</time>
      </trkpt>
      <trkpt lat="42.88324" lon="1.2003">
        <ele>638.6</ele>
        <time>2025-06-22T10:50:31Z</time>
      </trkpt>
      <trkpt lat="42.88324" lon="1.20033">
        <ele>638</ele>
        <time>2025-06-22T10:50:32Z</time>
      </trkpt>
      <trkpt lat="42.88325" lon="1.20035">
        <ele>637.6</ele>
        <time>2025-06-22T10:50:33Z</time>
      </trkpt>
      <trkpt lat="42.88326" lon="1.20039">
        <ele>637</ele>
        <time>2025-06-22T10:50:34Z</time>
      </trkpt>
      <trkpt lat="42.88326" lon="1.20046">
        <ele>636.6</ele>
        <time>2025-06-22T10:50:36Z</time>
      </trkpt>
      <trkpt lat="42.88327" lon="1.2005">
        <ele>636.2</ele>
        <time>2025-06-22T10:50:37Z</time>
      </trkpt>
      <trkpt lat="42.88328" lon="1.20053">
        <ele>635.8</ele>
        <time>2025-06-22T10:50:38Z</time>
      </trkpt>
      <trkpt lat="42.88328" lon="1.20058">
        <ele>635.4</ele>
        <time>2025-06-22T10:50:39Z</time>
      </trkpt>
      <trkpt lat="42.88328" lon="1.20065">
        <ele>635</ele>
        <time>2025-06-22T10:50:40Z</time>
      </trkpt>
      <trkpt lat="42.88328" lon="1.20076">
        <ele>635</ele>
        <time>2025-06-22T10:50:42Z</time>
      </trkpt>
      <trkpt lat="42.8833" lon="1.20091">
        <ele>635</ele>
        <time>2025-06-22T10:50:45Z</time>
      </trkpt>
      <trkpt lat="42.8833" lon="1.20095">
        <ele>635</ele>
        <time>2025-06-22T10:51:09Z</time>
      </trkpt>
      <trkpt lat="42.88333" lon="1.20115">
        <ele>635</ele>
        <time>2025-06-22T10:51:13Z</time>
      </trkpt>
      <trkpt lat="42.88335" lon="1.2012">
        <ele>635</ele>
        <time>2025-06-22T10:51:14Z</time>
      </trkpt>
      <trkpt lat="42.88341" lon="1.20131">
        <ele>635.4</ele>
        <time>2025-06-22T10:51:17Z</time>
      </trkpt>
      <trkpt lat="42.88342" lon="1.20135">
        <ele>635.8</ele>
        <time>2025-06-22T10:51:18Z</time>
      </trkpt>
      <trkpt lat="42.88344" lon="1.20138">
        <ele>636.4</ele>
        <time>2025-06-22T10:51:19Z</time>
      </trkpt>
      <trkpt lat="42.88346" lon="1.20142">
        <ele>636.8</ele>
        <time>2025-06-22T10:51:20Z</time>
      </trkpt>
      <trkpt lat="42.88347" lon="1.20144">
        <ele>637.2</ele>
        <time>2025-06-22T10:51:21Z</time>
      </trkpt>
      <trkpt lat="42.88353" lon="1.20155">
        <ele>637.2</ele>
        <time>2025-06-22T10:51:25Z</time>
      </trkpt>
      <trkpt lat="42.88359" lon="1.20162">
        <ele>637.2</ele>
        <time>2025-06-22T10:51:29Z</time>
      </trkpt>
      <trkpt lat="42.88366" lon="1.20175">
        <ele>637.2</ele>
        <time>2025-06-22T10:51:34Z</time>
      </trkpt>
      <trkpt lat="42.8837" lon="1.20185">
        <ele>636.8</ele>
        <time>2025-06-22T10:51:37Z</time>
      </trkpt>
      <trkpt lat="42.8837" lon="1.20187">
        <ele>636.2</ele>
        <time>2025-06-22T10:51:38Z</time>
      </trkpt>
      <trkpt lat="42.88371" lon="1.20189">
        <ele>635.8</ele>
        <time>2025-06-22T10:51:39Z</time>
      </trkpt>
      <trkpt lat="42.88371" lon="1.20192">
        <ele>635.4</ele>
        <time>2025-06-22T10:51:40Z</time>
      </trkpt>
      <trkpt lat="42.88371" lon="1.20195">
        <ele>634.8</ele>
        <time>2025-06-22T10:51:41Z</time>
      </trkpt>
      <trkpt lat="42.88371" lon="1.20198">
        <ele>634.2</ele>
        <time>2025-06-22T10:51:42Z</time>
      </trkpt>
      <trkpt lat="42.88371" lon="1.20202">
        <ele>633.8</ele>
        <time>2025-06-22T10:51:43Z</time>
      </trkpt>
      <trkpt lat="42.88372" lon="1.20205">
        <ele>633</ele>
        <time>2025-06-22T10:51:44Z</time>
      </trkpt>
      <trkpt lat="42.88372" lon="1.20208">
        <ele>632.4</ele>
        <time>2025-06-22T10:51:45Z</time>
      </trkpt>
      <trkpt lat="42.88373" lon="1.20213">
        <ele>631.6</ele>
        <time>2025-06-22T10:51:46Z</time>
      </trkpt>
      <trkpt lat="42.88375" lon="1.20218">
        <ele>631</ele>
        <time>2025-06-22T10:51:47Z</time>
      </trkpt>
      <trkpt lat="42.88376" lon="1.20222">
        <ele>630.2</ele>
        <time>2025-06-22T10:51:48Z</time>
      </trkpt>
      <trkpt lat="42.88376" lon="1.20225">
        <ele>629.4</ele>
        <time>2025-06-22T10:51:49Z</time>
      </trkpt>
      <trkpt lat="42.88377" lon="1.20229">
        <ele>628.6</ele>
        <time>2025-06-22T10:51:50Z</time>
      </trkpt>
      <trkpt lat="42.88377" lon="1.20233">
        <ele>627.6</ele>
        <time>2025-06-22T10:51:51Z</time>
      </trkpt>
      <trkpt lat="42.88378" lon="1.20237">
        <ele>626.8</ele>
        <time>2025-06-22T10:51:52Z</time>
      </trkpt>
      <trkpt lat="42.88379" lon="1.20241">
        <ele>626</ele>
        <time>2025-06-22T10:51:53Z</time>
      </trkpt>
      <trkpt lat="42.88381" lon="1.20246">
        <ele>625.2</ele>
        <time>2025-06-22T10:51:54Z</time>
      </trkpt>
      <trkpt lat="42.88381" lon="1.20249">
        <ele>624.2</ele>
        <time>2025-06-22T10:51:55Z</time>
      </trkpt>
      <trkpt lat="42.88382" lon="1.20253">
        <ele>623.4</ele>
        <time>2025-06-22T10:51:56Z</time>
      </trkpt>
      <trkpt lat="42.88382" lon="1.20255">
        <ele>622.4</ele>
        <time>2025-06-22T10:51:57Z</time>
      </trkpt>
      <trkpt lat="42.88383" lon="1.20259">
        <ele>621.6</ele>
        <time>2025-06-22T10:51:58Z</time>
      </trkpt>
      <trkpt lat="42.88383" lon="1.20263">
        <ele>620.6</ele>
        <time>2025-06-22T10:51:59Z</time>
      </trkpt>
      <trkpt lat="42.88384" lon="1.20268">
        <ele>619.8</ele>
        <time>2025-06-22T10:52:00Z</time>
      </trkpt>
      <trkpt lat="42.88385" lon="1.20272">
        <ele>618</ele>
        <time>2025-06-22T10:52:01Z</time>
      </trkpt>
      <trkpt lat="42.88386" lon="1.20274">
        <ele>617</ele>
        <time>2025-06-22T10:52:02Z</time>
      </trkpt>
      <trkpt lat="42.88387" lon="1.20278">
        <ele>616.2</ele>
        <time>2025-06-22T10:52:03Z</time>
      </trkpt>
      <trkpt lat="42.88389" lon="1.20282">
        <ele>615.2</ele>
        <time>2025-06-22T10:52:04Z</time>
      </trkpt>
      <trkpt lat="42.88391" lon="1.20285">
        <ele>614.8</ele>
        <time>2025-06-22T10:52:05Z</time>
      </trkpt>
      <trkpt lat="42.88394" lon="1.20292">
        <ele>614.4</ele>
        <time>2025-06-22T10:52:06Z</time>
      </trkpt>
      <trkpt lat="42.88397" lon="1.20294">
        <ele>614</ele>
        <time>2025-06-22T10:52:07Z</time>
      </trkpt>
      <trkpt lat="42.884" lon="1.20295">
        <ele>613.4</ele>
        <time>2025-06-22T10:52:08Z</time>
      </trkpt>
      <trkpt lat="42.88402" lon="1.20296">
        <ele>613</ele>
        <time>2025-06-22T10:52:09Z</time>
      </trkpt>
      <trkpt lat="42.88406" lon="1.20296">
        <ele>612.6</ele>
        <time>2025-06-22T10:52:11Z</time>
      </trkpt>
      <trkpt lat="42.88409" lon="1.20296">
        <ele>612.2</ele>
        <time>2025-06-22T10:52:12Z</time>
      </trkpt>
      <trkpt lat="42.88412" lon="1.20296">
        <ele>611.6</ele>
        <time>2025-06-22T10:52:13Z</time>
      </trkpt>
      <trkpt lat="42.88414" lon="1.20295">
        <ele>611.2</ele>
        <time>2025-06-22T10:52:14Z</time>
      </trkpt>
      <trkpt lat="42.88417" lon="1.20293">
        <ele>610.8</ele>
        <time>2025-06-22T10:52:15Z</time>
      </trkpt>
      <trkpt lat="42.88419" lon="1.20292">
        <ele>610.8</ele>
        <time>2025-06-22T10:52:16Z</time>
      </trkpt>
      <trkpt lat="42.88422" lon="1.20292">
        <ele>610.8</ele>
        <time>2025-06-22T10:52:18Z</time>
      </trkpt>
      <trkpt lat="42.88428" lon="1.20288">
        <ele>610.8</ele>
        <time>2025-06-22T10:52:23Z</time>
      </trkpt>
      <trkpt lat="42.88431" lon="1.20286">
        <ele>610.8</ele>
        <time>2025-06-22T10:52:25Z</time>
      </trkpt>
      <trkpt lat="42.88432" lon="1.20286">
        <ele>610.4</ele>
        <time>2025-06-22T10:52:26Z</time>
      </trkpt>
      <trkpt lat="42.88433" lon="1.20286">
        <ele>609.8</ele>
        <time>2025-06-22T10:52:27Z</time>
      </trkpt>
      <trkpt lat="42.88434" lon="1.20286">
        <ele>609.4</ele>
        <time>2025-06-22T10:52:28Z</time>
      </trkpt>
      <trkpt lat="42.88435" lon="1.20288">
        <ele>608.6</ele>
        <time>2025-06-22T10:52:51Z</time>
      </trkpt>
      <trkpt lat="42.88435" lon="1.20292">
        <ele>608.6</ele>
        <time>2025-06-22T10:52:52Z</time>
      </trkpt>
      <trkpt lat="42.88436" lon="1.20296">
        <ele>608.2</ele>
        <time>2025-06-22T10:52:53Z</time>
      </trkpt>
      <trkpt lat="42.88436" lon="1.203">
        <ele>607.8</ele>
        <time>2025-06-22T10:52:54Z</time>
      </trkpt>
      <trkpt lat="42.88438" lon="1.20305">
        <ele>607.2</ele>
        <time>2025-06-22T10:52:55Z</time>
      </trkpt>
      <trkpt lat="42.88439" lon="1.20308">
        <ele>606.8</ele>
        <time>2025-06-22T10:52:56Z</time>
      </trkpt>
      <trkpt lat="42.88439" lon="1.20309">
        <ele>606.4</ele>
        <time>2025-06-22T10:52:57Z</time>
      </trkpt>
      <trkpt lat="42.88444" lon="1.20336">
        <ele>606.4</ele>
        <time>2025-06-22T11:05:16Z</time>
      </trkpt>
      <trkpt lat="42.88444" lon="1.20344">
        <ele>606.4</ele>
        <time>2025-06-22T11:05:18Z</time>
      </trkpt>
      <trkpt lat="42.88447" lon="1.20364">
        <ele>606.4</ele>
        <time>2025-06-22T11:05:22Z</time>
      </trkpt>
      <trkpt lat="42.88445" lon="1.20376">
        <ele>606</ele>
        <time>2025-06-22T11:05:24Z</time>
      </trkpt>
      <trkpt lat="42.88444" lon="1.20383">
        <ele>605.6</ele>
        <time>2025-06-22T11:05:25Z</time>
      </trkpt>
      <trkpt lat="42.88442" lon="1.2039">
        <ele>605.2</ele>
        <time>2025-06-22T11:05:26Z</time>
      </trkpt>
      <trkpt lat="42.8844" lon="1.20395">
        <ele>604.8</ele>
        <time>2025-06-22T11:05:27Z</time>
      </trkpt>
      <trkpt lat="42.88439" lon="1.204">
        <ele>604.2</ele>
        <time>2025-06-22T11:05:28Z</time>
      </trkpt>
      <trkpt lat="42.88431" lon="1.2043">
        <ele>604.2</ele>
        <time>2025-06-22T11:05:33Z</time>
      </trkpt>
      <trkpt lat="42.88429" lon="1.20441">
        <ele>603.8</ele>
        <time>2025-06-22T11:05:35Z</time>
      </trkpt>
      <trkpt lat="42.88427" lon="1.20447">
        <ele>603</ele>
        <time>2025-06-22T11:05:36Z</time>
      </trkpt>
      <trkpt lat="42.88426" lon="1.20455">
        <ele>602.6</ele>
        <time>2025-06-22T11:05:37Z</time>
      </trkpt>
      <trkpt lat="42.88425" lon="1.20461">
        <ele>602.2</ele>
        <time>2025-06-22T11:05:38Z</time>
      </trkpt>
      <trkpt lat="42.8842" lon="1.20494">
        <ele>602.2</ele>
        <time>2025-06-22T11:05:44Z</time>
      </trkpt>
      <trkpt lat="42.88421" lon="1.20505">
        <ele>602.6</ele>
        <time>2025-06-22T11:05:46Z</time>
      </trkpt>
      <trkpt lat="42.88423" lon="1.2051">
        <ele>603.2</ele>
        <time>2025-06-22T11:05:47Z</time>
      </trkpt>
      <trkpt lat="42.88423" lon="1.20514">
        <ele>603.6</ele>
        <time>2025-06-22T11:05:48Z</time>
      </trkpt>
      <trkpt lat="42.88424" lon="1.2052">
        <ele>604</ele>
        <time>2025-06-22T11:05:49Z</time>
      </trkpt>
      <trkpt lat="42.88425" lon="1.20525">
        <ele>604.4</ele>
        <time>2025-06-22T11:05:50Z</time>
      </trkpt>
      <trkpt lat="42.88427" lon="1.20539">
        <ele>604.8</ele>
        <time>2025-06-22T11:05:53Z</time>
      </trkpt>
      <trkpt lat="42.88429" lon="1.20544">
        <ele>605.2</ele>
        <time>2025-06-22T11:05:54Z</time>
      </trkpt>
      <trkpt lat="42.88429" lon="1.2055">
        <ele>605.8</ele>
        <time>2025-06-22T11:05:55Z</time>
      </trkpt>
      <trkpt lat="42.88431" lon="1.20556">
        <ele>606.2</ele>
        <time>2025-06-22T11:05:56Z</time>
      </trkpt>
      <trkpt lat="42.88433" lon="1.20562">
        <ele>606.6</ele>
        <time>2025-06-22T11:05:57Z</time>
      </trkpt>
      <trkpt lat="42.88437" lon="1.20577">
        <ele>606.6</ele>
        <time>2025-06-22T11:05:59Z</time>
      </trkpt>
      <trkpt lat="42.88439" lon="1.20585">
        <ele>606.6</ele>
        <time>2025-06-22T11:06:00Z</time>
      </trkpt>
      <trkpt lat="42.88442" lon="1.20594">
        <ele>605.6</ele>
        <time>2025-06-22T11:06:01Z</time>
      </trkpt>
      <trkpt lat="42.88445" lon="1.20603">
        <ele>605</ele>
        <time>2025-06-22T11:06:02Z</time>
      </trkpt>
      <trkpt lat="42.88448" lon="1.20614">
        <ele>604.4</ele>
        <time>2025-06-22T11:06:03Z</time>
      </trkpt>
      <trkpt lat="42.88451" lon="1.20624">
        <ele>603.8</ele>
        <time>2025-06-22T11:06:04Z</time>
      </trkpt>
      <trkpt lat="42.88454" lon="1.20632">
        <ele>603.2</ele>
        <time>2025-06-22T11:06:05Z</time>
      </trkpt>
      <trkpt lat="42.88456" lon="1.2064">
        <ele>602.6</ele>
        <time>2025-06-22T11:06:06Z</time>
      </trkpt>
      <trkpt lat="42.88457" lon="1.20645">
        <ele>602</ele>
        <time>2025-06-22T11:06:07Z</time>
      </trkpt>
      <trkpt lat="42.88458" lon="1.20648">
        <ele>601.4</ele>
        <time>2025-06-22T11:06:08Z</time>
      </trkpt>
      <trkpt lat="42.88459" lon="1.2065">
        <ele>600.8</ele>
        <time>2025-06-22T11:06:09Z</time>
      </trkpt>
      <trkpt lat="42.8846" lon="1.2065">
        <ele>600.2</ele>
        <time>2025-06-22T11:06:10Z</time>
      </trkpt>
      <trkpt lat="42.8846" lon="1.20653">
        <ele>599.8</ele>
        <time>2025-06-22T11:06:11Z</time>
      </trkpt>
      <trkpt lat="42.88463" lon="1.20661">
        <ele>599.2</ele>
        <time>2025-06-22T11:06:15Z</time>
      </trkpt>
      <trkpt lat="42.88464" lon="1.20662">
        <ele>599.2</ele>
        <time>2025-06-22T11:06:16Z</time>
      </trkpt>
      <trkpt lat="42.88464" lon="1.20664">
        <ele>599.2</ele>
        <time>2025-06-22T11:06:17Z</time>
      </trkpt>
      <trkpt lat="42.88466" lon="1.20669">
        <ele>599.2</ele>
        <time>2025-06-22T11:06:27Z</time>
      </trkpt>
      <trkpt lat="42.88468" lon="1.20672">
        <ele>599.2</ele>
        <time>2025-06-22T11:06:28Z</time>
      </trkpt>
      <trkpt lat="42.8847" lon="1.20673">
        <ele>599.2</ele>
        <time>2025-06-22T11:06:29Z</time>
      </trkpt>
      <trkpt lat="42.88475" lon="1.2067">
        <ele>598.8</ele>
        <time>2025-06-22T11:06:31Z</time>
      </trkpt>
      <trkpt lat="42.88477" lon="1.20667">
        <ele>598.4</ele>
        <time>2025-06-22T11:06:32Z</time>
      </trkpt>
      <trkpt lat="42.88478" lon="1.20663">
        <ele>598</ele>
        <time>2025-06-22T11:06:33Z</time>
      </trkpt>
      <trkpt lat="42.88479" lon="1.20661">
        <ele>597.6</ele>
        <time>2025-06-22T11:06:34Z</time>
      </trkpt>
      <trkpt lat="42.8848" lon="1.20658">
        <ele>597.2</ele>
        <time>2025-06-22T11:06:35Z</time>
      </trkpt>
      <trkpt lat="42.88482" lon="1.20656">
        <ele>597.2</ele>
        <time>2025-06-22T11:06:36Z</time>
      </trkpt>
      <trkpt lat="42.88484" lon="1.20651">
        <ele>596.6</ele>
        <time>2025-06-22T11:06:38Z</time>
      </trkpt>
      <trkpt lat="42.88487" lon="1.20648">
        <ele>596.2</ele>
        <time>2025-06-22T11:06:39Z</time>
      </trkpt>
      <trkpt lat="42.88488" lon="1.20645">
        <ele>595.8</ele>
        <time>2025-06-22T11:06:40Z</time>
      </trkpt>
      <trkpt lat="42.88489" lon="1.20643">
        <ele>595.4</ele>
        <time>2025-06-22T11:06:41Z</time>
      </trkpt>
      <trkpt lat="42.8849" lon="1.20641">
        <ele>595</ele>
        <time>2025-06-22T11:06:42Z</time>
      </trkpt>
      <trkpt lat="42.88491" lon="1.20639">
        <ele>595</ele>
        <time>2025-06-22T11:06:45Z</time>
      </trkpt>
      <trkpt lat="42.88493" lon="1.20641">
        <ele>594</ele>
        <time>2025-06-22T11:06:48Z</time>
      </trkpt>
      <trkpt lat="42.88495" lon="1.20642">
        <ele>593.6</ele>
        <time>2025-06-22T11:06:49Z</time>
      </trkpt>
      <trkpt lat="42.88496" lon="1.20644">
        <ele>592</ele>
        <time>2025-06-22T11:06:50Z</time>
      </trkpt>
      <trkpt lat="42.88497" lon="1.20646">
        <ele>591.2</ele>
        <time>2025-06-22T11:06:51Z</time>
      </trkpt>
      <trkpt lat="42.88498" lon="1.20649">
        <ele>590.2</ele>
        <time>2025-06-22T11:06:52Z</time>
      </trkpt>
      <trkpt lat="42.885" lon="1.20652">
        <ele>589.2</ele>
        <time>2025-06-22T11:06:53Z</time>
      </trkpt>
      <trkpt lat="42.88501" lon="1.20655">
        <ele>588.4</ele>
        <time>2025-06-22T11:06:54Z</time>
      </trkpt>
      <trkpt lat="42.88504" lon="1.2066">
        <ele>587.4</ele>
        <time>2025-06-22T11:06:55Z</time>
      </trkpt>
      <trkpt lat="42.88505" lon="1.20665">
        <ele>586.4</ele>
        <time>2025-06-22T11:06:56Z</time>
      </trkpt>
      <trkpt lat="42.88507" lon="1.20668">
        <ele>585.4</ele>
        <time>2025-06-22T11:06:57Z</time>
      </trkpt>
      <trkpt lat="42.88509" lon="1.20672">
        <ele>584.4</ele>
        <time>2025-06-22T11:06:58Z</time>
      </trkpt>
      <trkpt lat="42.8851" lon="1.20677">
        <ele>583.4</ele>
        <time>2025-06-22T11:06:59Z</time>
      </trkpt>
      <trkpt lat="42.8851" lon="1.20683">
        <ele>582.4</ele>
        <time>2025-06-22T11:07:00Z</time>
      </trkpt>
      <trkpt lat="42.8851" lon="1.20688">
        <ele>581.4</ele>
        <time>2025-06-22T11:07:01Z</time>
      </trkpt>
      <trkpt lat="42.88511" lon="1.20692">
        <ele>580.8</ele>
        <time>2025-06-22T11:07:02Z</time>
      </trkpt>
      <trkpt lat="42.88511" lon="1.20695">
        <ele>580.2</ele>
        <time>2025-06-22T11:07:03Z</time>
      </trkpt>
      <trkpt lat="42.88512" lon="1.207">
        <ele>579.4</ele>
        <time>2025-06-22T11:07:04Z</time>
      </trkpt>
      <trkpt lat="42.88513" lon="1.20704">
        <ele>578.8</ele>
        <time>2025-06-22T11:07:05Z</time>
      </trkpt>
      <trkpt lat="42.88514" lon="1.20707">
        <ele>578.2</ele>
        <time>2025-06-22T11:07:06Z</time>
      </trkpt>
      <trkpt lat="42.88516" lon="1.20718">
        <ele>577.8</ele>
        <time>2025-06-22T11:07:08Z</time>
      </trkpt>
      <trkpt lat="42.88518" lon="1.20724">
        <ele>577.2</ele>
        <time>2025-06-22T11:07:09Z</time>
      </trkpt>
      <trkpt lat="42.8852" lon="1.20731">
        <ele>576.8</ele>
        <time>2025-06-22T11:07:10Z</time>
      </trkpt>
      <trkpt lat="42.88521" lon="1.20738">
        <ele>576.4</ele>
        <time>2025-06-22T11:07:11Z</time>
      </trkpt>
      <trkpt lat="42.88522" lon="1.20746">
        <ele>575.8</ele>
        <time>2025-06-22T11:07:12Z</time>
      </trkpt>
      <trkpt lat="42.88522" lon="1.20755">
        <ele>575.4</ele>
        <time>2025-06-22T11:07:13Z</time>
      </trkpt>
      <trkpt lat="42.88523" lon="1.20762">
        <ele>574.8</ele>
        <time>2025-06-22T11:07:14Z</time>
      </trkpt>
      <trkpt lat="42.88524" lon="1.2077">
        <ele>574</ele>
        <time>2025-06-22T11:07:15Z</time>
      </trkpt>
      <trkpt lat="42.88525" lon="1.20776">
        <ele>573.4</ele>
        <time>2025-06-22T11:07:16Z</time>
      </trkpt>
      <trkpt lat="42.88526" lon="1.20781">
        <ele>572.8</ele>
        <time>2025-06-22T11:07:17Z</time>
      </trkpt>
      <trkpt lat="42.88528" lon="1.20786">
        <ele>572.2</ele>
        <time>2025-06-22T11:07:18Z</time>
      </trkpt>
      <trkpt lat="42.8853" lon="1.2079">
        <ele>571.6</ele>
        <time>2025-06-22T11:07:19Z</time>
      </trkpt>
      <trkpt lat="42.88532" lon="1.20794">
        <ele>571</ele>
        <time>2025-06-22T11:07:20Z</time>
      </trkpt>
      <trkpt lat="42.88533" lon="1.20796">
        <ele>570.4</ele>
        <time>2025-06-22T11:07:21Z</time>
      </trkpt>
      <trkpt lat="42.88535" lon="1.20798">
        <ele>569.8</ele>
        <time>2025-06-22T11:07:22Z</time>
      </trkpt>
      <trkpt lat="42.88537" lon="1.20799">
        <ele>569</ele>
        <time>2025-06-22T11:07:23Z</time>
      </trkpt>
      <trkpt lat="42.88539" lon="1.20801">
        <ele>568.4</ele>
        <time>2025-06-22T11:07:24Z</time>
      </trkpt>
      <trkpt lat="42.88541" lon="1.20803">
        <ele>567.4</ele>
        <time>2025-06-22T11:07:25Z</time>
      </trkpt>
      <trkpt lat="42.88543" lon="1.20805">
        <ele>566.6</ele>
        <time>2025-06-22T11:07:26Z</time>
      </trkpt>
      <trkpt lat="42.88545" lon="1.20807">
        <ele>565.6</ele>
        <time>2025-06-22T11:07:27Z</time>
      </trkpt>
      <trkpt lat="42.88548" lon="1.20809">
        <ele>564.6</ele>
        <time>2025-06-22T11:07:28Z</time>
      </trkpt>
      <trkpt lat="42.8855" lon="1.20812">
        <ele>563.6</ele>
        <time>2025-06-22T11:07:29Z</time>
      </trkpt>
      <trkpt lat="42.88552" lon="1.20816">
        <ele>562.4</ele>
        <time>2025-06-22T11:07:30Z</time>
      </trkpt>
      <trkpt lat="42.88555" lon="1.20819">
        <ele>561.4</ele>
        <time>2025-06-22T11:07:31Z</time>
      </trkpt>
      <trkpt lat="42.88557" lon="1.20823">
        <ele>560.4</ele>
        <time>2025-06-22T11:07:32Z</time>
      </trkpt>
      <trkpt lat="42.88559" lon="1.20827">
        <ele>559.4</ele>
        <time>2025-06-22T11:07:33Z</time>
      </trkpt>
      <trkpt lat="42.88561" lon="1.20831">
        <ele>558.4</ele>
        <time>2025-06-22T11:07:34Z</time>
      </trkpt>
      <trkpt lat="42.88562" lon="1.20833">
        <ele>557.6</ele>
        <time>2025-06-22T11:07:35Z</time>
      </trkpt>
      <trkpt lat="42.88563" lon="1.20834">
        <ele>556.8</ele>
        <time>2025-06-22T11:07:36Z</time>
      </trkpt>
      <trkpt lat="42.88565" lon="1.20833">
        <ele>556</ele>
        <time>2025-06-22T11:07:37Z</time>
      </trkpt>
      <trkpt lat="42.88567" lon="1.20832">
        <ele>555</ele>
        <time>2025-06-22T11:07:38Z</time>
      </trkpt>
      <trkpt lat="42.88569" lon="1.20832">
        <ele>553.2</ele>
        <time>2025-06-22T11:07:39Z</time>
      </trkpt>
      <trkpt lat="42.88571" lon="1.20834">
        <ele>552.2</ele>
        <time>2025-06-22T11:07:40Z</time>
      </trkpt>
      <trkpt lat="42.88573" lon="1.20836">
        <ele>551.2</ele>
        <time>2025-06-22T11:07:41Z</time>
      </trkpt>
      <trkpt lat="42.88575" lon="1.2084">
        <ele>550.2</ele>
        <time>2025-06-22T11:07:42Z</time>
      </trkpt>
      <trkpt lat="42.88577" lon="1.20844">
        <ele>549.2</ele>
        <time>2025-06-22T11:07:43Z</time>
      </trkpt>
      <trkpt lat="42.88578" lon="1.20849">
        <ele>548.2</ele>
        <time>2025-06-22T11:07:44Z</time>
      </trkpt>
      <trkpt lat="42.88581" lon="1.20855">
        <ele>547.2</ele>
        <time>2025-06-22T11:07:45Z</time>
      </trkpt>
      <trkpt lat="42.88584" lon="1.20861">
        <ele>546.2</ele>
        <time>2025-06-22T11:07:46Z</time>
      </trkpt>
      <trkpt lat="42.88588" lon="1.20867">
        <ele>545.2</ele>
        <time>2025-06-22T11:07:47Z</time>
      </trkpt>
      <trkpt lat="42.88591" lon="1.2087">
        <ele>544.4</ele>
        <time>2025-06-22T11:07:48Z</time>
      </trkpt>
      <trkpt lat="42.88595" lon="1.20874">
        <ele>543.4</ele>
        <time>2025-06-22T11:07:49Z</time>
      </trkpt>
      <trkpt lat="42.88598" lon="1.20878">
        <ele>542.6</ele>
        <time>2025-06-22T11:07:50Z</time>
      </trkpt>
      <trkpt lat="42.88601" lon="1.20881">
        <ele>541.8</ele>
        <time>2025-06-22T11:07:51Z</time>
      </trkpt>
      <trkpt lat="42.88606" lon="1.20893">
        <ele>541.2</ele>
        <time>2025-06-22T11:07:53Z</time>
      </trkpt>
      <trkpt lat="42.88607" lon="1.20898">
        <ele>540.8</ele>
        <time>2025-06-22T11:07:54Z</time>
      </trkpt>
      <trkpt lat="42.88609" lon="1.209">
        <ele>540.4</ele>
        <time>2025-06-22T11:07:55Z</time>
      </trkpt>
      <trkpt lat="42.88609" lon="1.20904">
        <ele>539.8</ele>
        <time>2025-06-22T11:07:56Z</time>
      </trkpt>
      <trkpt lat="42.8861" lon="1.20907">
        <ele>539.4</ele>
        <time>2025-06-22T11:07:57Z</time>
      </trkpt>
      <trkpt lat="42.88611" lon="1.20909">
        <ele>539</ele>
        <time>2025-06-22T11:07:59Z</time>
      </trkpt>
      <trkpt lat="42.88612" lon="1.2091">
        <ele>538.6</ele>
        <time>2025-06-22T11:08:00Z</time>
      </trkpt>
      <trkpt lat="42.88616" lon="1.20918">
        <ele>537.2</ele>
        <time>2025-06-22T11:08:11Z</time>
      </trkpt>
      <trkpt lat="42.88619" lon="1.20928">
        <ele>536.8</ele>
        <time>2025-06-22T11:08:14Z</time>
      </trkpt>
      <trkpt lat="42.88621" lon="1.2093">
        <ele>536.2</ele>
        <time>2025-06-22T11:08:15Z</time>
      </trkpt>
      <trkpt lat="42.88623" lon="1.20932">
        <ele>535.6</ele>
        <time>2025-06-22T11:08:16Z</time>
      </trkpt>
      <trkpt lat="42.88623" lon="1.20934">
        <ele>534.8</ele>
        <time>2025-06-22T11:08:17Z</time>
      </trkpt>
      <trkpt lat="42.88624" lon="1.20934">
        <ele>534</ele>
        <time>2025-06-22T11:08:18Z</time>
      </trkpt>
      <trkpt lat="42.88625" lon="1.20935">
        <ele>533.2</ele>
        <time>2025-06-22T11:08:19Z</time>
      </trkpt>
      <trkpt lat="42.88644" lon="1.20958">
        <ele>522.4</ele>
        <time>2025-06-22T11:13:42Z</time>
      </trkpt>
      <trkpt lat="42.88655" lon="1.20973">
        <ele>522</ele>
        <time>2025-06-22T11:13:46Z</time>
      </trkpt>
      <trkpt lat="42.88658" lon="1.20977">
        <ele>521.4</ele>
        <time>2025-06-22T11:13:47Z</time>
      </trkpt>
      <trkpt lat="42.8866" lon="1.2098">
        <ele>521</ele>
        <time>2025-06-22T11:13:48Z</time>
      </trkpt>
      <trkpt lat="42.88661" lon="1.20984">
        <ele>520</ele>
        <time>2025-06-22T11:13:49Z</time>
      </trkpt>
      <trkpt lat="42.88662" lon="1.20986">
        <ele>519.6</ele>
        <time>2025-06-22T11:13:50Z</time>
      </trkpt>
      <trkpt lat="42.88664" lon="1.20989">
        <ele>519.2</ele>
        <time>2025-06-22T11:13:51Z</time>
      </trkpt>
      <trkpt lat="42.88665" lon="1.20992">
        <ele>518.6</ele>
        <time>2025-06-22T11:13:52Z</time>
      </trkpt>
      <trkpt lat="42.88667" lon="1.20996">
        <ele>518.2</ele>
        <time>2025-06-22T11:13:53Z</time>
      </trkpt>
      <trkpt lat="42.88668" lon="1.20999">
        <ele>517.8</ele>
        <time>2025-06-22T11:13:54Z</time>
      </trkpt>
      <trkpt lat="42.88669" lon="1.21003">
        <ele>517.8</ele>
        <time>2025-06-22T11:13:55Z</time>
      </trkpt>
      <trkpt lat="42.88671" lon="1.21007">
        <ele>517.4</ele>
        <time>2025-06-22T11:13:56Z</time>
      </trkpt>
      <trkpt lat="42.88673" lon="1.21011">
        <ele>516.8</ele>
        <time>2025-06-22T11:13:57Z</time>
      </trkpt>
      <trkpt lat="42.88674" lon="1.21015">
        <ele>516.4</ele>
        <time>2025-06-22T11:13:58Z</time>
      </trkpt>
      <trkpt lat="42.88674" lon="1.21019">
        <ele>516</ele>
        <time>2025-06-22T11:13:59Z</time>
      </trkpt>
      <trkpt lat="42.88674" lon="1.21024">
        <ele>515.4</ele>
        <time>2025-06-22T11:14:00Z</time>
      </trkpt>
      <trkpt lat="42.88675" lon="1.2103">
        <ele>515.4</ele>
        <time>2025-06-22T11:14:01Z</time>
      </trkpt>
      <trkpt lat="42.88679" lon="1.21041">
        <ele>515</ele>
        <time>2025-06-22T11:14:03Z</time>
      </trkpt>
      <trkpt lat="42.88682" lon="1.21044">
        <ele>514.6</ele>
        <time>2025-06-22T11:14:04Z</time>
      </trkpt>
      <trkpt lat="42.88685" lon="1.21048">
        <ele>514.2</ele>
        <time>2025-06-22T11:14:05Z</time>
      </trkpt>
      <trkpt lat="42.88688" lon="1.21051">
        <ele>513.8</ele>
        <time>2025-06-22T11:14:06Z</time>
      </trkpt>
      <trkpt lat="42.88691" lon="1.21055">
        <ele>513.4</ele>
        <time>2025-06-22T11:14:07Z</time>
      </trkpt>
      <trkpt lat="42.88702" lon="1.21066">
        <ele>513</ele>
        <time>2025-06-22T11:14:10Z</time>
      </trkpt>
      <trkpt lat="42.88707" lon="1.21069">
        <ele>512.6</ele>
        <time>2025-06-22T11:14:11Z</time>
      </trkpt>
      <trkpt lat="42.88711" lon="1.21073">
        <ele>512.2</ele>
        <time>2025-06-22T11:14:12Z</time>
      </trkpt>
      <trkpt lat="42.88716" lon="1.21077">
        <ele>511.2</ele>
        <time>2025-06-22T11:14:13Z</time>
      </trkpt>
      <trkpt lat="42.8872" lon="1.2108">
        <ele>510.8</ele>
        <time>2025-06-22T11:14:14Z</time>
      </trkpt>
      <trkpt lat="42.88724" lon="1.21081">
        <ele>510.4</ele>
        <time>2025-06-22T11:14:15Z</time>
      </trkpt>
      <trkpt lat="42.88728" lon="1.21082">
        <ele>510</ele>
        <time>2025-06-22T11:14:16Z</time>
      </trkpt>
      <trkpt lat="42.88732" lon="1.2108">
        <ele>509.6</ele>
        <time>2025-06-22T11:14:17Z</time>
      </trkpt>
      <trkpt lat="42.88736" lon="1.21077">
        <ele>509.2</ele>
        <time>2025-06-22T11:14:18Z</time>
      </trkpt>
      <trkpt lat="42.88748" lon="1.21057">
        <ele>509.2</ele>
        <time>2025-06-22T11:14:23Z</time>
      </trkpt>
      <trkpt lat="42.88756" lon="1.2103">
        <ele>509.2</ele>
        <time>2025-06-22T11:14:29Z</time>
      </trkpt>
      <trkpt lat="42.88772" lon="1.21006">
        <ele>509.2</ele>
        <time>2025-06-22T11:14:35Z</time>
      </trkpt>
      <trkpt lat="42.88781" lon="1.20996">
        <ele>508.4</ele>
        <time>2025-06-22T11:14:38Z</time>
      </trkpt>
      <trkpt lat="42.88784" lon="1.20994">
        <ele>508</ele>
        <time>2025-06-22T11:14:39Z</time>
      </trkpt>
      <trkpt lat="42.88787" lon="1.20991">
        <ele>507.6</ele>
        <time>2025-06-22T11:14:40Z</time>
      </trkpt>
      <trkpt lat="42.8879" lon="1.20989">
        <ele>507.2</ele>
        <time>2025-06-22T11:14:41Z</time>
      </trkpt>
      <trkpt lat="42.8881" lon="1.20984">
        <ele>507.2</ele>
        <time>2025-06-22T11:14:46Z</time>
      </trkpt>
      <trkpt lat="42.88826" lon="1.20991">
        <ele>507.2</ele>
        <time>2025-06-22T11:14:51Z</time>
      </trkpt>
      <trkpt lat="42.88845" lon="1.21014">
        <ele>507.2</ele>
        <time>2025-06-22T11:14:57Z</time>
      </trkpt>
      <trkpt lat="42.88857" lon="1.2103">
        <ele>506.8</ele>
        <time>2025-06-22T11:15:01Z</time>
      </trkpt>
      <trkpt lat="42.8886" lon="1.21033">
        <ele>506.4</ele>
        <time>2025-06-22T11:15:02Z</time>
      </trkpt>
      <trkpt lat="42.88864" lon="1.21036">
        <ele>505.6</ele>
        <time>2025-06-22T11:15:03Z</time>
      </trkpt>
      <trkpt lat="42.88867" lon="1.21039">
        <ele>505.2</ele>
        <time>2025-06-22T11:15:04Z</time>
      </trkpt>
      <trkpt lat="42.88891" lon="1.21059">
        <ele>505.2</ele>
        <time>2025-06-22T11:15:11Z</time>
      </trkpt>
      <trkpt lat="42.88896" lon="1.21059">
        <ele>505.2</ele>
        <time>2025-06-22T11:15:12Z</time>
      </trkpt>
      <trkpt lat="42.88915" lon="1.21062">
        <ele>505.2</ele>
        <time>2025-06-22T11:15:16Z</time>
      </trkpt>
      <trkpt lat="42.8892" lon="1.21061">
        <ele>505.2</ele>
        <time>2025-06-22T11:15:17Z</time>
      </trkpt>
      <trkpt lat="42.88925" lon="1.21062">
        <ele>505.2</ele>
        <time>2025-06-22T11:15:18Z</time>
      </trkpt>
      <trkpt lat="42.8893" lon="1.21063">
        <ele>504.6</ele>
        <time>2025-06-22T11:15:19Z</time>
      </trkpt>
      <trkpt lat="42.88934" lon="1.21064">
        <ele>504.2</ele>
        <time>2025-06-22T11:15:20Z</time>
      </trkpt>
      <trkpt lat="42.88939" lon="1.21064">
        <ele>503.8</ele>
        <time>2025-06-22T11:15:21Z</time>
      </trkpt>
      <trkpt lat="42.88944" lon="1.21065">
        <ele>503.4</ele>
        <time>2025-06-22T11:15:22Z</time>
      </trkpt>
      <trkpt lat="42.88949" lon="1.21065">
        <ele>503</ele>
        <time>2025-06-22T11:15:23Z</time>
      </trkpt>
      <trkpt lat="42.88973" lon="1.21068">
        <ele>503</ele>
        <time>2025-06-22T11:15:28Z</time>
      </trkpt>
      <trkpt lat="42.88981" lon="1.2107">
        <ele>503</ele>
        <time>2025-06-22T11:15:30Z</time>
      </trkpt>
      <trkpt lat="42.89014" lon="1.21073">
        <ele>503</ele>
        <time>2025-06-22T11:15:38Z</time>
      </trkpt>
      <trkpt lat="42.8904" lon="1.21073">
        <ele>503</ele>
        <time>2025-06-22T11:15:45Z</time>
      </trkpt>
      <trkpt lat="42.89065" lon="1.21073">
        <ele>503</ele>
        <time>2025-06-22T11:15:52Z</time>
      </trkpt>
      <trkpt lat="42.89086" lon="1.21075">
        <ele>503</ele>
        <time>2025-06-22T11:15:58Z</time>
      </trkpt>
      <trkpt lat="42.89116" lon="1.2108">
        <ele>503</ele>
        <time>2025-06-22T11:16:06Z</time>
      </trkpt>
      <trkpt lat="42.89141" lon="1.21088">
        <ele>503</ele>
        <time>2025-06-22T11:16:13Z</time>
      </trkpt>
      <trkpt lat="42.89145" lon="1.2109">
        <ele>503</ele>
        <time>2025-06-22T11:16:14Z</time>
      </trkpt>
      <trkpt lat="42.89177" lon="1.21103">
        <ele>503</ele>
        <time>2025-06-22T11:16:21Z</time>
      </trkpt>
      <trkpt lat="42.89182" lon="1.21104">
        <ele>503</ele>
        <time>2025-06-22T11:16:22Z</time>
      </trkpt>
      <trkpt lat="42.89201" lon="1.21108">
        <ele>503</ele>
        <time>2025-06-22T11:16:26Z</time>
      </trkpt>
      <trkpt lat="42.89206" lon="1.21108">
        <ele>502.6</ele>
        <time>2025-06-22T11:16:27Z</time>
      </trkpt>
      <trkpt lat="42.89212" lon="1.21108">
        <ele>502.2</ele>
        <time>2025-06-22T11:16:28Z</time>
      </trkpt>
      <trkpt lat="42.89217" lon="1.2111">
        <ele>501.8</ele>
        <time>2025-06-22T11:16:29Z</time>
      </trkpt>
      <trkpt lat="42.89223" lon="1.21111">
        <ele>501.2</ele>
        <time>2025-06-22T11:16:30Z</time>
      </trkpt>
      <trkpt lat="42.89228" lon="1.21111">
        <ele>500.8</ele>
        <time>2025-06-22T11:16:31Z</time>
      </trkpt>
      <trkpt lat="42.89234" lon="1.21111">
        <ele>500.8</ele>
        <time>2025-06-22T11:16:32Z</time>
      </trkpt>
      <trkpt lat="42.89266" lon="1.21108">
        <ele>500.4</ele>
        <time>2025-06-22T11:16:37Z</time>
      </trkpt>
      <trkpt lat="42.89272" lon="1.21108">
        <ele>500</ele>
        <time>2025-06-22T11:16:38Z</time>
      </trkpt>
      <trkpt lat="42.89279" lon="1.21109">
        <ele>499.4</ele>
        <time>2025-06-22T11:16:39Z</time>
      </trkpt>
      <trkpt lat="42.89285" lon="1.2111">
        <ele>499</ele>
        <time>2025-06-22T11:16:40Z</time>
      </trkpt>
      <trkpt lat="42.89292" lon="1.21111">
        <ele>498.6</ele>
        <time>2025-06-22T11:16:41Z</time>
      </trkpt>
      <trkpt lat="42.89303" lon="1.21112">
        <ele>498.6</ele>
        <time>2025-06-22T11:16:43Z</time>
      </trkpt>
      <trkpt lat="42.89325" lon="1.21117">
        <ele>498.6</ele>
        <time>2025-06-22T11:16:47Z</time>
      </trkpt>
      <trkpt lat="42.8933" lon="1.21122">
        <ele>498.6</ele>
        <time>2025-06-22T11:16:48Z</time>
      </trkpt>
      <trkpt lat="42.89346" lon="1.21132">
        <ele>498.2</ele>
        <time>2025-06-22T11:16:51Z</time>
      </trkpt>
      <trkpt lat="42.89352" lon="1.21136">
        <ele>497.8</ele>
        <time>2025-06-22T11:16:52Z</time>
      </trkpt>
      <trkpt lat="42.89358" lon="1.2114">
        <ele>497.4</ele>
        <time>2025-06-22T11:16:53Z</time>
      </trkpt>
      <trkpt lat="42.89364" lon="1.21144">
        <ele>497</ele>
        <time>2025-06-22T11:16:54Z</time>
      </trkpt>
      <trkpt lat="42.8937" lon="1.21147">
        <ele>496.6</ele>
        <time>2025-06-22T11:16:55Z</time>
      </trkpt>
      <trkpt lat="42.89393" lon="1.21158">
        <ele>496.2</ele>
        <time>2025-06-22T11:16:59Z</time>
      </trkpt>
      <trkpt lat="42.89399" lon="1.2116">
        <ele>495.6</ele>
        <time>2025-06-22T11:17:00Z</time>
      </trkpt>
      <trkpt lat="42.89404" lon="1.21163">
        <ele>495.2</ele>
        <time>2025-06-22T11:17:01Z</time>
      </trkpt>
      <trkpt lat="42.89408" lon="1.21166">
        <ele>494.8</ele>
        <time>2025-06-22T11:17:02Z</time>
      </trkpt>
      <trkpt lat="42.8941" lon="1.21171">
        <ele>494.4</ele>
        <time>2025-06-22T11:17:03Z</time>
      </trkpt>
      <trkpt lat="42.89408" lon="1.21177">
        <ele>494.4</ele>
        <time>2025-06-22T11:17:04Z</time>
      </trkpt>
      <trkpt lat="42.894" lon="1.21178">
        <ele>494.4</ele>
        <time>2025-06-22T11:17:06Z</time>
      </trkpt>
      <trkpt lat="42.89394" lon="1.21178">
        <ele>494.4</ele>
        <time>2025-06-22T11:17:08Z</time>
      </trkpt>
      <trkpt lat="42.89393" lon="1.21178">
        <ele>494.4</ele>
        <time>2025-06-22T11:17:09Z</time>
      </trkpt>
    </trkseg>
  </trk>
</gpx>